Wetterdaten: Freitag, 29.12.2017
Datum Zeit Temp. A. Pool Temp. Feuchte A. Luftdruck Regen Wind Richtung Richtung Sonnenschein ET UV Solar Taupunkt Windchill Windben Empfang
29.12.2017 00:00 0,8 C 3,9 C 92 % 1006,3 hPa 0,0 l/m 22,5 km/h (4 Bft) W-SW 247 0 min 0,000 mm 0,0 UV-I 0 W/m -0,3 C -9,7 C 30,6 km/h (5 Bft) 100,00 %
29.12.2017 00:01 0,8 C 3,9 C 92 % 1006,3 hPa 0,0 l/m 16,1 km/h (3 Bft) W-SW 247 0 min 0,000 mm 0,0 UV-I 0 W/m -0,3 C -6,6 C 24,1 km/h (4 Bft) 91,30 %
29.12.2017 00:02 0,8 C 3,9 C 92 % 1006,4 hPa 0,0 l/m 14,5 km/h (3 Bft) W 270 0 min 0,000 mm 0,0 UV-I 0 W/m -0,3 C -5,7 C 20,9 km/h (4 Bft) 95,65 %
29.12.2017 00:03 0,8 C 3,9 C 92 % 1006,4 hPa 0,0 l/m 17,7 km/h (3 Bft) W-SW 247 0 min 0,000 mm 0,0 UV-I 0 W/m -0,3 C -7,5 C 27,4 km/h (4 Bft) 100,00 %
29.12.2017 00:04 0,8 C 3,9 C 92 % 1006,4 hPa 0,0 l/m 17,7 km/h (3 Bft) W-SW 247 0 min 0,000 mm 0,0 UV-I 0 W/m -0,3 C -7,5 C 24,1 km/h (4 Bft) 100,00 %
29.12.2017 00:05 0,8 C 3,9 C 92 % 1006,4 hPa 0,0 l/m 20,9 km/h (4 Bft) W-SW 247 0 min 0,000 mm 0,0 UV-I 0 W/m -0,3 C -9,0 C 29,0 km/h (5 Bft) 95,65 %
29.12.2017 00:06 0,8 C 3,9 C 92 % 1006,5 hPa 0,0 l/m 16,1 km/h (3 Bft) W 270 0 min 0,000 mm 0,0 UV-I 0 W/m -0,3 C -6,6 C 19,3 km/h (3 Bft) 100,00 %
29.12.2017 00:07 0,8 C 3,9 C 92 % 1006,5 hPa 0,0 l/m 19,3 km/h (3 Bft) W-SW 247 0 min 0,000 mm 0,0 UV-I 0 W/m -0,3 C -8,3 C 29,0 km/h (5 Bft) 95,65 %
29.12.2017 00:08 0,8 C 3,9 C 92 % 1006,5 hPa 0,0 l/m 20,9 km/h (4 Bft) W-SW 247 0 min 0,000 mm 0,0 UV-I 0 W/m -0,3 C -9,0 C 33,8 km/h (5 Bft) 100,00 %
29.12.2017 00:09 0,8 C 3,9 C 92 % 1006,5 hPa 0,0 l/m 16,1 km/h (3 Bft) W-SW 247 0 min 0,000 mm 0,0 UV-I 0 W/m -0,3 C -6,6 C 20,9 km/h (4 Bft) 100,00 %
29.12.2017 00:10 0,8 C 3,9 C 92 % 1006,5 hPa 0,0 l/m 17,7 km/h (3 Bft) W 270 0 min 0,000 mm 0,0 UV-I 0 W/m -0,3 C -7,5 C 25,7 km/h (4 Bft) 100,00 %
29.12.2017 00:11 0,8 C 3,9 C 92 % 1006,5 hPa 0,0 l/m 16,1 km/h (3 Bft) W 270 0 min 0,000 mm 0,0 UV-I 0 W/m -0,3 C -6,6 C 22,5 km/h (4 Bft) 95,65 %
29.12.2017 00:12 0,8 C 3,9 C 92 % 1006,5 hPa 0,0 l/m 14,5 km/h (3 Bft) W 270 0 min 0,000 mm 0,0 UV-I 0 W/m -0,3 C -5,7 C 25,7 km/h (4 Bft) 95,65 %
29.12.2017 00:13 0,8 C 3,9 C 92 % 1006,5 hPa 0,0 l/m 14,5 km/h (3 Bft) W-SW 247 0 min 0,000 mm 0,0 UV-I 0 W/m -0,3 C -5,7 C 19,3 km/h (3 Bft) 100,00 %
29.12.2017 00:14 0,8 C 3,9 C 92 % 1006,6 hPa 0,0 l/m 16,1 km/h (3 Bft) W-SW 247 0 min 0,000 mm 0,0 UV-I 0 W/m -0,3 C -6,6 C 19,3 km/h (3 Bft) 100,00 %
29.12.2017 00:15 0,7 C 3,9 C 92 % 1006,6 hPa 0,0 l/m 19,3 km/h (3 Bft) W-SW 247 0 min 0,000 mm 0,0 UV-I 0 W/m -0,4 C -8,4 C 24,1 km/h (4 Bft) 95,65 %
29.12.2017 00:16 0,8 C 3,9 C 92 % 1006,6 hPa 0,0 l/m 17,7 km/h (3 Bft) W 270 0 min 0,000 mm 0,0 UV-I 0 W/m -0,3 C -7,5 C 32,2 km/h (5 Bft) 100,00 %
29.12.2017 00:17 0,8 C 3,9 C 92 % 1006,6 hPa 0,0 l/m 17,7 km/h (3 Bft) W 270 0 min 0,000 mm 0,0 UV-I 0 W/m -0,3 C -7,5 C 24,1 km/h (4 Bft) 95,65 %
29.12.2017 00:18 0,8 C 3,9 C 92 % 1006,6 hPa 0,0 l/m 20,9 km/h (4 Bft) W-SW 247 0 min 0,000 mm 0,0 UV-I 0 W/m -0,3 C -9,0 C 27,4 km/h (4 Bft) 100,00 %
29.12.2017 00:19 0,8 C 3,9 C 92 % 1006,6 hPa 0,0 l/m 14,5 km/h (3 Bft) W-SW 247 0 min 0,000 mm 0,0 UV-I 0 W/m -0,3 C -5,7 C 27,4 km/h (4 Bft) 95,65 %
29.12.2017 00:20 0,8 C 3,9 C 92 % 1006,6 hPa 0,0 l/m 14,5 km/h (3 Bft) W-SW 247 0 min 0,000 mm 0,0 UV-I 0 W/m -0,3 C -5,7 C 20,9 km/h (4 Bft) 100,00 %
29.12.2017 00:21 0,8 C 3,9 C 92 % 1006,7 hPa 0,0 l/m 19,3 km/h (3 Bft) W-SW 247 0 min 0,000 mm 0,0 UV-I 0 W/m -0,3 C -8,3 C 30,6 km/h (5 Bft) 100,00 %
29.12.2017 00:22 0,8 C 3,9 C 92 % 1006,6 hPa 0,0 l/m 19,3 km/h (3 Bft) W-SW 247 0 min 0,000 mm 0,0 UV-I 0 W/m -0,3 C -8,3 C 27,4 km/h (4 Bft) 100,00 %
29.12.2017 00:23 0,8 C 3,9 C 92 % 1006,7 hPa 0,0 l/m 19,3 km/h (3 Bft) W-SW 247 0 min 0,000 mm 0,0 UV-I 0 W/m -0,3 C -8,3 C 29,0 km/h (5 Bft) 100,00 %
29.12.2017 00:24 0,8 C 3,9 C 91 % 1006,7 hPa 0,0 l/m 20,9 km/h (4 Bft) W 270 0 min 0,000 mm 0,0 UV-I 0 W/m -0,5 C -9,0 C 24,1 km/h (4 Bft) 100,00 %
29.12.2017 00:25 0,8 C 3,9 C 91 % 1006,7 hPa 0,0 l/m 14,5 km/h (3 Bft) W 270 0 min 0,000 mm 0,0 UV-I 0 W/m -0,5 C -5,7 C 20,9 km/h (4 Bft) 100,00 %
29.12.2017 00:26 0,8 C 3,9 C 91 % 1006,8 hPa 0,0 l/m 16,1 km/h (3 Bft) W-SW 247 0 min 0,000 mm 0,0 UV-I 0 W/m -0,5 C -6,6 C 22,5 km/h (4 Bft) 95,65 %
29.12.2017 00:27 0,8 C 3,9 C 91 % 1006,8 hPa 0,0 l/m 14,5 km/h (3 Bft) W-SW 247 0 min 0,000 mm 0,0 UV-I 0 W/m -0,5 C -5,7 C 19,3 km/h (3 Bft) 100,00 %
29.12.2017 00:28 0,8 C 3,9 C 91 % 1006,8 hPa 0,0 l/m 16,1 km/h (3 Bft) W-SW 247 0 min 0,000 mm 0,0 UV-I 0 W/m -0,5 C -6,6 C 24,1 km/h (4 Bft) 100,00 %
29.12.2017 00:29 0,8 C 3,9 C 91 % 1006,8 hPa 0,0 l/m 16,1 km/h (3 Bft) W 270 0 min 0,000 mm 0,0 UV-I 0 W/m -0,5 C -6,6 C 22,5 km/h (4 Bft) 95,65 %
29.12.2017 00:30 0,8 C 3,9 C 91 % 1006,8 hPa 0,0 l/m 17,7 km/h (3 Bft) W 270 0 min 0,000 mm 0,0 UV-I 0 W/m -0,5 C -7,5 C 22,5 km/h (4 Bft) 100,00 %
29.12.2017 00:31 0,8 C 3,9 C 91 % 1006,8 hPa 0,0 l/m 12,9 km/h (3 Bft) W-SW 247 0 min 0,000 mm 0,0 UV-I 0 W/m -0,5 C -4,7 C 16,1 km/h (3 Bft) 95,65 %
29.12.2017 00:32 0,7 C 3,9 C 91 % 1006,8 hPa 0,0 l/m 17,7 km/h (3 Bft) W 270 0 min 0,000 mm 0,0 UV-I 0 W/m -0,6 C -7,6 C 22,5 km/h (4 Bft) 100,00 %
29.12.2017 00:33 0,7 C 3,9 C 92 % 1006,8 hPa 0,0 l/m 16,1 km/h (3 Bft) W-SW 247 0 min 0,000 mm 0,0 UV-I 0 W/m -0,4 C -6,8 C 22,5 km/h (4 Bft) 91,30 %
29.12.2017 00:34 0,7 C 3,9 C 92 % 1006,8 hPa 0,0 l/m 19,3 km/h (3 Bft) W-SW 247 0 min 0,000 mm 0,0 UV-I 0 W/m -0,4 C -8,4 C 24,1 km/h (4 Bft) 100,00 %
29.12.2017 00:35 0,7 C 3,9 C 92 % 1006,9 hPa 0,0 l/m 14,5 km/h (3 Bft) W-SW 247 0 min 0,000 mm 0,0 UV-I 0 W/m -0,4 C -5,8 C 20,9 km/h (4 Bft) 95,65 %
29.12.2017 00:36 0,7 C 3,9 C 92 % 1006,9 hPa 0,0 l/m 9,7 km/h (2 Bft) W 270 0 min 0,000 mm 0,0 UV-I 0 W/m -0,4 C -2,4 C 16,1 km/h (3 Bft) 100,00 %
29.12.2017 00:37 0,7 C 3,9 C 92 % 1006,9 hPa 0,0 l/m 17,7 km/h (3 Bft) SW 225 0 min 0,000 mm 0,0 UV-I 0 W/m -0,4 C -7,6 C 24,1 km/h (4 Bft) 95,65 %
29.12.2017 00:38 0,7 C 3,9 C 92 % 1006,9 hPa 0,0 l/m 12,9 km/h (3 Bft) W-SW 247 0 min 0,000 mm 0,0 UV-I 0 W/m -0,4 C -4,8 C 16,1 km/h (3 Bft) 100,00 %
29.12.2017 00:39 0,7 C 3,9 C 92 % 1006,9 hPa 0,0 l/m 14,5 km/h (3 Bft) W-SW 247 0 min 0,000 mm 0,0 UV-I 0 W/m -0,4 C -5,8 C 20,9 km/h (4 Bft) 95,65 %
29.12.2017 00:40 0,7 C 3,9 C 92 % 1006,9 hPa 0,0 l/m 14,5 km/h (3 Bft) W-SW 247 0 min 0,000 mm 0,0 UV-I 0 W/m -0,4 C -5,8 C 20,9 km/h (4 Bft) 91,30 %
29.12.2017 00:41 0,7 C 3,9 C 92 % 1006,9 hPa 0,0 l/m 19,3 km/h (3 Bft) W-SW 247 0 min 0,000 mm 0,0 UV-I 0 W/m -0,4 C -8,4 C 25,7 km/h (4 Bft) 100,00 %
29.12.2017 00:42 0,7 C 3,9 C 92 % 1007,0 hPa 0,0 l/m 19,3 km/h (3 Bft) W 270 0 min 0,000 mm 0,0 UV-I 0 W/m -0,4 C -8,4 C 24,1 km/h (4 Bft) 95,65 %
29.12.2017 00:43 0,7 C 3,9 C 92 % 1007,0 hPa 0,0 l/m 14,5 km/h (3 Bft) W-SW 247 0 min 0,000 mm 0,0 UV-I 0 W/m -0,4 C -5,8 C 19,3 km/h (3 Bft) 100,00 %
29.12.2017 00:44 0,7 C 3,9 C 91 % 1007,0 hPa 0,0 l/m 14,5 km/h (3 Bft) W-SW 247 0 min 0,000 mm 0,0 UV-I 0 W/m -0,6 C -5,8 C 19,3 km/h (3 Bft) 95,65 %
29.12.2017 00:45 0,7 C 3,9 C 91 % 1007,0 hPa 0,0 l/m 17,7 km/h (3 Bft) W 270 0 min 0,000 mm 0,0 UV-I 0 W/m -0,6 C -7,6 C 25,7 km/h (4 Bft) 100,00 %
29.12.2017 00:46 0,7 C 3,9 C 91 % 1007,0 hPa 0,0 l/m 16,1 km/h (3 Bft) W-SW 247 0 min 0,000 mm 0,0 UV-I 0 W/m -0,6 C -6,8 C 20,9 km/h (4 Bft) 91,30 %
29.12.2017 00:47 0,7 C 3,9 C 91 % 1007,0 hPa 0,0 l/m 16,1 km/h (3 Bft) W-SW 247 0 min 0,000 mm 0,0 UV-I 0 W/m -0,6 C -6,8 C 24,1 km/h (4 Bft) 91,30 %
29.12.2017 00:48 0,7 C 3,9 C 91 % 1007,0 hPa 0,0 l/m 20,9 km/h (4 Bft) W-SW 247 0 min 0,000 mm 0,0 UV-I 0 W/m -0,6 C -9,1 C 29,0 km/h (5 Bft) 91,30 %
29.12.2017 00:49 0,7 C 3,9 C 91 % 1007,0 hPa 0,0 l/m 16,1 km/h (3 Bft) W-SW 247 0 min 0,000 mm 0,0 UV-I 0 W/m -0,6 C -6,8 C 22,5 km/h (4 Bft) 100,00 %
29.12.2017 00:50 0,7 C 3,9 C 91 % 1007,0 hPa 0,0 l/m 14,5 km/h (3 Bft) W-SW 247 0 min 0,000 mm 0,0 UV-I 0 W/m -0,6 C -5,8 C 25,7 km/h (4 Bft) 91,30 %
29.12.2017 00:51 0,7 C 3,9 C 91 % 1007,0 hPa 0,0 l/m 16,1 km/h (3 Bft) W-SW 247 0 min 0,000 mm 0,0 UV-I 0 W/m -0,6 C -6,8 C 25,7 km/h (4 Bft) 100,00 %
29.12.2017 00:52 0,7 C 3,9 C 91 % 1007,0 hPa 0,0 l/m 19,3 km/h (3 Bft) W-SW 247 0 min 0,000 mm 0,0 UV-I 0 W/m -0,6 C -8,4 C 29,0 km/h (5 Bft) 95,65 %
29.12.2017 00:53 0,7 C 3,9 C 91 % 1007,0 hPa 0,0 l/m 14,5 km/h (3 Bft) W-SW 247 0 min 0,000 mm 0,0 UV-I 0 W/m -0,6 C -5,8 C 20,9 km/h (4 Bft) 100,00 %
29.12.2017 00:54 0,7 C 3,9 C 91 % 1007,0 hPa 0,0 l/m 19,3 km/h (3 Bft) W-SW 247 0 min 0,000 mm 0,0 UV-I 0 W/m -0,6 C -8,4 C 24,1 km/h (4 Bft) 91,30 %
29.12.2017 00:55 0,7 C 3,9 C 91 % 1007,1 hPa 0,0 l/m 14,5 km/h (3 Bft) W-SW 247 0 min 0,000 mm 0,0 UV-I 0 W/m -0,6 C -5,8 C 22,5 km/h (4 Bft) 100,00 %
29.12.2017 00:56 0,7 C 3,9 C 91 % 1007,0 hPa 0,0 l/m 16,1 km/h (3 Bft) W-SW 247 0 min 0,000 mm 0,0 UV-I 0 W/m -0,6 C -6,8 C 20,9 km/h (4 Bft) 95,65 %
29.12.2017 00:57 0,7 C 3,9 C 91 % 1007,1 hPa 0,0 l/m 17,7 km/h (3 Bft) W-SW 247 0 min 0,000 mm 0,0 UV-I 0 W/m -0,6 C -7,6 C 25,7 km/h (4 Bft) 100,00 %
29.12.2017 00:58 0,7 C 3,9 C 91 % 1007,2 hPa 0,0 l/m 14,5 km/h (3 Bft) W-SW 247 0 min 0,000 mm 0,0 UV-I 0 W/m -0,6 C -5,8 C 17,7 km/h (3 Bft) 95,65 %
29.12.2017 00:59 0,7 C 3,9 C 91 % 1007,1 hPa 0,0 l/m 19,3 km/h (3 Bft) W-SW 247 0 min 0,000 mm 0,0 UV-I 0 W/m -0,6 C -8,4 C 25,7 km/h (4 Bft) 100,00 %
29.12.2017 01:00 0,7 C 3,9 C 90 % 1007,2 hPa 0,0 l/m 22,5 km/h (4 Bft) W 270 0 min 0,000 mm 0,0 UV-I 0 W/m -0,7 C -9,8 C 29,0 km/h (5 Bft) 95,65 %
29.12.2017 01:01 0,7 C 3,9 C 90 % 1007,2 hPa 0,0 l/m 24,1 km/h (4 Bft) W 270 0 min 0,000 mm 0,0 UV-I 0 W/m -0,7 C -10,4 C 30,6 km/h (5 Bft) 95,65 %
29.12.2017 01:02 0,8 C 3,9 C 90 % 1007,2 hPa 0,0 l/m 19,3 km/h (3 Bft) W 270 0 min 0,000 mm 0,0 UV-I 0 W/m -0,6 C -8,3 C 29,0 km/h (5 Bft) 100,00 %
29.12.2017 01:03 0,8 C 3,9 C 90 % 1007,2 hPa 0,0 l/m 19,3 km/h (3 Bft) W-SW 247 0 min 0,000 mm 0,0 UV-I 0 W/m -0,6 C -8,3 C 25,7 km/h (4 Bft) 100,00 %
29.12.2017 01:04 0,8 C 3,9 C 90 % 1007,3 hPa 0,0 l/m 16,1 km/h (3 Bft) W-SW 247 0 min 0,000 mm 0,0 UV-I 0 W/m -0,6 C -6,6 C 20,9 km/h (4 Bft) 100,00 %
29.12.2017 01:05 0,7 C 3,9 C 90 % 1007,3 hPa 0,0 l/m 20,9 km/h (4 Bft) W-SW 247 0 min 0,000 mm 0,0 UV-I 0 W/m -0,7 C -9,1 C 27,4 km/h (4 Bft) 100,00 %
29.12.2017 01:06 0,8 C 3,9 C 90 % 1007,3 hPa 0,0 l/m 17,7 km/h (3 Bft) W 270 0 min 0,000 mm 0,0 UV-I 0 W/m -0,6 C -7,5 C 27,4 km/h (4 Bft) 100,00 %
29.12.2017 01:07 0,8 C 3,9 C 90 % 1007,2 hPa 0,0 l/m 16,1 km/h (3 Bft) W-SW 247 0 min 0,000 mm 0,0 UV-I 0 W/m -0,6 C -6,6 C 27,4 km/h (4 Bft) 95,65 %
29.12.2017 01:08 0,8 C 3,9 C 90 % 1007,3 hPa 0,0 l/m 14,5 km/h (3 Bft) W 270 0 min 0,000 mm 0,0 UV-I 0 W/m -0,6 C -5,7 C 20,9 km/h (4 Bft) 95,65 %
29.12.2017 01:09 0,7 C 3,9 C 90 % 1007,5 hPa 0,0 l/m 17,7 km/h (3 Bft) W 270 0 min 0,000 mm 0,0 UV-I 0 W/m -0,7 C -7,6 C 22,5 km/h (4 Bft) 100,00 %
29.12.2017 01:10 0,7 C 3,9 C 90 % 1007,5 hPa 0,0 l/m 14,5 km/h (3 Bft) W-SW 247 0 min 0,000 mm 0,0 UV-I 0 W/m -0,7 C -5,8 C 19,3 km/h (3 Bft) 95,65 %
29.12.2017 01:11 0,7 C 3,9 C 90 % 1007,5 hPa 0,0 l/m 14,5 km/h (3 Bft) W 270 0 min 0,000 mm 0,0 UV-I 0 W/m -0,7 C -5,8 C 20,9 km/h (4 Bft) 100,00 %
29.12.2017 01:12 0,7 C 3,9 C 90 % 1007,5 hPa 0,0 l/m 16,1 km/h (3 Bft) W-SW 247 0 min 0,000 mm 0,0 UV-I 0 W/m -0,7 C -6,8 C 24,1 km/h (4 Bft) 100,00 %
29.12.2017 01:13 0,7 C 3,9 C 90 % 1007,5 hPa 0,0 l/m 19,3 km/h (3 Bft) W 270 0 min 0,000 mm 0,0 UV-I 0 W/m -0,7 C -8,4 C 20,9 km/h (4 Bft) 100,00 %
29.12.2017 01:14 0,7 C 3,9 C 90 % 1007,5 hPa 0,0 l/m 17,7 km/h (3 Bft) W-SW 247 0 min 0,000 mm 0,0 UV-I 0 W/m -0,7 C -7,6 C 25,7 km/h (4 Bft) 95,65 %
29.12.2017 01:15 0,7 C 3,9 C 90 % 1007,5 hPa 0,0 l/m 17,7 km/h (3 Bft) W 270 0 min 0,000 mm 0,0 UV-I 0 W/m -0,7 C -7,6 C 24,1 km/h (4 Bft) 95,65 %
29.12.2017 01:16 0,7 C 3,9 C 90 % 1007,5 hPa 0,0 l/m 19,3 km/h (3 Bft) W-SW 247 0 min 0,000 mm 0,0 UV-I 0 W/m -0,7 C -8,4 C 24,1 km/h (4 Bft) 91,30 %
29.12.2017 01:17 0,8 C 3,9 C 90 % 1007,6 hPa 0,0 l/m 14,5 km/h (3 Bft) W 270 0 min 0,000 mm 0,0 UV-I 0 W/m -0,6 C -5,7 C 19,3 km/h (3 Bft) 95,65 %
29.12.2017 01:18 0,8 C 3,9 C 90 % 1007,6 hPa 0,0 l/m 16,1 km/h (3 Bft) W 270 0 min 0,000 mm 0,0 UV-I 0 W/m -0,6 C -6,6 C 20,9 km/h (4 Bft) 95,65 %
29.12.2017 01:19 0,8 C 3,9 C 90 % 1007,6 hPa 0,0 l/m 9,7 km/h (2 Bft) W 270 0 min 0,000 mm 0,0 UV-I 0 W/m -0,6 C -2,3 C 14,5 km/h (3 Bft) 95,65 %
29.12.2017 01:20 0,8 C 3,9 C 90 % 1007,6 hPa 0,0 l/m 14,5 km/h (3 Bft) W-SW 247 0 min 0,000 mm 0,0 UV-I 0 W/m -0,6 C -5,7 C 22,5 km/h (4 Bft) 100,00 %
29.12.2017 01:21 0,8 C 3,9 C 90 % 1007,6 hPa 0,0 l/m 16,1 km/h (3 Bft) W 270 0 min 0,000 mm 0,0 UV-I 0 W/m -0,6 C -6,6 C 20,9 km/h (4 Bft) 95,65 %
29.12.2017 01:22 0,7 C 3,9 C 90 % 1007,6 hPa 0,0 l/m 12,9 km/h (3 Bft) W-SW 247 0 min 0,000 mm 0,0 UV-I 0 W/m -0,7 C -4,8 C 16,1 km/h (3 Bft) 95,65 %
29.12.2017 01:23 0,7 C 3,9 C 90 % 1007,6 hPa 0,0 l/m 9,7 km/h (2 Bft) W-SW 247 0 min 0,000 mm 0,0 UV-I 0 W/m -0,7 C -2,4 C 14,5 km/h (3 Bft) 91,30 %
29.12.2017 01:24 0,7 C 3,9 C 90 % 1007,6 hPa 0,0 l/m 11,3 km/h (2 Bft) W-SW 247 0 min 0,000 mm 0,0 UV-I 0 W/m -0,7 C -3,7 C 16,1 km/h (3 Bft) 100,00 %
29.12.2017 01:25 0,7 C 3,9 C 90 % 1007,7 hPa 0,0 l/m 12,9 km/h (3 Bft) W-SW 247 0 min 0,000 mm 0,0 UV-I 0 W/m -0,7 C -4,8 C 17,7 km/h (3 Bft) 95,65 %
29.12.2017 01:26 0,7 C 3,9 C 90 % 1007,7 hPa 0,0 l/m 11,3 km/h (2 Bft) W-SW 247 0 min 0,000 mm 0,0 UV-I 0 W/m -0,7 C -3,7 C 16,1 km/h (3 Bft) 95,65 %
29.12.2017 01:27 0,7 C 3,9 C 90 % 1007,7 hPa 0,0 l/m 9,7 km/h (2 Bft) W-SW 247 0 min 0,000 mm 0,0 UV-I 0 W/m -0,7 C -2,4 C 12,9 km/h (3 Bft) 100,00 %
29.12.2017 01:28 0,7 C 3,9 C 90 % 1007,7 hPa 0,0 l/m 12,9 km/h (3 Bft) W-SW 247 0 min 0,000 mm 0,0 UV-I 0 W/m -0,7 C -4,8 C 22,5 km/h (4 Bft) 95,65 %
29.12.2017 01:29 0,7 C 3,9 C 90 % 1007,7 hPa 0,0 l/m 14,5 km/h (3 Bft) W-SW 247 0 min 0,000 mm 0,0 UV-I 0 W/m -0,7 C -5,8 C 25,7 km/h (4 Bft) 95,65 %
29.12.2017 01:30 0,7 C 3,9 C 90 % 1007,7 hPa 0,0 l/m 20,9 km/h (4 Bft) W-SW 247 0 min 0,000 mm 0,0 UV-I 0 W/m -0,7 C -9,1 C 24,1 km/h (4 Bft) 95,65 %
29.12.2017 01:31 0,7 C 3,9 C 90 % 1007,7 hPa 0,0 l/m 16,1 km/h (3 Bft) SW 225 0 min 0,000 mm 0,0 UV-I 0 W/m -0,7 C -6,8 C 29,0 km/h (5 Bft) 100,00 %
29.12.2017 01:32 0,7 C 3,9 C 90 % 1007,7 hPa 0,0 l/m 19,3 km/h (3 Bft) W-SW 247 0 min 0,000 mm 0,0 UV-I 0 W/m -0,7 C -8,4 C 27,4 km/h (4 Bft) 95,65 %
29.12.2017 01:33 0,8 C 3,9 C 90 % 1007,7 hPa 0,0 l/m 17,7 km/h (3 Bft) W-SW 247 0 min 0,000 mm 0,0 UV-I 0 W/m -0,6 C -7,5 C 24,1 km/h (4 Bft) 100,00 %
29.12.2017 01:34 0,8 C 3,9 C 90 % 1007,7 hPa 0,0 l/m 16,1 km/h (3 Bft) W-SW 247 0 min 0,000 mm 0,0 UV-I 0 W/m -0,6 C -6,6 C 19,3 km/h (3 Bft) 95,65 %
29.12.2017 01:35 0,8 C 3,9 C 90 % 1007,8 hPa 0,0 l/m 12,9 km/h (3 Bft) W-SW 247 0 min 0,000 mm 0,0 UV-I 0 W/m -0,6 C -4,7 C 17,7 km/h (3 Bft) 95,65 %
29.12.2017 01:36 0,7 C 3,9 C 90 % 1007,8 hPa 0,0 l/m 17,7 km/h (3 Bft) W-SW 247 0 min 0,000 mm 0,0 UV-I 0 W/m -0,7 C -7,6 C 25,7 km/h (4 Bft) 95,65 %
29.12.2017 01:37 0,7 C 3,9 C 90 % 1007,8 hPa 0,0 l/m 17,7 km/h (3 Bft) W-SW 247 0 min 0,000 mm 0,0 UV-I 0 W/m -0,7 C -7,6 C 29,0 km/h (5 Bft) 95,65 %
29.12.2017 01:38 0,8 C 3,9 C 90 % 1007,8 hPa 0,0 l/m 19,3 km/h (3 Bft) W 270 0 min 0,000 mm 0,0 UV-I 0 W/m -0,6 C -8,3 C 27,4 km/h (4 Bft) 95,65 %
29.12.2017 01:39 0,8 C 3,9 C 90 % 1007,8 hPa 0,0 l/m 16,1 km/h (3 Bft) W 270 0 min 0,000 mm 0,0 UV-I 0 W/m -0,6 C -6,6 C 24,1 km/h (4 Bft) 95,65 %
29.12.2017 01:40 0,8 C 3,9 C 90 % 1007,9 hPa 0,0 l/m 19,3 km/h (3 Bft) W-SW 247 0 min 0,000 mm 0,0 UV-I 0 W/m -0,6 C -8,3 C 29,0 km/h (5 Bft) 100,00 %
29.12.2017 01:41 0,8 C 3,9 C 89 % 1007,9 hPa 0,0 l/m 19,3 km/h (3 Bft) W-SW 247 0 min 0,000 mm 0,0 UV-I 0 W/m -0,8 C -8,3 C 27,4 km/h (4 Bft) 95,65 %
29.12.2017 01:42 0,8 C 3,9 C 89 % 1007,9 hPa 0,0 l/m 17,7 km/h (3 Bft) W-SW 247 0 min 0,000 mm 0,0 UV-I 0 W/m -0,8 C -7,5 C 24,1 km/h (4 Bft) 86,96 %
29.12.2017 01:43 0,8 C 3,9 C 89 % 1007,9 hPa 0,0 l/m 14,5 km/h (3 Bft) W-SW 247 0 min 0,000 mm 0,0 UV-I 0 W/m -0,8 C -5,7 C 19,3 km/h (3 Bft) 95,65 %
29.12.2017 01:44 0,8 C 3,9 C 89 % 1008,0 hPa 0,0 l/m 17,7 km/h (3 Bft) W-SW 247 0 min 0,000 mm 0,0 UV-I 0 W/m -0,8 C -7,5 C 25,7 km/h (4 Bft) 95,65 %
29.12.2017 01:45 0,8 C 3,9 C 89 % 1008,0 hPa 0,0 l/m 16,1 km/h (3 Bft) W 270 0 min 0,000 mm 0,0 UV-I 0 W/m -0,8 C -6,6 C 25,7 km/h (4 Bft) 100,00 %
29.12.2017 01:46 0,8 C 3,9 C 89 % 1008,0 hPa 0,0 l/m 16,1 km/h (3 Bft) W-SW 247 0 min 0,000 mm 0,0 UV-I 0 W/m -0,8 C -6,6 C 19,3 km/h (3 Bft) 95,65 %
29.12.2017 01:47 0,8 C 3,9 C 89 % 1008,1 hPa 0,0 l/m 17,7 km/h (3 Bft) W 270 0 min 0,000 mm 0,0 UV-I 0 W/m -0,8 C -7,5 C 25,7 km/h (4 Bft) 100,00 %
29.12.2017 01:48 0,8 C 3,9 C 90 % 1008,0 hPa 0,0 l/m 14,5 km/h (3 Bft) W-SW 247 0 min 0,000 mm 0,0 UV-I 0 W/m -0,6 C -5,7 C 20,9 km/h (4 Bft) 95,65 %
29.12.2017 01:49 0,8 C 3,9 C 89 % 1008,0 hPa 0,0 l/m 19,3 km/h (3 Bft) W 270 0 min 0,000 mm 0,0 UV-I 0 W/m -0,8 C -8,3 C 30,6 km/h (5 Bft) 100,00 %
29.12.2017 01:50 0,8 C 3,9 C 89 % 1008,1 hPa 0,0 l/m 14,5 km/h (3 Bft) W-SW 247 0 min 0,000 mm 0,0 UV-I 0 W/m -0,8 C -5,7 C 17,7 km/h (3 Bft) 86,96 %
29.12.2017 01:51 0,8 C 3,9 C 89 % 1008,2 hPa 0,0 l/m 20,9 km/h (4 Bft) W-SW 247 0 min 0,000 mm 0,0 UV-I 0 W/m -0,8 C -9,0 C 27,4 km/h (4 Bft) 95,65 %
29.12.2017 01:52 0,8 C 3,9 C 89 % 1008,2 hPa 0,0 l/m 16,1 km/h (3 Bft) W 270 0 min 0,000 mm 0,0 UV-I 0 W/m -0,8 C -6,6 C 27,4 km/h (4 Bft) 100,00 %
29.12.2017 01:53 0,8 C 3,9 C 89 % 1008,2 hPa 0,0 l/m 16,1 km/h (3 Bft) W 270 0 min 0,000 mm 0,0 UV-I 0 W/m -0,8 C -6,6 C 24,1 km/h (4 Bft) 100,00 %
29.12.2017 01:54 0,8 C 3,9 C 89 % 1008,2 hPa 0,0 l/m 22,5 km/h (4 Bft) W-SW 247 0 min 0,000 mm 0,0 UV-I 0 W/m -0,8 C -9,7 C 33,8 km/h (5 Bft) 100,00 %
29.12.2017 01:55 0,8 C 3,9 C 89 % 1008,2 hPa 0,0 l/m 22,5 km/h (4 Bft) W-SW 247 0 min 0,000 mm 0,0 UV-I 0 W/m -0,8 C -9,7 C 33,8 km/h (5 Bft) 100,00 %
29.12.2017 01:56 0,8 C 3,9 C 89 % 1008,2 hPa 0,0 l/m 24,1 km/h (4 Bft) W-SW 247 0 min 0,000 mm 0,0 UV-I 0 W/m -0,8 C -10,3 C 33,8 km/h (5 Bft) 100,00 %
29.12.2017 01:57 0,8 C 3,9 C 89 % 1008,3 hPa 0,0 l/m 19,3 km/h (3 Bft) W-SW 247 0 min 0,000 mm 0,0 UV-I 0 W/m -0,8 C -8,3 C 25,7 km/h (4 Bft) 95,65 %
29.12.2017 01:58 0,8 C 3,9 C 89 % 1008,3 hPa 0,0 l/m 25,7 km/h (4 Bft) W-SW 247 0 min 0,000 mm 0,0 UV-I 0 W/m -0,8 C -10,9 C 30,6 km/h (5 Bft) 91,30 %
29.12.2017 01:59 0,8 C 3,9 C 89 % 1008,4 hPa 0,0 l/m 20,9 km/h (4 Bft) W-SW 247 0 min 0,000 mm 0,0 UV-I 0 W/m -0,8 C -9,0 C 29,0 km/h (5 Bft) 95,65 %
29.12.2017 02:00 0,8 C 3,9 C 89 % 1008,3 hPa 0,0 l/m 22,5 km/h (4 Bft) W 270 0 min 0,025 mm 0,0 UV-I 0 W/m -0,8 C -9,7 C 32,2 km/h (5 Bft) 100,00 %
29.12.2017 02:01 0,8 C 3,9 C 88 % 1008,4 hPa 0,0 l/m 24,1 km/h (4 Bft) W-SW 247 0 min 0,000 mm 0,0 UV-I 0 W/m -1,0 C -10,3 C 32,2 km/h (5 Bft) 91,30 %
29.12.2017 02:02 0,8 C 3,9 C 88 % 1008,4 hPa 0,0 l/m 22,5 km/h (4 Bft) W-SW 247 0 min 0,000 mm 0,0 UV-I 0 W/m -1,0 C -9,7 C 32,2 km/h (5 Bft) 100,00 %
29.12.2017 02:03 0,8 C 3,9 C 88 % 1008,4 hPa 0,0 l/m 20,9 km/h (4 Bft) W 270 0 min 0,000 mm 0,0 UV-I 0 W/m -1,0 C -9,0 C 27,4 km/h (4 Bft) 95,65 %
29.12.2017 02:04 0,8 C 3,9 C 88 % 1008,4 hPa 0,0 l/m 19,3 km/h (3 Bft) W 270 0 min 0,000 mm 0,0 UV-I 0 W/m -1,0 C -8,3 C 30,6 km/h (5 Bft) 95,65 %
29.12.2017 02:05 0,8 C 3,9 C 88 % 1008,4 hPa 0,0 l/m 17,7 km/h (3 Bft) W-SW 247 0 min 0,000 mm 0,0 UV-I 0 W/m -1,0 C -7,5 C 41,8 km/h (6 Bft) 95,65 %
29.12.2017 02:06 0,8 C 3,9 C 88 % 1008,5 hPa 0,0 l/m 27,4 km/h (4 Bft) W-SW 247 0 min 0,000 mm 0,0 UV-I 0 W/m -1,0 C -11,5 C 35,4 km/h (5 Bft) 95,65 %
29.12.2017 02:07 0,8 C 3,9 C 88 % 1008,5 hPa 0,0 l/m 17,7 km/h (3 Bft) W-SW 247 0 min 0,000 mm 0,0 UV-I 0 W/m -1,0 C -7,5 C 41,8 km/h (6 Bft) 95,65 %
29.12.2017 02:08 0,8 C 3,9 C 88 % 1008,5 hPa 0,0 l/m 19,3 km/h (3 Bft) W 270 0 min 0,000 mm 0,0 UV-I 0 W/m -1,0 C -8,3 C 25,7 km/h (4 Bft) 100,00 %
29.12.2017 02:09 0,8 C 3,9 C 88 % 1008,6 hPa 0,0 l/m 14,5 km/h (3 Bft) W-SW 247 0 min 0,000 mm 0,0 UV-I 0 W/m -1,0 C -5,7 C 19,3 km/h (3 Bft) 95,65 %
29.12.2017 02:10 0,8 C 3,9 C 88 % 1008,6 hPa 0,0 l/m 17,7 km/h (3 Bft) W-SW 247 0 min 0,000 mm 0,0 UV-I 0 W/m -1,0 C -7,5 C 27,4 km/h (4 Bft) 100,00 %
29.12.2017 02:11 0,8 C 3,9 C 88 % 1008,6 hPa 0,0 l/m 20,9 km/h (4 Bft) W 270 0 min 0,000 mm 0,0 UV-I 0 W/m -1,0 C -9,0 C 29,0 km/h (5 Bft) 91,30 %
29.12.2017 02:12 0,8 C 3,9 C 88 % 1008,5 hPa 0,0 l/m 17,7 km/h (3 Bft) W 270 0 min 0,000 mm 0,0 UV-I 0 W/m -1,0 C -7,5 C 27,4 km/h (4 Bft) 95,65 %
29.12.2017 02:13 0,7 C 3,9 C 88 % 1008,6 hPa 0,0 l/m 20,9 km/h (4 Bft) W-SW 247 0 min 0,000 mm 0,0 UV-I 0 W/m -1,1 C -9,1 C 27,4 km/h (4 Bft) 95,65 %
29.12.2017 02:14 0,8 C 3,9 C 88 % 1008,6 hPa 0,0 l/m 14,5 km/h (3 Bft) W-SW 247 0 min 0,000 mm 0,0 UV-I 0 W/m -1,0 C -5,7 C 24,1 km/h (4 Bft) 100,00 %
29.12.2017 02:15 0,8 C 3,9 C 88 % 1008,6 hPa 0,0 l/m 22,5 km/h (4 Bft) W-SW 247 0 min 0,000 mm 0,0 UV-I 0 W/m -1,0 C -9,7 C 32,2 km/h (5 Bft) 95,65 %
29.12.2017 02:16 0,8 C 3,9 C 88 % 1008,5 hPa 0,0 l/m 22,5 km/h (4 Bft) W 270 0 min 0,000 mm 0,0 UV-I 0 W/m -1,0 C -9,7 C 30,6 km/h (5 Bft) 95,65 %
29.12.2017 02:17 0,8 C 3,9 C 88 % 1008,7 hPa 0,0 l/m 11,3 km/h (2 Bft) W-SW 247 0 min 0,000 mm 0,0 UV-I 0 W/m -1,0 C -3,6 C 14,5 km/h (3 Bft) 100,00 %
29.12.2017 02:18 0,8 C 3,9 C 88 % 1008,7 hPa 0,0 l/m 14,5 km/h (3 Bft) W-SW 247 0 min 0,000 mm 0,0 UV-I 0 W/m -1,0 C -5,7 C 22,5 km/h (4 Bft) 91,30 %
29.12.2017 02:19 0,8 C 3,9 C 88 % 1008,7 hPa 0,0 l/m 14,5 km/h (3 Bft) W 270 0 min 0,000 mm 0,0 UV-I 0 W/m -1,0 C -5,7 C 22,5 km/h (4 Bft) 100,00 %
29.12.2017 02:20 0,8 C 3,9 C 88 % 1008,7 hPa 0,0 l/m 16,1 km/h (3 Bft) W-SW 247 0 min 0,000 mm 0,0 UV-I 0 W/m -1,0 C -6,6 C 20,9 km/h (4 Bft) 100,00 %
29.12.2017 02:21 0,7 C 3,9 C 88 % 1008,8 hPa 0,0 l/m 20,9 km/h (4 Bft) W-SW 247 0 min 0,000 mm 0,0 UV-I 0 W/m -1,1 C -9,1 C 29,0 km/h (5 Bft) 100,00 %
29.12.2017 02:22 0,7 C 3,9 C 88 % 1008,8 hPa 0,0 l/m 16,1 km/h (3 Bft) W 270 0 min 0,000 mm 0,0 UV-I 0 W/m -1,1 C -6,8 C 24,1 km/h (4 Bft) 100,00 %
29.12.2017 02:23 0,7 C 3,9 C 88 % 1008,8 hPa 0,0 l/m 17,7 km/h (3 Bft) W-SW 247 0 min 0,000 mm 0,0 UV-I 0 W/m -1,1 C -7,6 C 29,0 km/h (5 Bft) 100,00 %
29.12.2017 02:24 0,7 C 3,9 C 88 % 1008,8 hPa 0,0 l/m 19,3 km/h (3 Bft) W 270 0 min 0,000 mm 0,0 UV-I 0 W/m -1,1 C -8,4 C 24,1 km/h (4 Bft) 100,00 %
29.12.2017 02:25 0,7 C 3,9 C 88 % 1008,8 hPa 0,0 l/m 14,5 km/h (3 Bft) W 270 0 min 0,000 mm 0,0 UV-I 0 W/m -1,1 C -5,8 C 22,5 km/h (4 Bft) 95,65 %
29.12.2017 02:26 0,7 C 3,9 C 88 % 1008,9 hPa 0,0 l/m 17,7 km/h (3 Bft) W 270 0 min 0,000 mm 0,0 UV-I 0 W/m -1,1 C -7,6 C 20,9 km/h (4 Bft) 100,00 %
29.12.2017 02:27 0,7 C 3,9 C 88 % 1008,9 hPa 0,0 l/m 25,7 km/h (4 Bft) W-SW 247 0 min 0,000 mm 0,0 UV-I 0 W/m -1,1 C -11,0 C 30,6 km/h (5 Bft) 100,00 %
29.12.2017 02:28 0,7 C 3,9 C 88 % 1008,9 hPa 0,0 l/m 19,3 km/h (3 Bft) W 270 0 min 0,000 mm 0,0 UV-I 0 W/m -1,1 C -8,4 C 27,4 km/h (4 Bft) 100,00 %
29.12.2017 02:29 0,7 C 3,9 C 88 % 1008,9 hPa 0,0 l/m 17,7 km/h (3 Bft) W-SW 247 0 min 0,000 mm 0,0 UV-I 0 W/m -1,1 C -7,6 C 22,5 km/h (4 Bft) 95,65 %
29.12.2017 02:30 0,7 C 3,9 C 88 % 1009,0 hPa 0,0 l/m 11,3 km/h (2 Bft) W-SW 247 0 min 0,000 mm 0,0 UV-I 0 W/m -1,1 C -3,7 C 14,5 km/h (3 Bft) 100,00 %
29.12.2017 02:31 0,7 C 3,9 C 88 % 1009,0 hPa 0,0 l/m 9,7 km/h (2 Bft) W-SW 247 0 min 0,000 mm 0,0 UV-I 0 W/m -1,1 C -2,4 C 14,5 km/h (3 Bft) 100,00 %
29.12.2017 02:32 0,7 C 3,9 C 89 % 1009,0 hPa 0,0 l/m 11,3 km/h (2 Bft) W 270 0 min 0,000 mm 0,0 UV-I 0 W/m -0,9 C -3,7 C 17,7 km/h (3 Bft) 95,65 %
29.12.2017 02:33 0,6 C 3,9 C 89 % 1009,0 hPa 0,0 l/m 14,5 km/h (3 Bft) W 270 0 min 0,000 mm 0,0 UV-I 0 W/m -1,0 C -6,0 C 22,5 km/h (4 Bft) 100,00 %
29.12.2017 02:34 0,6 C 3,9 C 89 % 1009,1 hPa 0,0 l/m 19,3 km/h (3 Bft) W-SW 247 0 min 0,000 mm 0,0 UV-I 0 W/m -1,0 C -8,5 C 35,4 km/h (5 Bft) 100,00 %
29.12.2017 02:35 0,6 C 3,9 C 88 % 1009,1 hPa 0,0 l/m 16,1 km/h (3 Bft) W 270 0 min 0,000 mm 0,0 UV-I 0 W/m -1,2 C -6,9 C 27,4 km/h (4 Bft) 100,00 %
29.12.2017 02:36 0,6 C 3,9 C 88 % 1009,1 hPa 0,0 l/m 24,1 km/h (4 Bft) W 270 0 min 0,000 mm 0,0 UV-I 0 W/m -1,2 C -10,6 C 37,0 km/h (5 Bft) 95,65 %
29.12.2017 02:37 0,6 C 3,9 C 88 % 1009,1 hPa 0,0 l/m 20,9 km/h (4 Bft) W-SW 247 0 min 0,000 mm 0,0 UV-I 0 W/m -1,2 C -9,3 C 35,4 km/h (5 Bft) 100,00 %
29.12.2017 02:38 0,6 C 3,9 C 88 % 1009,2 hPa 0,0 l/m 14,5 km/h (3 Bft) W-SW 247 0 min 0,000 mm 0,0 UV-I 0 W/m -1,2 C -6,0 C 24,1 km/h (4 Bft) 95,65 %
29.12.2017 02:39 0,6 C 3,9 C 88 % 1009,2 hPa 0,0 l/m 16,1 km/h (3 Bft) W 270 0 min 0,000 mm 0,0 UV-I 0 W/m -1,2 C -6,9 C 22,5 km/h (4 Bft) 91,30 %
29.12.2017 02:40 0,6 C 3,9 C 88 % 1009,2 hPa 0,0 l/m 14,5 km/h (3 Bft) W-SW 247 0 min 0,000 mm 0,0 UV-I 0 W/m -1,2 C -6,0 C 20,9 km/h (4 Bft) 100,00 %
29.12.2017 02:41 0,6 C 3,9 C 88 % 1009,2 hPa 0,0 l/m 12,9 km/h (3 Bft) W-SW 247 0 min 0,000 mm 0,0 UV-I 0 W/m -1,2 C -4,9 C 17,7 km/h (3 Bft) 95,65 %
29.12.2017 02:42 0,6 C 3,9 C 88 % 1009,2 hPa 0,0 l/m 11,3 km/h (2 Bft) W 270 0 min 0,000 mm 0,0 UV-I 0 W/m -1,2 C -3,8 C 14,5 km/h (3 Bft) 95,65 %
29.12.2017 02:43 0,6 C 3,9 C 88 % 1009,3 hPa 0,0 l/m 17,7 km/h (3 Bft) W 270 0 min 0,000 mm 0,0 UV-I 0 W/m -1,2 C -7,7 C 30,6 km/h (5 Bft) 100,00 %
29.12.2017 02:44 0,6 C 3,9 C 89 % 1009,2 hPa 0,0 l/m 12,9 km/h (3 Bft) W-SW 247 0 min 0,000 mm 0,0 UV-I 0 W/m -1,0 C -4,9 C 24,1 km/h (4 Bft) 100,00 %
29.12.2017 02:45 0,5 C 3,9 C 88 % 1009,3 hPa 0,0 l/m 12,9 km/h (3 Bft) W-SW 247 0 min 0,000 mm 0,0 UV-I 0 W/m -1,3 C -5,0 C 16,1 km/h (3 Bft) 100,00 %
29.12.2017 02:46 0,5 C 3,9 C 88 % 1009,2 hPa 0,0 l/m 12,9 km/h (3 Bft) W-SW 247 0 min 0,000 mm 0,0 UV-I 0 W/m -1,3 C -5,0 C 19,3 km/h (3 Bft) 95,65 %
29.12.2017 02:47 0,5 C 3,9 C 88 % 1009,2 hPa 0,0 l/m 16,1 km/h (3 Bft) W 270 0 min 0,000 mm 0,0 UV-I 0 W/m -1,3 C -7,0 C 19,3 km/h (3 Bft) 100,00 %
29.12.2017 02:48 0,5 C 3,9 C 88 % 1009,3 hPa 0,0 l/m 14,5 km/h (3 Bft) W-SW 247 0 min 0,000 mm 0,0 UV-I 0 W/m -1,3 C -6,1 C 20,9 km/h (4 Bft) 100,00 %
29.12.2017 02:49 0,5 C 3,9 C 88 % 1009,3 hPa 0,0 l/m 12,9 km/h (3 Bft) W 270 0 min 0,000 mm 0,0 UV-I 0 W/m -1,3 C -5,0 C 19,3 km/h (3 Bft) 100,00 %
29.12.2017 02:50 0,5 C 3,9 C 88 % 1009,2 hPa 0,0 l/m 12,9 km/h (3 Bft) W 270 0 min 0,000 mm 0,0 UV-I 0 W/m -1,3 C -5,0 C 16,1 km/h (3 Bft) 100,00 %
29.12.2017 02:51 0,5 C 3,9 C 88 % 1009,3 hPa 0,0 l/m 20,9 km/h (4 Bft) W-SW 247 0 min 0,000 mm 0,0 UV-I 0 W/m -1,3 C -9,4 C 25,7 km/h (4 Bft) 100,00 %
29.12.2017 02:52 0,5 C 3,9 C 88 % 1009,3 hPa 0,0 l/m 12,9 km/h (3 Bft) W 270 0 min 0,000 mm 0,0 UV-I 0 W/m -1,3 C -5,0 C 20,9 km/h (4 Bft) 95,65 %
29.12.2017 02:53 0,5 C 3,9 C 88 % 1009,2 hPa 0,0 l/m 14,5 km/h (3 Bft) W 270 0 min 0,000 mm 0,0 UV-I 0 W/m -1,3 C -6,1 C 19,3 km/h (3 Bft) 95,65 %
29.12.2017 02:54 0,5 C 3,9 C 88 % 1009,3 hPa 0,0 l/m 14,5 km/h (3 Bft) W 270 0 min 0,000 mm 0,0 UV-I 0 W/m -1,3 C -6,1 C 19,3 km/h (3 Bft) 100,00 %
29.12.2017 02:55 0,5 C 3,9 C 88 % 1009,3 hPa 0,0 l/m 9,7 km/h (2 Bft) W 270 0 min 0,000 mm 0,0 UV-I 0 W/m -1,3 C -2,6 C 16,1 km/h (3 Bft) 100,00 %
29.12.2017 02:56 0,4 C 3,9 C 88 % 1009,4 hPa 0,0 l/m 12,9 km/h (3 Bft) W-SW 247 0 min 0,000 mm 0,0 UV-I 0 W/m -1,3 C -5,2 C 20,9 km/h (4 Bft) 100,00 %
29.12.2017 02:57 0,4 C 3,9 C 88 % 1009,4 hPa 0,0 l/m 16,1 km/h (3 Bft) W-SW 247 0 min 0,000 mm 0,0 UV-I 0 W/m -1,3 C -7,1 C 20,9 km/h (4 Bft) 95,65 %
29.12.2017 02:58 0,5 C 3,9 C 88 % 1009,4 hPa 0,0 l/m 11,3 km/h (2 Bft) W 270 0 min 0,000 mm 0,0 UV-I 0 W/m -1,3 C -3,9 C 14,5 km/h (3 Bft) 100,00 %
29.12.2017 02:59 0,4 C 3,9 C 88 % 1009,4 hPa 0,0 l/m 11,3 km/h (2 Bft) W-SW 247 0 min 0,000 mm 0,0 UV-I 0 W/m -1,3 C -4,0 C 16,1 km/h (3 Bft) 100,00 %
29.12.2017 03:00 0,4 C 3,9 C 88 % 1009,4 hPa 0,0 l/m 16,1 km/h (3 Bft) W 270 0 min 0,025 mm 0,0 UV-I 0 W/m -1,3 C -7,1 C 22,5 km/h (4 Bft) 95,65 %
29.12.2017 03:01 0,5 C 3,9 C 88 % 1009,5 hPa 0,0 l/m 16,1 km/h (3 Bft) W 270 0 min 0,000 mm 0,0 UV-I 0 W/m -1,3 C -7,0 C 25,7 km/h (4 Bft) 100,00 %
29.12.2017 03:02 0,5 C 3,9 C 88 % 1009,5 hPa 0,0 l/m 16,1 km/h (3 Bft) W 270 0 min 0,000 mm 0,0 UV-I 0 W/m -1,3 C -7,0 C 22,5 km/h (4 Bft) 100,00 %
29.12.2017 03:03 0,5 C 3,9 C 88 % 1009,4 hPa 0,0 l/m 17,7 km/h (3 Bft) W 270 0 min 0,000 mm 0,0 UV-I 0 W/m -1,3 C -7,9 C 25,7 km/h (4 Bft) 100,00 %
29.12.2017 03:04 0,5 C 3,9 C 88 % 1009,5 hPa 0,0 l/m 11,3 km/h (2 Bft) W 270 0 min 0,000 mm 0,0 UV-I 0 W/m -1,3 C -3,9 C 19,3 km/h (3 Bft) 100,00 %
29.12.2017 03:05 0,5 C 3,9 C 88 % 1009,5 hPa 0,0 l/m 19,3 km/h (3 Bft) W-SW 247 0 min 0,000 mm 0,0 UV-I 0 W/m -1,3 C -8,7 C 24,1 km/h (4 Bft) 100,00 %
29.12.2017 03:06 0,5 C 3,9 C 88 % 1009,5 hPa 0,0 l/m 17,7 km/h (3 Bft) W-SW 247 0 min 0,000 mm 0,0 UV-I 0 W/m -1,3 C -7,9 C 24,1 km/h (4 Bft) 100,00 %
29.12.2017 03:07 0,4 C 3,9 C 88 % 1009,5 hPa 0,0 l/m 24,1 km/h (4 Bft) W-SW 247 0 min 0,000 mm 0,0 UV-I 0 W/m -1,3 C -10,8 C 32,2 km/h (5 Bft) 95,65 %
29.12.2017 03:08 0,4 C 3,9 C 88 % 1009,5 hPa 0,0 l/m 12,9 km/h (3 Bft) W 270 0 min 0,000 mm 0,0 UV-I 0 W/m -1,3 C -5,2 C 24,1 km/h (4 Bft) 100,00 %
29.12.2017 03:09 0,4 C 3,9 C 88 % 1009,5 hPa 0,0 l/m 14,5 km/h (3 Bft) W 270 0 min 0,000 mm 0,0 UV-I 0 W/m -1,3 C -6,2 C 19,3 km/h (3 Bft) 100,00 %
29.12.2017 03:10 0,4 C 3,9 C 88 % 1009,5 hPa 0,0 l/m 16,1 km/h (3 Bft) W 270 0 min 0,000 mm 0,0 UV-I 0 W/m -1,3 C -7,1 C 24,1 km/h (4 Bft) 100,00 %
29.12.2017 03:11 0,4 C 3,9 C 87 % 1009,5 hPa 0,0 l/m 14,5 km/h (3 Bft) W 270 0 min 0,000 mm 0,0 UV-I 0 W/m -1,5 C -6,2 C 20,9 km/h (4 Bft) 100,00 %
29.12.2017 03:12 0,4 C 3,9 C 87 % 1009,5 hPa 0,0 l/m 17,7 km/h (3 Bft) W 270 0 min 0,000 mm 0,0 UV-I 0 W/m -1,5 C -8,0 C 24,1 km/h (4 Bft) 95,65 %
29.12.2017 03:13 0,4 C 3,9 C 87 % 1009,7 hPa 0,0 l/m 19,3 km/h (3 Bft) W 270 0 min 0,000 mm 0,0 UV-I 0 W/m -1,5 C -8,8 C 27,4 km/h (4 Bft) 95,65 %
29.12.2017 03:14 0,4 C 3,9 C 87 % 1009,5 hPa 0,0 l/m 22,5 km/h (4 Bft) W-SW 247 0 min 0,000 mm 0,0 UV-I 0 W/m -1,5 C -10,2 C 29,0 km/h (5 Bft) 95,65 %
29.12.2017 03:15 0,4 C 3,9 C 87 % 1009,6 hPa 0,0 l/m 12,9 km/h (3 Bft) W 270 0 min 0,000 mm 0,0 UV-I 0 W/m -1,5 C -5,2 C 17,7 km/h (3 Bft) 100,00 %
29.12.2017 03:16 0,4 C 3,9 C 87 % 1009,7 hPa 0,0 l/m 14,5 km/h (3 Bft) W 270 0 min 0,000 mm 0,0 UV-I 0 W/m -1,5 C -6,2 C 17,7 km/h (3 Bft) 100,00 %
29.12.2017 03:17 0,4 C 3,9 C 87 % 1009,6 hPa 0,0 l/m 9,7 km/h (2 Bft) W-SW 247 0 min 0,000 mm 0,0 UV-I 0 W/m -1,5 C -2,8 C 20,9 km/h (4 Bft) 100,00 %
29.12.2017 03:18 0,3 C 3,9 C 87 % 1009,7 hPa 0,0 l/m 14,5 km/h (3 Bft) W 270 0 min 0,000 mm 0,0 UV-I 0 W/m -1,6 C -6,3 C 20,9 km/h (4 Bft) 100,00 %
29.12.2017 03:19 0,3 C 3,9 C 87 % 1009,7 hPa 0,0 l/m 19,3 km/h (3 Bft) W 270 0 min 0,000 mm 0,0 UV-I 0 W/m -1,6 C -8,9 C 30,6 km/h (5 Bft) 100,00 %
29.12.2017 03:20 0,3 C 3,9 C 87 % 1009,7 hPa 0,0 l/m 16,1 km/h (3 Bft) W 270 0 min 0,000 mm 0,0 UV-I 0 W/m -1,6 C -7,3 C 27,4 km/h (4 Bft) 100,00 %
29.12.2017 03:21 0,3 C 3,9 C 86 % 1009,7 hPa 0,0 l/m 16,1 km/h (3 Bft) W-SW 247 0 min 0,000 mm 0,0 UV-I 0 W/m -1,8 C -7,3 C 20,9 km/h (4 Bft) 91,30 %
29.12.2017 03:22 0,3 C 3,9 C 86 % 1009,7 hPa 0,0 l/m 19,3 km/h (3 Bft) W 270 0 min 0,000 mm 0,0 UV-I 0 W/m -1,8 C -8,9 C 29,0 km/h (5 Bft) 100,00 %
29.12.2017 03:23 0,3 C 3,9 C 86 % 1009,7 hPa 0,0 l/m 16,1 km/h (3 Bft) W-SW 247 0 min 0,000 mm 0,0 UV-I 0 W/m -1,8 C -7,3 C 27,4 km/h (4 Bft) 100,00 %
29.12.2017 03:24 0,3 C 3,9 C 85 % 1009,7 hPa 0,0 l/m 17,7 km/h (3 Bft) W-SW 247 0 min 0,000 mm 0,0 UV-I 0 W/m -1,9 C -8,1 C 24,1 km/h (4 Bft) 95,65 %
29.12.2017 03:25 0,3 C 3,9 C 85 % 1009,6 hPa 0,0 l/m 16,1 km/h (3 Bft) W 270 0 min 0,000 mm 0,0 UV-I 0 W/m -1,9 C -7,3 C 29,0 km/h (5 Bft) 95,65 %
29.12.2017 03:26 0,3 C 3,9 C 85 % 1009,7 hPa 0,0 l/m 16,1 km/h (3 Bft) W 270 0 min 0,000 mm 0,0 UV-I 0 W/m -1,9 C -7,3 C 19,3 km/h (3 Bft) 86,96 %
29.12.2017 03:27 0,3 C 3,9 C 85 % 1009,7 hPa 0,0 l/m 24,1 km/h (4 Bft) W-SW 247 0 min 0,000 mm 0,0 UV-I 0 W/m -1,9 C -11,0 C 37,0 km/h (5 Bft) 100,00 %
29.12.2017 03:28 0,3 C 3,9 C 84 % 1009,7 hPa 0,0 l/m 24,1 km/h (4 Bft) W-SW 247 0 min 0,000 mm 0,0 UV-I 0 W/m -2,1 C -11,0 C 33,8 km/h (5 Bft) 95,65 %
29.12.2017 03:29 0,3 C 3,9 C 84 % 1009,7 hPa 0,0 l/m 16,1 km/h (3 Bft) W 270 0 min 0,000 mm 0,0 UV-I 0 W/m -2,1 C -7,3 C 22,5 km/h (4 Bft) 100,00 %
29.12.2017 03:30 0,3 C 3,9 C 84 % 1009,7 hPa 0,0 l/m 19,3 km/h (3 Bft) W 270 0 min 0,000 mm 0,0 UV-I 0 W/m -2,1 C -8,9 C 27,4 km/h (4 Bft) 91,30 %
29.12.2017 03:31 0,3 C 3,9 C 84 % 1009,7 hPa 0,0 l/m 14,5 km/h (3 Bft) W-NW 292 0 min 0,000 mm 0,0 UV-I 0 W/m -2,1 C -6,3 C 25,7 km/h (4 Bft) 100,00 %
29.12.2017 03:32 0,2 C 3,9 C 84 % 1009,8 hPa 0,0 l/m 19,3 km/h (3 Bft) W-NW 292 0 min 0,000 mm 0,0 UV-I 0 W/m -2,2 C -9,0 C 29,0 km/h (5 Bft) 91,30 %
29.12.2017 03:33 0,2 C 3,9 C 83 % 1009,8 hPa 0,0 l/m 20,9 km/h (4 Bft) W 270 0 min 0,000 mm 0,0 UV-I 0 W/m -2,3 C -9,8 C 29,0 km/h (5 Bft) 100,00 %
29.12.2017 03:34 0,2 C 3,9 C 83 % 1009,8 hPa 0,0 l/m 17,7 km/h (3 Bft) W 270 0 min 0,000 mm 0,0 UV-I 0 W/m -2,3 C -8,2 C 25,7 km/h (4 Bft) 86,96 %
29.12.2017 03:35 0,2 C 3,9 C 83 % 1009,9 hPa 0,0 l/m 19,3 km/h (3 Bft) W 270 0 min 0,000 mm 0,0 UV-I 0 W/m -2,3 C -9,0 C 29,0 km/h (5 Bft) 91,30 %
29.12.2017 03:36 0,2 C 3,9 C 83 % 1009,9 hPa 0,0 l/m 20,9 km/h (4 Bft) W 270 0 min 0,000 mm 0,0 UV-I 0 W/m -2,3 C -9,8 C 30,6 km/h (5 Bft) 100,00 %
29.12.2017 03:37 0,2 C 3,9 C 82 % 1009,9 hPa 0,0 l/m 16,1 km/h (3 Bft) W-SW 247 0 min 0,000 mm 0,0 UV-I 0 W/m -2,5 C -7,4 C 30,6 km/h (5 Bft) 91,30 %
29.12.2017 03:38 0,2 C 3,9 C 82 % 1009,9 hPa 0,0 l/m 17,7 km/h (3 Bft) W-SW 247 0 min 0,000 mm 0,0 UV-I 0 W/m -2,5 C -8,2 C 24,1 km/h (4 Bft) 100,00 %
29.12.2017 03:39 0,2 C 3,9 C 82 % 1009,9 hPa 0,0 l/m 20,9 km/h (4 Bft) W 270 0 min 0,000 mm 0,0 UV-I 0 W/m -2,5 C -9,8 C 30,6 km/h (5 Bft) 91,30 %
29.12.2017 03:40 0,2 C 3,9 C 82 % 1010,0 hPa 0,0 l/m 16,1 km/h (3 Bft) W 270 0 min 0,000 mm 0,0 UV-I 0 W/m -2,5 C -7,4 C 22,5 km/h (4 Bft) 100,00 %
29.12.2017 03:41 0,2 C 3,9 C 82 % 1010,0 hPa 0,0 l/m 24,1 km/h (4 Bft) W 270 0 min 0,000 mm 0,0 UV-I 0 W/m -2,5 C -11,1 C 46,7 km/h (6 Bft) 91,30 %
29.12.2017 03:42 0,2 C 3,9 C 81 % 1010,0 hPa 0,0 l/m 24,1 km/h (4 Bft) W 270 0 min 0,000 mm 0,0 UV-I 0 W/m -2,7 C -11,1 C 46,7 km/h (6 Bft) 95,65 %
29.12.2017 03:43 0,2 C 3,9 C 81 % 1010,0 hPa 0,0 l/m 20,9 km/h (4 Bft) W 270 0 min 0,000 mm 0,0 UV-I 0 W/m -2,7 C -9,8 C 29,0 km/h (5 Bft) 86,96 %
29.12.2017 03:44 0,2 C 3,9 C 81 % 1010,1 hPa 0,0 l/m 19,3 km/h (3 Bft) W-SW 247 0 min 0,000 mm 0,0 UV-I 0 W/m -2,7 C -9,0 C 27,4 km/h (4 Bft) 95,65 %
29.12.2017 03:45 0,2 C 3,9 C 82 % 1010,1 hPa 0,0 l/m 20,9 km/h (4 Bft) W 270 0 min 0,000 mm 0,0 UV-I 0 W/m -2,5 C -9,8 C 27,4 km/h (4 Bft) 91,30 %
29.12.2017 03:46 0,2 C 3,9 C 82 % 1010,1 hPa 0,0 l/m 25,7 km/h (4 Bft) W 270 0 min 0,000 mm 0,0 UV-I 0 W/m -2,5 C -11,7 C 30,6 km/h (5 Bft) 95,65 %
29.12.2017 03:47 0,2 C 3,9 C 82 % 1010,1 hPa 0,0 l/m 19,3 km/h (3 Bft) W 270 0 min 0,000 mm 0,0 UV-I 0 W/m -2,5 C -9,0 C 29,0 km/h (5 Bft) 100,00 %
29.12.2017 03:48 0,2 C 3,9 C 82 % 1010,1 hPa 0,0 l/m 17,7 km/h (3 Bft) W-SW 247 0 min 0,000 mm 0,0 UV-I 0 W/m -2,5 C -8,2 C 27,4 km/h (4 Bft) 91,30 %
29.12.2017 03:49 0,2 C 3,9 C 82 % 1010,1 hPa 0,0 l/m 24,1 km/h (4 Bft) W 270 0 min 0,000 mm 0,0 UV-I 0 W/m -2,5 C -11,1 C 32,2 km/h (5 Bft) 91,30 %
29.12.2017 03:50 0,2 C 3,9 C 82 % 1010,2 hPa 0,0 l/m 24,1 km/h (4 Bft) W-SW 247 0 min 0,000 mm 0,0 UV-I 0 W/m -2,5 C -11,1 C 33,8 km/h (5 Bft) 91,30 %
29.12.2017 03:51 0,2 C 3,9 C 81 % 1010,2 hPa 0,0 l/m 17,7 km/h (3 Bft) W 270 0 min 0,000 mm 0,0 UV-I 0 W/m -2,7 C -8,2 C 25,7 km/h (4 Bft) 100,00 %
29.12.2017 03:52 0,2 C 3,9 C 82 % 1010,2 hPa 0,0 l/m 17,7 km/h (3 Bft) W-SW 247 0 min 0,000 mm 0,0 UV-I 0 W/m -2,5 C -8,2 C 24,1 km/h (4 Bft) 95,65 %
29.12.2017 03:53 0,2 C 3,9 C 82 % 1010,1 hPa 0,0 l/m 25,7 km/h (4 Bft) W 270 0 min 0,000 mm 0,0 UV-I 0 W/m -2,5 C -11,7 C 35,4 km/h (5 Bft) 95,65 %
29.12.2017 03:54 0,2 C 3,9 C 82 % 1010,3 hPa 0,0 l/m 22,5 km/h (4 Bft) W-SW 247 0 min 0,000 mm 0,0 UV-I 0 W/m -2,5 C -10,5 C 33,8 km/h (5 Bft) 95,65 %
29.12.2017 03:55 0,2 C 3,9 C 82 % 1010,2 hPa 0,0 l/m 19,3 km/h (3 Bft) W 270 0 min 0,000 mm 0,0 UV-I 0 W/m -2,5 C -9,0 C 30,6 km/h (5 Bft) 95,65 %
29.12.2017 03:56 0,2 C 3,9 C 82 % 1010,2 hPa 0,0 l/m 22,5 km/h (4 Bft) W-SW 247 0 min 0,000 mm 0,0 UV-I 0 W/m -2,5 C -10,5 C 32,2 km/h (5 Bft) 95,65 %
29.12.2017 03:57 0,2 C 3,9 C 82 % 1010,3 hPa 0,0 l/m 19,3 km/h (3 Bft) W-SW 247 0 min 0,000 mm 0,0 UV-I 0 W/m -2,5 C -9,0 C 30,6 km/h (5 Bft) 91,30 %
29.12.2017 03:58 0,2 C 3,9 C 82 % 1010,4 hPa 0,0 l/m 16,1 km/h (3 Bft) W-SW 247 0 min 0,000 mm 0,0 UV-I 0 W/m -2,5 C -7,4 C 29,0 km/h (5 Bft) 100,00 %
29.12.2017 03:59 0,2 C 3,9 C 82 % 1010,4 hPa 0,0 l/m 14,5 km/h (3 Bft) W 270 0 min 0,000 mm 0,0 UV-I 0 W/m -2,5 C -6,4 C 30,6 km/h (5 Bft) 95,65 %
29.12.2017 04:00 0,2 C 3,9 C 83 % 1010,5 hPa 0,0 l/m 14,5 km/h (3 Bft) W-SW 247 0 min 0,025 mm 0,0 UV-I 0 W/m -2,3 C -6,4 C 20,9 km/h (4 Bft) 100,00 %
29.12.2017 04:01 0,2 C 3,9 C 83 % 1010,5 hPa 0,0 l/m 14,5 km/h (3 Bft) W 270 0 min 0,000 mm 0,0 UV-I 0 W/m -2,3 C -6,4 C 24,1 km/h (4 Bft) 95,65 %
29.12.2017 04:02 0,2 C 3,9 C 83 % 1010,5 hPa 0,0 l/m 11,3 km/h (2 Bft) W 270 0 min 0,000 mm 0,0 UV-I 0 W/m -2,3 C -4,3 C 16,1 km/h (3 Bft) 95,65 %
29.12.2017 04:03 0,2 C 3,9 C 83 % 1010,5 hPa 0,0 l/m 16,1 km/h (3 Bft) W-SW 247 0 min 0,000 mm 0,0 UV-I 0 W/m -2,3 C -7,4 C 25,7 km/h (4 Bft) 95,65 %
29.12.2017 04:04 0,2 C 3,9 C 83 % 1010,6 hPa 0,0 l/m 16,1 km/h (3 Bft) W 270 0 min 0,000 mm 0,0 UV-I 0 W/m -2,3 C -7,4 C 25,7 km/h (4 Bft) 100,00 %
29.12.2017 04:05 0,2 C 3,9 C 83 % 1010,5 hPa 0,0 l/m 19,3 km/h (3 Bft) W 270 0 min 0,000 mm 0,0 UV-I 0 W/m -2,3 C -9,0 C 27,4 km/h (4 Bft) 100,00 %
29.12.2017 04:06 0,2 C 3,9 C 83 % 1010,6 hPa 0,0 l/m 14,5 km/h (3 Bft) W 270 0 min 0,000 mm 0,0 UV-I 0 W/m -2,3 C -6,4 C 24,1 km/h (4 Bft) 100,00 %
29.12.2017 04:07 0,2 C 3,9 C 83 % 1010,6 hPa 0,0 l/m 24,1 km/h (4 Bft) W-SW 247 0 min 0,000 mm 0,0 UV-I 0 W/m -2,3 C -11,1 C 29,0 km/h (5 Bft) 100,00 %
29.12.2017 04:08 0,2 C 3,9 C 83 % 1010,6 hPa 0,0 l/m 16,1 km/h (3 Bft) W 270 0 min 0,000 mm 0,0 UV-I 0 W/m -2,3 C -7,4 C 25,7 km/h (4 Bft) 100,00 %
29.12.2017 04:09 0,2 C 3,9 C 83 % 1010,6 hPa 0,0 l/m 19,3 km/h (3 Bft) W 270 0 min 0,000 mm 0,0 UV-I 0 W/m -2,3 C -9,0 C 25,7 km/h (4 Bft) 100,00 %
29.12.2017 04:10 0,2 C 3,9 C 83 % 1010,7 hPa 0,0 l/m 19,3 km/h (3 Bft) W 270 0 min 0,000 mm 0,0 UV-I 0 W/m -2,3 C -9,0 C 27,4 km/h (4 Bft) 95,65 %
29.12.2017 04:11 0,2 C 3,9 C 82 % 1010,7 hPa 0,0 l/m 12,9 km/h (3 Bft) W-SW 247 0 min 0,000 mm 0,0 UV-I 0 W/m -2,5 C -5,4 C 19,3 km/h (3 Bft) 100,00 %
29.12.2017 04:12 0,2 C 3,9 C 83 % 1010,7 hPa 0,0 l/m 17,7 km/h (3 Bft) W-SW 247 0 min 0,000 mm 0,0 UV-I 0 W/m -2,3 C -8,2 C 25,7 km/h (4 Bft) 100,00 %
29.12.2017 04:13 0,1 C 3,9 C 83 % 1010,7 hPa 0,0 l/m 12,9 km/h (3 Bft) W-SW 247 0 min 0,000 mm 0,0 UV-I 0 W/m -2,4 C -5,5 C 17,7 km/h (3 Bft) 100,00 %
29.12.2017 04:14 0,1 C 3,9 C 83 % 1010,7 hPa 0,0 l/m 14,5 km/h (3 Bft) W 270 0 min 0,000 mm 0,0 UV-I 0 W/m -2,4 C -6,6 C 20,9 km/h (4 Bft) 100,00 %
29.12.2017 04:15 0,1 C 3,9 C 83 % 1010,7 hPa 0,0 l/m 12,9 km/h (3 Bft) W-SW 247 0 min 0,000 mm 0,0 UV-I 0 W/m -2,4 C -5,5 C 16,1 km/h (3 Bft) 100,00 %
29.12.2017 04:16 0,1 C 3,9 C 83 % 1010,7 hPa 0,0 l/m 9,7 km/h (2 Bft) W-SW 247 0 min 0,000 mm 0,0 UV-I 0 W/m -2,4 C -3,1 C 14,5 km/h (3 Bft) 100,00 %
29.12.2017 04:17 0,1 C 3,9 C 83 % 1010,8 hPa 0,0 l/m 17,7 km/h (3 Bft) W 270 0 min 0,000 mm 0,0 UV-I 0 W/m -2,4 C -8,4 C 24,1 km/h (4 Bft) 95,65 %
29.12.2017 04:18 0,1 C 3,9 C 83 % 1010,8 hPa 0,0 l/m 14,5 km/h (3 Bft) W-SW 247 0 min 0,000 mm 0,0 UV-I 0 W/m -2,4 C -6,6 C 22,5 km/h (4 Bft) 100,00 %
29.12.2017 04:19 0,1 C 3,9 C 83 % 1010,8 hPa 0,0 l/m 20,9 km/h (4 Bft) W 270 0 min 0,000 mm 0,0 UV-I 0 W/m -2,4 C -9,9 C 29,0 km/h (5 Bft) 100,00 %
29.12.2017 04:20 0,1 C 3,9 C 83 % 1010,7 hPa 0,0 l/m 20,9 km/h (4 Bft) W-SW 247 0 min 0,000 mm 0,0 UV-I 0 W/m -2,4 C -9,9 C 33,8 km/h (5 Bft) 100,00 %
29.12.2017 04:21 0,1 C 3,9 C 83 % 1010,7 hPa 0,0 l/m 12,9 km/h (3 Bft) W-SW 247 0 min 0,000 mm 0,0 UV-I 0 W/m -2,4 C -5,5 C 19,3 km/h (3 Bft) 95,65 %
29.12.2017 04:22 0,1 C 3,9 C 83 % 1010,8 hPa 0,0 l/m 19,3 km/h (3 Bft) W-SW 247 0 min 0,000 mm 0,0 UV-I 0 W/m -2,4 C -9,2 C 24,1 km/h (4 Bft) 95,65 %
29.12.2017 04:23 0,1 C 3,9 C 82 % 1010,8 hPa 0,0 l/m 20,9 km/h (4 Bft) W-SW 247 0 min 0,000 mm 0,0 UV-I 0 W/m -2,6 C -9,9 C 27,4 km/h (4 Bft) 100,00 %
29.12.2017 04:24 0,1 C 3,9 C 82 % 1010,8 hPa 0,0 l/m 20,9 km/h (4 Bft) W-SW 247 0 min 0,000 mm 0,0 UV-I 0 W/m -2,6 C -9,9 C 25,7 km/h (4 Bft) 95,65 %
29.12.2017 04:25 0,1 C 3,9 C 82 % 1010,8 hPa 0,0 l/m 11,3 km/h (2 Bft) W-SW 247 0 min 0,000 mm 0,0 UV-I 0 W/m -2,6 C -4,4 C 16,1 km/h (3 Bft) 95,65 %
29.12.2017 04:26 0,1 C 3,9 C 83 % 1010,8 hPa 0,0 l/m 20,9 km/h (4 Bft) W 270 0 min 0,000 mm 0,0 UV-I 0 W/m -2,4 C -9,9 C 35,4 km/h (5 Bft) 100,00 %
29.12.2017 04:27 0,1 C 3,9 C 82 % 1010,8 hPa 0,0 l/m 24,1 km/h (4 Bft) W 270 0 min 0,000 mm 0,0 UV-I 0 W/m -2,6 C -11,2 C 30,6 km/h (5 Bft) 95,65 %
29.12.2017 04:28 0,1 C 3,9 C 82 % 1010,8 hPa 0,0 l/m 17,7 km/h (3 Bft) W-SW 247 0 min 0,000 mm 0,0 UV-I 0 W/m -2,6 C -8,4 C 24,1 km/h (4 Bft) 100,00 %
29.12.2017 04:29 0,1 C 3,9 C 82 % 1010,8 hPa 0,0 l/m 17,7 km/h (3 Bft) W-SW 247 0 min 0,000 mm 0,0 UV-I 0 W/m -2,6 C -8,4 C 25,7 km/h (4 Bft) 100,00 %
29.12.2017 04:30 0,1 C 3,9 C 82 % 1010,9 hPa 0,0 l/m 17,7 km/h (3 Bft) W 270 0 min 0,000 mm 0,0 UV-I 0 W/m -2,6 C -8,4 C 32,2 km/h (5 Bft) 91,30 %
29.12.2017 04:31 0,1 C 3,9 C 82 % 1010,8 hPa 0,0 l/m 17,7 km/h (3 Bft) W 270 0 min 0,000 mm 0,0 UV-I 0 W/m -2,6 C -8,4 C 32,2 km/h (5 Bft) 95,65 %
29.12.2017 04:32 0,1 C 3,9 C 82 % 1010,9 hPa 0,0 l/m 16,1 km/h (3 Bft) W 270 0 min 0,000 mm 0,0 UV-I 0 W/m -2,6 C -7,5 C 27,4 km/h (4 Bft) 100,00 %
29.12.2017 04:33 0,1 C 3,9 C 82 % 1010,8 hPa 0,0 l/m 14,5 km/h (3 Bft) W-SW 247 0 min 0,000 mm 0,0 UV-I 0 W/m -2,6 C -6,6 C 19,3 km/h (3 Bft) 100,00 %
29.12.2017 04:34 0,1 C 3,9 C 82 % 1010,9 hPa 0,0 l/m 16,1 km/h (3 Bft) W 270 0 min 0,000 mm 0,0 UV-I 0 W/m -2,6 C -7,5 C 22,5 km/h (4 Bft) 91,30 %
29.12.2017 04:35 0,1 C 3,9 C 82 % 1010,9 hPa 0,0 l/m 12,9 km/h (3 Bft) W 270 0 min 0,000 mm 0,0 UV-I 0 W/m -2,6 C -5,5 C 16,1 km/h (3 Bft) 100,00 %
29.12.2017 04:36 0,1 C 3,9 C 82 % 1010,9 hPa 0,0 l/m 16,1 km/h (3 Bft) W-SW 247 0 min 0,000 mm 0,0 UV-I 0 W/m -2,6 C -7,5 C 22,5 km/h (4 Bft) 100,00 %
29.12.2017 04:37 0,0 C 3,9 C 82 % 1010,9 hPa 0,0 l/m 14,5 km/h (3 Bft) W-SW 247 0 min 0,000 mm 0,0 UV-I 0 W/m -2,7 C -6,7 C 17,7 km/h (3 Bft) 100,00 %
29.12.2017 04:38 0,0 C 3,9 C 82 % 1011,0 hPa 0,0 l/m 14,5 km/h (3 Bft) W 270 0 min 0,000 mm 0,0 UV-I 0 W/m -2,7 C -6,7 C 19,3 km/h (3 Bft) 95,65 %
29.12.2017 04:39 0,0 C 3,9 C 82 % 1010,9 hPa 0,0 l/m 11,3 km/h (2 Bft) W-SW 247 0 min 0,000 mm 0,0 UV-I 0 W/m -2,7 C -4,5 C 14,5 km/h (3 Bft) 100,00 %
29.12.2017 04:40 0,0 C 3,9 C 82 % 1011,0 hPa 0,0 l/m 9,7 km/h (2 Bft) W 270 0 min 0,000 mm 0,0 UV-I 0 W/m -2,7 C -3,2 C 12,9 km/h (3 Bft) 100,00 %
29.12.2017 04:41 -0,1 C 3,9 C 83 % 1011,1 hPa 0,0 l/m 11,3 km/h (2 Bft) W-SW 247 0 min 0,000 mm 0,0 UV-I 0 W/m -2,6 C -4,6 C 17,7 km/h (3 Bft) 100,00 %
29.12.2017 04:42 0,0 C 3,9 C 83 % 1011,0 hPa 0,0 l/m 14,5 km/h (3 Bft) W-SW 247 0 min 0,000 mm 0,0 UV-I 0 W/m -2,5 C -6,7 C 20,9 km/h (4 Bft) 100,00 %
29.12.2017 04:43 0,0 C 3,9 C 83 % 1011,0 hPa 0,0 l/m 19,3 km/h (3 Bft) W-SW 247 0 min 0,000 mm 0,0 UV-I 0 W/m -2,5 C -9,3 C 24,1 km/h (4 Bft) 100,00 %
29.12.2017 04:44 0,0 C 3,9 C 82 % 1011,0 hPa 0,0 l/m 14,5 km/h (3 Bft) W-SW 247 0 min 0,000 mm 0,0 UV-I 0 W/m -2,7 C -6,7 C 20,9 km/h (4 Bft) 100,00 %
29.12.2017 04:45 0,0 C 3,9 C 83 % 1011,1 hPa 0,0 l/m 9,7 km/h (2 Bft) W 270 0 min 0,000 mm 0,0 UV-I 0 W/m -2,5 C -3,2 C 16,1 km/h (3 Bft) 95,65 %
29.12.2017 04:46 0,0 C 3,9 C 83 % 1011,0 hPa 0,0 l/m 14,5 km/h (3 Bft) W-SW 247 0 min 0,000 mm 0,0 UV-I 0 W/m -2,5 C -6,7 C 19,3 km/h (3 Bft) 100,00 %
29.12.2017 04:47 0,0 C 3,9 C 83 % 1011,1 hPa 0,0 l/m 12,9 km/h (3 Bft) W 270 0 min 0,000 mm 0,0 UV-I 0 W/m -2,5 C -5,6 C 19,3 km/h (3 Bft) 95,65 %
29.12.2017 04:48 -0,1 C 3,9 C 83 % 1011,1 hPa 0,0 l/m 16,1 km/h (3 Bft) W-SW 247 0 min 0,000 mm 0,0 UV-I 0 W/m -2,6 C -7,7 C 20,9 km/h (4 Bft) 100,00 %
29.12.2017 04:49 -0,1 C 3,9 C 83 % 1011,1 hPa 0,0 l/m 11,3 km/h (2 Bft) W-SW 247 0 min 0,000 mm 0,0 UV-I 0 W/m -2,6 C -4,6 C 16,1 km/h (3 Bft) 91,30 %
29.12.2017 04:50 0,0 C 3,9 C 83 % 1011,1 hPa 0,0 l/m 16,1 km/h (3 Bft) W 270 0 min 0,000 mm 0,0 UV-I 0 W/m -2,5 C -7,6 C 24,1 km/h (4 Bft) 100,00 %
29.12.2017 04:51 0,0 C 3,9 C 83 % 1011,0 hPa 0,0 l/m 16,1 km/h (3 Bft) W 270 0 min 0,000 mm 0,0 UV-I 0 W/m -2,5 C -7,6 C 20,9 km/h (4 Bft) 91,30 %
29.12.2017 04:52 0,0 C 3,9 C 83 % 1011,1 hPa 0,0 l/m 16,1 km/h (3 Bft) W-SW 247 0 min 0,000 mm 0,0 UV-I 0 W/m -2,5 C -7,6 C 22,5 km/h (4 Bft) 95,65 %
29.12.2017 04:53 0,0 C 3,9 C 83 % 1011,1 hPa 0,0 l/m 17,7 km/h (3 Bft) W-SW 247 0 min 0,000 mm 0,0 UV-I 0 W/m -2,5 C -8,5 C 19,3 km/h (3 Bft) 91,30 %
29.12.2017 04:54 0,0 C 3,9 C 83 % 1011,1 hPa 0,0 l/m 12,9 km/h (3 Bft) W 270 0 min 0,000 mm 0,0 UV-I 0 W/m -2,5 C -5,6 C 16,1 km/h (3 Bft) 100,00 %
29.12.2017 04:55 0,0 C 3,9 C 83 % 1011,1 hPa 0,0 l/m 11,3 km/h (2 Bft) W-SW 247 0 min 0,000 mm 0,0 UV-I 0 W/m -2,5 C -4,5 C 17,7 km/h (3 Bft) 95,65 %
29.12.2017 04:56 -0,1 C 3,9 C 83 % 1011,2 hPa 0,0 l/m 14,5 km/h (3 Bft) W-SW 247 0 min 0,000 mm 0,0 UV-I 0 W/m -2,6 C -6,8 C 17,7 km/h (3 Bft) 95,65 %
29.12.2017 04:57 -0,1 C 3,9 C 83 % 1011,1 hPa 0,0 l/m 11,3 km/h (2 Bft) W 270 0 min 0,000 mm 0,0 UV-I 0 W/m -2,6 C -4,6 C 20,9 km/h (4 Bft) 95,65 %
29.12.2017 04:58 -0,1 C 3,9 C 83 % 1011,0 hPa 0,0 l/m 14,5 km/h (3 Bft) W-SW 247 0 min 0,000 mm 0,0 UV-I 0 W/m -2,6 C -6,8 C 19,3 km/h (3 Bft) 95,65 %
29.12.2017 04:59 -0,1 C 3,9 C 83 % 1011,1 hPa 0,0 l/m 11,3 km/h (2 Bft) W 270 0 min 0,000 mm 0,0 UV-I 0 W/m -2,6 C -4,6 C 16,1 km/h (3 Bft) 95,65 %
29.12.2017 05:00 -0,1 C 3,9 C 83 % 1011,0 hPa 0,0 l/m 14,5 km/h (3 Bft) W-SW 247 0 min 0,025 mm 0,0 UV-I 0 W/m -2,6 C -6,8 C 19,3 km/h (3 Bft) 95,65 %
29.12.2017 05:01 -0,1 C 3,9 C 83 % 1011,1 hPa 0,0 l/m 16,1 km/h (3 Bft) W 270 0 min 0,000 mm 0,0 UV-I 0 W/m -2,6 C -7,7 C 20,9 km/h (4 Bft) 95,65 %
29.12.2017 05:02 -0,1 C 3,9 C 83 % 1011,2 hPa 0,0 l/m 14,5 km/h (3 Bft) W-SW 247 0 min 0,000 mm 0,0 UV-I 0 W/m -2,6 C -6,8 C 24,1 km/h (4 Bft) 95,65 %
29.12.2017 05:03 -0,1 C 3,9 C 83 % 1011,2 hPa 0,0 l/m 17,7 km/h (3 Bft) W-SW 247 0 min 0,000 mm 0,0 UV-I 0 W/m -2,6 C -8,6 C 22,5 km/h (4 Bft) 100,00 %
29.12.2017 05:04 -0,1 C 3,9 C 83 % 1011,2 hPa 0,0 l/m 14,5 km/h (3 Bft) W-SW 247 0 min 0,000 mm 0,0 UV-I 0 W/m -2,6 C -6,8 C 20,9 km/h (4 Bft) 95,65 %
29.12.2017 05:05 -0,1 C 3,9 C 82 % 1011,2 hPa 0,0 l/m 12,9 km/h (3 Bft) W-SW 247 0 min 0,000 mm 0,0 UV-I 0 W/m -2,8 C -5,8 C 19,3 km/h (3 Bft) 100,00 %
29.12.2017 05:06 0,0 C 3,9 C 82 % 1011,2 hPa 0,0 l/m 19,3 km/h (3 Bft) W-SW 247 0 min 0,000 mm 0,0 UV-I 0 W/m -2,7 C -9,3 C 24,1 km/h (4 Bft) 95,65 %
29.12.2017 05:07 0,0 C 3,9 C 83 % 1011,3 hPa 0,0 l/m 20,9 km/h (4 Bft) W-SW 247 0 min 0,000 mm 0,0 UV-I 0 W/m -2,5 C -10,0 C 27,4 km/h (4 Bft) 95,65 %
29.12.2017 05:08 0,0 C 3,9 C 82 % 1011,2 hPa 0,0 l/m 16,1 km/h (3 Bft) W-SW 247 0 min 0,000 mm 0,0 UV-I 0 W/m -2,7 C -7,6 C 20,9 km/h (4 Bft) 95,65 %
29.12.2017 05:09 0,0 C 3,9 C 82 % 1011,3 hPa 0,0 l/m 20,9 km/h (4 Bft) W-SW 247 0 min 0,000 mm 0,0 UV-I 0 W/m -2,7 C -10,0 C 25,7 km/h (4 Bft) 95,65 %
29.12.2017 05:10 0,0 C 3,9 C 82 % 1011,2 hPa 0,0 l/m 17,7 km/h (3 Bft) W-SW 247 0 min 0,000 mm 0,0 UV-I 0 W/m -2,7 C -8,5 C 25,7 km/h (4 Bft) 95,65 %
29.12.2017 05:11 0,0 C 3,9 C 82 % 1011,3 hPa 0,0 l/m 12,9 km/h (3 Bft) W-SW 247 0 min 0,000 mm 0,0 UV-I 0 W/m -2,7 C -5,6 C 14,5 km/h (3 Bft) 100,00 %
29.12.2017 05:12 0,0 C 3,9 C 82 % 1011,2 hPa 0,0 l/m 16,1 km/h (3 Bft) W-SW 247 0 min 0,000 mm 0,0 UV-I 0 W/m -2,7 C -7,6 C 22,5 km/h (4 Bft) 100,00 %
29.12.2017 05:13 0,0 C 3,9 C 83 % 1011,3 hPa 0,0 l/m 12,9 km/h (3 Bft) W-SW 247 0 min 0,000 mm 0,0 UV-I 0 W/m -2,5 C -5,6 C 17,7 km/h (3 Bft) 95,65 %
29.12.2017 05:14 0,0 C 3,9 C 83 % 1011,3 hPa 0,0 l/m 12,9 km/h (3 Bft) W-SW 247 0 min 0,000 mm 0,0 UV-I 0 W/m -2,5 C -5,6 C 16,1 km/h (3 Bft) 100,00 %
29.12.2017 05:15 -0,1 C 3,9 C 83 % 1011,3 hPa 0,0 l/m 11,3 km/h (2 Bft) W 270 0 min 0,000 mm 0,0 UV-I 0 W/m -2,6 C -4,6 C 16,1 km/h (3 Bft) 100,00 %
29.12.2017 05:16 -0,1 C 3,9 C 83 % 1011,4 hPa 0,0 l/m 17,7 km/h (3 Bft) W-SW 247 0 min 0,000 mm 0,0 UV-I 0 W/m -2,6 C -8,6 C 20,9 km/h (4 Bft) 100,00 %
29.12.2017 05:17 -0,1 C 3,9 C 83 % 1011,4 hPa 0,0 l/m 14,5 km/h (3 Bft) W-SW 247 0 min 0,000 mm 0,0 UV-I 0 W/m -2,6 C -6,8 C 22,5 km/h (4 Bft) 100,00 %
29.12.2017 05:18 -0,1 C 3,9 C 83 % 1011,4 hPa 0,0 l/m 16,1 km/h (3 Bft) W-SW 247 0 min 0,000 mm 0,0 UV-I 0 W/m -2,6 C -7,7 C 29,0 km/h (5 Bft) 100,00 %
29.12.2017 05:19 0,0 C 3,9 C 82 % 1011,4 hPa 0,0 l/m 17,7 km/h (3 Bft) W 270 0 min 0,000 mm 0,0 UV-I 0 W/m -2,7 C -8,5 C 29,0 km/h (5 Bft) 100,00 %
29.12.2017 05:20 0,0 C 3,9 C 82 % 1011,4 hPa 0,0 l/m 12,9 km/h (3 Bft) SW 225 0 min 0,000 mm 0,0 UV-I 0 W/m -2,7 C -5,6 C 19,3 km/h (3 Bft) 95,65 %
29.12.2017 05:21 0,0 C 3,9 C 82 % 1011,4 hPa 0,0 l/m 16,1 km/h (3 Bft) W-SW 247 0 min 0,000 mm 0,0 UV-I 0 W/m -2,7 C -7,6 C 22,5 km/h (4 Bft) 100,00 %
29.12.2017 05:22 0,0 C 3,9 C 82 % 1011,4 hPa 0,0 l/m 16,1 km/h (3 Bft) SW 225 0 min 0,000 mm 0,0 UV-I 0 W/m -2,7 C -7,6 C 20,9 km/h (4 Bft) 100,00 %
29.12.2017 05:23 0,0 C 3,9 C 83 % 1011,4 hPa 0,0 l/m 14,5 km/h (3 Bft) W-SW 247 0 min 0,000 mm 0,0 UV-I 0 W/m -2,5 C -6,7 C 20,9 km/h (4 Bft) 100,00 %
29.12.2017 05:24 0,0 C 3,9 C 83 % 1011,4 hPa 0,0 l/m 12,9 km/h (3 Bft) SW 225 0 min 0,000 mm 0,0 UV-I 0 W/m -2,5 C -5,6 C 19,3 km/h (3 Bft) 100,00 %
29.12.2017 05:25 0,0 C 3,9 C 83 % 1011,4 hPa 0,0 l/m 12,9 km/h (3 Bft) W-SW 247 0 min 0,000 mm 0,0 UV-I 0 W/m -2,5 C -5,6 C 17,7 km/h (3 Bft) 100,00 %
29.12.2017 05:26 0,0 C 3,9 C 83 % 1011,4 hPa 0,0 l/m 16,1 km/h (3 Bft) W-SW 247 0 min 0,000 mm 0,0 UV-I 0 W/m -2,5 C -7,6 C 22,5 km/h (4 Bft) 100,00 %
29.12.2017 05:27 0,0 C 3,9 C 83 % 1011,4 hPa 0,0 l/m 16,1 km/h (3 Bft) W-SW 247 0 min 0,000 mm 0,0 UV-I 0 W/m -2,5 C -7,6 C 25,7 km/h (4 Bft) 91,30 %
29.12.2017 05:28 0,0 C 3,9 C 83 % 1011,4 hPa 0,0 l/m 14,5 km/h (3 Bft) SW 225 0 min 0,000 mm 0,0 UV-I 0 W/m -2,5 C -6,7 C 22,5 km/h (4 Bft) 100,00 %
29.12.2017 05:29 0,0 C 3,9 C 83 % 1011,5 hPa 0,0 l/m 12,9 km/h (3 Bft) SW 225 0 min 0,000 mm 0,0 UV-I 0 W/m -2,5 C -5,6 C 16,1 km/h (3 Bft) 95,65 %
29.12.2017 05:30 0,0 C 3,9 C 84 % 1011,5 hPa 0,0 l/m 11,3 km/h (2 Bft) W-SW 247 0 min 0,000 mm 0,0 UV-I 0 W/m -2,4 C -4,5 C 14,5 km/h (3 Bft) 100,00 %
29.12.2017 05:31 -0,1 C 3,9 C 84 % 1011,5 hPa 0,0 l/m 12,9 km/h (3 Bft) SW 225 0 min 0,000 mm 0,0 UV-I 0 W/m -2,5 C -5,8 C 17,7 km/h (3 Bft) 100,00 %
29.12.2017 05:32 -0,1 C 3,9 C 84 % 1011,5 hPa 0,0 l/m 14,5 km/h (3 Bft) SW 225 0 min 0,000 mm 0,0 UV-I 0 W/m -2,5 C -6,8 C 17,7 km/h (3 Bft) 91,30 %
29.12.2017 05:33 -0,1 C 3,9 C 84 % 1011,5 hPa 0,0 l/m 14,5 km/h (3 Bft) SW 225 0 min 0,000 mm 0,0 UV-I 0 W/m -2,5 C -6,8 C 22,5 km/h (4 Bft) 100,00 %
29.12.2017 05:34 -0,1 C 3,9 C 85 % 1011,5 hPa 0,0 l/m 11,3 km/h (2 Bft) SW 225 0 min 0,000 mm 0,0 UV-I 0 W/m -2,3 C -4,6 C 17,7 km/h (3 Bft) 86,96 %
29.12.2017 05:35 -0,1 C 3,9 C 85 % 1011,5 hPa 0,0 l/m 11,3 km/h (2 Bft) W-SW 247 0 min 0,000 mm 0,0 UV-I 0 W/m -2,3 C -4,6 C 14,5 km/h (3 Bft) 100,00 %
29.12.2017 05:36 -0,1 C 3,9 C 85 % 1011,5 hPa 0,0 l/m 11,3 km/h (2 Bft) W-SW 247 0 min 0,000 mm 0,0 UV-I 0 W/m -2,3 C -4,6 C 16,1 km/h (3 Bft) 95,65 %
29.12.2017 05:37 -0,1 C 3,9 C 86 % 1011,5 hPa 0,0 l/m 9,7 km/h (2 Bft) W-SW 247 0 min 0,000 mm 0,0 UV-I 0 W/m -2,2 C -3,3 C 16,1 km/h (3 Bft) 95,65 %
29.12.2017 05:38 -0,2 C 3,9 C 86 % 1011,5 hPa 0,0 l/m 9,7 km/h (2 Bft) W-SW 247 0 min 0,000 mm 0,0 UV-I 0 W/m -2,3 C -3,4 C 12,9 km/h (3 Bft) 100,00 %
29.12.2017 05:39 -0,2 C 3,9 C 86 % 1011,5 hPa 0,0 l/m 9,7 km/h (2 Bft) W-SW 247 0 min 0,000 mm 0,0 UV-I 0 W/m -2,3 C -3,4 C 17,7 km/h (3 Bft) 95,65 %
29.12.2017 05:40 -0,2 C 3,9 C 86 % 1011,6 hPa 0,0 l/m 16,1 km/h (3 Bft) SW 225 0 min 0,000 mm 0,0 UV-I 0 W/m -2,3 C -7,9 C 22,5 km/h (4 Bft) 100,00 %
29.12.2017 05:41 -0,1 C 3,9 C 86 % 1011,6 hPa 0,0 l/m 14,5 km/h (3 Bft) W-SW 247 0 min 0,000 mm 0,0 UV-I 0 W/m -2,2 C -6,8 C 19,3 km/h (3 Bft) 91,30 %
29.12.2017 05:42 -0,1 C 3,9 C 86 % 1011,6 hPa 0,0 l/m 12,9 km/h (3 Bft) SW 225 0 min 0,000 mm 0,0 UV-I 0 W/m -2,2 C -5,8 C 20,9 km/h (4 Bft) 100,00 %
29.12.2017 05:43 -0,1 C 3,9 C 86 % 1011,6 hPa 0,0 l/m 11,3 km/h (2 Bft) W-SW 247 0 min 0,000 mm 0,0 UV-I 0 W/m -2,2 C -4,6 C 14,5 km/h (3 Bft) 95,65 %
29.12.2017 05:44 -0,1 C 3,9 C 86 % 1011,7 hPa 0,0 l/m 11,3 km/h (2 Bft) W-SW 247 0 min 0,000 mm 0,0 UV-I 0 W/m -2,2 C -4,6 C 14,5 km/h (3 Bft) 100,00 %
29.12.2017 05:45 -0,1 C 3,9 C 86 % 1011,6 hPa 0,0 l/m 11,3 km/h (2 Bft) SW 225 0 min 0,000 mm 0,0 UV-I 0 W/m -2,2 C -4,6 C 19,3 km/h (3 Bft) 91,30 %
29.12.2017 05:46 -0,1 C 3,9 C 86 % 1011,6 hPa 0,0 l/m 16,1 km/h (3 Bft) SW 225 0 min 0,000 mm 0,0 UV-I 0 W/m -2,2 C -7,7 C 20,9 km/h (4 Bft) 95,65 %
29.12.2017 05:47 -0,1 C 3,9 C 86 % 1011,7 hPa 0,0 l/m 11,3 km/h (2 Bft) SW 225 0 min 0,000 mm 0,0 UV-I 0 W/m -2,2 C -4,6 C 16,1 km/h (3 Bft) 100,00 %
29.12.2017 05:48 -0,1 C 3,9 C 86 % 1011,6 hPa 0,0 l/m 12,9 km/h (3 Bft) W-SW 247 0 min 0,000 mm 0,0 UV-I 0 W/m -2,2 C -5,8 C 19,3 km/h (3 Bft) 91,30 %
29.12.2017 05:49 -0,1 C 3,9 C 86 % 1011,7 hPa 0,0 l/m 17,7 km/h (3 Bft) SW 225 0 min 0,000 mm 0,0 UV-I 0 W/m -2,2 C -8,6 C 22,5 km/h (4 Bft) 100,00 %
29.12.2017 05:50 -0,1 C 3,9 C 86 % 1011,6 hPa 0,0 l/m 14,5 km/h (3 Bft) SW 225 0 min 0,000 mm 0,0 UV-I 0 W/m -2,2 C -6,8 C 22,5 km/h (4 Bft) 91,30 %
29.12.2017 05:51 -0,1 C 3,9 C 86 % 1011,7 hPa 0,0 l/m 14,5 km/h (3 Bft) SW 225 0 min 0,000 mm 0,0 UV-I 0 W/m -2,2 C -6,8 C 22,5 km/h (4 Bft) 95,65 %
29.12.2017 05:52 -0,1 C 3,9 C 86 % 1011,7 hPa 0,0 l/m 17,7 km/h (3 Bft) SW 225 0 min 0,000 mm 0,0 UV-I 0 W/m -2,2 C -8,6 C 22,5 km/h (4 Bft) 95,65 %
29.12.2017 05:53 -0,1 C 3,9 C 86 % 1011,7 hPa 0,0 l/m 16,1 km/h (3 Bft) W-SW 247 0 min 0,000 mm 0,0 UV-I 0 W/m -2,2 C -7,7 C 24,1 km/h (4 Bft) 100,00 %
29.12.2017 05:54 -0,1 C 3,9 C 86 % 1011,8 hPa 0,0 l/m 16,1 km/h (3 Bft) SW 225 0 min 0,000 mm 0,0 UV-I 0 W/m -2,2 C -7,7 C 22,5 km/h (4 Bft) 95,65 %
29.12.2017 05:55 -0,1 C 3,9 C 86 % 1011,8 hPa 0,0 l/m 16,1 km/h (3 Bft) SW 225 0 min 0,000 mm 0,0 UV-I 0 W/m -2,2 C -7,7 C 19,3 km/h (3 Bft) 91,30 %
29.12.2017 05:56 -0,1 C 3,9 C 86 % 1011,8 hPa 0,0 l/m 11,3 km/h (2 Bft) SW 225 0 min 0,000 mm 0,0 UV-I 0 W/m -2,2 C -4,6 C 16,1 km/h (3 Bft) 100,00 %
29.12.2017 05:57 -0,1 C 3,9 C 86 % 1011,8 hPa 0,0 l/m 19,3 km/h (3 Bft) SW 225 0 min 0,000 mm 0,0 UV-I 0 W/m -2,2 C -9,4 C 27,4 km/h (4 Bft) 95,65 %
29.12.2017 05:58 -0,1 C 3,9 C 86 % 1011,8 hPa 0,0 l/m 14,5 km/h (3 Bft) W-SW 247 0 min 0,000 mm 0,0 UV-I 0 W/m -2,2 C -6,8 C 19,3 km/h (3 Bft) 100,00 %
29.12.2017 05:59 -0,1 C 3,9 C 86 % 1011,8 hPa 0,0 l/m 16,1 km/h (3 Bft) W-SW 247 0 min 0,000 mm 0,0 UV-I 0 W/m -2,2 C -7,7 C 24,1 km/h (4 Bft) 95,65 %
29.12.2017 06:00 -0,1 C 3,9 C 86 % 1011,8 hPa 0,0 l/m 16,1 km/h (3 Bft) W-SW 247 0 min 0,025 mm 0,0 UV-I 0 W/m -2,2 C -7,7 C 19,3 km/h (3 Bft) 100,00 %
29.12.2017 06:01 -0,1 C 3,9 C 86 % 1011,8 hPa 0,0 l/m 16,1 km/h (3 Bft) W-SW 247 0 min 0,000 mm 0,0 UV-I 0 W/m -2,2 C -7,7 C 20,9 km/h (4 Bft) 95,65 %
29.12.2017 06:02 -0,1 C 3,9 C 86 % 1011,8 hPa 0,0 l/m 16,1 km/h (3 Bft) SW 225 0 min 0,000 mm 0,0 UV-I 0 W/m -2,2 C -7,7 C 22,5 km/h (4 Bft) 95,65 %
29.12.2017 06:03 -0,1 C 3,9 C 86 % 1011,8 hPa 0,0 l/m 16,1 km/h (3 Bft) SW 225 0 min 0,000 mm 0,0 UV-I 0 W/m -2,2 C -7,7 C 22,5 km/h (4 Bft) 95,65 %
29.12.2017 06:04 -0,1 C 3,9 C 86 % 1011,8 hPa 0,0 l/m 12,9 km/h (3 Bft) W-SW 247 0 min 0,000 mm 0,0 UV-I 0 W/m -2,2 C -5,8 C 19,3 km/h (3 Bft) 95,65 %
29.12.2017 06:05 -0,1 C 3,9 C 86 % 1011,8 hPa 0,0 l/m 11,3 km/h (2 Bft) W-SW 247 0 min 0,000 mm 0,0 UV-I 0 W/m -2,2 C -4,6 C 16,1 km/h (3 Bft) 100,00 %
29.12.2017 06:06 -0,1 C 3,9 C 86 % 1011,8 hPa 0,0 l/m 16,1 km/h (3 Bft) W-SW 247 0 min 0,000 mm 0,0 UV-I 0 W/m -2,2 C -7,7 C 22,5 km/h (4 Bft) 95,65 %
29.12.2017 06:07 -0,1 C 3,9 C 86 % 1011,8 hPa 0,0 l/m 19,3 km/h (3 Bft) SW 225 0 min 0,000 mm 0,0 UV-I 0 W/m -2,2 C -9,4 C 25,7 km/h (4 Bft) 100,00 %
29.12.2017 06:08 -0,1 C 3,9 C 86 % 1011,8 hPa 0,0 l/m 17,7 km/h (3 Bft) W-SW 247 0 min 0,000 mm 0,0 UV-I 0 W/m -2,2 C -8,6 C 24,1 km/h (4 Bft) 100,00 %
29.12.2017 06:09 -0,1 C 3,9 C 86 % 1011,8 hPa 0,0 l/m 17,7 km/h (3 Bft) SW 225 0 min 0,000 mm 0,0 UV-I 0 W/m -2,2 C -8,6 C 27,4 km/h (4 Bft) 91,30 %
29.12.2017 06:10 -0,1 C 3,9 C 85 % 1011,8 hPa 0,0 l/m 19,3 km/h (3 Bft) SW 225 0 min 0,000 mm 0,0 UV-I 0 W/m -2,3 C -9,4 C 24,1 km/h (4 Bft) 100,00 %
29.12.2017 06:11 -0,1 C 3,9 C 86 % 1011,8 hPa 0,0 l/m 14,5 km/h (3 Bft) W-SW 247 0 min 0,000 mm 0,0 UV-I 0 W/m -2,2 C -6,8 C 19,3 km/h (3 Bft) 100,00 %
29.12.2017 06:12 -0,1 C 3,9 C 86 % 1011,8 hPa 0,0 l/m 12,9 km/h (3 Bft) W-SW 247 0 min 0,000 mm 0,0 UV-I 0 W/m -2,2 C -5,8 C 17,7 km/h (3 Bft) 95,65 %
29.12.2017 06:13 -0,1 C 3,9 C 86 % 1011,8 hPa 0,0 l/m 16,1 km/h (3 Bft) W-SW 247 0 min 0,000 mm 0,0 UV-I 0 W/m -2,2 C -7,7 C 24,1 km/h (4 Bft) 100,00 %
29.12.2017 06:14 -0,1 C 3,9 C 86 % 1011,9 hPa 0,0 l/m 17,7 km/h (3 Bft) W-SW 247 0 min 0,000 mm 0,0 UV-I 0 W/m -2,2 C -8,6 C 24,1 km/h (4 Bft) 95,65 %
29.12.2017 06:15 -0,1 C 3,9 C 86 % 1011,9 hPa 0,0 l/m 12,9 km/h (3 Bft) W-SW 247 0 min 0,000 mm 0,0 UV-I 0 W/m -2,2 C -5,8 C 17,7 km/h (3 Bft) 95,65 %
29.12.2017 06:16 -0,1 C 3,9 C 85 % 1011,9 hPa 0,0 l/m 14,5 km/h (3 Bft) W-SW 247 0 min 0,000 mm 0,0 UV-I 0 W/m -2,3 C -6,8 C 20,9 km/h (4 Bft) 95,65 %
29.12.2017 06:17 -0,1 C 3,9 C 86 % 1012,0 hPa 0,0 l/m 17,7 km/h (3 Bft) W-SW 247 0 min 0,000 mm 0,0 UV-I 0 W/m -2,2 C -8,6 C 24,1 km/h (4 Bft) 95,65 %
29.12.2017 06:18 -0,1 C 3,9 C 86 % 1012,0 hPa 0,0 l/m 17,7 km/h (3 Bft) W-SW 247 0 min 0,000 mm 0,0 UV-I 0 W/m -2,2 C -8,6 C 20,9 km/h (4 Bft) 100,00 %
29.12.2017 06:19 -0,1 C 3,9 C 86 % 1011,9 hPa 0,0 l/m 14,5 km/h (3 Bft) W-SW 247 0 min 0,000 mm 0,0 UV-I 0 W/m -2,2 C -6,8 C 19,3 km/h (3 Bft) 91,30 %
29.12.2017 06:20 -0,1 C 3,9 C 86 % 1012,0 hPa 0,0 l/m 12,9 km/h (3 Bft) W-SW 247 0 min 0,000 mm 0,0 UV-I 0 W/m -2,2 C -5,8 C 17,7 km/h (3 Bft) 100,00 %
29.12.2017 06:21 -0,1 C 3,9 C 86 % 1012,1 hPa 0,0 l/m 16,1 km/h (3 Bft) W-SW 247 0 min 0,000 mm 0,0 UV-I 0 W/m -2,2 C -7,7 C 22,5 km/h (4 Bft) 91,30 %
29.12.2017 06:22 -0,1 C 3,9 C 86 % 1012,1 hPa 0,0 l/m 16,1 km/h (3 Bft) W-SW 247 0 min 0,000 mm 0,0 UV-I 0 W/m -2,2 C -7,7 C 24,1 km/h (4 Bft) 100,00 %
29.12.2017 06:23 -0,1 C 3,9 C 86 % 1012,0 hPa 0,0 l/m 14,5 km/h (3 Bft) W-SW 247 0 min 0,000 mm 0,0 UV-I 0 W/m -2,2 C -6,8 C 20,9 km/h (4 Bft) 91,30 %
29.12.2017 06:24 -0,1 C 3,9 C 86 % 1012,1 hPa 0,0 l/m 16,1 km/h (3 Bft) W-SW 247 0 min 0,000 mm 0,0 UV-I 0 W/m -2,2 C -7,7 C 22,5 km/h (4 Bft) 100,00 %
29.12.2017 06:25 -0,1 C 3,9 C 86 % 1012,1 hPa 0,0 l/m 14,5 km/h (3 Bft) W-SW 247 0 min 0,000 mm 0,0 UV-I 0 W/m -2,2 C -6,8 C 20,9 km/h (4 Bft) 95,65 %
29.12.2017 06:26 -0,1 C 3,9 C 86 % 1012,1 hPa 0,0 l/m 16,1 km/h (3 Bft) W-SW 247 0 min 0,000 mm 0,0 UV-I 0 W/m -2,2 C -7,7 C 22,5 km/h (4 Bft) 100,00 %
29.12.2017 06:27 -0,1 C 3,9 C 86 % 1012,1 hPa 0,0 l/m 16,1 km/h (3 Bft) W-SW 247 0 min 0,000 mm 0,0 UV-I 0 W/m -2,2 C -7,7 C 22,5 km/h (4 Bft) 95,65 %
29.12.2017 06:28 -0,1 C 3,9 C 86 % 1012,0 hPa 0,0 l/m 20,9 km/h (4 Bft) W-SW 247 0 min 0,000 mm 0,0 UV-I 0 W/m -2,2 C -10,2 C 29,0 km/h (5 Bft) 100,00 %
29.12.2017 06:29 -0,1 C 3,9 C 86 % 1012,1 hPa 0,0 l/m 20,9 km/h (4 Bft) W-SW 247 0 min 0,000 mm 0,0 UV-I 0 W/m -2,2 C -10,2 C 29,0 km/h (5 Bft) 95,65 %
29.12.2017 06:30 -0,1 C 3,9 C 86 % 1012,1 hPa 0,0 l/m 14,5 km/h (3 Bft) W-SW 247 0 min 0,000 mm 0,0 UV-I 0 W/m -2,2 C -6,8 C 19,3 km/h (3 Bft) 95,65 %
29.12.2017 06:31 -0,1 C 3,9 C 86 % 1012,1 hPa 0,0 l/m 14,5 km/h (3 Bft) SW 225 0 min 0,000 mm 0,0 UV-I 0 W/m -2,2 C -6,8 C 20,9 km/h (4 Bft) 95,65 %
29.12.2017 06:32 -0,2 C 3,9 C 87 % 1012,1 hPa 0,0 l/m 14,5 km/h (3 Bft) W-SW 247 0 min 0,000 mm 0,0 UV-I 0 W/m -2,1 C -6,9 C 20,9 km/h (4 Bft) 95,65 %
29.12.2017 06:33 -0,2 C 3,9 C 87 % 1012,1 hPa 0,0 l/m 16,1 km/h (3 Bft) W-SW 247 0 min 0,000 mm 0,0 UV-I 0 W/m -2,1 C -7,9 C 17,7 km/h (3 Bft) 13,04 %
29.12.2017 06:34 -0,2 C 3,9 C 87 % 1012,1 hPa 0,0 l/m 16,1 km/h (3 Bft) W-SW 247 0 min 0,000 mm 0,0 UV-I 0 W/m -2,1 C -7,9 C 20,9 km/h (4 Bft) 56,52 %
29.12.2017 06:35 -0,2 C 3,9 C 87 % 1012,1 hPa 0,0 l/m 12,9 km/h (3 Bft) SW 225 0 min 0,000 mm 0,0 UV-I 0 W/m -2,1 C -5,9 C 19,3 km/h (3 Bft) 100,00 %
29.12.2017 06:36 -0,2 C 3,9 C 87 % 1012,1 hPa 0,0 l/m 14,5 km/h (3 Bft) S-SW 202 0 min 0,000 mm 0,0 UV-I 0 W/m -2,1 C -6,9 C 24,1 km/h (4 Bft) 100,00 %
29.12.2017 06:37 -0,2 C 3,9 C 87 % 1012,1 hPa 0,0 l/m 12,9 km/h (3 Bft) SW 225 0 min 0,000 mm 0,0 UV-I 0 W/m -2,1 C -5,9 C 22,5 km/h (4 Bft) 95,65 %
29.12.2017 06:38 -0,2 C 3,9 C 88 % 1012,1 hPa 0,0 l/m 16,1 km/h (3 Bft) SW 225 0 min 0,000 mm 0,0 UV-I 0 W/m -1,9 C -7,9 C 27,4 km/h (4 Bft) 100,00 %
29.12.2017 06:39 -0,2 C 3,9 C 88 % 1012,1 hPa 0,0 l/m 17,7 km/h (3 Bft) W-SW 247 0 min 0,000 mm 0,0 UV-I 0 W/m -1,9 C -8,7 C 25,7 km/h (4 Bft) 100,00 %
29.12.2017 06:40 -0,2 C 3,9 C 88 % 1012,1 hPa 0,0 l/m 12,9 km/h (3 Bft) W-SW 247 0 min 0,000 mm 0,0 UV-I 0 W/m -1,9 C -5,9 C 19,3 km/h (3 Bft) 100,00 %
29.12.2017 06:41 -0,2 C 3,9 C 88 % 1012,2 hPa 0,0 l/m 11,3 km/h (2 Bft) SW 225 0 min 0,000 mm 0,0 UV-I 0 W/m -1,9 C -4,7 C 16,1 km/h (3 Bft) 95,65 %
29.12.2017 06:42 -0,3 C 3,9 C 88 % 1012,2 hPa 0,0 l/m 11,3 km/h (2 Bft) W-SW 247 0 min 0,000 mm 0,0 UV-I 0 W/m -2,0 C -4,8 C 14,5 km/h (3 Bft) 95,65 %
29.12.2017 06:43 -0,3 C 3,9 C 88 % 1012,3 hPa 0,0 l/m 19,3 km/h (3 Bft) W-SW 247 0 min 0,000 mm 0,0 UV-I 0 W/m -2,0 C -9,7 C 25,7 km/h (4 Bft) 95,65 %
29.12.2017 06:44 -0,3 C 3,9 C 88 % 1012,2 hPa 0,0 l/m 16,1 km/h (3 Bft) W-SW 247 0 min 0,000 mm 0,0 UV-I 0 W/m -2,0 C -8,0 C 24,1 km/h (4 Bft) 95,65 %
29.12.2017 06:45 -0,3 C 3,9 C 88 % 1012,2 hPa 0,0 l/m 14,5 km/h (3 Bft) SW 225 0 min 0,000 mm 0,0 UV-I 0 W/m -2,0 C -7,0 C 19,3 km/h (3 Bft) 95,65 %
29.12.2017 06:46 -0,3 C 3,9 C 88 % 1012,2 hPa 0,0 l/m 14,5 km/h (3 Bft) SW 225 0 min 0,000 mm 0,0 UV-I 0 W/m -2,0 C -7,0 C 20,9 km/h (4 Bft) 95,65 %
29.12.2017 06:47 -0,3 C 3,9 C 88 % 1012,2 hPa 0,0 l/m 20,9 km/h (4 Bft) W-SW 247 0 min 0,000 mm 0,0 UV-I 0 W/m -2,0 C -10,4 C 25,7 km/h (4 Bft) 100,00 %
29.12.2017 06:48 -0,3 C 3,9 C 88 % 1012,2 hPa 0,0 l/m 14,5 km/h (3 Bft) W-SW 247 0 min 0,000 mm 0,0 UV-I 0 W/m -2,0 C -7,0 C 22,5 km/h (4 Bft) 95,65 %
29.12.2017 06:49 -0,3 C 3,9 C 88 % 1012,2 hPa 0,0 l/m 17,7 km/h (3 Bft) W-SW 247 0 min 0,000 mm 0,0 UV-I 0 W/m -2,0 C -8,9 C 24,1 km/h (4 Bft) 100,00 %
29.12.2017 06:50 -0,3 C 3,9 C 88 % 1012,2 hPa 0,0 l/m 20,9 km/h (4 Bft) W-SW 247 0 min 0,000 mm 0,0 UV-I 0 W/m -2,0 C -10,4 C 27,4 km/h (4 Bft) 100,00 %
29.12.2017 06:51 -0,2 C 3,9 C 88 % 1012,2 hPa 0,0 l/m 17,7 km/h (3 Bft) SW 225 0 min 0,000 mm 0,0 UV-I 0 W/m -1,9 C -8,7 C 24,1 km/h (4 Bft) 95,65 %
29.12.2017 06:52 -0,3 C 3,9 C 88 % 1012,2 hPa 0,0 l/m 12,9 km/h (3 Bft) SW 225 0 min 0,000 mm 0,0 UV-I 0 W/m -2,0 C -6,0 C 16,1 km/h (3 Bft) 100,00 %
29.12.2017 06:53 -0,3 C 3,9 C 88 % 1012,2 hPa 0,0 l/m 17,7 km/h (3 Bft) SW 225 0 min 0,000 mm 0,0 UV-I 0 W/m -2,0 C -8,9 C 22,5 km/h (4 Bft) 100,00 %
29.12.2017 06:54 -0,3 C 3,9 C 88 % 1012,2 hPa 0,0 l/m 17,7 km/h (3 Bft) SW 225 0 min 0,000 mm 0,0 UV-I 0 W/m -2,0 C -8,9 C 29,0 km/h (5 Bft) 100,00 %
29.12.2017 06:55 -0,3 C 3,9 C 88 % 1012,2 hPa 0,0 l/m 14,5 km/h (3 Bft) W-SW 247 0 min 0,000 mm 0,0 UV-I 0 W/m -2,0 C -7,0 C 20,9 km/h (4 Bft) 100,00 %
29.12.2017 06:56 -0,3 C 3,9 C 88 % 1012,3 hPa 0,0 l/m 19,3 km/h (3 Bft) SW 225 0 min 0,000 mm 0,0 UV-I 0 W/m -2,0 C -9,7 C 30,6 km/h (5 Bft) 100,00 %
29.12.2017 06:57 -0,3 C 3,9 C 88 % 1012,3 hPa 0,0 l/m 17,7 km/h (3 Bft) SW 225 0 min 0,000 mm 0,0 UV-I 0 W/m -2,0 C -8,9 C 25,7 km/h (4 Bft) 100,00 %
29.12.2017 06:58 -0,3 C 3,9 C 88 % 1012,3 hPa 0,0 l/m 11,3 km/h (2 Bft) W-SW 247 0 min 0,000 mm 0,0 UV-I 0 W/m -2,0 C -4,8 C 17,7 km/h (3 Bft) 95,65 %
29.12.2017 06:59 -0,3 C 3,9 C 88 % 1012,3 hPa 0,0 l/m 12,9 km/h (3 Bft) W-SW 247 0 min 0,000 mm 0,0 UV-I 0 W/m -2,0 C -6,0 C 20,9 km/h (4 Bft) 100,00 %
29.12.2017 07:00 -0,3 C 3,9 C 88 % 1012,3 hPa 0,0 l/m 17,7 km/h (3 Bft) SW 225 0 min 0,025 mm 0,0 UV-I 0 W/m -2,0 C -8,9 C 22,5 km/h (4 Bft) 100,00 %
29.12.2017 07:01 -0,3 C 3,9 C 88 % 1012,3 hPa 0,0 l/m 17,7 km/h (3 Bft) W-SW 247 0 min 0,000 mm 0,0 UV-I 0 W/m -2,0 C -8,9 C 24,1 km/h (4 Bft) 100,00 %
29.12.2017 07:02 -0,3 C 3,9 C 88 % 1012,3 hPa 0,0 l/m 11,3 km/h (2 Bft) SW 225 0 min 0,000 mm 0,0 UV-I 0 W/m -2,0 C -4,8 C 17,7 km/h (3 Bft) 95,65 %
29.12.2017 07:03 -0,3 C 3,9 C 88 % 1012,3 hPa 0,0 l/m 14,5 km/h (3 Bft) SW 225 0 min 0,000 mm 0,0 UV-I 0 W/m -2,0 C -7,0 C 17,7 km/h (3 Bft) 100,00 %
29.12.2017 07:04 -0,3 C 3,9 C 88 % 1012,2 hPa 0,0 l/m 12,9 km/h (3 Bft) SW 225 0 min 0,000 mm 0,0 UV-I 0 W/m -2,0 C -6,0 C 24,1 km/h (4 Bft) 100,00 %
29.12.2017 07:05 -0,3 C 3,9 C 88 % 1012,3 hPa 0,0 l/m 17,7 km/h (3 Bft) SW 225 0 min 0,000 mm 0,0 UV-I 0 W/m -2,0 C -8,9 C 22,5 km/h (4 Bft) 95,65 %
29.12.2017 07:06 -0,3 C 3,9 C 87 % 1012,2 hPa 0,0 l/m 16,1 km/h (3 Bft) SW 225 0 min 0,000 mm 0,0 UV-I 0 W/m -2,2 C -8,0 C 20,9 km/h (4 Bft) 100,00 %
29.12.2017 07:07 -0,2 C 3,9 C 87 % 1012,2 hPa 0,0 l/m 14,5 km/h (3 Bft) SW 225 0 min 0,000 mm 0,0 UV-I 0 W/m -2,1 C -6,9 C 24,1 km/h (4 Bft) 95,65 %
29.12.2017 07:08 -0,2 C 3,9 C 87 % 1012,2 hPa 0,0 l/m 14,5 km/h (3 Bft) SW 225 0 min 0,000 mm 0,0 UV-I 0 W/m -2,1 C -6,9 C 20,9 km/h (4 Bft) 100,00 %
29.12.2017 07:09 -0,2 C 3,9 C 87 % 1012,2 hPa 0,0 l/m 17,7 km/h (3 Bft) SW 225 0 min 0,000 mm 0,0 UV-I 0 W/m -2,1 C -8,7 C 25,7 km/h (4 Bft) 100,00 %
29.12.2017 07:10 -0,2 C 3,9 C 87 % 1012,2 hPa 0,0 l/m 16,1 km/h (3 Bft) SW 225 0 min 0,000 mm 0,0 UV-I 0 W/m -2,1 C -7,9 C 22,5 km/h (4 Bft) 100,00 %
29.12.2017 07:11 -0,2 C 3,9 C 87 % 1012,2 hPa 0,0 l/m 20,9 km/h (4 Bft) SW 225 0 min 0,000 mm 0,0 UV-I 0 W/m -2,1 C -10,3 C 29,0 km/h (5 Bft) 100,00 %
29.12.2017 07:12 -0,2 C 3,9 C 87 % 1012,2 hPa 0,0 l/m 22,5 km/h (4 Bft) SW 225 0 min 0,000 mm 0,0 UV-I 0 W/m -2,1 C -11,0 C 29,0 km/h (5 Bft) 95,65 %
29.12.2017 07:13 -0,2 C 3,9 C 87 % 1012,2 hPa 0,0 l/m 12,9 km/h (3 Bft) SW 225 0 min 0,000 mm 0,0 UV-I 0 W/m -2,1 C -5,9 C 19,3 km/h (3 Bft) 100,00 %
29.12.2017 07:14 -0,2 C 3,9 C 87 % 1012,2 hPa 0,0 l/m 17,7 km/h (3 Bft) SW 225 0 min 0,000 mm 0,0 UV-I 0 W/m -2,1 C -8,7 C 25,7 km/h (4 Bft) 95,65 %
29.12.2017 07:15 -0,2 C 3,9 C 87 % 1012,2 hPa 0,0 l/m 19,3 km/h (3 Bft) W-SW 247 0 min 0,000 mm 0,0 UV-I 0 W/m -2,1 C -9,6 C 25,7 km/h (4 Bft) 100,00 %
29.12.2017 07:16 -0,2 C 3,9 C 87 % 1012,2 hPa 0,0 l/m 16,1 km/h (3 Bft) SW 225 0 min 0,000 mm 0,0 UV-I 0 W/m -2,1 C -7,9 C 25,7 km/h (4 Bft) 100,00 %
29.12.2017 07:17 -0,2 C 3,9 C 87 % 1012,2 hPa 0,0 l/m 17,7 km/h (3 Bft) SW 225 0 min 0,000 mm 0,0 UV-I 0 W/m -2,1 C -8,7 C 20,9 km/h (4 Bft) 100,00 %
29.12.2017 07:18 -0,2 C 3,9 C 87 % 1012,2 hPa 0,0 l/m 16,1 km/h (3 Bft) W-SW 247 0 min 0,000 mm 0,0 UV-I 0 W/m -2,1 C -7,9 C 27,4 km/h (4 Bft) 100,00 %
29.12.2017 07:19 -0,2 C 3,9 C 87 % 1012,2 hPa 0,0 l/m 19,3 km/h (3 Bft) SW 225 0 min 0,000 mm 0,0 UV-I 0 W/m -2,1 C -9,6 C 29,0 km/h (5 Bft) 95,65 %
29.12.2017 07:20 -0,2 C 3,9 C 87 % 1012,2 hPa 0,0 l/m 19,3 km/h (3 Bft) SW 225 0 min 0,000 mm 0,0 UV-I 0 W/m -2,1 C -9,6 C 25,7 km/h (4 Bft) 95,65 %
29.12.2017 07:21 -0,2 C 3,9 C 87 % 1012,2 hPa 0,0 l/m 19,3 km/h (3 Bft) W-SW 247 0 min 0,000 mm 0,0 UV-I 0 W/m -2,1 C -9,6 C 24,1 km/h (4 Bft) 100,00 %
29.12.2017 07:22 -0,2 C 3,9 C 86 % 1012,3 hPa 0,0 l/m 17,7 km/h (3 Bft) W-SW 247 0 min 0,000 mm 0,0 UV-I 0 W/m -2,3 C -8,7 C 20,9 km/h (4 Bft) 100,00 %
29.12.2017 07:23 -0,2 C 3,9 C 86 % 1012,2 hPa 0,0 l/m 12,9 km/h (3 Bft) SW 225 0 min 0,000 mm 0,0 UV-I 0 W/m -2,3 C -5,9 C 16,1 km/h (3 Bft) 95,65 %
29.12.2017 07:24 -0,2 C 3,9 C 87 % 1012,3 hPa 0,0 l/m 22,5 km/h (4 Bft) SW 225 0 min 0,000 mm 0,0 UV-I 0 W/m -2,1 C -11,0 C 32,2 km/h (5 Bft) 100,00 %
29.12.2017 07:25 -0,2 C 3,9 C 87 % 1012,3 hPa 0,0 l/m 16,1 km/h (3 Bft) SW 225 0 min 0,000 mm 0,0 UV-I 0 W/m -2,1 C -7,9 C 24,1 km/h (4 Bft) 95,65 %
29.12.2017 07:26 -0,2 C 3,9 C 86 % 1012,3 hPa 0,0 l/m 19,3 km/h (3 Bft) SW 225 0 min 0,000 mm 0,0 UV-I 0 W/m -2,3 C -9,6 C 27,4 km/h (4 Bft) 95,65 %
29.12.2017 07:27 -0,2 C 3,9 C 86 % 1012,4 hPa 0,0 l/m 27,4 km/h (4 Bft) SW 225 0 min 0,000 mm 0,0 UV-I 0 W/m -2,3 C -12,8 C 33,8 km/h (5 Bft) 100,00 %
29.12.2017 07:28 -0,2 C 3,9 C 86 % 1012,2 hPa 0,0 l/m 14,5 km/h (3 Bft) SW 225 0 min 0,000 mm 0,0 UV-I 0 W/m -2,3 C -6,9 C 22,5 km/h (4 Bft) 100,00 %
29.12.2017 07:29 -0,2 C 3,9 C 86 % 1012,2 hPa 0,0 l/m 14,5 km/h (3 Bft) SW 225 0 min 0,000 mm 0,0 UV-I 0 W/m -2,3 C -6,9 C 24,1 km/h (4 Bft) 100,00 %
29.12.2017 07:30 -0,2 C 3,9 C 86 % 1012,2 hPa 0,0 l/m 17,7 km/h (3 Bft) SW 225 0 min 0,000 mm 0,0 UV-I 0 W/m -2,3 C -8,7 C 25,7 km/h (4 Bft) 100,00 %
29.12.2017 07:31 -0,2 C 3,9 C 86 % 1012,3 hPa 0,0 l/m 17,7 km/h (3 Bft) SW 225 0 min 0,000 mm 0,0 UV-I 0 W/m -2,3 C -8,7 C 25,7 km/h (4 Bft) 100,00 %
29.12.2017 07:32 -0,2 C 3,9 C 86 % 1012,3 hPa 0,0 l/m 16,1 km/h (3 Bft) SW 225 0 min 0,000 mm 0,0 UV-I 0 W/m -2,3 C -7,9 C 24,1 km/h (4 Bft) 95,65 %
29.12.2017 07:33 -0,2 C 3,9 C 86 % 1012,3 hPa 0,0 l/m 16,1 km/h (3 Bft) W-SW 247 0 min 0,000 mm 0,0 UV-I 0 W/m -2,3 C -7,9 C 24,1 km/h (4 Bft) 95,65 %
29.12.2017 07:34 -0,2 C 3,9 C 86 % 1012,3 hPa 0,0 l/m 17,7 km/h (3 Bft) SW 225 0 min 0,000 mm 0,0 UV-I 0 W/m -2,3 C -8,7 C 25,7 km/h (4 Bft) 100,00 %
29.12.2017 07:35 -0,2 C 3,9 C 86 % 1012,3 hPa 0,0 l/m 22,5 km/h (4 Bft) W-SW 247 0 min 0,000 mm 0,0 UV-I 0 W/m -2,3 C -11,0 C 30,6 km/h (5 Bft) 95,65 %
29.12.2017 07:36 -0,2 C 3,9 C 86 % 1012,3 hPa 0,0 l/m 12,9 km/h (3 Bft) SW 225 0 min 0,000 mm 0,0 UV-I 0 W/m -2,3 C -5,9 C 19,3 km/h (3 Bft) 95,65 %
29.12.2017 07:37 -0,2 C 3,9 C 86 % 1012,3 hPa 0,0 l/m 17,7 km/h (3 Bft) W-SW 247 0 min 0,000 mm 0,0 UV-I 0 W/m -2,3 C -8,7 C 22,5 km/h (4 Bft) 100,00 %
29.12.2017 07:38 -0,2 C 3,9 C 86 % 1012,3 hPa 0,0 l/m 17,7 km/h (3 Bft) SW 225 0 min 0,000 mm 0,0 UV-I 0 W/m -2,3 C -8,7 C 22,5 km/h (4 Bft) 91,30 %
29.12.2017 07:39 -0,2 C 3,9 C 86 % 1012,2 hPa 0,0 l/m 17,7 km/h (3 Bft) SW 225 0 min 0,000 mm 0,0 UV-I 0 W/m -2,3 C -8,7 C 24,1 km/h (4 Bft) 95,65 %
29.12.2017 07:40 -0,2 C 3,9 C 86 % 1012,3 hPa 0,0 l/m 16,1 km/h (3 Bft) W-SW 247 0 min 0,000 mm 0,0 UV-I 0 W/m -2,3 C -7,9 C 20,9 km/h (4 Bft) 86,96 %
29.12.2017 07:41 -0,2 C 3,9 C 86 % 1012,3 hPa 0,0 l/m 16,1 km/h (3 Bft) W-SW 247 0 min 0,000 mm 0,0 UV-I 0 W/m -2,3 C -7,9 C 20,9 km/h (4 Bft) 95,65 %
29.12.2017 07:42 -0,2 C 3,9 C 86 % 1012,3 hPa 0,0 l/m 17,7 km/h (3 Bft) SW 225 0 min 0,000 mm 0,0 UV-I 0 W/m -2,3 C -8,7 C 25,7 km/h (4 Bft) 95,65 %
29.12.2017 07:43 -0,2 C 3,9 C 86 % 1012,3 hPa 0,0 l/m 19,3 km/h (3 Bft) SW 225 0 min 0,000 mm 0,0 UV-I 5 W/m -2,3 C -9,6 C 25,7 km/h (4 Bft) 95,65 %
29.12.2017 07:44 -0,2 C 3,9 C 86 % 1012,3 hPa 0,0 l/m 17,7 km/h (3 Bft) SW 225 0 min 0,000 mm 0,0 UV-I 5 W/m -2,3 C -8,7 C 25,7 km/h (4 Bft) 95,65 %
29.12.2017 07:45 -0,2 C 3,9 C 86 % 1012,3 hPa 0,0 l/m 22,5 km/h (4 Bft) SW 225 0 min 0,000 mm 0,0 UV-I 5 W/m -2,3 C -11,0 C 27,4 km/h (4 Bft) 91,30 %
29.12.2017 07:46 -0,2 C 3,9 C 86 % 1012,4 hPa 0,0 l/m 19,3 km/h (3 Bft) SW 225 0 min 0,000 mm 0,0 UV-I 5 W/m -2,3 C -9,6 C 27,4 km/h (4 Bft) 91,30 %
29.12.2017 07:47 -0,2 C 3,9 C 86 % 1012,4 hPa 0,0 l/m 16,1 km/h (3 Bft) SW 225 0 min 0,000 mm 0,0 UV-I 5 W/m -2,3 C -7,9 C 22,5 km/h (4 Bft) 100,00 %
29.12.2017 07:48 -0,2 C 3,9 C 86 % 1012,4 hPa 0,0 l/m 24,1 km/h (4 Bft) SW 225 0 min 0,000 mm 0,0 UV-I 5 W/m -2,3 C -11,6 C 30,6 km/h (5 Bft) 86,96 %
29.12.2017 07:49 -0,2 C 3,9 C 86 % 1012,4 hPa 0,0 l/m 16,1 km/h (3 Bft) W-SW 247 0 min 0,000 mm 0,0 UV-I 5 W/m -2,3 C -7,9 C 20,9 km/h (4 Bft) 95,65 %
29.12.2017 07:50 -0,2 C 3,9 C 86 % 1012,4 hPa 0,0 l/m 12,9 km/h (3 Bft) W-SW 247 0 min 0,000 mm 0,0 UV-I 5 W/m -2,3 C -5,9 C 16,1 km/h (3 Bft) 91,30 %
29.12.2017 07:51 -0,2 C 3,9 C 86 % 1012,4 hPa 0,0 l/m 11,3 km/h (2 Bft) W-SW 247 0 min 0,000 mm 0,0 UV-I 5 W/m -2,3 C -4,7 C 19,3 km/h (3 Bft) 95,65 %
29.12.2017 07:52 -0,2 C 3,9 C 86 % 1012,4 hPa 0,0 l/m 16,1 km/h (3 Bft) SW 225 0 min 0,000 mm 0,0 UV-I 5 W/m -2,3 C -7,9 C 24,1 km/h (4 Bft) 91,30 %
29.12.2017 07:53 -0,2 C 3,9 C 86 % 1012,4 hPa 0,0 l/m 19,3 km/h (3 Bft) W-SW 247 0 min 0,000 mm 0,0 UV-I 5 W/m -2,3 C -9,6 C 25,7 km/h (4 Bft) 95,65 %
29.12.2017 07:54 -0,2 C 3,9 C 86 % 1012,4 hPa 0,0 l/m 17,7 km/h (3 Bft) SW 225 0 min 0,000 mm 0,0 UV-I 5 W/m -2,3 C -8,7 C 20,9 km/h (4 Bft) 86,96 %
29.12.2017 07:55 -0,2 C 3,9 C 86 % 1012,5 hPa 0,0 l/m 19,3 km/h (3 Bft) SW 225 0 min 0,000 mm 0,0 UV-I 5 W/m -2,3 C -9,6 C 29,0 km/h (5 Bft) 86,96 %
29.12.2017 07:56 -0,2 C 3,9 C 86 % 1012,5 hPa 0,0 l/m 12,9 km/h (3 Bft) SW 225 0 min 0,000 mm 0,0 UV-I 5 W/m -2,3 C -5,9 C 17,7 km/h (3 Bft) 100,00 %
29.12.2017 07:57 -0,2 C 3,9 C 86 % 1012,5 hPa 0,0 l/m 16,1 km/h (3 Bft) SW 225 0 min 0,000 mm 0,0 UV-I 5 W/m -2,3 C -7,9 C 22,5 km/h (4 Bft) 95,65 %
29.12.2017 07:58 -0,2 C 3,9 C 86 % 1012,6 hPa 0,0 l/m 19,3 km/h (3 Bft) SW 225 0 min 0,000 mm 0,0 UV-I 7 W/m -2,3 C -9,6 C 24,1 km/h (4 Bft) 100,00 %
29.12.2017 07:59 -0,2 C 3,9 C 86 % 1012,5 hPa 0,0 l/m 16,1 km/h (3 Bft) SW 225 0 min 0,000 mm 0,0 UV-I 7 W/m -2,3 C -7,9 C 27,4 km/h (4 Bft) 91,30 %
29.12.2017 08:00 -0,2 C 3,9 C 86 % 1012,5 hPa 0,0 l/m 16,1 km/h (3 Bft) SW 225 0 min 0,025 mm 0,0 UV-I 7 W/m -2,3 C -7,9 C 19,3 km/h (3 Bft) 100,00 %
29.12.2017 08:01 -0,2 C 3,9 C 85 % 1012,5 hPa 0,0 l/m 14,5 km/h (3 Bft) SW 225 0 min 0,000 mm 0,0 UV-I 7 W/m -2,4 C -6,9 C 19,3 km/h (3 Bft) 100,00 %
29.12.2017 08:02 -0,2 C 3,9 C 85 % 1012,5 hPa 0,0 l/m 19,3 km/h (3 Bft) SW 225 0 min 0,000 mm 0,0 UV-I 7 W/m -2,4 C -9,6 C 29,0 km/h (5 Bft) 95,65 %
29.12.2017 08:03 -0,2 C 3,9 C 85 % 1012,5 hPa 0,0 l/m 17,7 km/h (3 Bft) SW 225 0 min 0,000 mm 0,0 UV-I 7 W/m -2,4 C -8,7 C 24,1 km/h (4 Bft) 95,65 %
29.12.2017 08:04 -0,2 C 3,9 C 85 % 1012,5 hPa 0,0 l/m 14,5 km/h (3 Bft) SW 225 0 min 0,000 mm 0,0 UV-I 7 W/m -2,4 C -6,9 C 20,9 km/h (4 Bft) 95,65 %
29.12.2017 08:05 -0,2 C 3,9 C 85 % 1012,5 hPa 0,0 l/m 12,9 km/h (3 Bft) SW 225 0 min 0,000 mm 0,0 UV-I 7 W/m -2,4 C -5,9 C 17,7 km/h (3 Bft) 100,00 %
29.12.2017 08:06 -0,2 C 3,9 C 85 % 1012,5 hPa 0,0 l/m 16,1 km/h (3 Bft) W-SW 247 0 min 0,000 mm 0,0 UV-I 9 W/m -2,4 C -7,9 C 24,1 km/h (4 Bft) 95,65 %
29.12.2017 08:07 -0,2 C 3,9 C 85 % 1012,5 hPa 0,0 l/m 16,1 km/h (3 Bft) SW 225 0 min 0,000 mm 0,0 UV-I 9 W/m -2,4 C -7,9 C 22,5 km/h (4 Bft) 100,00 %
29.12.2017 08:08 -0,2 C 3,9 C 85 % 1012,5 hPa 0,0 l/m 14,5 km/h (3 Bft) W-SW 247 0 min 0,000 mm 0,0 UV-I 9 W/m -2,4 C -6,9 C 17,7 km/h (3 Bft) 95,65 %
29.12.2017 08:09 -0,2 C 3,9 C 85 % 1012,5 hPa 0,0 l/m 14,5 km/h (3 Bft) W-SW 247 0 min 0,000 mm 0,0 UV-I 9 W/m -2,4 C -6,9 C 17,7 km/h (3 Bft) 86,96 %
29.12.2017 08:10 -0,2 C 3,9 C 85 % 1012,5 hPa 0,0 l/m 12,9 km/h (3 Bft) W-SW 247 0 min 0,000 mm 0,0 UV-I 9 W/m -2,4 C -5,9 C 19,3 km/h (3 Bft) 95,65 %
29.12.2017 08:11 -0,2 C 3,9 C 85 % 1012,5 hPa 0,0 l/m 17,7 km/h (3 Bft) W-SW 247 0 min 0,000 mm 0,0 UV-I 9 W/m -2,4 C -8,7 C 25,7 km/h (4 Bft) 100,00 %
29.12.2017 08:12 -0,2 C 3,9 C 85 % 1012,5 hPa 0,0 l/m 16,1 km/h (3 Bft) W-SW 247 0 min 0,000 mm 0,0 UV-I 9 W/m -2,4 C -7,9 C 22,5 km/h (4 Bft) 91,30 %
29.12.2017 08:13 -0,2 C 3,9 C 85 % 1012,5 hPa 0,0 l/m 14,5 km/h (3 Bft) SW 225 0 min 0,000 mm 0,0 UV-I 9 W/m -2,4 C -6,9 C 22,5 km/h (4 Bft) 91,30 %
29.12.2017 08:14 -0,2 C 3,9 C 85 % 1012,5 hPa 0,0 l/m 19,3 km/h (3 Bft) SW 225 0 min 0,000 mm 0,0 UV-I 9 W/m -2,4 C -9,6 C 25,7 km/h (4 Bft) 95,65 %
29.12.2017 08:15 -0,2 C 3,9 C 85 % 1012,5 hPa 0,0 l/m 14,5 km/h (3 Bft) SW 225 0 min 0,000 mm 0,0 UV-I 9 W/m -2,4 C -6,9 C 19,3 km/h (3 Bft) 100,00 %
29.12.2017 08:16 -0,2 C 3,9 C 85 % 1012,5 hPa 0,0 l/m 16,1 km/h (3 Bft) SW 225 0 min 0,000 mm 0,0 UV-I 9 W/m -2,4 C -7,9 C 20,9 km/h (4 Bft) 91,30 %
29.12.2017 08:17 -0,2 C 3,9 C 85 % 1012,5 hPa 0,0 l/m 16,1 km/h (3 Bft) W-SW 247 0 min 0,000 mm 0,0 UV-I 9 W/m -2,4 C -7,9 C 25,7 km/h (4 Bft) 100,00 %
29.12.2017 08:18 -0,2 C 3,9 C 85 % 1012,5 hPa 0,0 l/m 17,7 km/h (3 Bft) SW 225 0 min 0,000 mm 0,0 UV-I 9 W/m -2,4 C -8,7 C 22,5 km/h (4 Bft) 100,00 %
29.12.2017 08:19 -0,2 C 3,9 C 85 % 1012,5 hPa 0,0 l/m 16,1 km/h (3 Bft) SW 225 0 min 0,000 mm 0,0 UV-I 9 W/m -2,4 C -7,9 C 19,3 km/h (3 Bft) 100,00 %
29.12.2017 08:20 -0,2 C 3,9 C 85 % 1012,5 hPa 0,0 l/m 14,5 km/h (3 Bft) SW 225 0 min 0,000 mm 0,0 UV-I 11 W/m -2,4 C -6,9 C 25,7 km/h (4 Bft) 100,00 %
29.12.2017 08:21 -0,2 C 3,9 C 85 % 1012,5 hPa 0,0 l/m 17,7 km/h (3 Bft) W-SW 247 0 min 0,000 mm 0,0 UV-I 11 W/m -2,4 C -8,7 C 22,5 km/h (4 Bft) 100,00 %
29.12.2017 08:22 -0,2 C 3,9 C 85 % 1012,5 hPa 0,0 l/m 17,7 km/h (3 Bft) W-SW 247 0 min 0,000 mm 0,0 UV-I 11 W/m -2,4 C -8,7 C 25,7 km/h (4 Bft) 100,00 %
29.12.2017 08:23 -0,2 C 3,9 C 85 % 1012,5 hPa 0,0 l/m 20,9 km/h (4 Bft) SW 225 0 min 0,000 mm 0,0 UV-I 11 W/m -2,4 C -10,3 C 29,0 km/h (5 Bft) 95,65 %
29.12.2017 08:24 -0,2 C 3,9 C 85 % 1012,5 hPa 0,0 l/m 14,5 km/h (3 Bft) SW 225 0 min 0,000 mm 0,0 UV-I 11 W/m -2,4 C -6,9 C 20,9 km/h (4 Bft) 100,00 %
29.12.2017 08:25 -0,2 C 3,9 C 85 % 1012,5 hPa 0,0 l/m 20,9 km/h (4 Bft) SW 225 0 min 0,000 mm 0,0 UV-I 11 W/m -2,4 C -10,3 C 27,4 km/h (4 Bft) 100,00 %
29.12.2017 08:26 -0,2 C 3,9 C 85 % 1012,5 hPa 0,0 l/m 19,3 km/h (3 Bft) SW 225 0 min 0,000 mm 0,0 UV-I 11 W/m -2,4 C -9,6 C 27,4 km/h (4 Bft) 95,65 %
29.12.2017 08:27 -0,2 C 3,9 C 84 % 1012,5 hPa 0,0 l/m 19,3 km/h (3 Bft) SW 225 0 min 0,000 mm 0,0 UV-I 12 W/m -2,6 C -9,6 C 22,5 km/h (4 Bft) 100,00 %
29.12.2017 08:28 -0,2 C 3,9 C 84 % 1012,5 hPa 0,0 l/m 14,5 km/h (3 Bft) SW 225 0 min 0,000 mm 0,0 UV-I 12 W/m -2,6 C -6,9 C 22,5 km/h (4 Bft) 95,65 %
29.12.2017 08:29 -0,2 C 3,9 C 85 % 1012,5 hPa 0,0 l/m 16,1 km/h (3 Bft) W-SW 247 0 min 0,000 mm 0,0 UV-I 12 W/m -2,4 C -7,9 C 22,5 km/h (4 Bft) 100,00 %
29.12.2017 08:30 -0,2 C 3,9 C 85 % 1012,5 hPa 0,0 l/m 12,9 km/h (3 Bft) SW 225 0 min 0,000 mm 0,0 UV-I 12 W/m -2,4 C -5,9 C 22,5 km/h (4 Bft) 95,65 %
29.12.2017 08:31 -0,2 C 3,9 C 85 % 1012,5 hPa 0,0 l/m 12,9 km/h (3 Bft) W-SW 247 0 min 0,000 mm 0,0 UV-I 12 W/m -2,4 C -5,9 C 17,7 km/h (3 Bft) 100,00 %
29.12.2017 08:32 -0,2 C 3,9 C 85 % 1012,5 hPa 0,0 l/m 17,7 km/h (3 Bft) SW 225 0 min 0,000 mm 0,0 UV-I 12 W/m -2,4 C -8,7 C 24,1 km/h (4 Bft) 100,00 %
29.12.2017 08:33 -0,2 C 3,9 C 85 % 1012,5 hPa 0,0 l/m 17,7 km/h (3 Bft) SW 225 0 min 0,000 mm 0,0 UV-I 12 W/m -2,4 C -8,7 C 24,1 km/h (4 Bft) 100,00 %
29.12.2017 08:34 -0,2 C 3,9 C 85 % 1012,5 hPa 0,0 l/m 16,1 km/h (3 Bft) W-SW 247 0 min 0,000 mm 0,0 UV-I 12 W/m -2,4 C -7,9 C 24,1 km/h (4 Bft) 100,00 %
29.12.2017 08:35 -0,2 C 3,9 C 85 % 1012,5 hPa 0,0 l/m 16,1 km/h (3 Bft) W-SW 247 0 min 0,000 mm 0,0 UV-I 12 W/m -2,4 C -7,9 C 24,1 km/h (4 Bft) 100,00 %
29.12.2017 08:36 -0,2 C 3,9 C 85 % 1012,5 hPa 0,0 l/m 16,1 km/h (3 Bft) SW 225 0 min 0,000 mm 0,0 UV-I 12 W/m -2,4 C -7,9 C 24,1 km/h (4 Bft) 100,00 %
29.12.2017 08:37 -0,2 C 3,9 C 85 % 1012,4 hPa 0,0 l/m 12,9 km/h (3 Bft) SW 225 0 min 0,000 mm 0,0 UV-I 12 W/m -2,4 C -5,9 C 19,3 km/h (3 Bft) 95,65 %
29.12.2017 08:38 -0,2 C 3,9 C 85 % 1012,5 hPa 0,0 l/m 11,3 km/h (2 Bft) SW 225 0 min 0,000 mm 0,0 UV-I 12 W/m -2,4 C -4,7 C 19,3 km/h (3 Bft) 100,00 %
29.12.2017 08:39 -0,2 C 3,9 C 85 % 1012,6 hPa 0,0 l/m 9,7 km/h (2 Bft) SW 225 0 min 0,000 mm 0,0 UV-I 14 W/m -2,4 C -3,4 C 17,7 km/h (3 Bft) 100,00 %
29.12.2017 08:40 -0,2 C 3,9 C 85 % 1012,6 hPa 0,0 l/m 14,5 km/h (3 Bft) SW 225 0 min 0,000 mm 0,0 UV-I 14 W/m -2,4 C -6,9 C 22,5 km/h (4 Bft) 100,00 %
29.12.2017 08:41 -0,2 C 3,9 C 84 % 1012,6 hPa 0,0 l/m 16,1 km/h (3 Bft) SW 225 0 min 0,000 mm 0,0 UV-I 14 W/m -2,6 C -7,9 C 20,9 km/h (4 Bft) 100,00 %
29.12.2017 08:42 -0,2 C 3,9 C 85 % 1012,6 hPa 0,0 l/m 16,1 km/h (3 Bft) W-SW 247 0 min 0,000 mm 0,0 UV-I 16 W/m -2,4 C -7,9 C 22,5 km/h (4 Bft) 100,00 %
29.12.2017 08:43 -0,2 C 3,9 C 85 % 1012,6 hPa 0,0 l/m 11,3 km/h (2 Bft) SW 225 0 min 0,000 mm 0,0 UV-I 16 W/m -2,4 C -4,7 C 16,1 km/h (3 Bft) 100,00 %
29.12.2017 08:44 -0,2 C 3,9 C 85 % 1012,7 hPa 0,0 l/m 14,5 km/h (3 Bft) SW 225 0 min 0,000 mm 0,0 UV-I 18 W/m -2,4 C -6,9 C 19,3 km/h (3 Bft) 91,30 %
29.12.2017 08:45 -0,2 C 3,9 C 85 % 1012,7 hPa 0,0 l/m 14,5 km/h (3 Bft) SW 225 0 min 0,000 mm 0,0 UV-I 19 W/m -2,4 C -6,9 C 19,3 km/h (3 Bft) 100,00 %
29.12.2017 08:46 -0,2 C 3,9 C 85 % 1012,7 hPa 0,0 l/m 16,1 km/h (3 Bft) SW 225 0 min 0,000 mm 0,0 UV-I 19 W/m -2,4 C -7,9 C 24,1 km/h (4 Bft) 100,00 %
29.12.2017 08:47 -0,2 C 3,9 C 85 % 1012,7 hPa 0,0 l/m 19,3 km/h (3 Bft) SW 225 0 min 0,000 mm 0,0 UV-I 19 W/m -2,4 C -9,6 C 24,1 km/h (4 Bft) 100,00 %
29.12.2017 08:48 -0,2 C 3,9 C 84 % 1012,7 hPa 0,0 l/m 14,5 km/h (3 Bft) SW 225 0 min 0,000 mm 0,0 UV-I 19 W/m -2,6 C -6,9 C 20,9 km/h (4 Bft) 100,00 %
29.12.2017 08:49 -0,2 C 3,9 C 84 % 1012,7 hPa 0,0 l/m 16,1 km/h (3 Bft) SW 225 0 min 0,000 mm 0,0 UV-I 19 W/m -2,6 C -7,9 C 27,4 km/h (4 Bft) 100,00 %
29.12.2017 08:50 -0,2 C 3,9 C 84 % 1012,7 hPa 0,0 l/m 17,7 km/h (3 Bft) W-SW 247 0 min 0,000 mm 0,0 UV-I 19 W/m -2,6 C -8,7 C 22,5 km/h (4 Bft) 100,00 %
29.12.2017 08:51 -0,1 C 3,9 C 84 % 1012,7 hPa 0,0 l/m 16,1 km/h (3 Bft) SW 225 0 min 0,000 mm 0,0 UV-I 21 W/m -2,5 C -7,7 C 22,5 km/h (4 Bft) 95,65 %
29.12.2017 08:52 -0,2 C 3,9 C 84 % 1012,6 hPa 0,0 l/m 14,5 km/h (3 Bft) W-SW 247 0 min 0,000 mm 0,0 UV-I 21 W/m -2,6 C -6,9 C 19,3 km/h (3 Bft) 95,65 %
29.12.2017 08:53 -0,1 C 3,9 C 84 % 1012,8 hPa 0,0 l/m 16,1 km/h (3 Bft) SW 225 0 min 0,000 mm 0,0 UV-I 21 W/m -2,5 C -7,7 C 20,9 km/h (4 Bft) 100,00 %
29.12.2017 08:54 -0,1 C 3,9 C 84 % 1012,7 hPa 0,0 l/m 14,5 km/h (3 Bft) SW 225 0 min 0,000 mm 0,0 UV-I 21 W/m -2,5 C -6,8 C 19,3 km/h (3 Bft) 95,65 %
29.12.2017 08:55 -0,2 C 3,9 C 84 % 1012,7 hPa 0,0 l/m 12,9 km/h (3 Bft) SW 225 0 min 0,000 mm 0,0 UV-I 21 W/m -2,6 C -5,9 C 17,7 km/h (3 Bft) 100,00 %
29.12.2017 08:56 -0,1 C 3,9 C 85 % 1012,7 hPa 0,0 l/m 16,1 km/h (3 Bft) W-SW 247 0 min 0,000 mm 0,0 UV-I 24 W/m -2,3 C -7,7 C 27,4 km/h (4 Bft) 100,00 %
29.12.2017 08:57 -0,2 C 3,9 C 84 % 1012,8 hPa 0,0 l/m 14,5 km/h (3 Bft) W-SW 247 0 min 0,000 mm 0,0 UV-I 25 W/m -2,6 C -6,9 C 19,3 km/h (3 Bft) 95,65 %
29.12.2017 08:58 -0,2 C 3,9 C 84 % 1012,8 hPa 0,0 l/m 17,7 km/h (3 Bft) SW 225 0 min 0,000 mm 0,0 UV-I 25 W/m -2,6 C -8,7 C 27,4 km/h (4 Bft) 95,65 %
29.12.2017 08:59 -0,1 C 3,9 C 84 % 1012,8 hPa 0,0 l/m 16,1 km/h (3 Bft) SW 225 0 min 0,000 mm 0,0 UV-I 25 W/m -2,5 C -7,7 C 24,1 km/h (4 Bft) 95,65 %
29.12.2017 09:00 -0,1 C 3,9 C 84 % 1012,8 hPa 0,0 l/m 12,9 km/h (3 Bft) SW 225 0 min 0,025 mm 0,0 UV-I 19 W/m -2,5 C -5,8 C 19,3 km/h (3 Bft) 100,00 %
29.12.2017 09:01 -0,1 C 3,9 C 84 % 1012,8 hPa 0,0 l/m 20,9 km/h (4 Bft) W-SW 247 0 min 0,000 mm 0,0 UV-I 18 W/m -2,5 C -10,2 C 32,2 km/h (5 Bft) 95,65 %
29.12.2017 09:02 -0,1 C 3,9 C 84 % 1012,8 hPa 0,0 l/m 12,9 km/h (3 Bft) W-SW 247 0 min 0,000 mm 0,0 UV-I 22 W/m -2,5 C -5,8 C 19,3 km/h (3 Bft) 100,00 %
29.12.2017 09:03 -0,2 C 3,9 C 85 % 1012,7 hPa 0,0 l/m 16,1 km/h (3 Bft) W-SW 247 0 min 0,000 mm 0,0 UV-I 23 W/m -2,4 C -7,9 C 22,5 km/h (4 Bft) 95,65 %
29.12.2017 09:04 -0,2 C 3,9 C 85 % 1012,7 hPa 0,0 l/m 14,5 km/h (3 Bft) W-SW 247 0 min 0,000 mm 0,0 UV-I 25 W/m -2,4 C -6,9 C 19,3 km/h (3 Bft) 95,65 %
29.12.2017 09:05 -0,3 C 3,9 C 86 % 1012,6 hPa 0,0 l/m 14,5 km/h (3 Bft) SW 225 0 min 0,000 mm 0,0 UV-I 25 W/m -2,3 C -7,0 C 24,1 km/h (4 Bft) 91,30 %
29.12.2017 09:06 -0,3 C 3,9 C 87 % 1012,7 hPa 0,0 l/m 12,9 km/h (3 Bft) SW 225 0 min 0,000 mm 0,0 UV-I 28 W/m -2,2 C -6,0 C 19,3 km/h (3 Bft) 100,00 %
29.12.2017 09:07 -0,4 C 3,9 C 87 % 1012,6 hPa 0,0 l/m 14,5 km/h (3 Bft) SW 225 0 min 0,000 mm 0,0 UV-I 28 W/m -2,3 C -7,2 C 22,5 km/h (4 Bft) 95,65 %
29.12.2017 09:08 -0,5 C 3,9 C 88 % 1012,7 hPa 0,0 l/m 19,3 km/h (3 Bft) W-SW 247 0 min 0,000 mm 0,0 UV-I 26 W/m -2,2 C -9,9 C 24,1 km/h (4 Bft) 100,00 %
29.12.2017 09:09 -0,5 C 3,9 C 88 % 1012,7 hPa 0,0 l/m 12,9 km/h (3 Bft) SW 225 0 min 0,000 mm 0,0 UV-I 26 W/m -2,2 C -6,2 C 19,3 km/h (3 Bft) 91,30 %
29.12.2017 09:10 -0,6 C 3,9 C 88 % 1012,7 hPa 0,0 l/m 20,9 km/h (4 Bft) W-SW 247 0 min 0,000 mm 0,0 UV-I 28 W/m -2,3 C -10,8 C 29,0 km/h (5 Bft) 95,65 %
29.12.2017 09:11 -0,6 C 3,9 C 87 % 1012,7 hPa 0,0 l/m 19,3 km/h (3 Bft) SW 225 0 min 0,000 mm 0,0 UV-I 30 W/m -2,5 C -10,1 C 22,5 km/h (4 Bft) 100,00 %
29.12.2017 09:12 -0,5 C 3,9 C 87 % 1012,7 hPa 0,0 l/m 14,5 km/h (3 Bft) SW 225 0 min 0,000 mm 0,0 UV-I 32 W/m -2,4 C -7,3 C 17,7 km/h (3 Bft) 91,30 %
29.12.2017 09:13 -0,4 C 3,9 C 87 % 1012,7 hPa 0,0 l/m 14,5 km/h (3 Bft) W-SW 247 0 min 0,000 mm 0,0 UV-I 35 W/m -2,3 C -7,2 C 20,9 km/h (4 Bft) 100,00 %
29.12.2017 09:14 -0,4 C 3,9 C 87 % 1012,7 hPa 0,0 l/m 14,5 km/h (3 Bft) SW 225 0 min 0,000 mm 0,0 UV-I 37 W/m -2,3 C -7,2 C 20,9 km/h (4 Bft) 95,65 %
29.12.2017 09:15 -0,4 C 3,9 C 87 % 1012,6 hPa 0,0 l/m 16,1 km/h (3 Bft) SW 225 0 min 0,000 mm 0,0 UV-I 39 W/m -2,3 C -8,1 C 22,5 km/h (4 Bft) 100,00 %
29.12.2017 09:16 -0,4 C 3,9 C 87 % 1012,6 hPa 0,0 l/m 20,9 km/h (4 Bft) SW 225 0 min 0,000 mm 0,0 UV-I 39 W/m -2,3 C -10,6 C 27,4 km/h (4 Bft) 95,65 %
29.12.2017 09:17 -0,3 C 3,9 C 86 % 1012,7 hPa 0,0 l/m 17,7 km/h (3 Bft) SW 225 0 min 0,000 mm 0,0 UV-I 37 W/m -2,3 C -8,9 C 24,1 km/h (4 Bft) 95,65 %
29.12.2017 09:18 -0,3 C 3,9 C 86 % 1012,7 hPa 0,0 l/m 16,1 km/h (3 Bft) SW 225 0 min 0,000 mm 0,0 UV-I 37 W/m -2,3 C -8,0 C 24,1 km/h (4 Bft) 100,00 %
29.12.2017 09:19 -0,3 C 3,3 C 86 % 1012,7 hPa 0,0 l/m 14,5 km/h (3 Bft) SW 225 0 min 0,000 mm 0,0 UV-I 34 W/m -2,3 C -7,0 C 24,1 km/h (4 Bft) 95,65 %
29.12.2017 09:20 -0,2 C 3,3 C 86 % 1012,7 hPa 0,0 l/m 14,5 km/h (3 Bft) SW 225 0 min 0,000 mm 0,0 UV-I 32 W/m -2,3 C -6,9 C 24,1 km/h (4 Bft) 100,00 %
29.12.2017 09:21 -0,2 C 3,3 C 86 % 1012,6 hPa 0,0 l/m 16,1 km/h (3 Bft) SW 225 0 min 0,000 mm 0,0 UV-I 35 W/m -2,3 C -7,9 C 22,5 km/h (4 Bft) 100,00 %
29.12.2017 09:22 -0,2 C 3,9 C 85 % 1012,7 hPa 0,0 l/m 16,1 km/h (3 Bft) SW 225 0 min 0,000 mm 0,0 UV-I 37 W/m -2,4 C -7,9 C 22,5 km/h (4 Bft) 100,00 %
29.12.2017 09:23 -0,2 C 3,9 C 85 % 1012,6 hPa 0,0 l/m 12,9 km/h (3 Bft) SW 225 0 min 0,000 mm 0,0 UV-I 39 W/m -2,4 C -5,9 C 19,3 km/h (3 Bft) 100,00 %
29.12.2017 09:24 -0,2 C 3,9 C 85 % 1012,7 hPa 0,0 l/m 14,5 km/h (3 Bft) W-SW 247 0 min 0,000 mm 0,0 UV-I 40 W/m -2,4 C -6,9 C 24,1 km/h (4 Bft) 95,65 %
29.12.2017 09:25 -0,1 C 3,3 C 85 % 1012,7 hPa 0,0 l/m 16,1 km/h (3 Bft) SW 225 0 min 0,000 mm 0,0 UV-I 42 W/m -2,3 C -7,7 C 20,9 km/h (4 Bft) 100,00 %
29.12.2017 09:26 -0,1 C 3,3 C 85 % 1012,7 hPa 0,0 l/m 14,5 km/h (3 Bft) SW 225 0 min 0,000 mm 0,0 UV-I 44 W/m -2,3 C -6,8 C 20,9 km/h (4 Bft) 95,65 %
29.12.2017 09:27 -0,1 C 3,9 C 85 % 1012,7 hPa 0,0 l/m 16,1 km/h (3 Bft) SW 225 0 min 0,000 mm 0,0 UV-I 46 W/m -2,3 C -7,7 C 22,5 km/h (4 Bft) 100,00 %
29.12.2017 09:28 -0,1 C 3,9 C 85 % 1012,7 hPa 0,0 l/m 14,5 km/h (3 Bft) SW 225 0 min 0,000 mm 0,0 UV-I 49 W/m -2,3 C -6,8 C 19,3 km/h (3 Bft) 100,00 %
29.12.2017 09:29 -0,1 C 3,9 C 84 % 1012,7 hPa 0,0 l/m 16,1 km/h (3 Bft) SW 225 0 min 0,000 mm 0,0 UV-I 53 W/m -2,5 C -7,7 C 20,9 km/h (4 Bft) 100,00 %
29.12.2017 09:30 -0,1 C 3,9 C 84 % 1012,7 hPa 0,0 l/m 19,3 km/h (3 Bft) SW 225 0 min 0,000 mm 0,0 UV-I 54 W/m -2,5 C -9,4 C 24,1 km/h (4 Bft) 100,00 %
29.12.2017 09:31 -0,1 C 3,9 C 84 % 1012,7 hPa 0,0 l/m 20,9 km/h (4 Bft) SW 225 0 min 0,000 mm 0,0 UV-I 59 W/m -2,5 C -10,2 C 27,4 km/h (4 Bft) 95,65 %
29.12.2017 09:32 -0,1 C 3,9 C 84 % 1012,7 hPa 0,0 l/m 20,9 km/h (4 Bft) SW 225 0 min 0,000 mm 0,0 UV-I 60 W/m -2,5 C -10,2 C 25,7 km/h (4 Bft) 100,00 %
29.12.2017 09:33 -0,1 C 3,9 C 84 % 1012,8 hPa 0,0 l/m 19,3 km/h (3 Bft) SW 225 0 min 0,000 mm 0,0 UV-I 63 W/m -2,5 C -9,4 C 24,1 km/h (4 Bft) 95,65 %
29.12.2017 09:34 0,0 C 3,9 C 83 % 1012,8 hPa 0,0 l/m 16,1 km/h (3 Bft) SW 225 0 min 0,000 mm 0,0 UV-I 67 W/m -2,5 C -7,6 C 22,5 km/h (4 Bft) 100,00 %
29.12.2017 09:35 0,0 C 3,9 C 83 % 1012,8 hPa 0,0 l/m 17,7 km/h (3 Bft) SW 225 0 min 0,000 mm 0,0 UV-I 69 W/m -2,5 C -8,5 C 25,7 km/h (4 Bft) 100,00 %
29.12.2017 09:36 0,0 C 3,9 C 83 % 1012,8 hPa 0,0 l/m 16,1 km/h (3 Bft) SW 225 0 min 0,000 mm 0,0 UV-I 70 W/m -2,5 C -7,6 C 24,1 km/h (4 Bft) 95,65 %
29.12.2017 09:37 0,0 C 3,9 C 83 % 1012,9 hPa 0,0 l/m 16,1 km/h (3 Bft) SW 225 0 min 0,000 mm 0,0 UV-I 73 W/m -2,5 C -7,6 C 22,5 km/h (4 Bft) 100,00 %
29.12.2017 09:38 0,0 C 3,9 C 83 % 1012,8 hPa 0,0 l/m 16,1 km/h (3 Bft) W-SW 247 0 min 0,000 mm 0,0 UV-I 76 W/m -2,5 C -7,6 C 22,5 km/h (4 Bft) 91,30 %
29.12.2017 09:39 0,0 C 3,9 C 83 % 1012,9 hPa 0,0 l/m 14,5 km/h (3 Bft) W-SW 247 0 min 0,000 mm 0,0 UV-I 77 W/m -2,5 C -6,7 C 20,9 km/h (4 Bft) 95,65 %
29.12.2017 09:40 0,1 C 3,3 C 83 % 1012,9 hPa 0,0 l/m 11,3 km/h (2 Bft) SW 225 0 min 0,000 mm 0,0 UV-I 81 W/m -2,4 C -4,4 C 17,7 km/h (3 Bft) 95,65 %
29.12.2017 09:41 0,1 C 3,3 C 83 % 1012,9 hPa 0,0 l/m 14,5 km/h (3 Bft) W-SW 247 0 min 0,000 mm 0,0 UV-I 84 W/m -2,4 C -6,6 C 19,3 km/h (3 Bft) 91,30 %
29.12.2017 09:42 0,1 C 3,3 C 83 % 1012,9 hPa 0,0 l/m 17,7 km/h (3 Bft) W-SW 247 0 min 0,000 mm 0,0 UV-I 86 W/m -2,4 C -8,4 C 24,1 km/h (4 Bft) 100,00 %
29.12.2017 09:43 0,1 C 3,3 C 83 % 1012,9 hPa 0,0 l/m 14,5 km/h (3 Bft) SW 225 0 min 0,000 mm 0,0 UV-I 83 W/m -2,4 C -6,6 C 24,1 km/h (4 Bft) 95,65 %
29.12.2017 09:44 0,1 C 3,9 C 83 % 1012,9 hPa 0,0 l/m 11,3 km/h (2 Bft) W-SW 247 0 min 0,000 mm 0,0 UV-I 74 W/m -2,4 C -4,4 C 16,1 km/h (3 Bft) 100,00 %
29.12.2017 09:45 0,1 C 3,9 C 83 % 1012,9 hPa 0,0 l/m 17,7 km/h (3 Bft) SW 225 0 min 0,000 mm 0,0 UV-I 69 W/m -2,4 C -8,4 C 22,5 km/h (4 Bft) 95,65 %
29.12.2017 09:46 0,1 C 3,9 C 83 % 1012,9 hPa 0,0 l/m 19,3 km/h (3 Bft) SW 225 0 min 0,000 mm 0,0 UV-I 65 W/m -2,4 C -9,2 C 29,0 km/h (5 Bft) 100,00 %
29.12.2017 09:47 0,1 C 3,3 C 83 % 1012,9 hPa 0,0 l/m 20,9 km/h (4 Bft) SW 225 0 min 0,000 mm 0,0 UV-I 65 W/m -2,4 C -9,9 C 25,7 km/h (4 Bft) 91,30 %
29.12.2017 09:48 0,1 C 3,3 C 82 % 1012,9 hPa 0,0 l/m 12,9 km/h (3 Bft) SW 225 0 min 0,000 mm 0,0 UV-I 65 W/m -2,6 C -5,5 C 19,3 km/h (3 Bft) 95,65 %
29.12.2017 09:49 0,1 C 3,9 C 82 % 1012,9 hPa 0,0 l/m 16,1 km/h (3 Bft) SW 225 0 min 0,000 mm 0,0 UV-I 66 W/m -2,6 C -7,5 C 22,5 km/h (4 Bft) 100,00 %
29.12.2017 09:50 0,1 C 3,9 C 82 % 1013,0 hPa 0,0 l/m 19,3 km/h (3 Bft) SW 225 0 min 0,000 mm 0,0 UV-I 69 W/m -2,6 C -9,2 C 24,1 km/h (4 Bft) 91,30 %
29.12.2017 09:51 0,1 C 3,9 C 82 % 1012,9 hPa 0,0 l/m 17,7 km/h (3 Bft) W-SW 247 0 min 0,000 mm 0,0 UV-I 72 W/m -2,6 C -8,4 C 24,1 km/h (4 Bft) 100,00 %
29.12.2017 09:52 0,1 C 3,9 C 82 % 1012,9 hPa 0,0 l/m 16,1 km/h (3 Bft) W-SW 247 0 min 0,000 mm 0,0 UV-I 77 W/m -2,6 C -7,5 C 24,1 km/h (4 Bft) 95,65 %
29.12.2017 09:53 0,1 C 3,9 C 82 % 1012,9 hPa 0,0 l/m 17,7 km/h (3 Bft) SW 225 0 min 0,000 mm 0,0 UV-I 81 W/m -2,6 C -8,4 C 24,1 km/h (4 Bft) 95,65 %
29.12.2017 09:54 0,1 C 3,9 C 82 % 1012,9 hPa 0,0 l/m 16,1 km/h (3 Bft) SW 225 0 min 0,000 mm 0,0 UV-I 83 W/m -2,6 C -7,5 C 22,5 km/h (4 Bft) 91,30 %
29.12.2017 09:55 0,2 C 3,9 C 82 % 1012,9 hPa 0,0 l/m 20,9 km/h (4 Bft) SW 225 0 min 0,000 mm 0,0 UV-I 83 W/m -2,5 C -9,8 C 25,7 km/h (4 Bft) 100,00 %
29.12.2017 09:56 0,1 C 3,9 C 82 % 1012,9 hPa 0,0 l/m 17,7 km/h (3 Bft) SW 225 0 min 0,000 mm 0,0 UV-I 81 W/m -2,6 C -8,4 C 27,4 km/h (4 Bft) 95,65 %
29.12.2017 09:57 0,2 C 3,9 C 82 % 1012,9 hPa 0,0 l/m 14,5 km/h (3 Bft) SW 225 0 min 0,000 mm 0,0 UV-I 83 W/m -2,5 C -6,4 C 20,9 km/h (4 Bft) 95,65 %
29.12.2017 09:58 0,2 C 3,9 C 82 % 1012,9 hPa 0,0 l/m 16,1 km/h (3 Bft) W-SW 247 0 min 0,000 mm 0,0 UV-I 84 W/m -2,5 C -7,4 C 22,5 km/h (4 Bft) 95,65 %
29.12.2017 09:59 0,2 C 3,9 C 82 % 1012,9 hPa 0,0 l/m 20,9 km/h (4 Bft) SW 225 0 min 0,000 mm 0,0 UV-I 88 W/m -2,5 C -9,8 C 27,4 km/h (4 Bft) 95,65 %
29.12.2017 10:00 0,2 C 3,3 C 82 % 1012,9 hPa 0,0 l/m 17,7 km/h (3 Bft) SW 225 0 min 0,025 mm 0,0 UV-I 90 W/m -2,5 C -8,2 C 22,5 km/h (4 Bft) 100,00 %
29.12.2017 10:01 0,2 C 3,3 C 82 % 1012,9 hPa 0,0 l/m 19,3 km/h (3 Bft) SW 225 0 min 0,000 mm 0,0 UV-I 90 W/m -2,5 C -9,0 C 25,7 km/h (4 Bft) 91,30 %
29.12.2017 10:02 0,2 C 3,3 C 81 % 1012,9 hPa 0,0 l/m 16,1 km/h (3 Bft) SW 225 0 min 0,000 mm 0,0 UV-I 90 W/m -2,7 C -7,4 C 22,5 km/h (4 Bft) 100,00 %
29.12.2017 10:03 0,2 C 3,9 C 82 % 1012,9 hPa 0,0 l/m 17,7 km/h (3 Bft) SW 225 0 min 0,000 mm 0,0 UV-I 90 W/m -2,5 C -8,2 C 27,4 km/h (4 Bft) 95,65 %
29.12.2017 10:04 0,2 C 3,9 C 82 % 1012,9 hPa 0,0 l/m 16,1 km/h (3 Bft) SW 225 0 min 0,000 mm 0,0 UV-I 91 W/m -2,5 C -7,4 C 25,7 km/h (4 Bft) 100,00 %
29.12.2017 10:05 0,2 C 3,3 C 82 % 1012,9 hPa 0,0 l/m 12,9 km/h (3 Bft) SW 225 0 min 0,000 mm 0,0 UV-I 93 W/m -2,5 C -5,4 C 22,5 km/h (4 Bft) 95,65 %
29.12.2017 10:06 0,2 C 3,9 C 82 % 1012,9 hPa 0,0 l/m 11,3 km/h (2 Bft) SW 225 0 min 0,000 mm 0,0 UV-I 99 W/m -2,5 C -4,3 C 16,1 km/h (3 Bft) 95,65 %
29.12.2017 10:07 0,2 C 3,3 C 82 % 1012,9 hPa 0,0 l/m 12,9 km/h (3 Bft) SW 225 0 min 0,000 mm 0,0 UV-I 104 W/m -2,5 C -5,4 C 16,1 km/h (3 Bft) 100,00 %
29.12.2017 10:08 0,2 C 3,3 C 81 % 1012,9 hPa 0,0 l/m 12,9 km/h (3 Bft) W-SW 247 0 min 0,000 mm 0,0 UV-I 109 W/m -2,7 C -5,4 C 17,7 km/h (3 Bft) 91,30 %
29.12.2017 10:09 0,2 C 3,3 C 81 % 1013,0 hPa 0,0 l/m 17,7 km/h (3 Bft) W-SW 247 0 min 0,000 mm 0,0 UV-I 118 W/m -2,7 C -8,2 C 22,5 km/h (4 Bft) 100,00 %
29.12.2017 10:10 0,3 C 3,3 C 81 % 1013,0 hPa 0,0 l/m 14,5 km/h (3 Bft) SW 225 0 min 0,000 mm 0,0 UV-I 123 W/m -2,6 C -6,3 C 22,5 km/h (4 Bft) 95,65 %
29.12.2017 10:11 0,3 C 3,3 C 80 % 1013,0 hPa 0,0 l/m 16,1 km/h (3 Bft) SW 225 0 min 0,000 mm 0,0 UV-I 127 W/m -2,7 C -7,3 C 27,4 km/h (4 Bft) 100,00 %
29.12.2017 10:12 0,3 C 3,3 C 80 % 1013,0 hPa 0,0 l/m 17,7 km/h (3 Bft) W-SW 247 0 min 0,000 mm 0,0 UV-I 126 W/m -2,7 C -8,1 C 22,5 km/h (4 Bft) 95,65 %
29.12.2017 10:13 0,3 C 3,3 C 80 % 1013,1 hPa 0,0 l/m 17,7 km/h (3 Bft) W-SW 247 0 min 0,000 mm 0,0 UV-I 125 W/m -2,7 C -8,1 C 22,5 km/h (4 Bft) 100,00 %
29.12.2017 10:14 0,4 C 3,3 C 79 % 1013,0 hPa 0,0 l/m 12,9 km/h (3 Bft) SW 225 0 min 0,000 mm 0,0 UV-I 127 W/m -2,8 C -5,2 C 19,3 km/h (3 Bft) 95,65 %
29.12.2017 10:15 0,4 C 3,3 C 79 % 1013,0 hPa 0,0 l/m 16,1 km/h (3 Bft) W-SW 247 0 min 0,000 mm 0,0 UV-I 130 W/m -2,8 C -7,1 C 22,5 km/h (4 Bft) 91,30 %
29.12.2017 10:16 0,4 C 3,3 C 78 % 1013,0 hPa 0,0 l/m 12,9 km/h (3 Bft) SW 225 0 min 0,000 mm 0,0 UV-I 137 W/m -3,0 C -5,2 C 22,5 km/h (4 Bft) 100,00 %
29.12.2017 10:17 0,5 C 3,3 C 78 % 1013,0 hPa 0,0 l/m 12,9 km/h (3 Bft) SW 225 0 min 0,000 mm 0,0 UV-I 142 W/m -2,9 C -5,0 C 19,3 km/h (3 Bft) 100,00 %
29.12.2017 10:18 0,5 C 3,3 C 78 % 1013,0 hPa 0,0 l/m 12,9 km/h (3 Bft) SW 225 1 min 0,000 mm 0,0 UV-I 158 W/m -2,9 C -5,0 C 17,7 km/h (3 Bft) 95,65 %
29.12.2017 10:19 0,5 C 3,3 C 78 % 1013,0 hPa 0,0 l/m 14,5 km/h (3 Bft) W-SW 247 1 min 0,000 mm 0,0 UV-I 171 W/m -2,9 C -6,1 C 19,3 km/h (3 Bft) 95,65 %
29.12.2017 10:20 0,5 C 3,3 C 78 % 1012,9 hPa 0,0 l/m 17,7 km/h (3 Bft) SW 225 1 min 0,000 mm 0,0 UV-I 271 W/m -2,9 C -7,9 C 22,5 km/h (4 Bft) 95,65 %
29.12.2017 10:21 0,6 C 3,3 C 78 % 1013,0 hPa 0,0 l/m 16,1 km/h (3 Bft) W-SW 247 1 min 0,000 mm 0,0 UV-I 202 W/m -2,8 C -6,9 C 20,9 km/h (4 Bft) 100,00 %
29.12.2017 10:22 0,6 C 3,3 C 78 % 1013,0 hPa 0,0 l/m 14,5 km/h (3 Bft) W-SW 247 1 min 0,000 mm 0,0 UV-I 163 W/m -2,8 C -6,0 C 22,5 km/h (4 Bft) 91,30 %
29.12.2017 10:23 0,6 C 3,3 C 78 % 1013,0 hPa 0,0 l/m 17,7 km/h (3 Bft) W-SW 247 1 min 0,000 mm 0,0 UV-I 158 W/m -2,8 C -7,7 C 22,5 km/h (4 Bft) 100,00 %
29.12.2017 10:24 0,6 C 3,3 C 78 % 1013,0 hPa 0,0 l/m 16,1 km/h (3 Bft) W-SW 247 1 min 0,000 mm 0,0 UV-I 158 W/m -2,8 C -6,9 C 22,5 km/h (4 Bft) 95,65 %
29.12.2017 10:25 0,7 C 3,9 C 78 % 1013,0 hPa 0,0 l/m 17,7 km/h (3 Bft) W-SW 247 1 min 0,000 mm 0,0 UV-I 160 W/m -2,7 C -7,6 C 27,4 km/h (4 Bft) 100,00 %
29.12.2017 10:26 0,7 C 3,9 C 77 % 1013,0 hPa 0,0 l/m 19,3 km/h (3 Bft) W-SW 247 1 min 0,000 mm 0,0 UV-I 162 W/m -2,9 C -8,4 C 25,7 km/h (4 Bft) 95,65 %
29.12.2017 10:27 0,7 C 3,9 C 78 % 1013,0 hPa 0,0 l/m 16,1 km/h (3 Bft) W-SW 247 1 min 0,000 mm 0,0 UV-I 156 W/m -2,7 C -6,8 C 27,4 km/h (4 Bft) 100,00 %
29.12.2017 10:28 0,7 C 3,9 C 77 % 1013,0 hPa 0,0 l/m 22,5 km/h (4 Bft) W-SW 247 1 min 0,000 mm 0,0 UV-I 155 W/m -2,9 C -9,8 C 27,4 km/h (4 Bft) 91,30 %
29.12.2017 10:29 0,7 C 3,9 C 76 % 1013,0 hPa 0,0 l/m 16,1 km/h (3 Bft) W-SW 247 1 min 0,000 mm 0,0 UV-I 155 W/m -3,0 C -6,8 C 25,7 km/h (4 Bft) 95,65 %
29.12.2017 10:30 0,7 C 3,9 C 76 % 1013,1 hPa 0,0 l/m 17,7 km/h (3 Bft) SW 225 1 min 0,000 mm 0,0 UV-I 160 W/m -3,0 C -7,6 C 25,7 km/h (4 Bft) 95,65 %
29.12.2017 10:31 0,7 C 3,9 C 76 % 1013,1 hPa 0,0 l/m 20,9 km/h (4 Bft) W-SW 247 1 min 0,000 mm 0,0 UV-I 160 W/m -3,0 C -9,1 C 30,6 km/h (5 Bft) 91,30 %
29.12.2017 10:32 0,7 C 3,9 C 76 % 1013,1 hPa 0,0 l/m 20,9 km/h (4 Bft) W-SW 247 1 min 0,000 mm 0,0 UV-I 160 W/m -3,0 C -9,1 C 33,8 km/h (5 Bft) 100,00 %
29.12.2017 10:33 0,7 C 3,9 C 75 % 1013,1 hPa 0,0 l/m 17,7 km/h (3 Bft) SW 225 1 min 0,000 mm 0,0 UV-I 158 W/m -3,2 C -7,6 C 29,0 km/h (5 Bft) 95,65 %
29.12.2017 10:34 0,7 C 3,3 C 76 % 1013,1 hPa 0,0 l/m 17,7 km/h (3 Bft) SW 225 1 min 0,000 mm 0,0 UV-I 156 W/m -3,0 C -7,6 C 22,5 km/h (4 Bft) 100,00 %
29.12.2017 10:35 0,7 C 3,3 C 76 % 1013,1 hPa 0,0 l/m 17,7 km/h (3 Bft) SW 225 1 min 0,000 mm 0,0 UV-I 155 W/m -3,0 C -7,6 C 25,7 km/h (4 Bft) 95,65 %
29.12.2017 10:36 0,7 C 3,3 C 76 % 1013,2 hPa 0,0 l/m 12,9 km/h (3 Bft) W-SW 247 0 min 0,000 mm 0,0 UV-I 151 W/m -3,0 C -4,8 C 19,3 km/h (3 Bft) 95,65 %
29.12.2017 10:37 0,7 C 3,3 C 76 % 1013,1 hPa 0,0 l/m 19,3 km/h (3 Bft) SW 225 0 min 0,000 mm 0,0 UV-I 148 W/m -3,0 C -8,4 C 24,1 km/h (4 Bft) 95,65 %
29.12.2017 10:38 0,7 C 3,9 C 76 % 1013,2 hPa 0,0 l/m 16,1 km/h (3 Bft) SW 225 0 min 0,000 mm 0,0 UV-I 146 W/m -3,0 C -6,8 C 20,9 km/h (4 Bft) 100,00 %
29.12.2017 10:39 0,7 C 3,9 C 76 % 1013,2 hPa 0,0 l/m 19,3 km/h (3 Bft) W-SW 247 0 min 0,000 mm 0,0 UV-I 144 W/m -3,0 C -8,4 C 25,7 km/h (4 Bft) 95,65 %
29.12.2017 10:40 0,7 C 3,3 C 75 % 1013,2 hPa 0,0 l/m 17,7 km/h (3 Bft) SW 225 0 min 0,000 mm 0,0 UV-I 144 W/m -3,2 C -7,6 C 24,1 km/h (4 Bft) 100,00 %
29.12.2017 10:41 0,7 C 3,3 C 76 % 1013,2 hPa 0,0 l/m 16,1 km/h (3 Bft) W-SW 247 0 min 0,000 mm 0,0 UV-I 144 W/m -3,0 C -6,8 C 22,5 km/h (4 Bft) 100,00 %
29.12.2017 10:42 0,7 C 3,9 C 76 % 1013,1 hPa 0,0 l/m 19,3 km/h (3 Bft) W-SW 247 0 min 0,000 mm 0,0 UV-I 142 W/m -3,0 C -8,4 C 25,7 km/h (4 Bft) 95,65 %
29.12.2017 10:43 0,7 C 3,9 C 76 % 1013,2 hPa 0,0 l/m 17,7 km/h (3 Bft) W-SW 247 0 min 0,000 mm 0,0 UV-I 142 W/m -3,0 C -7,6 C 25,7 km/h (4 Bft) 95,65 %
29.12.2017 10:44 0,7 C 3,9 C 76 % 1013,2 hPa 0,0 l/m 16,1 km/h (3 Bft) W-SW 247 0 min 0,000 mm 0,0 UV-I 141 W/m -3,0 C -6,8 C 20,9 km/h (4 Bft) 100,00 %
29.12.2017 10:45 0,7 C 3,3 C 77 % 1013,2 hPa 0,0 l/m 14,5 km/h (3 Bft) SW 225 0 min 0,000 mm 0,0 UV-I 141 W/m -2,9 C -5,8 C 19,3 km/h (3 Bft) 95,65 %
29.12.2017 10:46 0,7 C 3,3 C 77 % 1013,2 hPa 0,0 l/m 14,5 km/h (3 Bft) W-SW 247 0 min 0,000 mm 0,0 UV-I 144 W/m -2,9 C -5,8 C 19,3 km/h (3 Bft) 100,00 %
29.12.2017 10:47 0,7 C 3,3 C 76 % 1013,2 hPa 0,0 l/m 16,1 km/h (3 Bft) W-SW 247 0 min 0,000 mm 0,0 UV-I 148 W/m -3,0 C -6,8 C 25,7 km/h (4 Bft) 95,65 %
29.12.2017 10:48 0,7 C 3,3 C 76 % 1013,2 hPa 0,0 l/m 19,3 km/h (3 Bft) W-SW 247 0 min 0,000 mm 0,0 UV-I 148 W/m -3,0 C -8,4 C 25,7 km/h (4 Bft) 95,65 %
29.12.2017 10:49 0,7 C 3,3 C 76 % 1013,2 hPa 0,0 l/m 14,5 km/h (3 Bft) SW 225 0 min 0,000 mm 0,0 UV-I 148 W/m -3,0 C -5,8 C 19,3 km/h (3 Bft) 95,65 %
29.12.2017 10:50 0,7 C 3,3 C 76 % 1013,2 hPa 0,0 l/m 19,3 km/h (3 Bft) SW 225 0 min 0,000 mm 0,0 UV-I 151 W/m -3,0 C -8,4 C 24,1 km/h (4 Bft) 95,65 %
29.12.2017 10:51 0,7 C 3,3 C 76 % 1013,2 hPa 0,0 l/m 16,1 km/h (3 Bft) SW 225 0 min 0,000 mm 0,0 UV-I 153 W/m -3,0 C -6,8 C 24,1 km/h (4 Bft) 95,65 %
29.12.2017 10:52 0,7 C 3,3 C 76 % 1013,2 hPa 0,0 l/m 17,7 km/h (3 Bft) SW 225 0 min 0,000 mm 0,0 UV-I 155 W/m -3,0 C -7,6 C 24,1 km/h (4 Bft) 100,00 %
29.12.2017 10:53 0,7 C 3,3 C 76 % 1013,2 hPa 0,0 l/m 14,5 km/h (3 Bft) SW 225 0 min 0,000 mm 0,0 UV-I 153 W/m -3,0 C -5,8 C 20,9 km/h (4 Bft) 100,00 %
29.12.2017 10:54 0,7 C 3,9 C 76 % 1013,1 hPa 0,0 l/m 12,9 km/h (3 Bft) W-SW 247 0 min 0,000 mm 0,0 UV-I 153 W/m -3,0 C -4,8 C 16,1 km/h (3 Bft) 100,00 %
29.12.2017 10:55 0,7 C 3,3 C 77 % 1013,2 hPa 0,0 l/m 14,5 km/h (3 Bft) W-SW 247 0 min 0,000 mm 0,0 UV-I 155 W/m -2,9 C -5,8 C 20,9 km/h (4 Bft) 100,00 %
29.12.2017 10:56 0,7 C 3,3 C 77 % 1013,1 hPa 0,0 l/m 14,5 km/h (3 Bft) SW 225 0 min 0,000 mm 0,0 UV-I 156 W/m -2,9 C -5,8 C 25,7 km/h (4 Bft) 100,00 %
29.12.2017 10:57 0,7 C 3,3 C 76 % 1013,1 hPa 0,0 l/m 14,5 km/h (3 Bft) W-SW 247 0 min 0,000 mm 0,0 UV-I 158 W/m -3,0 C -5,8 C 20,9 km/h (4 Bft) 95,65 %
29.12.2017 10:58 0,7 C 3,3 C 76 % 1013,1 hPa 0,0 l/m 12,9 km/h (3 Bft) W-SW 247 0 min 0,000 mm 0,0 UV-I 160 W/m -3,0 C -4,8 C 16,1 km/h (3 Bft) 95,65 %
29.12.2017 10:59 0,7 C 3,3 C 76 % 1013,1 hPa 0,0 l/m 14,5 km/h (3 Bft) SW 225 0 min 0,000 mm 0,0 UV-I 157 W/m -3,0 C -5,8 C 19,3 km/h (3 Bft) 100,00 %
29.12.2017 11:00 0,8 C 3,3 C 76 % 1013,2 hPa 0,0 l/m 16,1 km/h (3 Bft) SW 225 0 min 0,076 mm 0,0 UV-I 155 W/m -2,9 C -6,6 C 24,1 km/h (4 Bft) 100,00 %
29.12.2017 11:01 0,7 C 3,3 C 76 % 1013,1 hPa 0,0 l/m 16,1 km/h (3 Bft) W-SW 247 0 min 0,000 mm 0,0 UV-I 153 W/m -3,0 C -6,8 C 19,3 km/h (3 Bft) 100,00 %
29.12.2017 11:02 0,7 C 3,3 C 76 % 1013,1 hPa 0,0 l/m 14,5 km/h (3 Bft) SW 225 0 min 0,000 mm 0,0 UV-I 153 W/m -3,0 C -5,8 C 19,3 km/h (3 Bft) 100,00 %
29.12.2017 11:03 0,7 C 3,3 C 76 % 1013,1 hPa 0,0 l/m 14,5 km/h (3 Bft) SW 225 0 min 0,000 mm 0,0 UV-I 155 W/m -3,0 C -5,8 C 25,7 km/h (4 Bft) 100,00 %
29.12.2017 11:04 0,7 C 3,3 C 75 % 1013,2 hPa 0,0 l/m 20,9 km/h (4 Bft) SW 225 0 min 0,000 mm 0,0 UV-I 156 W/m -3,2 C -9,1 C 30,6 km/h (5 Bft) 95,65 %
29.12.2017 11:05 0,7 C 3,9 C 75 % 1013,1 hPa 0,0 l/m 12,9 km/h (3 Bft) W-SW 247 0 min 0,000 mm 0,0 UV-I 157 W/m -3,2 C -4,8 C 20,9 km/h (4 Bft) 100,00 %
29.12.2017 11:06 0,8 C 3,3 C 75 % 1013,1 hPa 0,0 l/m 19,3 km/h (3 Bft) SW 225 0 min 0,000 mm 0,0 UV-I 158 W/m -3,1 C -8,3 C 25,7 km/h (4 Bft) 100,00 %
29.12.2017 11:07 0,8 C 3,3 C 75 % 1013,1 hPa 0,0 l/m 16,1 km/h (3 Bft) W-SW 247 0 min 0,000 mm 0,0 UV-I 158 W/m -3,1 C -6,6 C 20,9 km/h (4 Bft) 95,65 %
29.12.2017 11:08 0,8 C 3,3 C 74 % 1013,1 hPa 0,0 l/m 19,3 km/h (3 Bft) SW 225 0 min 0,000 mm 0,0 UV-I 163 W/m -3,3 C -8,3 C 27,4 km/h (4 Bft) 100,00 %
29.12.2017 11:09 0,8 C 3,3 C 74 % 1013,0 hPa 0,0 l/m 14,5 km/h (3 Bft) SW 225 0 min 0,000 mm 0,0 UV-I 158 W/m -3,3 C -5,7 C 25,7 km/h (4 Bft) 100,00 %
29.12.2017 11:10 0,8 C 3,3 C 74 % 1013,1 hPa 0,0 l/m 17,7 km/h (3 Bft) SW 225 0 min 0,000 mm 0,0 UV-I 160 W/m -3,3 C -7,5 C 32,2 km/h (5 Bft) 100,00 %
29.12.2017 11:11 0,8 C 3,3 C 74 % 1013,2 hPa 0,0 l/m 17,7 km/h (3 Bft) SW 225 0 min 0,000 mm 0,0 UV-I 164 W/m -3,3 C -7,5 C 25,7 km/h (4 Bft) 95,65 %
29.12.2017 11:12 0,8 C 3,3 C 74 % 1013,2 hPa 0,0 l/m 17,7 km/h (3 Bft) SW 225 0 min 0,000 mm 0,0 UV-I 163 W/m -3,3 C -7,5 C 24,1 km/h (4 Bft) 100,00 %
29.12.2017 11:13 0,8 C 3,3 C 74 % 1013,1 hPa 0,0 l/m 16,1 km/h (3 Bft) SW 225 0 min 0,000 mm 0,0 UV-I 158 W/m -3,3 C -6,6 C 20,9 km/h (4 Bft) 100,00 %
29.12.2017 11:14 0,8 C 3,3 C 75 % 1013,1 hPa 0,0 l/m 11,3 km/h (2 Bft) SW 225 0 min 0,000 mm 0,0 UV-I 155 W/m -3,1 C -3,6 C 20,9 km/h (4 Bft) 100,00 %
29.12.2017 11:15 0,8 C 3,3 C 74 % 1013,1 hPa 0,0 l/m 12,9 km/h (3 Bft) W-SW 247 0 min 0,000 mm 0,0 UV-I 151 W/m -3,3 C -4,7 C 22,5 km/h (4 Bft) 100,00 %
29.12.2017 11:16 0,8 C 3,3 C 74 % 1013,1 hPa 0,0 l/m 19,3 km/h (3 Bft) SW 225 0 min 0,000 mm 0,0 UV-I 149 W/m -3,3 C -8,3 C 27,4 km/h (4 Bft) 100,00 %
29.12.2017 11:17 0,8 C 3,3 C 74 % 1013,1 hPa 0,0 l/m 17,7 km/h (3 Bft) SW 225 0 min 0,000 mm 0,0 UV-I 156 W/m -3,3 C -7,5 C 25,7 km/h (4 Bft) 100,00 %
29.12.2017 11:18 0,8 C 3,3 C 75 % 1013,1 hPa 0,0 l/m 14,5 km/h (3 Bft) SW 225 0 min 0,000 mm 0,0 UV-I 162 W/m -3,1 C -5,7 C 19,3 km/h (3 Bft) 95,65 %
29.12.2017 11:19 0,8 C 3,3 C 75 % 1013,2 hPa 0,0 l/m 14,5 km/h (3 Bft) W-SW 247 0 min 0,000 mm 0,0 UV-I 167 W/m -3,1 C -5,7 C 19,3 km/h (3 Bft) 95,65 %
29.12.2017 11:20 0,8 C 3,3 C 75 % 1013,1 hPa 0,0 l/m 14,5 km/h (3 Bft) SW 225 0 min 0,000 mm 0,0 UV-I 172 W/m -3,1 C -5,7 C 20,9 km/h (4 Bft) 100,00 %
29.12.2017 11:21 0,8 C 3,3 C 75 % 1013,2 hPa 0,0 l/m 16,1 km/h (3 Bft) SW 225 0 min 0,000 mm 0,0 UV-I 174 W/m -3,1 C -6,6 C 20,9 km/h (4 Bft) 100,00 %
29.12.2017 11:22 0,8 C 3,3 C 75 % 1013,2 hPa 0,0 l/m 11,3 km/h (2 Bft) SW 225 1 min 0,000 mm 0,0 UV-I 175 W/m -3,1 C -3,6 C 20,9 km/h (4 Bft) 100,00 %
29.12.2017 11:23 0,8 C 3,3 C 76 % 1013,2 hPa 0,0 l/m 9,7 km/h (2 Bft) W-SW 247 1 min 0,000 mm 0,0 UV-I 176 W/m -2,9 C -2,3 C 14,5 km/h (3 Bft) 100,00 %
29.12.2017 11:24 0,8 C 3,3 C 76 % 1013,2 hPa 0,0 l/m 16,1 km/h (3 Bft) SW 225 1 min 0,000 mm 0,0 UV-I 178 W/m -2,9 C -6,6 C 20,9 km/h (4 Bft) 100,00 %
29.12.2017 11:25 0,8 C 3,3 C 75 % 1013,2 hPa 0,0 l/m 16,1 km/h (3 Bft) SW 225 1 min 0,000 mm 0,0 UV-I 176 W/m -3,1 C -6,6 C 20,9 km/h (4 Bft) 95,65 %
29.12.2017 11:26 0,8 C 3,3 C 75 % 1013,2 hPa 0,0 l/m 12,9 km/h (3 Bft) W-SW 247 1 min 0,000 mm 0,0 UV-I 176 W/m -3,1 C -4,7 C 16,1 km/h (3 Bft) 100,00 %
29.12.2017 11:27 0,8 C 3,3 C 75 % 1013,2 hPa 0,0 l/m 11,3 km/h (2 Bft) SW 225 0 min 0,000 mm 0,0 UV-I 176 W/m -3,1 C -3,6 C 22,5 km/h (4 Bft) 100,00 %
29.12.2017 11:28 0,9 C 3,3 C 75 % 1013,2 hPa 0,0 l/m 16,1 km/h (3 Bft) W-SW 247 1 min 0,000 mm 0,0 UV-I 177 W/m -3,0 C -6,5 C 22,5 km/h (4 Bft) 95,65 %
29.12.2017 11:29 0,9 C 3,3 C 75 % 1013,3 hPa 0,0 l/m 11,3 km/h (2 Bft) SW 225 1 min 0,000 mm 0,0 UV-I 178 W/m -3,0 C -3,5 C 16,1 km/h (3 Bft) 100,00 %
29.12.2017 11:30 0,9 C 3,3 C 75 % 1013,2 hPa 0,0 l/m 16,1 km/h (3 Bft) SW 225 1 min 0,000 mm 0,0 UV-I 181 W/m -3,0 C -6,5 C 20,9 km/h (4 Bft) 100,00 %
29.12.2017 11:31 0,9 C 3,3 C 74 % 1013,2 hPa 0,0 l/m 12,9 km/h (3 Bft) SW 225 1 min 0,000 mm 0,0 UV-I 186 W/m -3,2 C -4,6 C 17,7 km/h (3 Bft) 100,00 %
29.12.2017 11:32 0,9 C 3,3 C 74 % 1013,2 hPa 0,0 l/m 11,3 km/h (2 Bft) W-SW 247 1 min 0,000 mm 0,5 UV-I 186 W/m -3,2 C -3,5 C 12,9 km/h (3 Bft) 95,65 %
29.12.2017 11:33 1,0 C 3,3 C 74 % 1013,3 hPa 0,0 l/m 12,9 km/h (3 Bft) W-SW 247 1 min 0,000 mm 0,5 UV-I 311 W/m -3,1 C -4,5 C 20,9 km/h (4 Bft) 100,00 %
29.12.2017 11:34 1,1 C 3,3 C 74 % 1013,2 hPa 0,0 l/m 9,7 km/h (2 Bft) W-SW 247 1 min 0,000 mm 0,0 UV-I 202 W/m -3,0 C -2,0 C 16,1 km/h (3 Bft) 95,65 %
29.12.2017 11:35 1,1 C 3,3 C 74 % 1013,1 hPa 0,0 l/m 14,5 km/h (3 Bft) SW 225 1 min 0,000 mm 0,0 UV-I 179 W/m -3,0 C -5,4 C 19,3 km/h (3 Bft) 100,00 %
29.12.2017 11:36 1,1 C 3,3 C 74 % 1013,2 hPa 0,0 l/m 14,5 km/h (3 Bft) W-SW 247 0 min 0,000 mm 0,0 UV-I 151 W/m -3,0 C -5,4 C 24,1 km/h (4 Bft) 95,65 %
29.12.2017 11:37 1,1 C 3,3 C 73 % 1013,1 hPa 0,0 l/m 11,3 km/h (2 Bft) SW 225 0 min 0,000 mm 0,0 UV-I 146 W/m -3,2 C -3,2 C 14,5 km/h (3 Bft) 100,00 %
29.12.2017 11:38 1,0 C 3,3 C 73 % 1013,1 hPa 0,0 l/m 14,5 km/h (3 Bft) W-SW 247 0 min 0,000 mm 0,0 UV-I 130 W/m -3,3 C -5,5 C 20,9 km/h (4 Bft) 95,65 %
29.12.2017 11:39 1,0 C 3,3 C 73 % 1013,0 hPa 0,0 l/m 14,5 km/h (3 Bft) W-SW 247 0 min 0,000 mm 0,0 UV-I 127 W/m -3,3 C -5,5 C 19,3 km/h (3 Bft) 91,30 %
29.12.2017 11:40 1,0 C 3,3 C 73 % 1013,1 hPa 0,0 l/m 16,1 km/h (3 Bft) W-SW 247 0 min 0,000 mm 0,5 UV-I 150 W/m -3,3 C -6,4 C 19,3 km/h (3 Bft) 95,65 %
29.12.2017 11:41 1,0 C 3,3 C 74 % 1013,0 hPa 0,0 l/m 12,9 km/h (3 Bft) W-SW 247 0 min 0,000 mm 0,5 UV-I 151 W/m -3,1 C -4,5 C 17,7 km/h (3 Bft) 91,30 %
29.12.2017 11:42 0,9 C 3,3 C 73 % 1013,0 hPa 0,0 l/m 12,9 km/h (3 Bft) SW 225 1 min 0,000 mm 0,5 UV-I 181 W/m -3,4 C -4,6 C 19,3 km/h (3 Bft) 100,00 %
29.12.2017 11:43 0,9 C 3,3 C 73 % 1013,0 hPa 0,2 l/m 16,1 km/h (3 Bft) W-SW 247 0 min 0,000 mm 0,5 UV-I 139 W/m -3,4 C -6,5 C 25,7 km/h (4 Bft) 91,30 %
29.12.2017 11:44 0,9 C 3,3 C 73 % 1013,0 hPa 0,0 l/m 12,9 km/h (3 Bft) SW 225 0 min 0,000 mm 0,5 UV-I 139 W/m -3,4 C -4,6 C 17,7 km/h (3 Bft) 100,00 %
29.12.2017 11:45 0,9 C 3,3 C 73 % 1013,0 hPa 0,0 l/m 16,1 km/h (3 Bft) SW 225 0 min 0,000 mm 0,5 UV-I 139 W/m -3,4 C -6,5 C 24,1 km/h (4 Bft) 91,30 %
29.12.2017 11:46 1,0 C 3,3 C 73 % 1013,0 hPa 0,0 l/m 17,7 km/h (3 Bft) SW 225 1 min 0,000 mm 0,5 UV-I 353 W/m -3,3 C -7,2 C 25,7 km/h (4 Bft) 91,30 %
29.12.2017 11:47 1,1 C 3,9 C 73 % 1013,0 hPa 0,0 l/m 11,3 km/h (2 Bft) SW 225 1 min 0,000 mm 0,5 UV-I 348 W/m -3,2 C -3,2 C 19,3 km/h (3 Bft) 91,30 %
29.12.2017 11:48 1,1 C 3,9 C 73 % 1013,0 hPa 0,0 l/m 17,7 km/h (3 Bft) W-SW 247 1 min 0,000 mm 0,5 UV-I 348 W/m -3,2 C -7,1 C 25,7 km/h (4 Bft) 100,00 %
29.12.2017 11:49 1,2 C 3,3 C 72 % 1013,0 hPa 0,0 l/m 16,1 km/h (3 Bft) W-SW 247 1 min 0,000 mm 0,5 UV-I 346 W/m -3,3 C -6,1 C 20,9 km/h (4 Bft) 91,30 %
29.12.2017 11:50 1,2 C 3,3 C 72 % 1013,0 hPa 0,0 l/m 17,7 km/h (3 Bft) W-SW 247 1 min 0,000 mm 0,5 UV-I 343 W/m -3,3 C -7,0 C 24,1 km/h (4 Bft) 91,30 %
29.12.2017 11:51 1,3 C 3,3 C 72 % 1013,0 hPa 0,0 l/m 14,5 km/h (3 Bft) W-SW 247 1 min 0,000 mm 0,5 UV-I 343 W/m -3,2 C -5,1 C 22,5 km/h (4 Bft) 100,00 %
29.12.2017 11:52 1,3 C 3,3 C 72 % 1013,0 hPa 0,0 l/m 16,1 km/h (3 Bft) SW 225 1 min 0,000 mm 0,5 UV-I 342 W/m -3,2 C -6,0 C 25,7 km/h (4 Bft) 91,30 %
29.12.2017 11:53 1,3 C 3,3 C 71 % 1013,0 hPa 0,0 l/m 17,7 km/h (3 Bft) W-SW 247 1 min 0,000 mm 0,5 UV-I 339 W/m -3,4 C -6,9 C 27,4 km/h (4 Bft) 91,30 %
29.12.2017 11:54 1,4 C 3,3 C 71 % 1013,0 hPa 0,0 l/m 16,1 km/h (3 Bft) W-SW 247 1 min 0,000 mm 0,5 UV-I 339 W/m -3,3 C -5,9 C 24,1 km/h (4 Bft) 91,30 %
29.12.2017 11:55 1,4 C 3,3 C 71 % 1012,9 hPa 0,0 l/m 19,3 km/h (3 Bft) W-SW 247 1 min 0,000 mm 0,5 UV-I 338 W/m -3,3 C -7,5 C 25,7 km/h (4 Bft) 100,00 %
29.12.2017 11:56 1,4 C 3,3 C 70 % 1012,9 hPa 0,0 l/m 14,5 km/h (3 Bft) W-SW 247 1 min 0,000 mm 0,5 UV-I 338 W/m -3,5 C -5,0 C 17,7 km/h (3 Bft) 91,30 %
29.12.2017 11:57 1,5 C 3,3 C 70 % 1013,0 hPa 0,0 l/m 14,5 km/h (3 Bft) SW 225 1 min 0,000 mm 0,5 UV-I 338 W/m -3,4 C -4,9 C 20,9 km/h (4 Bft) 100,00 %
29.12.2017 11:58 1,5 C 3,3 C 70 % 1012,9 hPa 0,0 l/m 19,3 km/h (3 Bft) SW 225 1 min 0,000 mm 0,5 UV-I 336 W/m -3,4 C -7,4 C 27,4 km/h (4 Bft) 91,30 %
29.12.2017 11:59 1,5 C 3,3 C 69 % 1012,8 hPa 0,0 l/m 22,5 km/h (4 Bft) W-SW 247 1 min 0,000 mm 0,6 UV-I 338 W/m -3,6 C -8,7 C 30,6 km/h (5 Bft) 95,65 %
29.12.2017 12:00 1,5 C 3,3 C 69 % 1012,9 hPa 0,0 l/m 16,1 km/h (3 Bft) W-SW 247 1 min 0,102 mm 0,6 UV-I 336 W/m -3,6 C -5,8 C 19,3 km/h (3 Bft) 91,30 %
29.12.2017 12:01 1,5 C 3,3 C 69 % 1012,9 hPa 0,0 l/m 19,3 km/h (3 Bft) SW 225 1 min 0,000 mm 0,6 UV-I 336 W/m -3,6 C -7,4 C 25,7 km/h (4 Bft) 95,65 %
29.12.2017 12:02 1,5 C 3,3 C 69 % 1012,8 hPa 0,0 l/m 20,9 km/h (4 Bft) SW 225 1 min 0,000 mm 0,6 UV-I 336 W/m -3,6 C -8,1 C 27,4 km/h (4 Bft) 100,00 %
29.12.2017 12:03 1,5 C 3,3 C 68 % 1012,8 hPa 0,0 l/m 19,3 km/h (3 Bft) W-SW 247 1 min 0,000 mm 0,5 UV-I 337 W/m -3,7 C -7,4 C 25,7 km/h (4 Bft) 95,65 %
29.12.2017 12:04 1,6 C 3,9 C 69 % 1012,8 hPa 0,0 l/m 20,9 km/h (4 Bft) W-SW 247 1 min 0,000 mm 0,6 UV-I 336 W/m -3,5 C -8,0 C 29,0 km/h (5 Bft) 100,00 %
29.12.2017 12:05 1,6 C 3,3 C 69 % 1012,8 hPa 0,0 l/m 17,7 km/h (3 Bft) W-SW 247 1 min 0,000 mm 0,6 UV-I 336 W/m -3,5 C -6,5 C 25,7 km/h (4 Bft) 100,00 %
29.12.2017 12:06 1,6 C 3,3 C 69 % 1012,8 hPa 0,0 l/m 12,9 km/h (3 Bft) W-SW 247 1 min 0,000 mm 0,6 UV-I 336 W/m -3,5 C -3,8 C 24,1 km/h (4 Bft) 100,00 %
29.12.2017 12:07 1,7 C 3,3 C 69 % 1012,8 hPa 0,0 l/m 17,7 km/h (3 Bft) W-SW 247 1 min 0,000 mm 0,6 UV-I 336 W/m -3,4 C -6,4 C 22,5 km/h (4 Bft) 95,65 %
29.12.2017 12:08 1,7 C 3,3 C 68 % 1012,8 hPa 0,0 l/m 19,3 km/h (3 Bft) W-SW 247 1 min 0,000 mm 0,5 UV-I 334 W/m -3,6 C -7,1 C 24,1 km/h (4 Bft) 100,00 %
29.12.2017 12:09 1,7 C 3,3 C 68 % 1012,8 hPa 0,0 l/m 12,9 km/h (3 Bft) W-SW 247 1 min 0,000 mm 0,6 UV-I 336 W/m -3,6 C -3,6 C 22,5 km/h (4 Bft) 95,65 %
29.12.2017 12:10 1,7 C 3,3 C 68 % 1012,9 hPa 0,0 l/m 19,3 km/h (3 Bft) W-SW 247 1 min 0,000 mm 0,5 UV-I 334 W/m -3,6 C -7,1 C 27,4 km/h (4 Bft) 100,00 %
29.12.2017 12:11 1,7 C 3,3 C 67 % 1012,8 hPa 0,0 l/m 20,9 km/h (4 Bft) W-SW 247 1 min 0,000 mm 0,5 UV-I 336 W/m -3,8 C -7,8 C 30,6 km/h (5 Bft) 100,00 %
29.12.2017 12:12 1,7 C 3,3 C 67 % 1012,8 hPa 0,0 l/m 22,5 km/h (4 Bft) W-SW 247 1 min 0,000 mm 0,6 UV-I 336 W/m -3,8 C -8,5 C 27,4 km/h (4 Bft) 100,00 %
29.12.2017 12:13 1,7 C 3,3 C 67 % 1012,8 hPa 0,0 l/m 20,9 km/h (4 Bft) W-SW 247 1 min 0,000 mm 0,5 UV-I 336 W/m -3,8 C -7,8 C 25,7 km/h (4 Bft) 100,00 %
29.12.2017 12:14 1,7 C 3,3 C 67 % 1012,9 hPa 0,0 l/m 12,9 km/h (3 Bft) W-SW 247 1 min 0,000 mm 0,5 UV-I 334 W/m -3,8 C -3,6 C 19,3 km/h (3 Bft) 95,65 %
29.12.2017 12:15 1,7 C 3,3 C 68 % 1012,9 hPa 0,0 l/m 16,1 km/h (3 Bft) W-SW 247 1 min 0,000 mm 0,5 UV-I 334 W/m -3,6 C -5,5 C 24,1 km/h (4 Bft) 100,00 %
29.12.2017 12:16 1,7 C 3,3 C 68 % 1012,9 hPa 0,0 l/m 9,7 km/h (2 Bft) W-SW 247 1 min 0,000 mm 0,5 UV-I 334 W/m -3,6 C -1,3 C 14,5 km/h (3 Bft) 100,00 %
29.12.2017 12:17 1,8 C 3,3 C 67 % 1012,9 hPa 0,0 l/m 14,5 km/h (3 Bft) W-SW 247 1 min 0,000 mm 0,5 UV-I 334 W/m -3,7 C -4,5 C 27,4 km/h (4 Bft) 100,00 %
29.12.2017 12:18 1,8 C 3,3 C 67 % 1012,9 hPa 0,0 l/m 17,7 km/h (3 Bft) W-SW 247 1 min 0,000 mm 0,5 UV-I 334 W/m -3,7 C -6,2 C 29,0 km/h (5 Bft) 100,00 %
29.12.2017 12:19 1,8 C 3,3 C 67 % 1012,9 hPa 0,0 l/m 12,9 km/h (3 Bft) W 270 1 min 0,000 mm 0,5 UV-I 332 W/m -3,7 C -3,5 C 16,1 km/h (3 Bft) 95,65 %
29.12.2017 12:20 1,8 C 3,3 C 67 % 1012,8 hPa 0,0 l/m 14,5 km/h (3 Bft) W 270 1 min 0,000 mm 0,5 UV-I 332 W/m -3,7 C -4,5 C 19,3 km/h (3 Bft) 95,65 %
29.12.2017 12:21 1,8 C 3,3 C 67 % 1012,8 hPa 0,0 l/m 17,7 km/h (3 Bft) W 270 1 min 0,000 mm 0,5 UV-I 331 W/m -3,7 C -6,2 C 25,7 km/h (4 Bft) 95,65 %
29.12.2017 12:22 1,8 C 3,3 C 67 % 1012,8 hPa 0,0 l/m 20,9 km/h (4 Bft) W-SW 247 1 min 0,000 mm 0,5 UV-I 332 W/m -3,7 C -7,7 C 27,4 km/h (4 Bft) 100,00 %
29.12.2017 12:23 1,8 C 3,3 C 65 % 1012,7 hPa 0,0 l/m 12,9 km/h (3 Bft) SW 225 1 min 0,000 mm 0,5 UV-I 332 W/m -4,1 C -3,5 C 17,7 km/h (3 Bft) 95,65 %
29.12.2017 12:24 1,8 C 3,3 C 66 % 1012,7 hPa 0,0 l/m 14,5 km/h (3 Bft) W-SW 247 1 min 0,000 mm 0,5 UV-I 330 W/m -3,9 C -4,5 C 20,9 km/h (4 Bft) 100,00 %
29.12.2017 12:25 1,8 C 3,3 C 66 % 1012,7 hPa 0,0 l/m 12,9 km/h (3 Bft) W-SW 247 1 min 0,000 mm 0,5 UV-I 329 W/m -3,9 C -3,5 C 16,1 km/h (3 Bft) 100,00 %
29.12.2017 12:26 1,8 C 3,3 C 66 % 1012,7 hPa 0,0 l/m 16,1 km/h (3 Bft) W-SW 247 1 min 0,000 mm 0,5 UV-I 330 W/m -3,9 C -5,4 C 22,5 km/h (4 Bft) 95,65 %
29.12.2017 12:27 1,9 C 3,3 C 66 % 1012,8 hPa 0,0 l/m 12,9 km/h (3 Bft) W-SW 247 1 min 0,000 mm 0,5 UV-I 330 W/m -3,8 C -3,4 C 17,7 km/h (3 Bft) 100,00 %
29.12.2017 12:28 1,9 C 3,3 C 66 % 1012,8 hPa 0,0 l/m 20,9 km/h (4 Bft) W 270 1 min 0,000 mm 0,5 UV-I 330 W/m -3,8 C -7,6 C 27,4 km/h (4 Bft) 95,65 %
29.12.2017 12:29 1,9 C 3,3 C 66 % 1012,7 hPa 0,0 l/m 20,9 km/h (4 Bft) W-SW 247 1 min 0,000 mm 0,5 UV-I 330 W/m -3,8 C -7,6 C 29,0 km/h (5 Bft) 100,00 %
29.12.2017 12:30 1,9 C 3,3 C 64 % 1012,7 hPa 0,0 l/m 19,3 km/h (3 Bft) W-SW 247 1 min 0,000 mm 0,5 UV-I 329 W/m -4,2 C -6,9 C 25,7 km/h (4 Bft) 100,00 %
29.12.2017 12:31 1,9 C 3,3 C 65 % 1012,7 hPa 0,0 l/m 22,5 km/h (4 Bft) W-SW 247 1 min 0,000 mm 0,5 UV-I 329 W/m -4,0 C -8,2 C 27,4 km/h (4 Bft) 100,00 %
29.12.2017 12:32 1,9 C 3,3 C 64 % 1012,7 hPa 0,0 l/m 27,4 km/h (4 Bft) W-SW 247 1 min 0,000 mm 0,5 UV-I 329 W/m -4,2 C -9,9 C 33,8 km/h (5 Bft) 100,00 %
29.12.2017 12:33 1,9 C 3,3 C 63 % 1012,7 hPa 0,0 l/m 22,5 km/h (4 Bft) W-SW 247 1 min 0,000 mm 0,5 UV-I 329 W/m -4,4 C -8,2 C 29,0 km/h (5 Bft) 100,00 %
29.12.2017 12:34 1,8 C 3,3 C 64 % 1012,7 hPa 0,0 l/m 17,7 km/h (3 Bft) W-SW 247 1 min 0,000 mm 0,5 UV-I 327 W/m -4,3 C -6,2 C 27,4 km/h (4 Bft) 100,00 %
29.12.2017 12:35 1,9 C 3,3 C 64 % 1012,7 hPa 0,0 l/m 19,3 km/h (3 Bft) W-SW 247 1 min 0,000 mm 0,5 UV-I 327 W/m -4,2 C -6,9 C 24,1 km/h (4 Bft) 95,65 %
29.12.2017 12:36 1,9 C 3,3 C 64 % 1012,7 hPa 0,0 l/m 16,1 km/h (3 Bft) W-SW 247 1 min 0,000 mm 0,5 UV-I 325 W/m -4,2 C -5,3 C 22,5 km/h (4 Bft) 100,00 %
29.12.2017 12:37 1,9 C 3,3 C 64 % 1012,6 hPa 0,0 l/m 22,5 km/h (4 Bft) W 270 1 min 0,000 mm 0,5 UV-I 325 W/m -4,2 C -8,2 C 27,4 km/h (4 Bft) 95,65 %
29.12.2017 12:38 1,9 C 3,3 C 64 % 1012,6 hPa 0,0 l/m 14,5 km/h (3 Bft) W-SW 247 1 min 0,000 mm 0,5 UV-I 324 W/m -4,2 C -4,4 C 22,5 km/h (4 Bft) 100,00 %
29.12.2017 12:39 1,9 C 3,3 C 64 % 1012,6 hPa 0,0 l/m 20,9 km/h (4 Bft) W-SW 247 1 min 0,000 mm 0,5 UV-I 323 W/m -4,2 C -7,6 C 29,0 km/h (5 Bft) 100,00 %
29.12.2017 12:40 1,9 C 3,3 C 63 % 1012,6 hPa 0,0 l/m 16,1 km/h (3 Bft) W-SW 247 1 min 0,000 mm 0,5 UV-I 323 W/m -4,4 C -5,3 C 22,5 km/h (4 Bft) 95,65 %
29.12.2017 12:41 1,9 C 3,3 C 63 % 1012,6 hPa 0,0 l/m 14,5 km/h (3 Bft) W-SW 247 1 min 0,000 mm 0,5 UV-I 322 W/m -4,4 C -4,4 C 19,3 km/h (3 Bft) 100,00 %
29.12.2017 12:42 2,0 C 3,3 C 65 % 1012,6 hPa 0,0 l/m 16,1 km/h (3 Bft) W-SW 247 1 min 0,000 mm 0,5 UV-I 322 W/m -3,9 C -5,2 C 25,7 km/h (4 Bft) 95,65 %
29.12.2017 12:43 2,0 C 3,3 C 65 % 1012,6 hPa 0,0 l/m 19,3 km/h (3 Bft) W-SW 247 1 min 0,000 mm 0,5 UV-I 322 W/m -3,9 C -6,7 C 27,4 km/h (4 Bft) 100,00 %
29.12.2017 12:44 2,0 C 3,3 C 64 % 1012,6 hPa 0,0 l/m 19,3 km/h (3 Bft) SW 225 1 min 0,000 mm 0,5 UV-I 320 W/m -4,1 C -6,7 C 27,4 km/h (4 Bft) 100,00 %
29.12.2017 12:45 2,0 C 3,3 C 63 % 1012,6 hPa 0,0 l/m 19,3 km/h (3 Bft) SW 225 1 min 0,000 mm 0,5 UV-I 320 W/m -4,3 C -6,7 C 27,4 km/h (4 Bft) 100,00 %
29.12.2017 12:46 2,0 C 3,3 C 63 % 1012,6 hPa 0,0 l/m 16,1 km/h (3 Bft) W-SW 247 1 min 0,000 mm 0,5 UV-I 318 W/m -4,3 C -5,2 C 24,1 km/h (4 Bft) 100,00 %
29.12.2017 12:47 2,0 C 3,3 C 64 % 1012,5 hPa 0,0 l/m 16,1 km/h (3 Bft) W-SW 247 1 min 0,000 mm 0,5 UV-I 318 W/m -4,1 C -5,2 C 22,5 km/h (4 Bft) 100,00 %
29.12.2017 12:48 2,0 C 3,3 C 64 % 1012,5 hPa 0,0 l/m 17,7 km/h (3 Bft) SW 225 1 min 0,000 mm 0,5 UV-I 318 W/m -4,1 C -6,0 C 29,0 km/h (5 Bft) 95,65 %
29.12.2017 12:49 2,0 C 3,3 C 64 % 1012,4 hPa 0,0 l/m 16,1 km/h (3 Bft) W-SW 247 1 min 0,000 mm 0,5 UV-I 316 W/m -4,1 C -5,2 C 22,5 km/h (4 Bft) 95,65 %
29.12.2017 12:50 2,0 C 3,3 C 64 % 1012,4 hPa 0,0 l/m 17,7 km/h (3 Bft) SW 225 1 min 0,000 mm 0,5 UV-I 316 W/m -4,1 C -6,0 C 22,5 km/h (4 Bft) 95,65 %
29.12.2017 12:51 2,1 C 3,3 C 65 % 1012,4 hPa 0,0 l/m 19,3 km/h (3 Bft) W-SW 247 1 min 0,000 mm 0,5 UV-I 316 W/m -3,8 C -6,6 C 25,7 km/h (4 Bft) 100,00 %
29.12.2017 12:52 2,1 C 3,3 C 64 % 1012,5 hPa 0,0 l/m 17,7 km/h (3 Bft) W-SW 247 1 min 0,000 mm 0,5 UV-I 315 W/m -4,0 C -5,9 C 32,2 km/h (5 Bft) 100,00 %
29.12.2017 12:53 2,1 C 3,3 C 64 % 1012,5 hPa 0,0 l/m 19,3 km/h (3 Bft) SW 225 1 min 0,000 mm 0,5 UV-I 313 W/m -4,0 C -6,6 C 29,0 km/h (5 Bft) 95,65 %
29.12.2017 12:54 2,1 C 3,3 C 64 % 1012,5 hPa 0,0 l/m 19,3 km/h (3 Bft) W 270 1 min 0,000 mm 0,5 UV-I 313 W/m -4,0 C -6,6 C 33,8 km/h (5 Bft) 100,00 %
29.12.2017 12:55 2,1 C 3,3 C 63 % 1012,5 hPa 0,0 l/m 17,7 km/h (3 Bft) W-SW 247 1 min 0,000 mm 0,5 UV-I 313 W/m -4,2 C -5,9 C 24,1 km/h (4 Bft) 95,65 %
29.12.2017 12:56 2,0 C 3,3 C 63 % 1012,4 hPa 0,0 l/m 19,3 km/h (3 Bft) W 270 1 min 0,000 mm 0,5 UV-I 312 W/m -4,3 C -6,7 C 25,7 km/h (4 Bft) 95,65 %
29.12.2017 12:57 2,0 C 3,3 C 63 % 1012,5 hPa 0,0 l/m 14,5 km/h (3 Bft) W-SW 247 1 min 0,000 mm 0,5 UV-I 311 W/m -4,3 C -4,3 C 19,3 km/h (3 Bft) 95,65 %
29.12.2017 12:58 2,0 C 3,9 C 63 % 1012,4 hPa 0,0 l/m 19,3 km/h (3 Bft) W 270 1 min 0,000 mm 0,5 UV-I 309 W/m -4,3 C -6,7 C 22,5 km/h (4 Bft) 95,65 %
29.12.2017 12:59 2,1 C 3,3 C 64 % 1012,4 hPa 0,0 l/m 17,7 km/h (3 Bft) W 270 1 min 0,000 mm 0,5 UV-I 309 W/m -4,0 C -5,9 C 25,7 km/h (4 Bft) 95,65 %
29.12.2017 13:00 2,1 C 3,3 C 64 % 1012,4 hPa 0,0 l/m 17,7 km/h (3 Bft) W 270 1 min 0,152 mm 0,5 UV-I 309 W/m -4,0 C -5,9 C 22,5 km/h (4 Bft) 95,65 %
29.12.2017 13:01 2,1 C 3,3 C 64 % 1012,4 hPa 0,0 l/m 16,1 km/h (3 Bft) W 270 1 min 0,000 mm 0,5 UV-I 308 W/m -4,0 C -5,0 C 24,1 km/h (4 Bft) 100,00 %
29.12.2017 13:02 2,1 C 3,3 C 63 % 1012,3 hPa 0,0 l/m 16,1 km/h (3 Bft) SW 225 1 min 0,000 mm 0,5 UV-I 308 W/m -4,2 C -5,0 C 20,9 km/h (4 Bft) 91,30 %
29.12.2017 13:03 2,1 C 3,3 C 64 % 1012,3 hPa 0,0 l/m 12,9 km/h (3 Bft) W-SW 247 1 min 0,000 mm 0,5 UV-I 308 W/m -4,0 C -3,2 C 16,1 km/h (3 Bft) 95,65 %
29.12.2017 13:04 2,1 C 3,3 C 64 % 1012,4 hPa 0,0 l/m 24,1 km/h (4 Bft) SW 225 1 min 0,000 mm 0,5 UV-I 304 W/m -4,0 C -8,6 C 35,4 km/h (5 Bft) 91,30 %
29.12.2017 13:05 2,1 C 3,3 C 62 % 1012,3 hPa 0,0 l/m 20,9 km/h (4 Bft) SW 225 1 min 0,000 mm 0,5 UV-I 304 W/m -4,4 C -7,3 C 29,0 km/h (5 Bft) 100,00 %
29.12.2017 13:06 2,1 C 3,3 C 62 % 1012,3 hPa 0,0 l/m 19,3 km/h (3 Bft) SW 225 1 min 0,000 mm 0,5 UV-I 306 W/m -4,4 C -6,6 C 24,1 km/h (4 Bft) 91,30 %
29.12.2017 13:07 2,1 C 3,9 C 61 % 1012,3 hPa 0,0 l/m 16,1 km/h (3 Bft) W-SW 247 1 min 0,000 mm 0,5 UV-I 302 W/m -4,6 C -5,0 C 27,4 km/h (4 Bft) 95,65 %
29.12.2017 13:08 2,1 C 3,9 C 61 % 1012,3 hPa 0,0 l/m 17,7 km/h (3 Bft) W-SW 247 1 min 0,000 mm 0,5 UV-I 302 W/m -4,6 C -5,9 C 22,5 km/h (4 Bft) 95,65 %
29.12.2017 13:09 2,1 C 3,3 C 62 % 1012,3 hPa 0,0 l/m 19,3 km/h (3 Bft) W-SW 247 1 min 0,000 mm 0,5 UV-I 301 W/m -4,4 C -6,6 C 27,4 km/h (4 Bft) 95,65 %
29.12.2017 13:10 2,1 C 3,3 C 62 % 1012,3 hPa 0,0 l/m 20,9 km/h (4 Bft) SW 225 1 min 0,000 mm 0,5 UV-I 299 W/m -4,4 C -7,3 C 24,1 km/h (4 Bft) 91,30 %
29.12.2017 13:11 2,0 C 3,9 C 62 % 1012,2 hPa 0,0 l/m 17,7 km/h (3 Bft) SW 225 1 min 0,000 mm 0,5 UV-I 299 W/m -4,5 C -6,0 C 25,7 km/h (4 Bft) 91,30 %
29.12.2017 13:12 2,0 C 3,9 C 62 % 1012,3 hPa 0,0 l/m 16,1 km/h (3 Bft) W-SW 247 1 min 0,000 mm 0,5 UV-I 297 W/m -4,5 C -5,2 C 19,3 km/h (3 Bft) 100,00 %
29.12.2017 13:13 2,0 C 3,3 C 62 % 1012,2 hPa 0,0 l/m 17,7 km/h (3 Bft) W-SW 247 1 min 0,000 mm 0,5 UV-I 297 W/m -4,5 C -6,0 C 20,9 km/h (4 Bft) 91,30 %
29.12.2017 13:14 2,0 C 3,3 C 62 % 1012,2 hPa 0,0 l/m 12,9 km/h (3 Bft) SW 225 1 min 0,000 mm 0,5 UV-I 295 W/m -4,5 C -3,3 C 16,1 km/h (3 Bft) 100,00 %
29.12.2017 13:15 2,1 C 3,3 C 62 % 1012,2 hPa 0,0 l/m 14,5 km/h (3 Bft) W-SW 247 1 min 0,000 mm 0,5 UV-I 295 W/m -4,4 C -4,2 C 22,5 km/h (4 Bft) 91,30 %
29.12.2017 13:16 2,1 C 3,3 C 63 % 1012,2 hPa 0,0 l/m 12,9 km/h (3 Bft) SW 225 1 min 0,000 mm 0,0 UV-I 294 W/m -4,2 C -3,2 C 24,1 km/h (4 Bft) 95,65 %
29.12.2017 13:17 2,1 C 3,3 C 62 % 1012,1 hPa 0,0 l/m 14,5 km/h (3 Bft) SW 225 1 min 0,000 mm 0,0 UV-I 292 W/m -4,4 C -4,2 C 22,5 km/h (4 Bft) 86,96 %
29.12.2017 13:18 2,1 C 3,3 C 63 % 1012,2 hPa 0,0 l/m 14,5 km/h (3 Bft) W-SW 247 1 min 0,000 mm 0,0 UV-I 292 W/m -4,2 C -4,2 C 17,7 km/h (3 Bft) 95,65 %
29.12.2017 13:19 2,1 C 3,3 C 62 % 1012,1 hPa 0,0 l/m 17,7 km/h (3 Bft) W-SW 247 1 min 0,000 mm 0,0 UV-I 289 W/m -4,4 C -5,9 C 29,0 km/h (5 Bft) 95,65 %
29.12.2017 13:20 2,1 C 3,3 C 62 % 1012,1 hPa 0,0 l/m 12,9 km/h (3 Bft) SW 225 1 min 0,000 mm 0,0 UV-I 288 W/m -4,4 C -3,2 C 20,9 km/h (4 Bft) 100,00 %
29.12.2017 13:21 2,1 C 3,3 C 63 % 1012,1 hPa 0,0 l/m 17,7 km/h (3 Bft) SW 225 1 min 0,000 mm 0,0 UV-I 287 W/m -4,2 C -5,9 C 27,4 km/h (4 Bft) 95,65 %
29.12.2017 13:22 2,2 C 3,3 C 62 % 1012,1 hPa 0,0 l/m 14,5 km/h (3 Bft) SW 225 1 min 0,000 mm 0,0 UV-I 287 W/m -4,3 C -4,0 C 22,5 km/h (4 Bft) 100,00 %
29.12.2017 13:23 2,2 C 3,3 C 61 % 1012,1 hPa 0,0 l/m 14,5 km/h (3 Bft) W-SW 247 1 min 0,000 mm 0,0 UV-I 285 W/m -4,5 C -4,0 C 20,9 km/h (4 Bft) 95,65 %
29.12.2017 13:24 2,1 C 3,3 C 61 % 1012,1 hPa 0,0 l/m 14,5 km/h (3 Bft) W-SW 247 1 min 0,000 mm 0,0 UV-I 285 W/m -4,6 C -4,2 C 24,1 km/h (4 Bft) 95,65 %
29.12.2017 13:25 2,1 C 3,3 C 61 % 1012,0 hPa 0,0 l/m 19,3 km/h (3 Bft) W-SW 247 1 min 0,000 mm 0,0 UV-I 283 W/m -4,6 C -6,6 C 27,4 km/h (4 Bft) 95,65 %
29.12.2017 13:26 2,1 C 3,3 C 61 % 1012,1 hPa 0,0 l/m 20,9 km/h (4 Bft) SW 225 1 min 0,000 mm 0,0 UV-I 281 W/m -4,6 C -7,3 C 27,4 km/h (4 Bft) 95,65 %
29.12.2017 13:27 2,1 C 3,3 C 60 % 1012,1 hPa 0,0 l/m 19,3 km/h (3 Bft) W-SW 247 1 min 0,000 mm 0,0 UV-I 281 W/m -4,8 C -6,6 C 30,6 km/h (5 Bft) 100,00 %
29.12.2017 13:28 2,1 C 3,3 C 61 % 1012,0 hPa 0,0 l/m 14,5 km/h (3 Bft) SW 225 1 min 0,000 mm 0,0 UV-I 279 W/m -4,6 C -4,2 C 17,7 km/h (3 Bft) 100,00 %
29.12.2017 13:29 2,1 C 3,3 C 62 % 1012,0 hPa 0,0 l/m 14,5 km/h (3 Bft) SW 225 1 min 0,000 mm 0,0 UV-I 278 W/m -4,4 C -4,2 C 20,9 km/h (4 Bft) 100,00 %
29.12.2017 13:30 2,1 C 3,3 C 62 % 1012,0 hPa 0,0 l/m 14,5 km/h (3 Bft) SW 225 1 min 0,000 mm 0,0 UV-I 276 W/m -4,4 C -4,2 C 22,5 km/h (4 Bft) 100,00 %
29.12.2017 13:31 2,1 C 3,3 C 60 % 1012,0 hPa 0,0 l/m 11,3 km/h (2 Bft) W-SW 247 1 min 0,000 mm 0,0 UV-I 276 W/m -4,8 C -2,1 C 16,1 km/h (3 Bft) 95,65 %
29.12.2017 13:32 2,2 C 3,3 C 61 % 1012,1 hPa 0,0 l/m 16,1 km/h (3 Bft) SW 225 1 min 0,000 mm 0,0 UV-I 274 W/m -4,5 C -4,9 C 20,9 km/h (4 Bft) 100,00 %
29.12.2017 13:33 2,1 C 3,3 C 61 % 1012,0 hPa 0,0 l/m 17,7 km/h (3 Bft) SW 225 1 min 0,000 mm 0,0 UV-I 272 W/m -4,6 C -5,9 C 22,5 km/h (4 Bft) 100,00 %
29.12.2017 13:34 2,1 C 3,3 C 61 % 1012,0 hPa 0,0 l/m 14,5 km/h (3 Bft) SW 225 1 min 0,000 mm 0,0 UV-I 271 W/m -4,6 C -4,2 C 19,3 km/h (3 Bft) 95,65 %
29.12.2017 13:35 2,2 C 3,3 C 62 % 1012,0 hPa 0,0 l/m 14,5 km/h (3 Bft) W-SW 247 1 min 0,000 mm 0,0 UV-I 271 W/m -4,3 C -4,0 C 19,3 km/h (3 Bft) 100,00 %
29.12.2017 13:36 2,2 C 3,3 C 61 % 1012,0 hPa 0,0 l/m 11,3 km/h (2 Bft) W-SW 247 1 min 0,000 mm 0,0 UV-I 269 W/m -4,5 C -2,0 C 17,7 km/h (3 Bft) 95,65 %
29.12.2017 13:37 2,2 C 3,3 C 62 % 1012,0 hPa 0,0 l/m 11,3 km/h (2 Bft) W-SW 247 1 min 0,000 mm 0,0 UV-I 268 W/m -4,3 C -2,0 C 17,7 km/h (3 Bft) 100,00 %
29.12.2017 13:38 2,2 C 3,3 C 62 % 1011,9 hPa 0,0 l/m 12,9 km/h (3 Bft) W-SW 247 1 min 0,000 mm 0,0 UV-I 265 W/m -4,3 C -3,1 C 20,9 km/h (4 Bft) 95,65 %
29.12.2017 13:39 2,2 C 3,3 C 61 % 1011,9 hPa 0,0 l/m 14,5 km/h (3 Bft) W-SW 247 1 min 0,000 mm 0,0 UV-I 265 W/m -4,5 C -4,0 C 17,7 km/h (3 Bft) 100,00 %
29.12.2017 13:40 2,2 C 3,3 C 62 % 1011,9 hPa 0,0 l/m 11,3 km/h (2 Bft) W-SW 247 1 min 0,000 mm 0,0 UV-I 264 W/m -4,3 C -2,0 C 14,5 km/h (3 Bft) 100,00 %
29.12.2017 13:41 2,2 C 3,3 C 62 % 1011,9 hPa 0,0 l/m 14,5 km/h (3 Bft) W-SW 247 1 min 0,000 mm 0,0 UV-I 262 W/m -4,3 C -4,0 C 20,9 km/h (4 Bft) 100,00 %
29.12.2017 13:42 2,2 C 3,3 C 62 % 1011,9 hPa 0,0 l/m 14,5 km/h (3 Bft) W 270 1 min 0,000 mm 0,0 UV-I 260 W/m -4,3 C -4,0 C 19,3 km/h (3 Bft) 100,00 %
29.12.2017 13:43 2,2 C 3,3 C 62 % 1011,9 hPa 0,0 l/m 16,1 km/h (3 Bft) W-SW 247 1 min 0,000 mm 0,0 UV-I 257 W/m -4,3 C -4,9 C 20,9 km/h (4 Bft) 100,00 %
29.12.2017 13:44 2,2 C 3,3 C 61 % 1011,9 hPa 0,0 l/m 17,7 km/h (3 Bft) W-SW 247 1 min 0,000 mm 0,0 UV-I 258 W/m -4,5 C -5,7 C 24,1 km/h (4 Bft) 100,00 %
29.12.2017 13:45 2,2 C 3,3 C 61 % 1011,8 hPa 0,0 l/m 11,3 km/h (2 Bft) W-SW 247 1 min 0,000 mm 0,0 UV-I 257 W/m -4,5 C -2,0 C 17,7 km/h (3 Bft) 95,65 %
29.12.2017 13:46 2,2 C 3,3 C 63 % 1011,8 hPa 0,0 l/m 14,5 km/h (3 Bft) S-SW 202 1 min 0,000 mm 0,0 UV-I 255 W/m -4,1 C -4,0 C 19,3 km/h (3 Bft) 95,65 %
29.12.2017 13:47 2,2 C 3,3 C 63 % 1011,8 hPa 0,0 l/m 8,0 km/h (2 Bft) W-SW 247 1 min 0,000 mm 0,0 UV-I 255 W/m -4,1 C 0,7 C 12,9 km/h (3 Bft) 100,00 %
29.12.2017 13:48 2,3 C 3,3 C 63 % 1011,8 hPa 0,0 l/m 14,5 km/h (3 Bft) W-SW 247 1 min 0,000 mm 0,0 UV-I 253 W/m -4,0 C -3,9 C 22,5 km/h (4 Bft) 95,65 %
29.12.2017 13:49 2,3 C 3,3 C 63 % 1011,8 hPa 0,0 l/m 12,9 km/h (3 Bft) W-SW 247 1 min 0,000 mm 0,0 UV-I 252 W/m -4,0 C -2,9 C 19,3 km/h (3 Bft) 95,65 %
29.12.2017 13:50 2,3 C 3,3 C 62 % 1011,8 hPa 0,0 l/m 14,5 km/h (3 Bft) W-SW 247 1 min 0,000 mm 0,0 UV-I 248 W/m -4,2 C -3,9 C 22,5 km/h (4 Bft) 100,00 %
29.12.2017 13:51 2,2 C 3,3 C 61 % 1011,8 hPa 0,0 l/m 12,9 km/h (3 Bft) W-SW 247 1 min 0,000 mm 0,0 UV-I 248 W/m -4,5 C -3,1 C 19,3 km/h (3 Bft) 100,00 %
29.12.2017 13:52 2,2 C 3,3 C 62 % 1011,8 hPa 0,0 l/m 14,5 km/h (3 Bft) W-SW 247 1 min 0,000 mm 0,0 UV-I 246 W/m -4,3 C -4,0 C 22,5 km/h (4 Bft) 95,65 %
29.12.2017 13:53 2,3 C 3,3 C 62 % 1011,8 hPa 0,0 l/m 12,9 km/h (3 Bft) SW 225 1 min 0,000 mm 0,0 UV-I 246 W/m -4,2 C -2,9 C 16,1 km/h (3 Bft) 100,00 %
29.12.2017 13:54 2,2 C 3,3 C 62 % 1011,8 hPa 0,0 l/m 12,9 km/h (3 Bft) W-SW 247 1 min 0,000 mm 0,0 UV-I 246 W/m -4,3 C -3,1 C 19,3 km/h (3 Bft) 100,00 %
29.12.2017 13:55 2,2 C 3,3 C 62 % 1011,7 hPa 0,0 l/m 12,9 km/h (3 Bft) SW 225 1 min 0,000 mm 0,0 UV-I 243 W/m -4,3 C -3,1 C 17,7 km/h (3 Bft) 100,00 %
29.12.2017 13:56 2,2 C 3,3 C 61 % 1011,8 hPa 0,0 l/m 12,9 km/h (3 Bft) SW 225 1 min 0,000 mm 0,0 UV-I 241 W/m -4,5 C -3,1 C 17,7 km/h (3 Bft) 100,00 %
29.12.2017 13:57 2,2 C 3,3 C 62 % 1011,8 hPa 0,0 l/m 11,3 km/h (2 Bft) W-SW 247 1 min 0,000 mm 0,0 UV-I 241 W/m -4,3 C -2,0 C 16,1 km/h (3 Bft) 100,00 %
29.12.2017 13:58 2,2 C 3,3 C 64 % 1011,8 hPa 0,0 l/m 9,7 km/h (2 Bft) W-SW 247 1 min 0,000 mm 0,0 UV-I 239 W/m -3,9 C -0,8 C 14,5 km/h (3 Bft) 100,00 %
29.12.2017 13:59 2,3 C 3,3 C 64 % 1011,8 hPa 0,0 l/m 8,0 km/h (2 Bft) W-SW 247 1 min 0,000 mm 0,0 UV-I 237 W/m -3,8 C 0,8 C 11,3 km/h (2 Bft) 95,65 %
29.12.2017 14:00 2,3 C 3,3 C 64 % 1011,8 hPa 0,0 l/m 12,9 km/h (3 Bft) W-SW 247 1 min 0,152 mm 0,0 UV-I 236 W/m -3,8 C -2,9 C 17,7 km/h (3 Bft) 95,65 %
29.12.2017 14:01 2,3 C 3,3 C 63 % 1011,8 hPa 0,0 l/m 17,7 km/h (3 Bft) W-SW 247 1 min 0,000 mm 0,0 UV-I 234 W/m -4,0 C -5,6 C 27,4 km/h (4 Bft) 100,00 %
29.12.2017 14:02 2,3 C 3,3 C 61 % 1011,7 hPa 0,0 l/m 17,7 km/h (3 Bft) W-SW 247 1 min 0,000 mm 0,0 UV-I 232 W/m -4,4 C -5,6 C 24,1 km/h (4 Bft) 100,00 %
29.12.2017 14:03 2,3 C 3,3 C 61 % 1011,7 hPa 0,0 l/m 14,5 km/h (3 Bft) W-SW 247 1 min 0,000 mm 0,0 UV-I 230 W/m -4,4 C -3,9 C 19,3 km/h (3 Bft) 100,00 %
29.12.2017 14:04 2,3 C 3,3 C 62 % 1011,6 hPa 0,0 l/m 11,3 km/h (2 Bft) SW 225 1 min 0,000 mm 0,0 UV-I 230 W/m -4,2 C -1,9 C 17,7 km/h (3 Bft) 100,00 %
29.12.2017 14:05 2,3 C 3,3 C 61 % 1011,7 hPa 0,0 l/m 16,1 km/h (3 Bft) W 270 1 min 0,000 mm 0,0 UV-I 227 W/m -4,4 C -4,8 C 19,3 km/h (3 Bft) 100,00 %
29.12.2017 14:06 2,3 C 3,3 C 61 % 1011,6 hPa 0,0 l/m 11,3 km/h (2 Bft) W-SW 247 1 min 0,000 mm 0,0 UV-I 226 W/m -4,4 C -1,9 C 14,5 km/h (3 Bft) 91,30 %
29.12.2017 14:07 2,2 C 3,3 C 61 % 1011,6 hPa 0,0 l/m 17,7 km/h (3 Bft) W 270 1 min 0,000 mm 0,0 UV-I 223 W/m -4,5 C -5,7 C 24,1 km/h (4 Bft) 95,65 %
29.12.2017 14:08 2,2 C 3,3 C 60 % 1011,6 hPa 0,0 l/m 14,5 km/h (3 Bft) W-SW 247 1 min 0,000 mm 0,0 UV-I 221 W/m -4,7 C -4,0 C 17,7 km/h (3 Bft) 100,00 %
29.12.2017 14:09 2,2 C 3,3 C 60 % 1011,6 hPa 0,0 l/m 9,7 km/h (2 Bft) W 270 1 min 0,000 mm 0,0 UV-I 221 W/m -4,7 C -0,8 C 16,1 km/h (3 Bft) 100,00 %
29.12.2017 14:10 2,2 C 3,9 C 61 % 1011,6 hPa 0,0 l/m 14,5 km/h (3 Bft) SW 225 1 min 0,000 mm 0,0 UV-I 220 W/m -4,5 C -4,0 C 19,3 km/h (3 Bft) 91,30 %
29.12.2017 14:11 2,2 C 3,3 C 61 % 1011,6 hPa 0,0 l/m 14,5 km/h (3 Bft) W-SW 247 1 min 0,000 mm 0,0 UV-I 218 W/m -4,5 C -4,0 C 20,9 km/h (4 Bft) 95,65 %
29.12.2017 14:12 2,2 C 3,3 C 61 % 1011,6 hPa 0,0 l/m 11,3 km/h (2 Bft) W-SW 247 1 min 0,000 mm 0,0 UV-I 216 W/m -4,5 C -2,0 C 14,5 km/h (3 Bft) 86,96 %
29.12.2017 14:13 2,2 C 3,3 C 62 % 1011,6 hPa 0,0 l/m 9,7 km/h (2 Bft) W-SW 247 1 min 0,000 mm 0,0 UV-I 214 W/m -4,3 C -0,8 C 17,7 km/h (3 Bft) 95,65 %
29.12.2017 14:14 2,2 C 3,3 C 62 % 1011,6 hPa 0,0 l/m 14,5 km/h (3 Bft) W-SW 247 1 min 0,000 mm 0,0 UV-I 213 W/m -4,3 C -4,0 C 17,7 km/h (3 Bft) 95,65 %
29.12.2017 14:15 2,2 C 3,3 C 62 % 1011,5 hPa 0,0 l/m 16,1 km/h (3 Bft) W-SW 247 1 min 0,000 mm 0,0 UV-I 211 W/m -4,3 C -4,9 C 24,1 km/h (4 Bft) 100,00 %
29.12.2017 14:16 2,2 C 3,3 C 62 % 1011,5 hPa 0,0 l/m 19,3 km/h (3 Bft) W-SW 247 1 min 0,000 mm 0,0 UV-I 209 W/m -4,3 C -6,5 C 25,7 km/h (4 Bft) 95,65 %
29.12.2017 14:17 2,2 C 3,3 C 61 % 1011,5 hPa 0,0 l/m 17,7 km/h (3 Bft) W-SW 247 1 min 0,000 mm 0,0 UV-I 207 W/m -4,5 C -5,7 C 22,5 km/h (4 Bft) 95,65 %
29.12.2017 14:18 2,2 C 3,3 C 62 % 1011,5 hPa 0,0 l/m 12,9 km/h (3 Bft) W-SW 247 1 min 0,000 mm 0,0 UV-I 207 W/m -4,3 C -3,1 C 17,7 km/h (3 Bft) 100,00 %
29.12.2017 14:19 2,2 C 3,3 C 63 % 1011,5 hPa 0,0 l/m 9,7 km/h (2 Bft) W-SW 247 1 min 0,000 mm 0,0 UV-I 204 W/m -4,1 C -0,8 C 14,5 km/h (3 Bft) 95,65 %
29.12.2017 14:20 2,2 C 3,3 C 64 % 1011,5 hPa 0,0 l/m 9,7 km/h (2 Bft) SW 225 1 min 0,000 mm 0,0 UV-I 202 W/m -3,9 C -0,8 C 14,5 km/h (3 Bft) 95,65 %
29.12.2017 14:21 2,3 C 3,3 C 62 % 1011,5 hPa 0,0 l/m 11,3 km/h (2 Bft) W-SW 247 1 min 0,000 mm 0,0 UV-I 202 W/m -4,2 C -1,9 C 17,7 km/h (3 Bft) 95,65 %
29.12.2017 14:22 2,2 C 3,3 C 62 % 1011,6 hPa 0,0 l/m 14,5 km/h (3 Bft) W-SW 247 1 min 0,000 mm 0,0 UV-I 200 W/m -4,3 C -4,0 C 17,7 km/h (3 Bft) 100,00 %
29.12.2017 14:23 2,2 C 3,3 C 62 % 1011,6 hPa 0,0 l/m 14,5 km/h (3 Bft) W 270 1 min 0,000 mm 0,0 UV-I 199 W/m -4,3 C -4,0 C 20,9 km/h (4 Bft) 91,30 %
29.12.2017 14:24 2,2 C 3,3 C 62 % 1011,7 hPa 0,0 l/m 14,5 km/h (3 Bft) W 270 1 min 0,000 mm 0,0 UV-I 197 W/m -4,3 C -4,0 C 19,3 km/h (3 Bft) 100,00 %
29.12.2017 14:25 2,2 C 3,3 C 63 % 1011,6 hPa 0,0 l/m 14,5 km/h (3 Bft) W-SW 247 1 min 0,000 mm 0,0 UV-I 195 W/m -4,1 C -4,0 C 27,4 km/h (4 Bft) 95,65 %
29.12.2017 14:26 2,2 C 3,3 C 62 % 1011,6 hPa 0,0 l/m 17,7 km/h (3 Bft) W-SW 247 1 min 0,000 mm 0,0 UV-I 193 W/m -4,3 C -5,7 C 22,5 km/h (4 Bft) 91,30 %
29.12.2017 14:27 2,2 C 3,3 C 62 % 1011,6 hPa 0,0 l/m 17,7 km/h (3 Bft) W-SW 247 1 min 0,000 mm 0,0 UV-I 192 W/m -4,3 C -5,7 C 24,1 km/h (4 Bft) 91,30 %
29.12.2017 14:28 2,1 C 3,3 C 62 % 1011,7 hPa 0,0 l/m 16,1 km/h (3 Bft) W-SW 247 1 min 0,000 mm 0,0 UV-I 190 W/m -4,4 C -5,0 C 19,3 km/h (3 Bft) 95,65 %
29.12.2017 14:29 2,1 C 3,3 C 62 % 1011,6 hPa 0,0 l/m 12,9 km/h (3 Bft) W 270 1 min 0,000 mm 0,0 UV-I 190 W/m -4,4 C -3,2 C 16,1 km/h (3 Bft) 95,65 %
29.12.2017 14:30 2,1 C 3,3 C 62 % 1011,6 hPa 0,0 l/m 11,3 km/h (2 Bft) SW 225 1 min 0,000 mm 0,0 UV-I 187 W/m -4,4 C -2,1 C 17,7 km/h (3 Bft) 91,30 %
29.12.2017 14:31 2,1 C 3,3 C 62 % 1011,7 hPa 0,0 l/m 16,1 km/h (3 Bft) W-SW 247 1 min 0,000 mm 0,0 UV-I 186 W/m -4,4 C -5,0 C 22,5 km/h (4 Bft) 100,00 %
29.12.2017 14:32 2,1 C 3,3 C 62 % 1011,6 hPa 0,0 l/m 12,9 km/h (3 Bft) W-SW 247 1 min 0,000 mm 0,0 UV-I 183 W/m -4,4 C -3,2 C 19,3 km/h (3 Bft) 91,30 %
29.12.2017 14:33 2,1 C 3,3 C 62 % 1011,7 hPa 0,0 l/m 14,5 km/h (3 Bft) W-SW 247 1 min 0,000 mm 0,0 UV-I 183 W/m -4,4 C -4,2 C 22,5 km/h (4 Bft) 100,00 %
29.12.2017 14:34 2,1 C 3,3 C 62 % 1011,7 hPa 0,0 l/m 14,5 km/h (3 Bft) W-SW 247 1 min 0,000 mm 0,0 UV-I 181 W/m -4,4 C -4,2 C 20,9 km/h (4 Bft) 91,30 %
29.12.2017 14:35 2,1 C 3,3 C 62 % 1011,6 hPa 0,0 l/m 19,3 km/h (3 Bft) W-SW 247 1 min 0,000 mm 0,0 UV-I 179 W/m -4,4 C -6,6 C 24,1 km/h (4 Bft) 100,00 %
29.12.2017 14:36 2,1 C 3,3 C 62 % 1011,6 hPa 0,0 l/m 16,1 km/h (3 Bft) W 270 1 min 0,000 mm 0,0 UV-I 177 W/m -4,4 C -5,0 C 20,9 km/h (4 Bft) 95,65 %
29.12.2017 14:37 2,1 C 3,3 C 62 % 1011,6 hPa 0,0 l/m 11,3 km/h (2 Bft) W 270 1 min 0,000 mm 0,0 UV-I 176 W/m -4,4 C -2,1 C 17,7 km/h (3 Bft) 100,00 %
29.12.2017 14:38 2,1 C 3,3 C 62 % 1011,7 hPa 0,0 l/m 11,3 km/h (2 Bft) W-SW 247 1 min 0,000 mm 0,0 UV-I 174 W/m -4,4 C -2,1 C 17,7 km/h (3 Bft) 95,65 %
29.12.2017 14:39 2,1 C 3,3 C 61 % 1011,7 hPa 0,0 l/m 11,3 km/h (2 Bft) W-SW 247 1 min 0,000 mm 0,0 UV-I 171 W/m -4,6 C -2,1 C 17,7 km/h (3 Bft) 100,00 %
29.12.2017 14:40 2,1 C 3,3 C 61 % 1011,7 hPa 0,0 l/m 12,9 km/h (3 Bft) W-SW 247 1 min 0,000 mm 0,0 UV-I 169 W/m -4,6 C -3,2 C 19,3 km/h (3 Bft) 91,30 %
29.12.2017 14:41 2,0 C 3,3 C 61 % 1011,7 hPa 0,0 l/m 14,5 km/h (3 Bft) W-SW 247 1 min 0,000 mm 0,0 UV-I 167 W/m -4,7 C -4,3 C 20,9 km/h (4 Bft) 95,65 %
29.12.2017 14:42 2,0 C 3,9 C 61 % 1011,7 hPa 0,0 l/m 16,1 km/h (3 Bft) W-SW 247 1 min 0,000 mm 0,0 UV-I 165 W/m -4,7 C -5,2 C 20,9 km/h (4 Bft) 95,65 %
29.12.2017 14:43 2,0 C 3,3 C 61 % 1011,7 hPa 0,0 l/m 17,7 km/h (3 Bft) W-SW 247 1 min 0,000 mm 0,0 UV-I 163 W/m -4,7 C -6,0 C 20,9 km/h (4 Bft) 100,00 %
29.12.2017 14:44 1,9 C 3,3 C 60 % 1011,6 hPa 0,0 l/m 16,1 km/h (3 Bft) W-SW 247 1 min 0,000 mm 0,0 UV-I 162 W/m -5,0 C -5,3 C 24,1 km/h (4 Bft) 95,65 %
29.12.2017 14:45 1,9 C 3,3 C 60 % 1011,7 hPa 0,0 l/m 16,1 km/h (3 Bft) W 270 1 min 0,000 mm 0,0 UV-I 160 W/m -5,0 C -5,3 C 24,1 km/h (4 Bft) 100,00 %
29.12.2017 14:46 1,9 C 3,3 C 60 % 1011,7 hPa 0,0 l/m 16,1 km/h (3 Bft) W-SW 247 1 min 0,000 mm 0,0 UV-I 158 W/m -5,0 C -5,3 C 19,3 km/h (3 Bft) 95,65 %
29.12.2017 14:47 1,9 C 3,3 C 59 % 1011,7 hPa 0,0 l/m 14,5 km/h (3 Bft) SW 225 1 min 0,000 mm 0,0 UV-I 157 W/m -5,2 C -4,4 C 19,3 km/h (3 Bft) 95,65 %
29.12.2017 14:48 1,9 C 3,3 C 60 % 1011,7 hPa 0,0 l/m 11,3 km/h (2 Bft) W 270 1 min 0,000 mm 0,0 UV-I 155 W/m -5,0 C -2,3 C 14,5 km/h (3 Bft) 95,65 %
29.12.2017 14:49 1,9 C 3,3 C 60 % 1011,8 hPa 0,0 l/m 11,3 km/h (2 Bft) W-SW 247 1 min 0,000 mm 0,0 UV-I 153 W/m -5,0 C -2,3 C 16,1 km/h (3 Bft) 95,65 %
29.12.2017 14:50 1,9 C 3,3 C 60 % 1011,7 hPa 0,0 l/m 9,7 km/h (2 Bft) W-SW 247 1 min 0,000 mm 0,0 UV-I 151 W/m -5,0 C -1,1 C 14,5 km/h (3 Bft) 100,00 %
29.12.2017 14:51 1,9 C 3,3 C 61 % 1011,8 hPa 0,0 l/m 9,7 km/h (2 Bft) W-SW 247 1 min 0,000 mm 0,0 UV-I 149 W/m -4,8 C -1,1 C 11,3 km/h (2 Bft) 100,00 %
29.12.2017 14:52 1,9 C 3,3 C 61 % 1011,8 hPa 0,0 l/m 12,9 km/h (3 Bft) W-SW 247 1 min 0,000 mm 0,0 UV-I 148 W/m -4,8 C -3,4 C 19,3 km/h (3 Bft) 100,00 %
29.12.2017 14:53 1,9 C 3,3 C 60 % 1011,8 hPa 0,0 l/m 14,5 km/h (3 Bft) W 270 1 min 0,000 mm 0,0 UV-I 145 W/m -5,0 C -4,4 C 22,5 km/h (4 Bft) 100,00 %
29.12.2017 14:54 1,9 C 3,3 C 60 % 1011,8 hPa 0,0 l/m 9,7 km/h (2 Bft) W-SW 247 1 min 0,000 mm 0,0 UV-I 142 W/m -5,0 C -1,1 C 12,9 km/h (3 Bft) 100,00 %
29.12.2017 14:55 1,9 C 3,3 C 60 % 1011,9 hPa 0,0 l/m 9,7 km/h (2 Bft) W-SW 247 1 min 0,000 mm 0,0 UV-I 141 W/m -5,0 C -1,1 C 12,9 km/h (3 Bft) 95,65 %
29.12.2017 14:56 1,9 C 3,3 C 60 % 1011,8 hPa 0,0 l/m 12,9 km/h (3 Bft) W-SW 247 1 min 0,000 mm 0,0 UV-I 139 W/m -5,0 C -3,4 C 14,5 km/h (3 Bft) 100,00 %
29.12.2017 14:57 1,9 C 3,3 C 60 % 1011,8 hPa 0,0 l/m 8,0 km/h (2 Bft) W-SW 247 1 min 0,000 mm 0,0 UV-I 137 W/m -5,0 C 0,3 C 11,3 km/h (2 Bft) 100,00 %
29.12.2017 14:58 1,9 C 3,3 C 61 % 1011,9 hPa 0,0 l/m 8,0 km/h (2 Bft) W 270 1 min 0,000 mm 0,0 UV-I 137 W/m -4,8 C 0,3 C 11,3 km/h (2 Bft) 100,00 %
29.12.2017 14:59 1,9 C 3,3 C 60 % 1011,9 hPa 0,0 l/m 6,4 km/h (2 Bft) W 270 1 min 0,000 mm 0,0 UV-I 135 W/m -5,0 C 1,9 C 11,3 km/h (2 Bft) 100,00 %
29.12.2017 15:00 1,9 C 3,3 C 61 % 1011,8 hPa 0,0 l/m 4,8 km/h (1 Bft) W 270 1 min 0,102 mm 0,0 UV-I 132 W/m -4,8 C 1,9 C 9,7 km/h (2 Bft) 100,00 %
29.12.2017 15:01 1,9 C 3,3 C 61 % 1011,9 hPa 0,0 l/m 6,4 km/h (2 Bft) W-SW 247 1 min 0,000 mm 0,0 UV-I 130 W/m -4,8 C 1,9 C 9,7 km/h (2 Bft) 95,65 %
29.12.2017 15:02 1,8 C 3,3 C 62 % 1011,9 hPa 0,0 l/m 8,0 km/h (2 Bft) W-SW 247 1 min 0,000 mm 0,0 UV-I 128 W/m -4,7 C 0,2 C 12,9 km/h (3 Bft) 95,65 %
29.12.2017 15:03 1,8 C 3,9 C 61 % 1011,9 hPa 0,0 l/m 9,7 km/h (2 Bft) W-SW 247 1 min 0,000 mm 0,0 UV-I 127 W/m -4,9 C -1,2 C 14,5 km/h (3 Bft) 91,30 %
29.12.2017 15:04 1,8 C 3,3 C 61 % 1012,0 hPa 0,0 l/m 12,9 km/h (3 Bft) W-SW 247 1 min 0,000 mm 0,0 UV-I 125 W/m -4,9 C -3,5 C 17,7 km/h (3 Bft) 100,00 %
29.12.2017 15:05 1,8 C 3,3 C 61 % 1012,0 hPa 0,0 l/m 12,9 km/h (3 Bft) W 270 1 min 0,000 mm 0,0 UV-I 124 W/m -4,9 C -3,5 C 16,1 km/h (3 Bft) 100,00 %
29.12.2017 15:06 1,8 C 3,3 C 61 % 1012,0 hPa 0,0 l/m 8,0 km/h (2 Bft) W-SW 247 1 min 0,000 mm 0,0 UV-I 121 W/m -4,9 C 0,2 C 11,3 km/h (2 Bft) 100,00 %
29.12.2017 15:07 1,8 C 3,3 C 61 % 1012,0 hPa 0,0 l/m 8,0 km/h (2 Bft) SW 225 1 min 0,000 mm 0,0 UV-I 120 W/m -4,9 C 0,2 C 11,3 km/h (2 Bft) 100,00 %
29.12.2017 15:08 1,8 C 3,3 C 61 % 1012,0 hPa 0,0 l/m 6,4 km/h (2 Bft) W-SW 247 1 min 0,000 mm 0,0 UV-I 118 W/m -4,9 C 1,8 C 9,7 km/h (2 Bft) 100,00 %
29.12.2017 15:09 1,8 C 3,3 C 62 % 1012,0 hPa 0,0 l/m 6,4 km/h (2 Bft) SW 225 1 min 0,000 mm 0,0 UV-I 116 W/m -4,7 C 1,8 C 11,3 km/h (2 Bft) 95,65 %
29.12.2017 15:10 1,8 C 3,3 C 62 % 1012,0 hPa 0,0 l/m 8,0 km/h (2 Bft) W-SW 247 1 min 0,000 mm 0,0 UV-I 116 W/m -4,7 C 0,2 C 11,3 km/h (2 Bft) 100,00 %
29.12.2017 15:11 1,8 C 3,3 C 63 % 1012,0 hPa 0,0 l/m 4,8 km/h (1 Bft) SW 225 1 min 0,000 mm 0,0 UV-I 114 W/m -4,5 C 1,8 C 8,0 km/h (2 Bft) 100,00 %
29.12.2017 15:12 1,8 C 3,3 C 63 % 1012,0 hPa 0,0 l/m 4,8 km/h (1 Bft) W-SW 247 1 min 0,000 mm 0,0 UV-I 111 W/m -4,5 C 1,8 C 6,4 km/h (2 Bft) 100,00 %
29.12.2017 15:13 1,8 C 3,3 C 63 % 1012,0 hPa 0,0 l/m 8,0 km/h (2 Bft) W-SW 247 1 min 0,000 mm 0,0 UV-I 109 W/m -4,5 C 0,2 C 11,3 km/h (2 Bft) 95,65 %
29.12.2017 15:14 1,8 C 3,9 C 64 % 1012,0 hPa 0,0 l/m 6,4 km/h (2 Bft) W-SW 247 1 min 0,000 mm 0,0 UV-I 107 W/m -4,3 C 1,8 C 9,7 km/h (2 Bft) 100,00 %
29.12.2017 15:15 1,8 C 3,9 C 64 % 1012,0 hPa 0,0 l/m 4,8 km/h (1 Bft) W 270 1 min 0,000 mm 0,0 UV-I 105 W/m -4,3 C 1,8 C 6,4 km/h (2 Bft) 100,00 %
29.12.2017 15:16 1,8 C 3,3 C 64 % 1012,0 hPa 0,0 l/m 3,2 km/h (1 Bft) W 270 1 min 0,000 mm 0,0 UV-I 105 W/m -4,3 C 1,8 C 4,8 km/h (1 Bft) 95,65 %
29.12.2017 15:17 1,8 C 3,3 C 64 % 1011,9 hPa 0,0 l/m 6,4 km/h (2 Bft) W-SW 247 1 min 0,000 mm 0,0 UV-I 102 W/m -4,3 C 1,8 C 14,5 km/h (3 Bft) 95,65 %
29.12.2017 15:18 1,8 C 3,3 C 64 % 1012,0 hPa 0,0 l/m 8,0 km/h (2 Bft) W-SW 247 1 min 0,000 mm 0,0 UV-I 100 W/m -4,3 C 0,2 C 14,5 km/h (3 Bft) 95,65 %
29.12.2017 15:19 1,8 C 3,3 C 63 % 1012,0 hPa 0,0 l/m 6,4 km/h (2 Bft) W-SW 247 1 min 0,000 mm 0,0 UV-I 98 W/m -4,5 C 1,8 C 14,5 km/h (3 Bft) 100,00 %
29.12.2017 15:20 1,8 C 3,3 C 64 % 1012,0 hPa 0,0 l/m 9,7 km/h (2 Bft) W-SW 247 1 min 0,000 mm 0,0 UV-I 97 W/m -4,3 C -1,2 C 12,9 km/h (3 Bft) 100,00 %
29.12.2017 15:21 1,8 C 3,3 C 64 % 1012,0 hPa 0,0 l/m 6,4 km/h (2 Bft) W-SW 247 1 min 0,000 mm 0,0 UV-I 97 W/m -4,3 C 1,8 C 9,7 km/h (2 Bft) 100,00 %
29.12.2017 15:22 1,8 C 3,3 C 64 % 1012,0 hPa 0,0 l/m 4,8 km/h (1 Bft) SW 225 1 min 0,000 mm 0,0 UV-I 92 W/m -4,3 C 1,8 C 8,0 km/h (2 Bft) 100,00 %
29.12.2017 15:23 1,8 C 3,3 C 64 % 1012,0 hPa 0,0 l/m 4,8 km/h (1 Bft) W 270 1 min 0,000 mm 0,0 UV-I 90 W/m -4,3 C 1,8 C 6,4 km/h (2 Bft) 95,65 %
29.12.2017 15:24 1,8 C 3,3 C 65 % 1012,0 hPa 0,0 l/m 4,8 km/h (1 Bft) W-NW 292 1 min 0,000 mm 0,0 UV-I 88 W/m -4,1 C 1,8 C 8,0 km/h (2 Bft) 100,00 %
29.12.2017 15:25 1,8 C 3,3 C 65 % 1011,9 hPa 0,0 l/m 8,0 km/h (2 Bft) W-SW 247 1 min 0,000 mm 0,0 UV-I 86 W/m -4,1 C 0,2 C 11,3 km/h (2 Bft) 95,65 %
29.12.2017 15:26 1,8 C 3,3 C 64 % 1012,0 hPa 0,0 l/m 8,0 km/h (2 Bft) W-SW 247 1 min 0,000 mm 0,0 UV-I 84 W/m -4,3 C 0,2 C 11,3 km/h (2 Bft) 100,00 %
29.12.2017 15:27 1,8 C 3,3 C 64 % 1011,9 hPa 0,0 l/m 8,0 km/h (2 Bft) W-SW 247 1 min 0,000 mm 0,0 UV-I 84 W/m -4,3 C 0,2 C 12,9 km/h (3 Bft) 100,00 %
29.12.2017 15:28 1,7 C 3,3 C 64 % 1011,9 hPa 0,0 l/m 6,4 km/h (2 Bft) SW 225 1 min 0,000 mm 0,0 UV-I 81 W/m -4,4 C 1,7 C 11,3 km/h (2 Bft) 100,00 %
29.12.2017 15:29 1,7 C 3,3 C 64 % 1011,9 hPa 0,0 l/m 9,7 km/h (2 Bft) W-SW 247 1 min 0,000 mm 0,0 UV-I 79 W/m -4,4 C -1,3 C 12,9 km/h (3 Bft) 100,00 %
29.12.2017 15:30 1,7 C 3,3 C 64 % 1012,0 hPa 0,0 l/m 6,4 km/h (2 Bft) W-SW 247 1 min 0,000 mm 0,0 UV-I 77 W/m -4,4 C 1,7 C 9,7 km/h (2 Bft) 95,65 %
29.12.2017 15:31 1,7 C 3,3 C 64 % 1012,0 hPa 0,0 l/m 4,8 km/h (1 Bft) W-SW 247 1 min 0,000 mm 0,0 UV-I 76 W/m -4,4 C 1,7 C 6,4 km/h (2 Bft) 95,65 %
29.12.2017 15:32 1,7 C 3,3 C 64 % 1012,0 hPa 0,0 l/m 4,8 km/h (1 Bft) SW 225 1 min 0,000 mm 0,0 UV-I 74 W/m -4,4 C 1,7 C 6,4 km/h (2 Bft) 100,00 %
29.12.2017 15:33 1,7 C 3,3 C 65 % 1012,0 hPa 0,0 l/m 9,7 km/h (2 Bft) W 270 1 min 0,000 mm 0,0 UV-I 72 W/m -4,2 C -1,3 C 16,1 km/h (3 Bft) 100,00 %
29.12.2017 15:34 1,7 C 3,9 C 64 % 1012,0 hPa 0,0 l/m 9,7 km/h (2 Bft) W-SW 247 1 min 0,000 mm 0,0 UV-I 70 W/m -4,4 C -1,3 C 12,9 km/h (3 Bft) 100,00 %
29.12.2017 15:35 1,7 C 3,3 C 64 % 1012,0 hPa 0,0 l/m 8,0 km/h (2 Bft) SW 225 1 min 0,000 mm 0,0 UV-I 67 W/m -4,4 C 0,1 C 9,7 km/h (2 Bft) 100,00 %
29.12.2017 15:36 1,7 C 3,9 C 64 % 1012,0 hPa 0,0 l/m 8,0 km/h (2 Bft) W 270 1 min 0,000 mm 0,0 UV-I 65 W/m -4,4 C 0,1 C 12,9 km/h (3 Bft) 95,65 %
29.12.2017 15:37 1,7 C 3,3 C 64 % 1012,0 hPa 0,0 l/m 9,7 km/h (2 Bft) W-SW 247 1 min 0,000 mm 0,0 UV-I 63 W/m -4,4 C -1,3 C 14,5 km/h (3 Bft) 95,65 %
29.12.2017 15:38 1,7 C 3,9 C 64 % 1012,0 hPa 0,0 l/m 4,8 km/h (1 Bft) W-SW 247 1 min 0,000 mm 0,0 UV-I 62 W/m -4,4 C 1,7 C 8,0 km/h (2 Bft) 100,00 %
29.12.2017 15:39 1,7 C 3,9 C 64 % 1012,0 hPa 0,0 l/m 6,4 km/h (2 Bft) W-SW 247 1 min 0,000 mm 0,0 UV-I 60 W/m -4,4 C 1,7 C 9,7 km/h (2 Bft) 100,00 %
29.12.2017 15:40 1,7 C 3,9 C 64 % 1012,0 hPa 0,0 l/m 6,4 km/h (2 Bft) W-SW 247 1 min 0,000 mm 0,0 UV-I 59 W/m -4,4 C 1,7 C 11,3 km/h (2 Bft) 100,00 %
29.12.2017 15:41 1,6 C 3,9 C 65 % 1012,0 hPa 0,0 l/m 6,4 km/h (2 Bft) SW 225 1 min 0,000 mm 0,0 UV-I 56 W/m -4,3 C 1,6 C 9,7 km/h (2 Bft) 100,00 %
29.12.2017 15:42 1,6 C 3,3 C 65 % 1012,0 hPa 0,0 l/m 8,0 km/h (2 Bft) SW 225 1 min 0,000 mm 0,0 UV-I 54 W/m -4,3 C 0,0 C 12,9 km/h (3 Bft) 100,00 %
29.12.2017 15:43 1,6 C 3,3 C 65 % 1012,0 hPa 0,0 l/m 8,0 km/h (2 Bft) SW 225 1 min 0,000 mm 0,0 UV-I 53 W/m -4,3 C 0,0 C 12,9 km/h (3 Bft) 95,65 %
29.12.2017 15:44 1,6 C 3,3 C 65 % 1012,0 hPa 0,0 l/m 11,3 km/h (2 Bft) W-SW 247 1 min 0,000 mm 0,0 UV-I 51 W/m -4,3 C -2,7 C 17,7 km/h (3 Bft) 95,65 %
29.12.2017 15:45 1,6 C 3,3 C 64 % 1012,0 hPa 0,0 l/m 16,1 km/h (3 Bft) W 270 1 min 0,000 mm 0,0 UV-I 49 W/m -4,5 C -5,7 C 20,9 km/h (4 Bft) 95,65 %
29.12.2017 15:46 1,6 C 3,3 C 64 % 1012,1 hPa 0,0 l/m 6,4 km/h (2 Bft) SW 225 1 min 0,000 mm 0,0 UV-I 48 W/m -4,5 C 1,6 C 9,7 km/h (2 Bft) 100,00 %
29.12.2017 15:47 1,6 C 3,3 C 64 % 1012,1 hPa 0,0 l/m 8,0 km/h (2 Bft) S-SW 202 1 min 0,000 mm 0,0 UV-I 46 W/m -4,5 C 0,0 C 11,3 km/h (2 Bft) 100,00 %
29.12.2017 15:48 1,6 C 3,3 C 64 % 1012,0 hPa 0,0 l/m 8,0 km/h (2 Bft) S-SW 202 1 min 0,000 mm 0,0 UV-I 44 W/m -4,5 C 0,0 C 9,7 km/h (2 Bft) 100,00 %
29.12.2017 15:49 1,6 C 3,3 C 65 % 1012,1 hPa 0,0 l/m 4,8 km/h (1 Bft) SW 225 1 min 0,000 mm 0,0 UV-I 42 W/m -4,3 C 1,6 C 9,7 km/h (2 Bft) 100,00 %
29.12.2017 15:50 1,6 C 3,3 C 66 % 1012,1 hPa 0,0 l/m 6,4 km/h (2 Bft) SW 225 1 min 0,000 mm 0,0 UV-I 40 W/m -4,1 C 1,6 C 11,3 km/h (2 Bft) 100,00 %
29.12.2017 15:51 1,6 C 3,3 C 66 % 1012,1 hPa 0,0 l/m 4,8 km/h (1 Bft) SW 225 1 min 0,000 mm 0,0 UV-I 40 W/m -4,1 C 1,6 C 6,4 km/h (2 Bft) 95,65 %
29.12.2017 15:52 1,5 C 3,3 C 66 % 1012,1 hPa 0,0 l/m 4,8 km/h (1 Bft) W-SW 247 1 min 0,000 mm 0,0 UV-I 39 W/m -4,1 C 1,5 C 6,4 km/h (2 Bft) 100,00 %
29.12.2017 15:53 1,5 C 3,3 C 66 % 1012,1 hPa 0,0 l/m 4,8 km/h (1 Bft) W-SW 247 1 min 0,000 mm 0,0 UV-I 37 W/m -4,1 C 1,5 C 9,7 km/h (2 Bft) 100,00 %
29.12.2017 15:54 1,4 C 3,3 C 66 % 1012,2 hPa 0,0 l/m 9,7 km/h (2 Bft) SW 225 1 min 0,000 mm 0,0 UV-I 35 W/m -4,2 C -1,7 C 14,5 km/h (3 Bft) 91,30 %
29.12.2017 15:55 1,4 C 3,3 C 65 % 1012,1 hPa 0,0 l/m 9,7 km/h (2 Bft) SW 225 1 min 0,000 mm 0,0 UV-I 33 W/m -4,4 C -1,7 C 14,5 km/h (3 Bft) 100,00 %
29.12.2017 15:56 1,4 C 3,3 C 66 % 1012,1 hPa 0,0 l/m 6,4 km/h (2 Bft) SW 225 1 min 0,000 mm 0,0 UV-I 33 W/m -4,2 C 1,4 C 9,7 km/h (2 Bft) 95,65 %
29.12.2017 15:57 1,4 C 3,3 C 66 % 1012,1 hPa 0,0 l/m 6,4 km/h (2 Bft) W-SW 247 1 min 0,000 mm 0,0 UV-I 32 W/m -4,2 C 1,4 C 11,3 km/h (2 Bft) 95,65 %
29.12.2017 15:58 1,4 C 3,3 C 66 % 1012,1 hPa 0,0 l/m 8,0 km/h (2 Bft) W-SW 247 1 min 0,000 mm 0,0 UV-I 30 W/m -4,2 C -0,2 C 9,7 km/h (2 Bft) 91,30 %
29.12.2017 15:59 1,4 C 3,3 C 66 % 1012,1 hPa 0,0 l/m 6,4 km/h (2 Bft) W-SW 247 1 min 0,000 mm 0,0 UV-I 28 W/m -4,2 C 1,4 C 8,0 km/h (2 Bft) 95,65 %
29.12.2017 16:00 1,4 C 3,3 C 66 % 1012,2 hPa 0,0 l/m 6,4 km/h (2 Bft) SW 225 1 min 0,051 mm 0,0 UV-I 26 W/m -4,2 C 1,4 C 8,0 km/h (2 Bft) 95,65 %
29.12.2017 16:01 1,3 C 3,3 C 66 % 1012,2 hPa 0,0 l/m 6,4 km/h (2 Bft) SW 225 1 min 0,000 mm 0,0 UV-I 26 W/m -4,3 C 1,3 C 9,7 km/h (2 Bft) 91,30 %
29.12.2017 16:02 1,3 C 3,3 C 67 % 1012,1 hPa 0,0 l/m 8,0 km/h (2 Bft) SW 225 1 min 0,000 mm 0,0 UV-I 25 W/m -4,1 C -0,3 C 12,9 km/h (3 Bft) 95,65 %
29.12.2017 16:03 1,3 C 3,3 C 67 % 1012,1 hPa 0,0 l/m 6,4 km/h (2 Bft) SW 225 1 min 0,000 mm 0,0 UV-I 24 W/m -4,1 C 1,3 C 9,7 km/h (2 Bft) 91,30 %
29.12.2017 16:04 1,3 C 3,3 C 67 % 1012,2 hPa 0,0 l/m 4,8 km/h (1 Bft) SW 225 1 min 0,000 mm 0,0 UV-I 21 W/m -4,1 C 1,3 C 8,0 km/h (2 Bft) 100,00 %
29.12.2017 16:05 1,2 C 3,3 C 67 % 1012,1 hPa 0,0 l/m 8,0 km/h (2 Bft) W 270 1 min 0,000 mm 0,0 UV-I 21 W/m -4,2 C -0,4 C 11,3 km/h (2 Bft) 86,96 %
29.12.2017 16:06 1,2 C 3,3 C 66 % 1012,1 hPa 0,0 l/m 8,0 km/h (2 Bft) W-SW 247 0 min 0,000 mm 0,0 UV-I 19 W/m -4,4 C -0,4 C 11,3 km/h (2 Bft) 95,65 %
29.12.2017 16:07 1,2 C 3,3 C 66 % 1012,1 hPa 0,0 l/m 8,0 km/h (2 Bft) SW 225 0 min 0,000 mm 0,0 UV-I 19 W/m -4,4 C -0,4 C 11,3 km/h (2 Bft) 91,30 %
29.12.2017 16:08 1,2 C 3,3 C 66 % 1012,1 hPa 0,0 l/m 8,0 km/h (2 Bft) W-SW 247 0 min 0,000 mm 0,0 UV-I 18 W/m -4,4 C -0,4 C 11,3 km/h (2 Bft) 95,65 %
29.12.2017 16:09 1,1 C 3,3 C 67 % 1012,1 hPa 0,0 l/m 9,7 km/h (2 Bft) W-SW 247 0 min 0,000 mm 0,0 UV-I 15 W/m -4,3 C -2,0 C 16,1 km/h (3 Bft) 95,65 %
29.12.2017 16:10 1,1 C 3,3 C 67 % 1012,1 hPa 0,0 l/m 14,5 km/h (3 Bft) W-SW 247 0 min 0,000 mm 0,0 UV-I 12 W/m -4,3 C -5,4 C 19,3 km/h (3 Bft) 91,30 %
29.12.2017 16:11 1,1 C 3,3 C 65 % 1012,1 hPa 0,0 l/m 11,3 km/h (2 Bft) W-SW 247 0 min 0,000 mm 0,0 UV-I 11 W/m -4,7 C -3,2 C 16,1 km/h (3 Bft) 95,65 %
29.12.2017 16:12 1,1 C 3,3 C 64 % 1012,1 hPa 0,0 l/m 14,5 km/h (3 Bft) W-SW 247 0 min 0,000 mm 0,0 UV-I 11 W/m -4,9 C -5,4 C 20,9 km/h (4 Bft) 86,96 %
29.12.2017 16:13 1,2 C 3,3 C 63 % 1012,1 hPa 0,0 l/m 16,1 km/h (3 Bft) W-SW 247 0 min 0,000 mm 0,0 UV-I 11 W/m -5,0 C -6,1 C 20,9 km/h (4 Bft) 100,00 %
29.12.2017 16:14 1,2 C 3,3 C 63 % 1012,1 hPa 0,0 l/m 11,3 km/h (2 Bft) W-SW 247 0 min 0,000 mm 0,0 UV-I 11 W/m -5,0 C -3,1 C 16,1 km/h (3 Bft) 86,96 %
29.12.2017 16:15 1,2 C 3,3 C 63 % 1012,1 hPa 0,0 l/m 9,7 km/h (2 Bft) W-SW 247 0 min 0,000 mm 0,0 UV-I 10 W/m -5,0 C -1,9 C 14,5 km/h (3 Bft) 100,00 %
29.12.2017 16:16 1,2 C 3,3 C 63 % 1012,1 hPa 0,0 l/m 12,9 km/h (3 Bft) W-SW 247 0 min 0,000 mm 0,0 UV-I 9 W/m -5,0 C -4,2 C 17,7 km/h (3 Bft) 91,30 %
29.12.2017 16:17 1,1 C 3,3 C 63 % 1012,1 hPa 0,0 l/m 12,9 km/h (3 Bft) W 270 0 min 0,000 mm 0,0 UV-I 9 W/m -5,1 C -4,3 C 17,7 km/h (3 Bft) 95,65 %
29.12.2017 16:18 1,1 C 3,3 C 63 % 1012,1 hPa 0,0 l/m 11,3 km/h (2 Bft) W-SW 247 0 min 0,000 mm 0,0 UV-I 9 W/m -5,1 C -3,2 C 12,9 km/h (3 Bft) 95,65 %
29.12.2017 16:19 1,1 C 3,3 C 64 % 1012,1 hPa 0,0 l/m 8,0 km/h (2 Bft) W 270 0 min 0,000 mm 0,0 UV-I 9 W/m -4,9 C -0,5 C 11,3 km/h (2 Bft) 91,30 %
29.12.2017 16:20 0,9 C 3,3 C 65 % 1012,2 hPa 0,0 l/m 6,4 km/h (2 Bft) W 270 0 min 0,000 mm 0,0 UV-I 7 W/m -4,9 C 0,9 C 11,3 km/h (2 Bft) 91,30 %
29.12.2017 16:21 0,9 C 3,3 C 65 % 1012,2 hPa 0,0 l/m 9,7 km/h (2 Bft) W-SW 247 0 min 0,000 mm 0,0 UV-I 7 W/m -4,9 C -2,2 C 12,9 km/h (3 Bft) 95,65 %
29.12.2017 16:22 0,9 C 3,3 C 65 % 1012,3 hPa 0,0 l/m 6,4 km/h (2 Bft) W-SW 247 0 min 0,000 mm 0,0 UV-I 7 W/m -4,9 C 0,9 C 8,0 km/h (2 Bft) 95,65 %
29.12.2017 16:23 0,8 C 3,3 C 65 % 1012,3 hPa 0,0 l/m 6,4 km/h (2 Bft) W-SW 247 0 min 0,000 mm 0,0 UV-I 7 W/m -5,0 C 0,8 C 9,7 km/h (2 Bft) 95,65 %
29.12.2017 16:24 0,8 C 3,3 C 65 % 1012,3 hPa 0,0 l/m 6,4 km/h (2 Bft) SW 225 0 min 0,000 mm 0,0 UV-I 7 W/m -5,0 C 0,8 C 9,7 km/h (2 Bft) 95,65 %
29.12.2017 16:25 0,8 C 3,3 C 65 % 1012,3 hPa 0,0 l/m 6,4 km/h (2 Bft) W-SW 247 0 min 0,000 mm 0,0 UV-I 7 W/m -5,0 C 0,8 C 11,3 km/h (2 Bft) 95,65 %
29.12.2017 16:26 0,8 C 3,3 C 65 % 1012,3 hPa 0,0 l/m 9,7 km/h (2 Bft) W-SW 247 0 min 0,000 mm 0,0 UV-I 5 W/m -5,0 C -2,3 C 12,9 km/h (3 Bft) 91,30 %
29.12.2017 16:27 0,8 C 3,3 C 65 % 1012,3 hPa 0,0 l/m 8,0 km/h (2 Bft) W-SW 247 0 min 0,000 mm 0,0 UV-I 5 W/m -5,0 C -0,8 C 12,9 km/h (3 Bft) 100,00 %
29.12.2017 16:28 0,8 C 3,3 C 65 % 1012,2 hPa 0,0 l/m 8,0 km/h (2 Bft) SW 225 0 min 0,000 mm 0,0 UV-I 5 W/m -5,0 C -0,8 C 11,3 km/h (2 Bft) 95,65 %
29.12.2017 16:29 0,8 C 3,3 C 65 % 1012,2 hPa 0,0 l/m 8,0 km/h (2 Bft) W-SW 247 0 min 0,000 mm 0,0 UV-I 5 W/m -5,0 C -0,8 C 11,3 km/h (2 Bft) 95,65 %
29.12.2017 16:30 0,8 C 3,3 C 65 % 1012,0 hPa 0,0 l/m 6,4 km/h (2 Bft) SW 225 0 min 0,000 mm 0,0 UV-I 5 W/m -5,0 C 0,8 C 8,0 km/h (2 Bft) 95,65 %
29.12.2017 16:31 0,8 C 3,3 C 66 % 1012,2 hPa 0,0 l/m 6,4 km/h (2 Bft) W-SW 247 0 min 0,000 mm 0,0 UV-I 5 W/m -4,8 C 0,8 C 8,0 km/h (2 Bft) 100,00 %
29.12.2017 16:32 0,8 C 3,3 C 66 % 1012,2 hPa 0,0 l/m 6,4 km/h (2 Bft) SW 225 0 min 0,000 mm 0,0 UV-I 5 W/m -4,8 C 0,8 C 11,3 km/h (2 Bft) 95,65 %
29.12.2017 16:33 0,7 C 3,3 C 66 % 1012,2 hPa 0,0 l/m 8,0 km/h (2 Bft) W-SW 247 0 min 0,000 mm 0,0 UV-I 5 W/m -4,9 C -0,9 C 11,3 km/h (2 Bft) 91,30 %
29.12.2017 16:34 0,7 C 3,3 C 66 % 1012,2 hPa 0,0 l/m 6,4 km/h (2 Bft) SW 225 0 min 0,000 mm 0,0 UV-I 5 W/m -4,9 C 0,7 C 8,0 km/h (2 Bft) 95,65 %
29.12.2017 16:35 0,7 C 3,3 C 67 % 1012,2 hPa 0,0 l/m 4,8 km/h (1 Bft) W-SW 247 0 min 0,000 mm 0,0 UV-I 0 W/m -4,7 C 0,7 C 6,4 km/h (2 Bft) 95,65 %
29.12.2017 16:36 0,7 C 3,3 C 67 % 1012,2 hPa 0,0 l/m 4,8 km/h (1 Bft) W-SW 247 0 min 0,000 mm 0,0 UV-I 0 W/m -4,7 C 0,7 C 8,0 km/h (2 Bft) 95,65 %
29.12.2017 16:37 0,6 C 3,3 C 68 % 1012,2 hPa 0,0 l/m 6,4 km/h (2 Bft) W-SW 247 0 min 0,000 mm 0,0 UV-I 0 W/m -4,6 C 0,6 C 11,3 km/h (2 Bft) 95,65 %
29.12.2017 16:38 0,6 C 3,3 C 67 % 1012,3 hPa 0,0 l/m 6,4 km/h (2 Bft) W-SW 247 0 min 0,000 mm 0,0 UV-I 0 W/m -4,8 C 0,6 C 9,7 km/h (2 Bft) 100,00 %
29.12.2017 16:39 0,6 C 3,3 C 67 % 1012,2 hPa 0,0 l/m 8,0 km/h (2 Bft) W-SW 247 0 min 0,000 mm 0,0 UV-I 0 W/m -4,8 C -1,0 C 11,3 km/h (2 Bft) 100,00 %
29.12.2017 16:40 0,6 C 3,3 C 66 % 1012,3 hPa 0,0 l/m 8,0 km/h (2 Bft) W-SW 247 0 min 0,000 mm 0,0 UV-I 0 W/m -5,0 C -1,0 C 9,7 km/h (2 Bft) 95,65 %
29.12.2017 16:41 0,6 C 3,3 C 66 % 1012,2 hPa 0,0 l/m 6,4 km/h (2 Bft) W-SW 247 0 min 0,000 mm 0,0 UV-I 0 W/m -5,0 C 0,6 C 8,0 km/h (2 Bft) 100,00 %
29.12.2017 16:42 0,6 C 3,3 C 67 % 1012,2 hPa 0,0 l/m 4,8 km/h (1 Bft) W-SW 247 0 min 0,000 mm 0,0 UV-I 0 W/m -4,8 C 0,6 C 6,4 km/h (2 Bft) 100,00 %
29.12.2017 16:43 0,6 C 3,3 C 67 % 1012,2 hPa 0,0 l/m 4,8 km/h (1 Bft) W-SW 247 0 min 0,000 mm 0,0 UV-I 0 W/m -4,8 C 0,6 C 6,4 km/h (2 Bft) 100,00 %
29.12.2017 16:44 0,5 C 3,3 C 67 % 1012,2 hPa 0,0 l/m 6,4 km/h (2 Bft) W-SW 247 0 min 0,000 mm 0,0 UV-I 0 W/m -4,9 C 0,5 C 8,0 km/h (2 Bft) 100,00 %
29.12.2017 16:45 0,4 C 3,3 C 68 % 1012,2 hPa 0,0 l/m 4,8 km/h (1 Bft) W 270 0 min 0,000 mm 0,0 UV-I 0 W/m -4,8 C 0,4 C 8,0 km/h (2 Bft) 100,00 %
29.12.2017 16:46 0,4 C 3,3 C 68 % 1012,2 hPa 0,0 l/m 6,4 km/h (2 Bft) W-SW 247 0 min 0,000 mm 0,0 UV-I 0 W/m -4,8 C 0,4 C 9,7 km/h (2 Bft) 100,00 %
29.12.2017 16:47 0,5 C 3,3 C 67 % 1012,2 hPa 0,0 l/m 6,4 km/h (2 Bft) W 270 0 min 0,000 mm 0,0 UV-I 0 W/m -4,9 C 0,5 C 9,7 km/h (2 Bft) 95,65 %
29.12.2017 16:48 0,4 C 3,3 C 68 % 1012,2 hPa 0,0 l/m 4,8 km/h (1 Bft) W 270 0 min 0,000 mm 0,0 UV-I 0 W/m -4,8 C 0,4 C 6,4 km/h (2 Bft) 100,00 %
29.12.2017 16:49 0,4 C 3,3 C 68 % 1012,2 hPa 0,0 l/m 3,2 km/h (1 Bft) W 270 0 min 0,000 mm 0,0 UV-I 0 W/m -4,8 C 0,4 C 4,8 km/h (1 Bft) 100,00 %
29.12.2017 16:50 0,3 C 3,3 C 68 % 1012,2 hPa 0,0 l/m 3,2 km/h (1 Bft) W 270 0 min 0,000 mm 0,0 UV-I 0 W/m -4,9 C 0,3 C 4,8 km/h (1 Bft) 95,65 %
29.12.2017 16:51 0,3 C 3,3 C 68 % 1012,2 hPa 0,0 l/m 3,2 km/h (1 Bft) W 270 0 min 0,000 mm 0,0 UV-I 0 W/m -4,9 C 0,3 C 6,4 km/h (2 Bft) 100,00 %
29.12.2017 16:52 0,3 C 3,3 C 68 % 1012,2 hPa 0,0 l/m 4,8 km/h (1 Bft) W 270 0 min 0,000 mm 0,0 UV-I 0 W/m -4,9 C 0,3 C 4,8 km/h (1 Bft) 100,00 %
29.12.2017 16:53 0,3 C 3,3 C 68 % 1012,2 hPa 0,0 l/m 3,2 km/h (1 Bft) W 270 0 min 0,000 mm 0,0 UV-I 0 W/m -4,9 C 0,3 C 6,4 km/h (2 Bft) 100,00 %
29.12.2017 16:54 0,3 C 3,3 C 68 % 1012,2 hPa 0,0 l/m 3,2 km/h (1 Bft) W 270 0 min 0,000 mm 0,0 UV-I 0 W/m -4,9 C 0,3 C 4,8 km/h (1 Bft) 100,00 %
29.12.2017 16:55 0,3 C 3,3 C 68 % 1012,2 hPa 0,0 l/m 3,2 km/h (1 Bft) W 270 0 min 0,000 mm 0,0 UV-I 0 W/m -4,9 C 0,3 C 4,8 km/h (1 Bft) 95,65 %
29.12.2017 16:56 0,3 C 3,3 C 68 % 1012,2 hPa 0,0 l/m 3,2 km/h (1 Bft) W 270 0 min 0,000 mm 0,0 UV-I 0 W/m -4,9 C 0,3 C 4,8 km/h (1 Bft) 100,00 %
29.12.2017 16:57 0,2 C 3,3 C 69 % 1012,2 hPa 0,0 l/m 3,2 km/h (1 Bft) W 270 0 min 0,000 mm 0,0 UV-I 0 W/m -4,8 C 0,2 C 4,8 km/h (1 Bft) 100,00 %
29.12.2017 16:58 0,2 C 3,3 C 69 % 1012,2 hPa 0,0 l/m 3,2 km/h (1 Bft) W 270 0 min 0,000 mm 0,0 UV-I 0 W/m -4,8 C 0,2 C 4,8 km/h (1 Bft) 95,65 %
29.12.2017 16:59 0,1 C 3,3 C 70 % 1012,2 hPa 0,0 l/m 1,6 km/h (1 Bft) W 270 0 min 0,000 mm 0,0 UV-I 0 W/m -4,7 C 0,1 C 3,2 km/h (1 Bft) 95,65 %
29.12.2017 17:00 -0,1 C 3,3 C 72 % 1012,2 hPa 0,0 l/m 1,6 km/h (1 Bft) W 270 0 min 0,025 mm 0,0 UV-I 0 W/m -4,5 C -0,1 C 3,2 km/h (1 Bft) 100,00 %
29.12.2017 17:01 -0,2 C 3,3 C 74 % 1012,2 hPa 0,0 l/m 1,6 km/h (1 Bft) W 270 0 min 0,000 mm 0,0 UV-I 0 W/m -4,3 C -0,2 C 3,2 km/h (1 Bft) 95,65 %
29.12.2017 17:02 -0,4 C 3,3 C 75 % 1012,2 hPa 0,0 l/m 0,0 km/h (0 Bft) W 270 0 min 0,000 mm 0,0 UV-I 0 W/m -4,3 C -0,4 C 1,6 km/h (1 Bft) 100,00 %
29.12.2017 17:03 -0,7 C 3,3 C 77 % 1012,2 hPa 0,0 l/m 0,0 km/h (0 Bft) W 270 0 min 0,000 mm 0,0 UV-I 0 W/m -4,2 C -0,7 C 1,6 km/h (1 Bft) 100,00 %
29.12.2017 17:04 -0,8 C 3,3 C 78 % 1012,2 hPa 0,0 l/m 0,0 km/h (0 Bft) W 270 0 min 0,000 mm 0,0 UV-I 0 W/m -4,1 C -0,8 C 1,6 km/h (1 Bft) 100,00 %
29.12.2017 17:05 -1,0 C 3,3 C 78 % 1012,2 hPa 0,0 l/m 0,0 km/h (0 Bft) W 270 0 min 0,000 mm 0,0 UV-I 0 W/m -4,3 C -1,0 C 1,6 km/h (1 Bft) 100,00 %
29.12.2017 17:06 -1,1 C 3,3 C 78 % 1012,1 hPa 0,0 l/m 0,0 km/h (0 Bft) W 270 0 min 0,000 mm 0,0 UV-I 0 W/m -4,4 C -1,1 C 1,6 km/h (1 Bft) 100,00 %
29.12.2017 17:07 -1,1 C 3,3 C 79 % 1012,1 hPa 0,0 l/m 0,0 km/h (0 Bft) W 270 0 min 0,000 mm 0,0 UV-I 0 W/m -4,3 C -1,1 C 1,6 km/h (1 Bft) 100,00 %
29.12.2017 17:08 -1,0 C 3,3 C 79 % 1012,1 hPa 0,0 l/m 0,0 km/h (0 Bft) W 270 0 min 0,000 mm 0,0 UV-I 0 W/m -4,2 C -1,0 C 1,6 km/h (1 Bft) 95,65 %
29.12.2017 17:09 -1,0 C 3,3 C 79 % 1012,1 hPa 0,0 l/m 0,0 km/h (0 Bft) W 270 0 min 0,000 mm 0,0 UV-I 0 W/m -4,2 C -1,0 C 1,6 km/h (1 Bft) 100,00 %
29.12.2017 17:10 -1,0 C 3,3 C 79 % 1012,1 hPa 0,0 l/m 0,0 km/h (0 Bft) W 270 0 min 0,000 mm 0,0 UV-I 0 W/m -4,2 C -1,0 C 1,6 km/h (1 Bft) 100,00 %
29.12.2017 17:11 -1,1 C 3,3 C 80 % 1012,1 hPa 0,0 l/m 1,6 km/h (1 Bft) W-SW 247 0 min 0,000 mm 0,0 UV-I 0 W/m -4,1 C -1,1 C 3,2 km/h (1 Bft) 100,00 %
29.12.2017 17:12 -1,1 C 3,3 C 81 % 1012,1 hPa 0,0 l/m 1,6 km/h (1 Bft) W-SW 247 0 min 0,000 mm 0,0 UV-I 0 W/m -3,9 C -1,1 C 1,6 km/h (1 Bft) 100,00 %
29.12.2017 17:13 -1,2 C 3,3 C 81 % 1012,1 hPa 0,0 l/m 1,6 km/h (1 Bft) W-SW 247 0 min 0,000 mm 0,0 UV-I 0 W/m -4,0 C -1,2 C 3,2 km/h (1 Bft) 100,00 %
29.12.2017 17:14 -1,2 C 3,3 C 82 % 1012,1 hPa 0,0 l/m 1,6 km/h (1 Bft) W-SW 247 0 min 0,000 mm 0,0 UV-I 0 W/m -3,9 C -1,2 C 1,6 km/h (1 Bft) 100,00 %
29.12.2017 17:15 -1,3 C 3,3 C 82 % 1012,1 hPa 0,0 l/m 1,6 km/h (1 Bft) W-SW 247 0 min 0,000 mm 0,0 UV-I 0 W/m -4,0 C -1,3 C 1,6 km/h (1 Bft) 100,00 %
29.12.2017 17:16 -1,3 C 3,3 C 83 % 1012,1 hPa 0,0 l/m 1,6 km/h (1 Bft) W-SW 247 0 min 0,000 mm 0,0 UV-I 0 W/m -3,8 C -1,3 C 3,2 km/h (1 Bft) 95,65 %
29.12.2017 17:17 -1,4 C 3,3 C 83 % 1012,0 hPa 0,0 l/m 1,6 km/h (1 Bft) W-SW 247 0 min 0,000 mm 0,0 UV-I 0 W/m -3,9 C -1,4 C 3,2 km/h (1 Bft) 100,00 %
29.12.2017 17:18 -1,4 C 3,3 C 83 % 1012,0 hPa 0,0 l/m 1,6 km/h (1 Bft) W-SW 247 0 min 0,000 mm 0,0 UV-I 0 W/m -3,9 C -1,4 C 3,2 km/h (1 Bft) 100,00 %
29.12.2017 17:19 -1,4 C 3,3 C 83 % 1012,0 hPa 0,0 l/m 3,2 km/h (1 Bft) SW 225 0 min 0,000 mm 0,0 UV-I 0 W/m -3,9 C -1,4 C 4,8 km/h (1 Bft) 100,00 %
29.12.2017 17:20 -1,5 C 3,3 C 84 % 1012,0 hPa 0,0 l/m 3,2 km/h (1 Bft) S-SW 202 0 min 0,000 mm 0,0 UV-I 0 W/m -3,8 C -1,5 C 4,8 km/h (1 Bft) 100,00 %
29.12.2017 17:21 -1,6 C 3,3 C 84 % 1012,0 hPa 0,0 l/m 3,2 km/h (1 Bft) S-SW 202 0 min 0,000 mm 0,0 UV-I 0 W/m -3,9 C -1,6 C 4,8 km/h (1 Bft) 100,00 %
29.12.2017 17:22 -1,6 C 3,9 C 84 % 1012,0 hPa 0,0 l/m 1,6 km/h (1 Bft) S-SW 202 0 min 0,000 mm 0,0 UV-I 0 W/m -3,9 C -1,6 C 3,2 km/h (1 Bft) 100,00 %
29.12.2017 17:23 -1,6 C 3,9 C 83 % 1012,0 hPa 0,0 l/m 1,6 km/h (1 Bft) S-SW 202 0 min 0,000 mm 0,0 UV-I 0 W/m -4,1 C -1,6 C 1,6 km/h (1 Bft) 95,65 %
29.12.2017 17:24 -1,6 C 3,3 C 82 % 1012,0 hPa 0,0 l/m 0,0 km/h (0 Bft) S-SW 202 0 min 0,000 mm 0,0 UV-I 0 W/m -4,3 C -1,6 C 3,2 km/h (1 Bft) 100,00 %
29.12.2017 17:25 -1,6 C 3,3 C 82 % 1012,0 hPa 0,0 l/m 1,6 km/h (1 Bft) S-SW 202 0 min 0,000 mm 0,0 UV-I 0 W/m -4,3 C -1,6 C 3,2 km/h (1 Bft) 100,00 %
29.12.2017 17:26 -1,6 C 3,3 C 82 % 1012,0 hPa 0,0 l/m 1,6 km/h (1 Bft) S-SW 202 0 min 0,000 mm 0,0 UV-I 0 W/m -4,3 C -1,6 C 3,2 km/h (1 Bft) 95,65 %
29.12.2017 17:27 -1,5 C 3,3 C 81 % 1012,0 hPa 0,0 l/m 1,6 km/h (1 Bft) S-SW 202 0 min 0,000 mm 0,0 UV-I 0 W/m -4,3 C -1,5 C 3,2 km/h (1 Bft) 95,65 %
29.12.2017 17:28 -1,6 C 3,3 C 81 % 1012,0 hPa 0,0 l/m 1,6 km/h (1 Bft) S-SW 202 0 min 0,000 mm 0,0 UV-I 0 W/m -4,4 C -1,6 C 3,2 km/h (1 Bft) 100,00 %
29.12.2017 17:29 -1,6 C 3,3 C 82 % 1011,9 hPa 0,0 l/m 3,2 km/h (1 Bft) S-SW 202 0 min 0,000 mm 0,0 UV-I 0 W/m -4,3 C -1,6 C 4,8 km/h (1 Bft) 91,30 %
29.12.2017 17:30 -1,6 C 3,3 C 82 % 1011,9 hPa 0,0 l/m 3,2 km/h (1 Bft) S-SW 202 0 min 0,000 mm 0,0 UV-I 0 W/m -4,3 C -1,6 C 4,8 km/h (1 Bft) 95,65 %
29.12.2017 17:31 -1,6 C 3,3 C 83 % 1011,9 hPa 0,0 l/m 3,2 km/h (1 Bft) S-SW 202 0 min 0,000 mm 0,0 UV-I 0 W/m -4,1 C -1,6 C 4,8 km/h (1 Bft) 91,30 %
29.12.2017 17:32 -1,6 C 3,3 C 83 % 1011,9 hPa 0,0 l/m 1,6 km/h (1 Bft) S-SW 202 0 min 0,000 mm 0,0 UV-I 0 W/m -4,1 C -1,6 C 3,2 km/h (1 Bft) 100,00 %
29.12.2017 17:33 -1,6 C 3,3 C 82 % 1011,9 hPa 0,0 l/m 1,6 km/h (1 Bft) S-SW 202 0 min 0,000 mm 0,0 UV-I 0 W/m -4,3 C -1,6 C 3,2 km/h (1 Bft) 95,65 %
29.12.2017 17:34 -1,5 C 3,3 C 82 % 1011,8 hPa 0,0 l/m 1,6 km/h (1 Bft) S-SW 202 0 min 0,000 mm 0,0 UV-I 0 W/m -4,2 C -1,5 C 3,2 km/h (1 Bft) 100,00 %
29.12.2017 17:35 -1,5 C 3,3 C 82 % 1011,8 hPa 0,0 l/m 1,6 km/h (1 Bft) S-SW 202 0 min 0,000 mm 0,0 UV-I 0 W/m -4,2 C -1,5 C 1,6 km/h (1 Bft) 95,65 %
29.12.2017 17:36 -1,6 C 3,3 C 82 % 1011,9 hPa 0,0 l/m 1,6 km/h (1 Bft) S-SW 202 0 min 0,000 mm 0,0 UV-I 0 W/m -4,3 C -1,6 C 1,6 km/h (1 Bft) 95,65 %
29.12.2017 17:37 -1,6 C 3,3 C 83 % 1011,8 hPa 0,0 l/m 1,6 km/h (1 Bft) S-SW 202 0 min 0,000 mm 0,0 UV-I 0 W/m -4,1 C -1,6 C 1,6 km/h (1 Bft) 91,30 %
29.12.2017 17:38 -1,7 C 3,3 C 83 % 1011,8 hPa 0,0 l/m 1,6 km/h (1 Bft) S-SW 202 0 min 0,000 mm 0,0 UV-I 0 W/m -4,2 C -1,7 C 1,6 km/h (1 Bft) 100,00 %
29.12.2017 17:39 -1,7 C 3,3 C 84 % 1011,8 hPa 0,0 l/m 0,0 km/h (0 Bft) S-SW 202 0 min 0,000 mm 0,0 UV-I 0 W/m -4,0 C -1,7 C 1,6 km/h (1 Bft) 95,65 %
29.12.2017 17:40 -1,7 C 3,3 C 84 % 1011,8 hPa 0,0 l/m 0,0 km/h (0 Bft) S-SW 202 0 min 0,000 mm 0,0 UV-I 0 W/m -4,0 C -1,7 C 1,6 km/h (1 Bft) 100,00 %
29.12.2017 17:41 -1,7 C 3,3 C 84 % 1011,8 hPa 0,0 l/m 0,0 km/h (0 Bft) N 0 0 min 0,000 mm 0,0 UV-I 0 W/m -4,0 C -1,7 C 0,0 km/h (0 Bft) 91,30 %
29.12.2017 17:42 -1,8 C 3,3 C 85 % 1011,8 hPa 0,0 l/m 0,0 km/h (0 Bft) S-SW 202 0 min 0,000 mm 0,0 UV-I 0 W/m -4,0 C -1,8 C 1,6 km/h (1 Bft) 95,65 %
29.12.2017 17:43 -1,8 C 3,3 C 85 % 1011,8 hPa 0,0 l/m 0,0 km/h (0 Bft) S-SW 202 0 min 0,000 mm 0,0 UV-I 0 W/m -4,0 C -1,8 C 1,6 km/h (1 Bft) 100,00 %
29.12.2017 17:44 -1,8 C 3,3 C 85 % 1011,8 hPa 0,0 l/m 1,6 km/h (1 Bft) S-SW 202 0 min 0,000 mm 0,0 UV-I 0 W/m -4,0 C -1,8 C 1,6 km/h (1 Bft) 91,30 %
29.12.2017 17:45 -1,8 C 3,3 C 85 % 1011,8 hPa 0,0 l/m 1,6 km/h (1 Bft) S-SW 202 0 min 0,000 mm 0,0 UV-I 0 W/m -4,0 C -1,8 C 1,6 km/h (1 Bft) 100,00 %
29.12.2017 17:46 -1,7 C 3,3 C 84 % 1011,8 hPa 0,0 l/m 1,6 km/h (1 Bft) S-SW 202 0 min 0,000 mm 0,0 UV-I 0 W/m -4,0 C -1,7 C 3,2 km/h (1 Bft) 100,00 %
29.12.2017 17:47 -1,7 C 3,3 C 83 % 1011,8 hPa 0,0 l/m 1,6 km/h (1 Bft) S-SW 202 0 min 0,000 mm 0,0 UV-I 0 W/m -4,2 C -1,7 C 3,2 km/h (1 Bft) 100,00 %
29.12.2017 17:48 -1,6 C 3,3 C 83 % 1011,8 hPa 0,0 l/m 1,6 km/h (1 Bft) S-SW 202 0 min 0,000 mm 0,0 UV-I 0 W/m -4,1 C -1,6 C 3,2 km/h (1 Bft) 100,00 %
29.12.2017 17:49 -1,6 C 3,3 C 83 % 1011,8 hPa 0,0 l/m 3,2 km/h (1 Bft) S-SW 202 0 min 0,000 mm 0,0 UV-I 0 W/m -4,1 C -1,6 C 4,8 km/h (1 Bft) 95,65 %
29.12.2017 17:50 -1,6 C 3,3 C 82 % 1011,8 hPa 0,0 l/m 3,2 km/h (1 Bft) S-SW 202 0 min 0,000 mm 0,0 UV-I 0 W/m -4,3 C -1,6 C 4,8 km/h (1 Bft) 100,00 %
29.12.2017 17:51 -1,6 C 3,3 C 81 % 1011,8 hPa 0,0 l/m 3,2 km/h (1 Bft) S-SW 202 0 min 0,000 mm 0,0 UV-I 0 W/m -4,4 C -1,6 C 4,8 km/h (1 Bft) 91,30 %
29.12.2017 17:52 -1,7 C 3,3 C 82 % 1011,8 hPa 0,0 l/m 1,6 km/h (1 Bft) S-SW 202 0 min 0,000 mm 0,0 UV-I 0 W/m -4,4 C -1,7 C 1,6 km/h (1 Bft) 95,65 %
29.12.2017 17:53 -1,7 C 3,3 C 83 % 1011,7 hPa 0,0 l/m 1,6 km/h (1 Bft) S-SW 202 0 min 0,000 mm 0,0 UV-I 0 W/m -4,2 C -1,7 C 3,2 km/h (1 Bft) 100,00 %
29.12.2017 17:54 -1,7 C 3,3 C 82 % 1011,7 hPa 0,0 l/m 1,6 km/h (1 Bft) S-SW 202 0 min 0,000 mm 0,0 UV-I 0 W/m -4,4 C -1,7 C 3,2 km/h (1 Bft) 100,00 %
29.12.2017 17:55 -1,7 C 3,3 C 83 % 1011,7 hPa 0,0 l/m 1,6 km/h (1 Bft) S-SW 202 0 min 0,000 mm 0,0 UV-I 0 W/m -4,2 C -1,7 C 3,2 km/h (1 Bft) 100,00 %
29.12.2017 17:56 -1,8 C 3,3 C 83 % 1011,6 hPa 0,0 l/m 3,2 km/h (1 Bft) S-SW 202 0 min 0,000 mm 0,0 UV-I 0 W/m -4,3 C -1,8 C 4,8 km/h (1 Bft) 100,00 %
29.12.2017 17:57 -1,9 C 3,3 C 83 % 1011,6 hPa 0,0 l/m 3,2 km/h (1 Bft) S-SW 202 0 min 0,000 mm 0,0 UV-I 0 W/m -4,4 C -1,9 C 4,8 km/h (1 Bft) 100,00 %
29.12.2017 17:58 -1,9 C 3,3 C 84 % 1011,6 hPa 0,0 l/m 4,8 km/h (1 Bft) S-SO 157 0 min 0,000 mm 0,0 UV-I 0 W/m -4,2 C -1,9 C 8,0 km/h (2 Bft) 95,65 %
29.12.2017 17:59 -2,0 C 3,3 C 84 % 1011,6 hPa 0,0 l/m 4,8 km/h (1 Bft) S-SO 157 0 min 0,000 mm 0,0 UV-I 0 W/m -4,3 C -2,0 C 6,4 km/h (2 Bft) 100,00 %
29.12.2017 18:00 -2,0 C 3,3 C 84 % 1011,6 hPa 0,0 l/m 3,2 km/h (1 Bft) S-SO 157 0 min 0,000 mm 0,0 UV-I 0 W/m -4,3 C -2,0 C 6,4 km/h (2 Bft) 100,00 %
29.12.2017 18:01 -2,0 C 3,9 C 83 % 1011,6 hPa 0,0 l/m 3,2 km/h (1 Bft) S-SO 157 0 min 0,000 mm 0,0 UV-I 0 W/m -4,5 C -2,0 C 6,4 km/h (2 Bft) 100,00 %
29.12.2017 18:02 -1,9 C 3,3 C 82 % 1011,6 hPa 0,0 l/m 4,8 km/h (1 Bft) S-SO 157 0 min 0,000 mm 0,0 UV-I 0 W/m -4,6 C -1,9 C 6,4 km/h (2 Bft) 100,00 %
29.12.2017 18:03 -1,8 C 3,3 C 82 % 1011,6 hPa 0,0 l/m 3,2 km/h (1 Bft) S-SO 157 0 min 0,000 mm 0,0 UV-I 0 W/m -4,5 C -1,8 C 4,8 km/h (1 Bft) 100,00 %
29.12.2017 18:04 -1,7 C 3,3 C 82 % 1011,6 hPa 0,0 l/m 3,2 km/h (1 Bft) S-SO 157 0 min 0,000 mm 0,0 UV-I 0 W/m -4,4 C -1,7 C 6,4 km/h (2 Bft) 100,00 %
29.12.2017 18:05 -1,7 C 3,3 C 82 % 1011,6 hPa 0,0 l/m 3,2 km/h (1 Bft) S-SO 157 0 min 0,000 mm 0,0 UV-I 0 W/m -4,4 C -1,7 C 6,4 km/h (2 Bft) 95,65 %
29.12.2017 18:06 -1,7 C 3,3 C 81 % 1011,6 hPa 0,0 l/m 3,2 km/h (1 Bft) S-SO 157 0 min 0,000 mm 0,0 UV-I 0 W/m -4,5 C -1,7 C 4,8 km/h (1 Bft) 100,00 %
29.12.2017 18:07 -1,6 C 3,3 C 81 % 1011,6 hPa 0,0 l/m 4,8 km/h (1 Bft) S-SO 157 0 min 0,000 mm 0,0 UV-I 0 W/m -4,4 C -1,6 C 6,4 km/h (2 Bft) 95,65 %
29.12.2017 18:08 -1,6 C 3,3 C 81 % 1011,6 hPa 0,0 l/m 4,8 km/h (1 Bft) SO 135 0 min 0,000 mm 0,0 UV-I 0 W/m -4,4 C -1,6 C 9,7 km/h (2 Bft) 100,00 %
29.12.2017 18:09 -1,6 C 3,3 C 81 % 1011,6 hPa 0,0 l/m 4,8 km/h (1 Bft) S-SO 157 0 min 0,000 mm 0,0 UV-I 0 W/m -4,4 C -1,6 C 6,4 km/h (2 Bft) 100,00 %
29.12.2017 18:10 -1,6 C 3,3 C 81 % 1011,5 hPa 0,0 l/m 3,2 km/h (1 Bft) S-SO 157 0 min 0,000 mm 0,0 UV-I 0 W/m -4,4 C -1,6 C 6,4 km/h (2 Bft) 100,00 %
29.12.2017 18:11 -1,6 C 3,3 C 81 % 1011,5 hPa 0,0 l/m 3,2 km/h (1 Bft) S-SO 157 0 min 0,000 mm 0,0 UV-I 0 W/m -4,4 C -1,6 C 8,0 km/h (2 Bft) 95,65 %
29.12.2017 18:12 -1,6 C 3,3 C 81 % 1011,5 hPa 0,0 l/m 4,8 km/h (1 Bft) SO 135 0 min 0,000 mm 0,0 UV-I 0 W/m -4,4 C -1,6 C 8,0 km/h (2 Bft) 95,65 %
29.12.2017 18:13 -1,6 C 3,3 C 81 % 1011,5 hPa 0,0 l/m 3,2 km/h (1 Bft) S-SO 157 0 min 0,000 mm 0,0 UV-I 0 W/m -4,4 C -1,6 C 4,8 km/h (1 Bft) 100,00 %
29.12.2017 18:14 -1,6 C 3,3 C 81 % 1011,5 hPa 0,0 l/m 4,8 km/h (1 Bft) SO 135 0 min 0,000 mm 0,0 UV-I 0 W/m -4,4 C -1,6 C 6,4 km/h (2 Bft) 95,65 %
29.12.2017 18:15 -1,7 C 3,3 C 81 % 1011,5 hPa 0,0 l/m 4,8 km/h (1 Bft) SO 135 0 min 0,000 mm 0,0 UV-I 0 W/m -4,5 C -1,7 C 6,4 km/h (2 Bft) 100,00 %
29.12.2017 18:16 -1,7 C 3,3 C 81 % 1011,5 hPa 0,0 l/m 4,8 km/h (1 Bft) SO 135 0 min 0,000 mm 0,0 UV-I 0 W/m -4,5 C -1,7 C 8,0 km/h (2 Bft) 95,65 %
29.12.2017 18:17 -1,7 C 3,3 C 81 % 1011,5 hPa 0,0 l/m 4,8 km/h (1 Bft) SO 135 0 min 0,000 mm 0,0 UV-I 0 W/m -4,5 C -1,7 C 8,0 km/h (2 Bft) 100,00 %
29.12.2017 18:18 -1,7 C 3,3 C 81 % 1011,4 hPa 0,0 l/m 3,2 km/h (1 Bft) S-SO 157 0 min 0,000 mm 0,0 UV-I 0 W/m -4,5 C -1,7 C 4,8 km/h (1 Bft) 95,65 %
29.12.2017 18:19 -1,7 C 3,3 C 81 % 1011,4 hPa 0,0 l/m 4,8 km/h (1 Bft) SO 135 0 min 0,000 mm 0,0 UV-I 0 W/m -4,5 C -1,7 C 8,0 km/h (2 Bft) 91,30 %
29.12.2017 18:20 -1,8 C 3,3 C 81 % 1011,4 hPa 0,0 l/m 4,8 km/h (1 Bft) SO 135 0 min 0,000 mm 0,0 UV-I 0 W/m -4,6 C -1,8 C 6,4 km/h (2 Bft) 100,00 %
29.12.2017 18:21 -1,7 C 3,3 C 80 % 1011,4 hPa 0,0 l/m 4,8 km/h (1 Bft) SO 135 0 min 0,000 mm 0,0 UV-I 0 W/m -4,7 C -1,7 C 6,4 km/h (2 Bft) 95,65 %
29.12.2017 18:22 -1,8 C 3,3 C 81 % 1011,4 hPa 0,0 l/m 3,2 km/h (1 Bft) SO 135 0 min 0,000 mm 0,0 UV-I 0 W/m -4,6 C -1,8 C 4,8 km/h (1 Bft) 100,00 %
29.12.2017 18:23 -1,8 C 3,3 C 81 % 1011,4 hPa 0,0 l/m 3,2 km/h (1 Bft) SO 135 0 min 0,000 mm 0,0 UV-I 0 W/m -4,6 C -1,8 C 4,8 km/h (1 Bft) 95,65 %
29.12.2017 18:24 -1,8 C 3,3 C 81 % 1011,4 hPa 0,0 l/m 3,2 km/h (1 Bft) SO 135 0 min 0,000 mm 0,0 UV-I 0 W/m -4,6 C -1,8 C 4,8 km/h (1 Bft) 100,00 %
29.12.2017 18:25 -1,8 C 3,3 C 80 % 1011,4 hPa 0,0 l/m 3,2 km/h (1 Bft) SO 135 0 min 0,000 mm 0,0 UV-I 0 W/m -4,8 C -1,8 C 4,8 km/h (1 Bft) 95,65 %
29.12.2017 18:26 -1,8 C 3,3 C 80 % 1011,3 hPa 0,0 l/m 1,6 km/h (1 Bft) SO 135 0 min 0,000 mm 0,0 UV-I 0 W/m -4,8 C -1,8 C 3,2 km/h (1 Bft) 95,65 %
29.12.2017 18:27 -1,8 C 3,3 C 80 % 1011,3 hPa 0,0 l/m 3,2 km/h (1 Bft) S-SO 157 0 min 0,000 mm 0,0 UV-I 0 W/m -4,8 C -1,8 C 4,8 km/h (1 Bft) 95,65 %
29.12.2017 18:28 -1,8 C 3,3 C 79 % 1011,3 hPa 0,0 l/m 3,2 km/h (1 Bft) S-SO 157 0 min 0,000 mm 0,0 UV-I 0 W/m -4,9 C -1,8 C 6,4 km/h (2 Bft) 95,65 %
29.12.2017 18:29 -1,8 C 3,3 C 79 % 1011,3 hPa 0,0 l/m 4,8 km/h (1 Bft) S-SO 157 0 min 0,000 mm 0,0 UV-I 0 W/m -4,9 C -1,8 C 6,4 km/h (2 Bft) 100,00 %
29.12.2017 18:30 -1,7 C 3,3 C 79 % 1011,2 hPa 0,0 l/m 3,2 km/h (1 Bft) S-SO 157 0 min 0,000 mm 0,0 UV-I 0 W/m -4,8 C -1,7 C 6,4 km/h (2 Bft) 95,65 %
29.12.2017 18:31 -1,7 C 3,3 C 78 % 1011,1 hPa 0,0 l/m 3,2 km/h (1 Bft) S-SO 157 0 min 0,000 mm 0,0 UV-I 0 W/m -5,0 C -1,7 C 4,8 km/h (1 Bft) 100,00 %
29.12.2017 18:32 -1,7 C 3,3 C 78 % 1011,1 hPa 0,0 l/m 3,2 km/h (1 Bft) S-SO 157 0 min 0,000 mm 0,0 UV-I 0 W/m -5,0 C -1,7 C 4,8 km/h (1 Bft) 95,65 %
29.12.2017 18:33 -1,7 C 3,3 C 79 % 1011,2 hPa 0,0 l/m 3,2 km/h (1 Bft) S-SO 157 0 min 0,000 mm 0,0 UV-I 0 W/m -4,8 C -1,7 C 4,8 km/h (1 Bft) 95,65 %
29.12.2017 18:34 -1,8 C 3,3 C 79 % 1011,2 hPa 0,0 l/m 3,2 km/h (1 Bft) S-SO 157 0 min 0,000 mm 0,0 UV-I 0 W/m -4,9 C -1,8 C 4,8 km/h (1 Bft) 95,65 %
29.12.2017 18:35 -1,8 C 3,3 C 79 % 1011,2 hPa 0,0 l/m 3,2 km/h (1 Bft) S-SO 157 0 min 0,000 mm 0,0 UV-I 0 W/m -4,9 C -1,8 C 4,8 km/h (1 Bft) 100,00 %
29.12.2017 18:36 -1,8 C 3,3 C 79 % 1011,2 hPa 0,0 l/m 1,6 km/h (1 Bft) S-SO 157 0 min 0,000 mm 0,0 UV-I 0 W/m -4,9 C -1,8 C 3,2 km/h (1 Bft) 95,65 %
29.12.2017 18:37 -1,8 C 3,3 C 79 % 1011,2 hPa 0,0 l/m 1,6 km/h (1 Bft) S-SO 157 0 min 0,000 mm 0,0 UV-I 0 W/m -4,9 C -1,8 C 4,8 km/h (1 Bft) 95,65 %
29.12.2017 18:38 -1,8 C 3,3 C 79 % 1011,2 hPa 0,0 l/m 3,2 km/h (1 Bft) S-SO 157 0 min 0,000 mm 0,0 UV-I 0 W/m -4,9 C -1,8 C 4,8 km/h (1 Bft) 100,00 %
29.12.2017 18:39 -1,8 C 3,3 C 79 % 1011,2 hPa 0,0 l/m 1,6 km/h (1 Bft) S-SO 157 0 min 0,000 mm 0,0 UV-I 0 W/m -4,9 C -1,8 C 4,8 km/h (1 Bft) 95,65 %
29.12.2017 18:40 -1,8 C 3,3 C 79 % 1011,2 hPa 0,0 l/m 3,2 km/h (1 Bft) S-SO 157 0 min 0,000 mm 0,0 UV-I 0 W/m -4,9 C -1,8 C 3,2 km/h (1 Bft) 95,65 %
29.12.2017 18:41 -1,9 C 3,3 C 79 % 1011,2 hPa 0,0 l/m 1,6 km/h (1 Bft) S-SO 157 0 min 0,000 mm 0,0 UV-I 0 W/m -5,0 C -1,9 C 4,8 km/h (1 Bft) 95,65 %
29.12.2017 18:42 -1,8 C 3,3 C 79 % 1011,2 hPa 0,0 l/m 1,6 km/h (1 Bft) S-SO 157 0 min 0,000 mm 0,0 UV-I 0 W/m -4,9 C -1,8 C 3,2 km/h (1 Bft) 100,00 %
29.12.2017 18:43 -1,8 C 3,3 C 79 % 1011,1 hPa 0,0 l/m 3,2 km/h (1 Bft) S-SO 157 0 min 0,000 mm 0,0 UV-I 0 W/m -4,9 C -1,8 C 6,4 km/h (2 Bft) 91,30 %
29.12.2017 18:44 -1,8 C 3,3 C 78 % 1011,1 hPa 0,0 l/m 4,8 km/h (1 Bft) S-SO 157 0 min 0,000 mm 0,0 UV-I 0 W/m -5,1 C -1,8 C 6,4 km/h (2 Bft) 95,65 %
29.12.2017 18:45 -1,8 C 3,3 C 78 % 1011,1 hPa 0,0 l/m 4,8 km/h (1 Bft) S-SO 157 0 min 0,000 mm 0,0 UV-I 0 W/m -5,1 C -1,8 C 6,4 km/h (2 Bft) 91,30 %
29.12.2017 18:46 -1,8 C 3,3 C 79 % 1011,0 hPa 0,0 l/m 3,2 km/h (1 Bft) S-SO 157 0 min 0,000 mm 0,0 UV-I 0 W/m -4,9 C -1,8 C 4,8 km/h (1 Bft) 91,30 %
29.12.2017 18:47 -1,9 C 3,3 C 79 % 1011,0 hPa 0,0 l/m 4,8 km/h (1 Bft) SO 135 0 min 0,000 mm 0,0 UV-I 0 W/m -5,0 C -1,9 C 6,4 km/h (2 Bft) 95,65 %
29.12.2017 18:48 -1,9 C 3,3 C 79 % 1010,9 hPa 0,0 l/m 6,4 km/h (2 Bft) SO 135 0 min 0,000 mm 0,0 UV-I 0 W/m -5,0 C -1,9 C 11,3 km/h (2 Bft) 95,65 %
29.12.2017 18:49 -2,0 C 3,3 C 79 % 1010,9 hPa 0,0 l/m 6,4 km/h (2 Bft) SO 135 0 min 0,000 mm 0,0 UV-I 0 W/m -5,1 C -2,0 C 8,0 km/h (2 Bft) 100,00 %
29.12.2017 18:50 -2,1 C 3,3 C 79 % 1010,9 hPa 0,0 l/m 4,8 km/h (1 Bft) SO 135 0 min 0,000 mm 0,0 UV-I 0 W/m -5,2 C -2,1 C 8,0 km/h (2 Bft) 95,65 %
29.12.2017 18:51 -2,1 C 3,3 C 80 % 1010,8 hPa 0,0 l/m 4,8 km/h (1 Bft) O-SO 112 0 min 0,000 mm 0,0 UV-I 0 W/m -5,1 C -2,1 C 6,4 km/h (2 Bft) 100,00 %
29.12.2017 18:52 -2,2 C 3,3 C 80 % 1010,8 hPa 0,0 l/m 3,2 km/h (1 Bft) SO 135 0 min 0,000 mm 0,0 UV-I 0 W/m -5,2 C -2,2 C 4,8 km/h (1 Bft) 91,30 %
29.12.2017 18:53 -2,2 C 3,3 C 81 % 1010,8 hPa 0,0 l/m 4,8 km/h (1 Bft) SO 135 0 min 0,000 mm 0,0 UV-I 0 W/m -5,0 C -2,2 C 6,4 km/h (2 Bft) 95,65 %
29.12.2017 18:54 -2,2 C 3,3 C 80 % 1010,8 hPa 0,0 l/m 6,4 km/h (2 Bft) SO 135 0 min 0,000 mm 0,0 UV-I 0 W/m -5,2 C -2,2 C 9,7 km/h (2 Bft) 95,65 %
29.12.2017 18:55 -2,2 C 3,3 C 81 % 1010,7 hPa 0,0 l/m 8,0 km/h (2 Bft) O-SO 112 0 min 0,000 mm 0,0 UV-I 0 W/m -5,0 C -4,0 C 9,7 km/h (2 Bft) 100,00 %
29.12.2017 18:56 -2,2 C 3,3 C 81 % 1010,7 hPa 0,0 l/m 8,0 km/h (2 Bft) O-SO 112 0 min 0,000 mm 0,0 UV-I 0 W/m -5,0 C -4,0 C 11,3 km/h (2 Bft) 91,30 %
29.12.2017 18:57 -2,2 C 3,3 C 80 % 1010,7 hPa 0,0 l/m 8,0 km/h (2 Bft) O-SO 112 0 min 0,000 mm 0,0 UV-I 0 W/m -5,2 C -4,0 C 12,9 km/h (3 Bft) 100,00 %
29.12.2017 18:58 -2,2 C 3,3 C 80 % 1010,6 hPa 0,0 l/m 6,4 km/h (2 Bft) SO 135 0 min 0,000 mm 0,0 UV-I 0 W/m -5,2 C -2,2 C 9,7 km/h (2 Bft) 95,65 %
29.12.2017 18:59 -2,2 C 3,3 C 79 % 1010,6 hPa 0,0 l/m 8,0 km/h (2 Bft) O-SO 112 0 min 0,000 mm 0,0 UV-I 0 W/m -5,3 C -4,0 C 12,9 km/h (3 Bft) 95,65 %
29.12.2017 19:00 -2,2 C 3,3 C 79 % 1010,6 hPa 0,0 l/m 9,7 km/h (2 Bft) O-SO 112 0 min 0,000 mm 0,0 UV-I 0 W/m -5,3 C -5,6 C 12,9 km/h (3 Bft) 95,65 %
29.12.2017 19:01 -2,2 C 3,3 C 79 % 1010,5 hPa 0,0 l/m 8,0 km/h (2 Bft) O-SO 112 0 min 0,000 mm 0,0 UV-I 0 W/m -5,3 C -4,0 C 11,3 km/h (2 Bft) 95,65 %
29.12.2017 19:02 -2,2 C 3,3 C 78 % 1010,5 hPa 0,0 l/m 11,3 km/h (2 Bft) O-SO 112 0 min 0,000 mm 0,0 UV-I 0 W/m -5,5 C -7,0 C 12,9 km/h (3 Bft) 91,30 %
29.12.2017 19:03 -2,2 C 3,3 C 78 % 1010,5 hPa 0,0 l/m 9,7 km/h (2 Bft) O-SO 112 0 min 0,000 mm 0,0 UV-I 0 W/m -5,5 C -5,6 C 12,9 km/h (3 Bft) 95,65 %
29.12.2017 19:04 -2,1 C 3,3 C 77 % 1010,4 hPa 0,0 l/m 12,9 km/h (3 Bft) O-SO 112 0 min 0,000 mm 0,0 UV-I 0 W/m -5,6 C -8,1 C 16,1 km/h (3 Bft) 100,00 %
29.12.2017 19:05 -2,1 C 3,3 C 77 % 1010,4 hPa 0,0 l/m 11,3 km/h (2 Bft) O-SO 112 0 min 0,000 mm 0,0 UV-I 0 W/m -5,6 C -6,9 C 12,9 km/h (3 Bft) 95,65 %
29.12.2017 19:06 -2,1 C 3,3 C 77 % 1010,4 hPa 0,0 l/m 11,3 km/h (2 Bft) O-SO 112 0 min 0,000 mm 0,0 UV-I 0 W/m -5,6 C -6,9 C 14,5 km/h (3 Bft) 100,00 %
29.12.2017 19:07 -2,1 C 3,3 C 77 % 1010,4 hPa 0,0 l/m 9,7 km/h (2 Bft) O-SO 112 0 min 0,000 mm 0,0 UV-I 0 W/m -5,6 C -5,5 C 12,9 km/h (3 Bft) 100,00 %
29.12.2017 19:08 -2,1 C 3,3 C 77 % 1010,4 hPa 0,0 l/m 9,7 km/h (2 Bft) O-SO 112 0 min 0,000 mm 0,0 UV-I 0 W/m -5,6 C -5,5 C 14,5 km/h (3 Bft) 95,65 %
29.12.2017 19:09 -2,1 C 3,3 C 78 % 1010,4 hPa 0,0 l/m 8,0 km/h (2 Bft) O-SO 112 0 min 0,000 mm 0,0 UV-I 0 W/m -5,4 C -3,9 C 12,9 km/h (3 Bft) 100,00 %
29.12.2017 19:10 -2,1 C 3,9 C 78 % 1010,4 hPa 0,0 l/m 11,3 km/h (2 Bft) O-SO 112 0 min 0,000 mm 0,0 UV-I 0 W/m -5,4 C -6,9 C 12,9 km/h (3 Bft) 100,00 %
29.12.2017 19:11 -2,1 C 3,9 C 78 % 1010,4 hPa 0,0 l/m 9,7 km/h (2 Bft) O-SO 112 0 min 0,000 mm 0,0 UV-I 0 W/m -5,4 C -5,5 C 12,9 km/h (3 Bft) 100,00 %
29.12.2017 19:12 -2,1 C 3,3 C 78 % 1010,4 hPa 0,0 l/m 9,7 km/h (2 Bft) O-SO 112 0 min 0,000 mm 0,0 UV-I 0 W/m -5,4 C -5,5 C 12,9 km/h (3 Bft) 100,00 %
29.12.2017 19:13 -2,1 C 3,3 C 78 % 1010,4 hPa 0,0 l/m 11,3 km/h (2 Bft) O-SO 112 0 min 0,000 mm 0,0 UV-I 0 W/m -5,4 C -6,9 C 14,5 km/h (3 Bft) 100,00 %
29.12.2017 19:14 -2,1 C 3,3 C 78 % 1010,4 hPa 0,0 l/m 11,3 km/h (2 Bft) O-SO 112 0 min 0,000 mm 0,0 UV-I 0 W/m -5,4 C -6,9 C 14,5 km/h (3 Bft) 100,00 %
29.12.2017 19:15 -2,2 C 3,3 C 78 % 1010,4 hPa 0,0 l/m 9,7 km/h (2 Bft) O-SO 112 0 min 0,000 mm 0,0 UV-I 0 W/m -5,5 C -5,6 C 12,9 km/h (3 Bft) 95,65 %
29.12.2017 19:16 -2,1 C 3,3 C 78 % 1010,4 hPa 0,0 l/m 11,3 km/h (2 Bft) O-SO 112 0 min 0,000 mm 0,0 UV-I 0 W/m -5,4 C -6,9 C 14,5 km/h (3 Bft) 100,00 %
29.12.2017 19:17 -2,1 C 3,3 C 78 % 1010,5 hPa 0,0 l/m 12,9 km/h (3 Bft) O-SO 112 0 min 0,000 mm 0,0 UV-I 0 W/m -5,4 C -8,1 C 16,1 km/h (3 Bft) 100,00 %
29.12.2017 19:18 -2,1 C 3,3 C 78 % 1010,5 hPa 0,0 l/m 8,0 km/h (2 Bft) O-SO 112 0 min 0,000 mm 0,0 UV-I 0 W/m -5,4 C -3,9 C 12,9 km/h (3 Bft) 100,00 %
29.12.2017 19:19 -2,1 C 3,3 C 79 % 1010,5 hPa 0,0 l/m 11,3 km/h (2 Bft) O-SO 112 0 min 0,000 mm 0,0 UV-I 0 W/m -5,2 C -6,9 C 14,5 km/h (3 Bft) 100,00 %
29.12.2017 19:20 -2,1 C 3,3 C 79 % 1010,4 hPa 0,0 l/m 11,3 km/h (2 Bft) O-SO 112 0 min 0,000 mm 0,0 UV-I 0 W/m -5,2 C -6,9 C 12,9 km/h (3 Bft) 95,65 %
29.12.2017 19:21 -2,2 C 3,3 C 79 % 1010,4 hPa 0,0 l/m 11,3 km/h (2 Bft) O-SO 112 0 min 0,000 mm 0,0 UV-I 0 W/m -5,3 C -7,0 C 14,5 km/h (3 Bft) 100,00 %
29.12.2017 19:22 -2,2 C 3,3 C 79 % 1010,4 hPa 0,0 l/m 11,3 km/h (2 Bft) O-SO 112 0 min 0,000 mm 0,0 UV-I 0 W/m -5,3 C -7,0 C 16,1 km/h (3 Bft) 95,65 %
29.12.2017 19:23 -2,2 C 3,3 C 79 % 1010,4 hPa 0,0 l/m 12,9 km/h (3 Bft) O-SO 112 0 min 0,000 mm 0,0 UV-I 0 W/m -5,3 C -8,2 C 16,1 km/h (3 Bft) 100,00 %
29.12.2017 19:24 -2,2 C 3,3 C 79 % 1010,3 hPa 0,0 l/m 11,3 km/h (2 Bft) O-SO 112 0 min 0,000 mm 0,0 UV-I 0 W/m -5,3 C -7,0 C 14,5 km/h (3 Bft) 95,65 %
29.12.2017 19:25 -2,2 C 3,3 C 79 % 1010,4 hPa 0,0 l/m 9,7 km/h (2 Bft) SO 135 0 min 0,000 mm 0,0 UV-I 0 W/m -5,3 C -5,6 C 12,9 km/h (3 Bft) 100,00 %
29.12.2017 19:26 -2,2 C 3,3 C 79 % 1010,4 hPa 0,0 l/m 8,0 km/h (2 Bft) SO 135 0 min 0,000 mm 0,0 UV-I 0 W/m -5,3 C -4,0 C 12,9 km/h (3 Bft) 100,00 %
29.12.2017 19:27 -2,2 C 3,3 C 79 % 1010,4 hPa 0,0 l/m 9,7 km/h (2 Bft) SO 135 0 min 0,000 mm 0,0 UV-I 0 W/m -5,3 C -5,6 C 12,9 km/h (3 Bft) 100,00 %
29.12.2017 19:28 -2,2 C 3,3 C 79 % 1010,4 hPa 0,0 l/m 8,0 km/h (2 Bft) O-SO 112 0 min 0,000 mm 0,0 UV-I 0 W/m -5,3 C -4,0 C 11,3 km/h (2 Bft) 100,00 %
29.12.2017 19:29 -2,2 C 3,3 C 79 % 1010,3 hPa 0,0 l/m 4,8 km/h (1 Bft) SO 135 0 min 0,000 mm 0,0 UV-I 0 W/m -5,3 C -2,2 C 9,7 km/h (2 Bft) 95,65 %
29.12.2017 19:30 -2,2 C 3,3 C 79 % 1010,3 hPa 0,0 l/m 6,4 km/h (2 Bft) SO 135 0 min 0,000 mm 0,0 UV-I 0 W/m -5,3 C -2,2 C 11,3 km/h (2 Bft) 95,65 %
29.12.2017 19:31 -2,3 C 3,3 C 79 % 1010,3 hPa 0,0 l/m 8,0 km/h (2 Bft) O-SO 112 0 min 0,000 mm 0,0 UV-I 0 W/m -5,4 C -4,1 C 11,3 km/h (2 Bft) 100,00 %
29.12.2017 19:32 -2,3 C 3,3 C 79 % 1010,3 hPa 0,0 l/m 4,8 km/h (1 Bft) SO 135 0 min 0,000 mm 0,0 UV-I 0 W/m -5,4 C -2,3 C 8,0 km/h (2 Bft) 95,65 %
29.12.2017 19:33 -2,3 C 3,3 C 80 % 1010,3 hPa 0,0 l/m 4,8 km/h (1 Bft) O-SO 112 0 min 0,000 mm 0,0 UV-I 0 W/m -5,3 C -2,3 C 8,0 km/h (2 Bft) 100,00 %
29.12.2017 19:34 -2,3 C 3,3 C 80 % 1010,3 hPa 0,0 l/m 6,4 km/h (2 Bft) SO 135 0 min 0,000 mm 0,0 UV-I 0 W/m -5,3 C -2,3 C 12,9 km/h (3 Bft) 100,00 %
29.12.2017 19:35 -2,3 C 3,3 C 80 % 1010,3 hPa 0,0 l/m 6,4 km/h (2 Bft) SO 135 0 min 0,000 mm 0,0 UV-I 0 W/m -5,3 C -2,3 C 11,3 km/h (2 Bft) 100,00 %
29.12.2017 19:36 -2,3 C 3,3 C 80 % 1010,3 hPa 0,0 l/m 8,0 km/h (2 Bft) SO 135 0 min 0,000 mm 0,0 UV-I 0 W/m -5,3 C -4,1 C 12,9 km/h (3 Bft) 91,30 %
29.12.2017 19:37 -2,3 C 3,3 C 79 % 1010,3 hPa 0,0 l/m 4,8 km/h (1 Bft) SO 135 0 min 0,000 mm 0,0 UV-I 0 W/m -5,4 C -2,3 C 9,7 km/h (2 Bft) 100,00 %
29.12.2017 19:38 -2,3 C 3,3 C 79 % 1010,3 hPa 0,0 l/m 4,8 km/h (1 Bft) S-SO 157 0 min 0,000 mm 0,0 UV-I 0 W/m -5,4 C -2,3 C 8,0 km/h (2 Bft) 100,00 %
29.12.2017 19:39 -2,3 C 3,3 C 79 % 1010,3 hPa 0,0 l/m 4,8 km/h (1 Bft) SO 135 0 min 0,000 mm 0,0 UV-I 0 W/m -5,4 C -2,3 C 9,7 km/h (2 Bft) 100,00 %
29.12.2017 19:40 -2,3 C 3,3 C 79 % 1010,3 hPa 0,0 l/m 6,4 km/h (2 Bft) SO 135 0 min 0,000 mm 0,0 UV-I 0 W/m -5,4 C -2,3 C 11,3 km/h (2 Bft) 100,00 %
29.12.2017 19:41 -2,4 C 3,3 C 79 % 1010,3 hPa 0,0 l/m 6,4 km/h (2 Bft) SO 135 0 min 0,000 mm 0,0 UV-I 0 W/m -5,5 C -2,4 C 11,3 km/h (2 Bft) 100,00 %
29.12.2017 19:42 -2,4 C 3,3 C 80 % 1010,3 hPa 0,0 l/m 4,8 km/h (1 Bft) SO 135 0 min 0,000 mm 0,0 UV-I 0 W/m -5,4 C -2,4 C 6,4 km/h (2 Bft) 100,00 %
29.12.2017 19:43 -2,4 C 3,3 C 80 % 1010,3 hPa 0,0 l/m 1,6 km/h (1 Bft) SO 135 0 min 0,000 mm 0,0 UV-I 0 W/m -5,4 C -2,4 C 4,8 km/h (1 Bft) 95,65 %
29.12.2017 19:44 -2,5 C 3,3 C 80 % 1010,3 hPa 0,0 l/m 3,2 km/h (1 Bft) SO 135 0 min 0,000 mm 0,0 UV-I 0 W/m -5,5 C -2,5 C 4,8 km/h (1 Bft) 100,00 %
29.12.2017 19:45 -2,6 C 3,3 C 80 % 1010,3 hPa 0,0 l/m 1,6 km/h (1 Bft) SO 135 0 min 0,000 mm 0,0 UV-I 0 W/m -5,6 C -2,6 C 3,2 km/h (1 Bft) 95,65 %
29.12.2017 19:46 -2,7 C 3,3 C 80 % 1010,3 hPa 0,0 l/m 1,6 km/h (1 Bft) SO 135 0 min 0,000 mm 0,0 UV-I 0 W/m -5,7 C -2,7 C 3,2 km/h (1 Bft) 100,00 %
29.12.2017 19:47 -2,7 C 3,3 C 81 % 1010,3 hPa 0,0 l/m 0,0 km/h (0 Bft) N 0 0 min 0,000 mm 0,0 UV-I 0 W/m -5,5 C -2,7 C 0,0 km/h (0 Bft) 100,00 %
29.12.2017 19:48 -2,7 C 3,3 C 81 % 1010,3 hPa 0,0 l/m 0,0 km/h (0 Bft) N 0 0 min 0,000 mm 0,0 UV-I 0 W/m -5,5 C -2,7 C 0,0 km/h (0 Bft) 100,00 %
29.12.2017 19:49 -2,7 C 3,3 C 81 % 1010,3 hPa 0,0 l/m 0,0 km/h (0 Bft) N 0 0 min 0,000 mm 0,0 UV-I 0 W/m -5,5 C -2,7 C 0,0 km/h (0 Bft) 100,00 %
29.12.2017 19:50 -2,7 C 3,3 C 81 % 1010,2 hPa 0,0 l/m 0,0 km/h (0 Bft) N 0 0 min 0,000 mm 0,0 UV-I 0 W/m -5,5 C -2,7 C 0,0 km/h (0 Bft) 95,65 %
29.12.2017 19:51 -2,7 C 3,3 C 81 % 1010,2 hPa 0,0 l/m 0,0 km/h (0 Bft) N 0 0 min 0,000 mm 0,0 UV-I 0 W/m -5,5 C -2,7 C 0,0 km/h (0 Bft) 95,65 %
29.12.2017 19:52 -2,7 C 3,3 C 81 % 1010,1 hPa 0,0 l/m 0,0 km/h (0 Bft) N 0 0 min 0,000 mm 0,0 UV-I 0 W/m -5,5 C -2,7 C 0,0 km/h (0 Bft) 100,00 %
29.12.2017 19:53 -2,7 C 3,3 C 81 % 1010,1 hPa 0,0 l/m 0,0 km/h (0 Bft) N 0 0 min 0,000 mm 0,0 UV-I 0 W/m -5,5 C -2,7 C 0,0 km/h (0 Bft) 95,65 %
29.12.2017 19:54 -2,7 C 3,3 C 82 % 1010,1 hPa 0,0 l/m 0,0 km/h (0 Bft) N 0 0 min 0,000 mm 0,0 UV-I 0 W/m -5,3 C -2,7 C 0,0 km/h (0 Bft) 100,00 %
29.12.2017 19:55 -2,6 C 3,3 C 81 % 1010,2 hPa 0,0 l/m 1,6 km/h (1 Bft) SO 135 0 min 0,000 mm 0,0 UV-I 0 W/m -5,4 C -2,6 C 1,6 km/h (1 Bft) 100,00 %
29.12.2017 19:56 -2,6 C 3,3 C 82 % 1010,2 hPa 0,0 l/m 1,6 km/h (1 Bft) SO 135 0 min 0,000 mm 0,0 UV-I 0 W/m -5,2 C -2,6 C 3,2 km/h (1 Bft) 100,00 %
29.12.2017 19:57 -2,7 C 3,3 C 82 % 1010,2 hPa 0,0 l/m 1,6 km/h (1 Bft) SO 135 0 min 0,000 mm 0,0 UV-I 0 W/m -5,3 C -2,7 C 1,6 km/h (1 Bft) 95,65 %
29.12.2017 19:58 -2,7 C 3,3 C 82 % 1010,1 hPa 0,0 l/m 0,0 km/h (0 Bft) N 0 0 min 0,000 mm 0,0 UV-I 0 W/m -5,3 C -2,7 C 0,0 km/h (0 Bft) 95,65 %
29.12.2017 19:59 -2,8 C 3,3 C 82 % 1010,1 hPa 0,0 l/m 1,6 km/h (1 Bft) SO 135 0 min 0,000 mm 0,0 UV-I 0 W/m -5,4 C -2,8 C 4,8 km/h (1 Bft) 100,00 %
29.12.2017 20:00 -2,8 C 3,3 C 81 % 1010,1 hPa 0,0 l/m 1,6 km/h (1 Bft) SO 135 0 min 0,000 mm 0,0 UV-I 0 W/m -5,6 C -2,8 C 3,2 km/h (1 Bft) 100,00 %
29.12.2017 20:01 -2,7 C 3,3 C 81 % 1010,0 hPa 0,0 l/m 3,2 km/h (1 Bft) SO 135 0 min 0,000 mm 0,0 UV-I 0 W/m -5,5 C -2,7 C 4,8 km/h (1 Bft) 100,00 %
29.12.2017 20:02 -2,7 C 3,3 C 81 % 1010,0 hPa 0,0 l/m 3,2 km/h (1 Bft) SO 135 0 min 0,000 mm 0,0 UV-I 0 W/m -5,5 C -2,7 C 3,2 km/h (1 Bft) 95,65 %
29.12.2017 20:03 -2,6 C 3,3 C 80 % 1009,9 hPa 0,0 l/m 3,2 km/h (1 Bft) SO 135 0 min 0,000 mm 0,0 UV-I 0 W/m -5,6 C -2,6 C 4,8 km/h (1 Bft) 100,00 %
29.12.2017 20:04 -2,6 C 3,3 C 80 % 1009,9 hPa 0,0 l/m 4,8 km/h (1 Bft) SO 135 0 min 0,000 mm 0,0 UV-I 0 W/m -5,6 C -2,6 C 4,8 km/h (1 Bft) 91,30 %
29.12.2017 20:05 -2,6 C 3,3 C 80 % 1009,9 hPa 0,0 l/m 4,8 km/h (1 Bft) O 90 0 min 0,000 mm 0,0 UV-I 0 W/m -5,6 C -2,6 C 6,4 km/h (2 Bft) 95,65 %
29.12.2017 20:06 -2,7 C 3,3 C 79 % 1009,9 hPa 0,0 l/m 3,2 km/h (1 Bft) O 90 0 min 0,000 mm 0,0 UV-I 0 W/m -5,8 C -2,7 C 4,8 km/h (1 Bft) 95,65 %
29.12.2017 20:07 -2,7 C 3,3 C 79 % 1009,8 hPa 0,0 l/m 6,4 km/h (2 Bft) O 90 0 min 0,000 mm 0,0 UV-I 0 W/m -5,8 C -2,7 C 8,0 km/h (2 Bft) 91,30 %
29.12.2017 20:08 -2,6 C 3,3 C 79 % 1009,7 hPa 0,0 l/m 8,0 km/h (2 Bft) O 90 0 min 0,000 mm 0,0 UV-I 0 W/m -5,7 C -4,4 C 11,3 km/h (2 Bft) 100,00 %
29.12.2017 20:09 -2,6 C 3,3 C 79 % 1009,7 hPa 0,0 l/m 6,4 km/h (2 Bft) O 90 0 min 0,000 mm 0,0 UV-I 0 W/m -5,7 C -2,6 C 9,7 km/h (2 Bft) 95,65 %
29.12.2017 20:10 -2,6 C 3,3 C 79 % 1009,7 hPa 0,0 l/m 8,0 km/h (2 Bft) O-NO 67 0 min 0,000 mm 0,0 UV-I 0 W/m -5,7 C -4,4 C 11,3 km/h (2 Bft) 100,00 %
29.12.2017 20:11 -2,5 C 3,3 C 79 % 1009,7 hPa 0,0 l/m 9,7 km/h (2 Bft) O 90 0 min 0,000 mm 0,0 UV-I 0 W/m -5,6 C -5,9 C 14,5 km/h (3 Bft) 86,96 %
29.12.2017 20:12 -2,5 C 3,3 C 79 % 1009,6 hPa 0,0 l/m 9,7 km/h (2 Bft) O 90 0 min 0,000 mm 0,0 UV-I 0 W/m -5,6 C -5,9 C 12,9 km/h (3 Bft) 95,65 %
29.12.2017 20:13 -2,5 C 3,3 C 79 % 1009,6 hPa 0,0 l/m 6,4 km/h (2 Bft) O 90 0 min 0,000 mm 0,0 UV-I 0 W/m -5,6 C -2,5 C 9,7 km/h (2 Bft) 95,65 %
29.12.2017 20:14 -2,6 C 3,3 C 79 % 1009,5 hPa 0,0 l/m 11,3 km/h (2 Bft) O-SO 112 0 min 0,000 mm 0,0 UV-I 0 W/m -5,7 C -7,4 C 12,9 km/h (3 Bft) 95,65 %
29.12.2017 20:15 -2,6 C 3,3 C 80 % 1009,5 hPa 0,0 l/m 8,0 km/h (2 Bft) O 90 0 min 0,000 mm 0,0 UV-I 0 W/m -5,6 C -4,4 C 11,3 km/h (2 Bft) 95,65 %
29.12.2017 20:16 -2,7 C 3,3 C 80 % 1009,4 hPa 0,0 l/m 6,4 km/h (2 Bft) O-SO 112 0 min 0,000 mm 0,0 UV-I 0 W/m -5,7 C -2,7 C 9,7 km/h (2 Bft) 95,65 %
29.12.2017 20:17 -2,7 C 3,3 C 80 % 1009,4 hPa 0,0 l/m 6,4 km/h (2 Bft) O 90 0 min 0,000 mm 0,0 UV-I 0 W/m -5,7 C -2,7 C 9,7 km/h (2 Bft) 95,65 %
29.12.2017 20:18 -2,8 C 3,3 C 80 % 1009,4 hPa 0,0 l/m 11,3 km/h (2 Bft) O-SO 112 0 min 0,000 mm 0,0 UV-I 0 W/m -5,8 C -7,7 C 12,9 km/h (3 Bft) 91,30 %
29.12.2017 20:19 -2,8 C 3,3 C 81 % 1009,4 hPa 0,0 l/m 9,7 km/h (2 Bft) O-SO 112 0 min 0,000 mm 0,0 UV-I 0 W/m -5,6 C -6,3 C 12,9 km/h (3 Bft) 91,30 %
29.12.2017 20:20 -2,8 C 3,3 C 81 % 1009,4 hPa 0,0 l/m 8,0 km/h (2 Bft) O-SO 112 0 min 0,000 mm 0,0 UV-I 0 W/m -5,6 C -4,6 C 12,9 km/h (3 Bft) 91,30 %
29.12.2017 20:21 -2,8 C 3,3 C 81 % 1009,4 hPa 0,0 l/m 6,4 km/h (2 Bft) O-SO 112 0 min 0,000 mm 0,0 UV-I 0 W/m -5,6 C -2,8 C 9,7 km/h (2 Bft) 91,30 %
29.12.2017 20:22 -2,8 C 3,3 C 81 % 1009,4 hPa 0,0 l/m 4,8 km/h (1 Bft) O-SO 112 0 min 0,000 mm 0,0 UV-I 0 W/m -5,6 C -2,8 C 6,4 km/h (2 Bft) 100,00 %
29.12.2017 20:23 -2,8 C 3,3 C 81 % 1009,4 hPa 0,0 l/m 6,4 km/h (2 Bft) SO 135 0 min 0,000 mm 0,0 UV-I 0 W/m -5,6 C -2,8 C 9,7 km/h (2 Bft) 95,65 %
29.12.2017 20:24 -2,8 C 3,3 C 82 % 1009,4 hPa 0,0 l/m 4,8 km/h (1 Bft) SO 135 0 min 0,000 mm 0,0 UV-I 0 W/m -5,4 C -2,8 C 6,4 km/h (2 Bft) 100,00 %
29.12.2017 20:25 -2,8 C 3,3 C 82 % 1009,3 hPa 0,0 l/m 6,4 km/h (2 Bft) SO 135 0 min 0,000 mm 0,0 UV-I 0 W/m -5,4 C -2,8 C 11,3 km/h (2 Bft) 86,96 %
29.12.2017 20:26 -2,8 C 3,3 C 82 % 1009,4 hPa 0,0 l/m 4,8 km/h (1 Bft) SO 135 0 min 0,000 mm 0,0 UV-I 0 W/m -5,4 C -2,8 C 11,3 km/h (2 Bft) 100,00 %
29.12.2017 20:27 -2,8 C 3,3 C 82 % 1009,3 hPa 0,0 l/m 8,0 km/h (2 Bft) O-SO 112 0 min 0,000 mm 0,0 UV-I 0 W/m -5,4 C -4,6 C 11,3 km/h (2 Bft) 95,65 %
29.12.2017 20:28 -2,8 C 3,3 C 82 % 1009,3 hPa 0,0 l/m 4,8 km/h (1 Bft) O-SO 112 0 min 0,000 mm 0,0 UV-I 0 W/m -5,4 C -2,8 C 9,7 km/h (2 Bft) 95,65 %
29.12.2017 20:29 -2,8 C 3,3 C 82 % 1009,3 hPa 0,0 l/m 6,4 km/h (2 Bft) SO 135 0 min 0,000 mm 0,0 UV-I 0 W/m -5,4 C -2,8 C 8,0 km/h (2 Bft) 91,30 %
29.12.2017 20:30 -2,8 C 3,3 C 82 % 1009,3 hPa 0,0 l/m 8,0 km/h (2 Bft) O-SO 112 0 min 0,000 mm 0,0 UV-I 0 W/m -5,4 C -4,6 C 11,3 km/h (2 Bft) 95,65 %
29.12.2017 20:31 -2,8 C 3,3 C 82 % 1009,3 hPa 0,0 l/m 6,4 km/h (2 Bft) O-SO 112 0 min 0,000 mm 0,0 UV-I 0 W/m -5,4 C -2,8 C 9,7 km/h (2 Bft) 100,00 %
29.12.2017 20:32 -2,8 C 3,3 C 82 % 1009,3 hPa 0,0 l/m 9,7 km/h (2 Bft) O-SO 112 0 min 0,000 mm 0,0 UV-I 0 W/m -5,4 C -6,3 C 12,9 km/h (3 Bft) 91,30 %
29.12.2017 20:33 -2,8 C 3,3 C 82 % 1009,4 hPa 0,0 l/m 4,8 km/h (1 Bft) SO 135 0 min 0,000 mm 0,0 UV-I 0 W/m -5,4 C -2,8 C 11,3 km/h (2 Bft) 100,00 %
29.12.2017 20:34 -2,8 C 3,3 C 82 % 1009,3 hPa 0,0 l/m 4,8 km/h (1 Bft) O-SO 112 0 min 0,000 mm 0,0 UV-I 0 W/m -5,4 C -2,8 C 11,3 km/h (2 Bft) 95,65 %
29.12.2017 20:35 -2,8 C 3,3 C 82 % 1009,3 hPa 0,0 l/m 4,8 km/h (1 Bft) S-SO 157 0 min 0,000 mm 0,0 UV-I 0 W/m -5,4 C -2,8 C 8,0 km/h (2 Bft) 100,00 %
29.12.2017 20:36 -2,8 C 3,3 C 82 % 1009,3 hPa 0,0 l/m 3,2 km/h (1 Bft) S-SO 157 0 min 0,000 mm 0,0 UV-I 0 W/m -5,4 C -2,8 C 6,4 km/h (2 Bft) 95,65 %
29.12.2017 20:37 -2,8 C 3,3 C 82 % 1009,3 hPa 0,0 l/m 3,2 km/h (1 Bft) SO 135 0 min 0,000 mm 0,0 UV-I 0 W/m -5,4 C -2,8 C 8,0 km/h (2 Bft) 95,65 %
29.12.2017 20:38 -2,9 C 3,3 C 82 % 1009,2 hPa 0,0 l/m 1,6 km/h (1 Bft) SO 135 0 min 0,000 mm 0,0 UV-I 0 W/m -5,5 C -2,9 C 3,2 km/h (1 Bft) 100,00 %
29.12.2017 20:39 -2,9 C 3,3 C 82 % 1009,3 hPa 0,0 l/m 1,6 km/h (1 Bft) SO 135 0 min 0,000 mm 0,0 UV-I 0 W/m -5,5 C -2,9 C 4,8 km/h (1 Bft) 91,30 %
29.12.2017 20:40 -3,0 C 3,3 C 83 % 1009,2 hPa 0,0 l/m 3,2 km/h (1 Bft) SO 135 0 min 0,000 mm 0,0 UV-I 0 W/m -5,5 C -3,0 C 4,8 km/h (1 Bft) 100,00 %
29.12.2017 20:41 -3,1 C 3,3 C 83 % 1009,2 hPa 0,0 l/m 3,2 km/h (1 Bft) SO 135 0 min 0,000 mm 0,0 UV-I 0 W/m -5,6 C -3,1 C 6,4 km/h (2 Bft) 91,30 %
29.12.2017 20:42 -3,1 C 3,3 C 83 % 1009,2 hPa 0,0 l/m 1,6 km/h (1 Bft) SO 135 0 min 0,000 mm 0,0 UV-I 0 W/m -5,6 C -3,1 C 3,2 km/h (1 Bft) 100,00 %
29.12.2017 20:43 -3,1 C 3,3 C 83 % 1009,1 hPa 0,0 l/m 1,6 km/h (1 Bft) SO 135 0 min 0,000 mm 0,0 UV-I 0 W/m -5,6 C -3,1 C 3,2 km/h (1 Bft) 95,65 %
29.12.2017 20:44 -3,1 C 3,3 C 83 % 1009,2 hPa 0,0 l/m 0,0 km/h (0 Bft) SO 135 0 min 0,000 mm 0,0 UV-I 0 W/m -5,6 C -3,1 C 1,6 km/h (1 Bft) 100,00 %
29.12.2017 20:45 -3,1 C 3,3 C 83 % 1009,2 hPa 0,0 l/m 0,0 km/h (0 Bft) N 0 0 min 0,000 mm 0,0 UV-I 0 W/m -5,6 C -3,1 C 0,0 km/h (0 Bft) 95,65 %
29.12.2017 20:46 -3,1 C 3,3 C 83 % 1009,2 hPa 0,0 l/m 0,0 km/h (0 Bft) N 0 0 min 0,000 mm 0,0 UV-I 0 W/m -5,6 C -3,1 C 0,0 km/h (0 Bft) 91,30 %
29.12.2017 20:47 -3,2 C 3,3 C 83 % 1009,1 hPa 0,0 l/m 0,0 km/h (0 Bft) SO 135 0 min 0,000 mm 0,0 UV-I 0 W/m -5,7 C -3,2 C 4,8 km/h (1 Bft) 100,00 %
29.12.2017 20:48 -3,2 C 3,3 C 84 % 1009,1 hPa 0,0 l/m 3,2 km/h (1 Bft) SO 135 0 min 0,000 mm 0,0 UV-I 0 W/m -5,5 C -3,2 C 6,4 km/h (2 Bft) 86,96 %
29.12.2017 20:49 -3,2 C 3,3 C 84 % 1009,1 hPa 0,0 l/m 3,2 km/h (1 Bft) SO 135 0 min 0,000 mm 0,0 UV-I 0 W/m -5,5 C -3,2 C 4,8 km/h (1 Bft) 95,65 %
29.12.2017 20:50 -3,2 C 3,3 C 84 % 1009,1 hPa 0,0 l/m 3,2 km/h (1 Bft) SO 135 0 min 0,000 mm 0,0 UV-I 0 W/m -5,5 C -3,2 C 3,2 km/h (1 Bft) 95,65 %
29.12.2017 20:51 -3,2 C 3,3 C 84 % 1009,1 hPa 0,0 l/m 1,6 km/h (1 Bft) SO 135 0 min 0,000 mm 0,0 UV-I 0 W/m -5,5 C -3,2 C 3,2 km/h (1 Bft) 100,00 %
29.12.2017 20:52 -3,3 C 3,3 C 84 % 1009,0 hPa 0,0 l/m 0,0 km/h (0 Bft) SO 135 0 min 0,000 mm 0,0 UV-I 0 W/m -5,6 C -3,3 C 1,6 km/h (1 Bft) 95,65 %
29.12.2017 20:53 -3,3 C 3,3 C 84 % 1009,0 hPa 0,0 l/m 1,6 km/h (1 Bft) SO 135 0 min 0,000 mm 0,0 UV-I 0 W/m -5,6 C -3,3 C 3,2 km/h (1 Bft) 95,65 %
29.12.2017 20:54 -3,3 C 3,3 C 84 % 1009,0 hPa 0,0 l/m 3,2 km/h (1 Bft) SO 135 0 min 0,000 mm 0,0 UV-I 0 W/m -5,6 C -3,3 C 4,8 km/h (1 Bft) 100,00 %
29.12.2017 20:55 -3,3 C 3,3 C 84 % 1009,0 hPa 0,0 l/m 1,6 km/h (1 Bft) SO 135 0 min 0,000 mm 0,0 UV-I 0 W/m -5,6 C -3,3 C 3,2 km/h (1 Bft) 95,65 %
29.12.2017 20:56 -3,3 C 3,3 C 84 % 1009,0 hPa 0,0 l/m 1,6 km/h (1 Bft) SO 135 0 min 0,000 mm 0,0 UV-I 0 W/m -5,6 C -3,3 C 3,2 km/h (1 Bft) 100,00 %
29.12.2017 20:57 -3,3 C 3,3 C 84 % 1009,0 hPa 0,0 l/m 1,6 km/h (1 Bft) SO 135 0 min 0,000 mm 0,0 UV-I 0 W/m -5,6 C -3,3 C 3,2 km/h (1 Bft) 100,00 %
29.12.2017 20:58 -3,3 C 3,3 C 84 % 1009,0 hPa 0,0 l/m 1,6 km/h (1 Bft) SO 135 0 min 0,000 mm 0,0 UV-I 0 W/m -5,6 C -3,3 C 3,2 km/h (1 Bft) 100,00 %
29.12.2017 20:59 -3,3 C 3,3 C 84 % 1008,9 hPa 0,0 l/m 1,6 km/h (1 Bft) SO 135 0 min 0,000 mm 0,0 UV-I 0 W/m -5,6 C -3,3 C 3,2 km/h (1 Bft) 100,00 %
29.12.2017 21:00 -3,3 C 3,3 C 84 % 1008,9 hPa 0,0 l/m 1,6 km/h (1 Bft) SO 135 0 min 0,000 mm 0,0 UV-I 0 W/m -5,6 C -3,3 C 3,2 km/h (1 Bft) 95,65 %
29.12.2017 21:01 -3,3 C 3,3 C 84 % 1008,9 hPa 0,0 l/m 1,6 km/h (1 Bft) SO 135 0 min 0,000 mm 0,0 UV-I 0 W/m -5,6 C -3,3 C 3,2 km/h (1 Bft) 100,00 %
29.12.2017 21:02 -3,3 C 3,3 C 83 % 1009,0 hPa 0,0 l/m 1,6 km/h (1 Bft) SO 135 0 min 0,000 mm 0,0 UV-I 0 W/m -5,8 C -3,3 C 3,2 km/h (1 Bft) 100,00 %
29.12.2017 21:03 -3,3 C 3,3 C 84 % 1009,0 hPa 0,0 l/m 1,6 km/h (1 Bft) SO 135 0 min 0,000 mm 0,0 UV-I 0 W/m -5,6 C -3,3 C 1,6 km/h (1 Bft) 95,65 %
29.12.2017 21:04 -3,3 C 3,3 C 84 % 1008,9 hPa 0,0 l/m 1,6 km/h (1 Bft) SO 135 0 min 0,000 mm 0,0 UV-I 0 W/m -5,6 C -3,3 C 3,2 km/h (1 Bft) 100,00 %
29.12.2017 21:05 -3,3 C 3,3 C 84 % 1008,9 hPa 0,0 l/m 0,0 km/h (0 Bft) SO 135 0 min 0,000 mm 0,0 UV-I 0 W/m -5,6 C -3,3 C 1,6 km/h (1 Bft) 100,00 %
29.12.2017 21:06 -3,2 C 3,3 C 83 % 1008,9 hPa 0,0 l/m 1,6 km/h (1 Bft) SO 135 0 min 0,000 mm 0,0 UV-I 0 W/m -5,7 C -3,2 C 3,2 km/h (1 Bft) 95,65 %
29.12.2017 21:07 -3,2 C 3,3 C 83 % 1008,9 hPa 0,0 l/m 1,6 km/h (1 Bft) SO 135 0 min 0,000 mm 0,0 UV-I 0 W/m -5,7 C -3,2 C 1,6 km/h (1 Bft) 95,65 %
29.12.2017 21:08 -3,1 C 3,3 C 83 % 1008,8 hPa 0,0 l/m 1,6 km/h (1 Bft) SO 135 0 min 0,000 mm 0,0 UV-I 0 W/m -5,6 C -3,1 C 3,2 km/h (1 Bft) 100,00 %
29.12.2017 21:09 -3,1 C 3,3 C 83 % 1008,9 hPa 0,0 l/m 1,6 km/h (1 Bft) SO 135 0 min 0,000 mm 0,0 UV-I 0 W/m -5,6 C -3,1 C 3,2 km/h (1 Bft) 100,00 %
29.12.2017 21:10 -3,0 C 3,3 C 83 % 1008,9 hPa 0,0 l/m 3,2 km/h (1 Bft) SO 135 0 min 0,000 mm 0,0 UV-I 0 W/m -5,5 C -3,0 C 4,8 km/h (1 Bft) 100,00 %
29.12.2017 21:11 -2,9 C 3,3 C 82 % 1008,9 hPa 0,0 l/m 4,8 km/h (1 Bft) O-NO 67 0 min 0,000 mm 0,0 UV-I 0 W/m -5,5 C -2,9 C 6,4 km/h (2 Bft) 100,00 %
29.12.2017 21:12 -3,0 C 3,3 C 83 % 1008,9 hPa 0,0 l/m 4,8 km/h (1 Bft) O-NO 67 0 min 0,000 mm 0,0 UV-I 0 W/m -5,5 C -3,0 C 4,8 km/h (1 Bft) 100,00 %
29.12.2017 21:13 -3,0 C 3,3 C 83 % 1008,9 hPa 0,0 l/m 4,8 km/h (1 Bft) O-NO 67 0 min 0,000 mm 0,0 UV-I 0 W/m -5,5 C -3,0 C 4,8 km/h (1 Bft) 91,30 %
29.12.2017 21:14 -3,0 C 3,3 C 83 % 1008,9 hPa 0,0 l/m 3,2 km/h (1 Bft) O-NO 67 0 min 0,000 mm 0,0 UV-I 0 W/m -5,5 C -3,0 C 4,8 km/h (1 Bft) 95,65 %
29.12.2017 21:15 -3,0 C 3,3 C 83 % 1008,8 hPa 0,0 l/m 3,2 km/h (1 Bft) O-NO 67 0 min 0,000 mm 0,0 UV-I 0 W/m -5,5 C -3,0 C 3,2 km/h (1 Bft) 95,65 %
29.12.2017 21:16 -2,9 C 3,3 C 83 % 1008,9 hPa 0,0 l/m 3,2 km/h (1 Bft) O-NO 67 0 min 0,000 mm 0,0 UV-I 0 W/m -5,4 C -2,9 C 3,2 km/h (1 Bft) 100,00 %
29.12.2017 21:17 -2,9 C 3,3 C 83 % 1008,9 hPa 0,0 l/m 3,2 km/h (1 Bft) O-NO 67 0 min 0,000 mm 0,0 UV-I 0 W/m -5,4 C -2,9 C 3,2 km/h (1 Bft) 95,65 %
29.12.2017 21:18 -2,9 C 3,3 C 83 % 1008,8 hPa 0,0 l/m 1,6 km/h (1 Bft) O-NO 67 0 min 0,000 mm 0,0 UV-I 0 W/m -5,4 C -2,9 C 1,6 km/h (1 Bft) 95,65 %
29.12.2017 21:19 -2,9 C 3,3 C 84 % 1008,8 hPa 0,0 l/m 0,0 km/h (0 Bft) N 0 0 min 0,000 mm 0,0 UV-I 0 W/m -5,2 C -2,9 C 0,0 km/h (0 Bft) 95,65 %
29.12.2017 21:20 -2,9 C 3,3 C 84 % 1008,8 hPa 0,0 l/m 1,6 km/h (1 Bft) O-NO 67 0 min 0,000 mm 0,0 UV-I 0 W/m -5,2 C -2,9 C 3,2 km/h (1 Bft) 100,00 %
29.12.2017 21:21 -2,9 C 3,3 C 84 % 1008,8 hPa 0,0 l/m 1,6 km/h (1 Bft) O-NO 67 0 min 0,000 mm 0,0 UV-I 0 W/m -5,2 C -2,9 C 3,2 km/h (1 Bft) 91,30 %
29.12.2017 21:22 -2,9 C 3,3 C 84 % 1008,7 hPa 0,0 l/m 1,6 km/h (1 Bft) O-NO 67 0 min 0,000 mm 0,0 UV-I 0 W/m -5,2 C -2,9 C 3,2 km/h (1 Bft) 100,00 %
29.12.2017 21:23 -3,0 C 3,3 C 84 % 1008,8 hPa 0,0 l/m 3,2 km/h (1 Bft) O-NO 67 0 min 0,000 mm 0,0 UV-I 0 W/m -5,3 C -3,0 C 3,2 km/h (1 Bft) 91,30 %
29.12.2017 21:24 -3,0 C 3,3 C 85 % 1008,8 hPa 0,0 l/m 3,2 km/h (1 Bft) O-NO 67 0 min 0,000 mm 0,0 UV-I 0 W/m -5,2 C -3,0 C 4,8 km/h (1 Bft) 100,00 %
29.12.2017 21:25 -3,0 C 3,3 C 85 % 1008,7 hPa 0,0 l/m 3,2 km/h (1 Bft) O-NO 67 0 min 0,000 mm 0,0 UV-I 0 W/m -5,2 C -3,0 C 4,8 km/h (1 Bft) 95,65 %
29.12.2017 21:26 -3,1 C 3,3 C 85 % 1008,7 hPa 0,0 l/m 4,8 km/h (1 Bft) O-NO 67 0 min 0,000 mm 0,0 UV-I 0 W/m -5,3 C -3,1 C 4,8 km/h (1 Bft) 95,65 %
29.12.2017 21:27 -3,1 C 3,3 C 86 % 1008,7 hPa 0,0 l/m 4,8 km/h (1 Bft) O-NO 67 0 min 0,000 mm 0,0 UV-I 0 W/m -5,1 C -3,1 C 4,8 km/h (1 Bft) 100,00 %
29.12.2017 21:28 -3,2 C 3,3 C 86 % 1008,7 hPa 0,0 l/m 4,8 km/h (1 Bft) O-NO 67 0 min 0,000 mm 0,0 UV-I 0 W/m -5,2 C -3,2 C 4,8 km/h (1 Bft) 91,30 %
29.12.2017 21:29 -3,2 C 3,3 C 86 % 1008,6 hPa 0,0 l/m 4,8 km/h (1 Bft) O-NO 67 0 min 0,000 mm 0,0 UV-I 0 W/m -5,2 C -3,2 C 4,8 km/h (1 Bft) 95,65 %
29.12.2017 21:30 -3,2 C 3,3 C 87 % 1008,6 hPa 0,0 l/m 4,8 km/h (1 Bft) O-NO 67 0 min 0,000 mm 0,0 UV-I 0 W/m -5,0 C -3,2 C 4,8 km/h (1 Bft) 95,65 %
29.12.2017 21:31 -3,2 C 3,3 C 87 % 1008,6 hPa 0,0 l/m 4,8 km/h (1 Bft) O-NO 67 0 min 0,000 mm 0,0 UV-I 0 W/m -5,0 C -3,2 C 6,4 km/h (2 Bft) 95,65 %
29.12.2017 21:32 -3,2 C 3,3 C 87 % 1008,6 hPa 0,0 l/m 4,8 km/h (1 Bft) O-NO 67 0 min 0,000 mm 0,0 UV-I 0 W/m -5,0 C -3,2 C 6,4 km/h (2 Bft) 95,65 %
29.12.2017 21:33 -3,2 C 3,3 C 87 % 1008,5 hPa 0,0 l/m 1,6 km/h (1 Bft) O-NO 67 0 min 0,000 mm 0,0 UV-I 0 W/m -5,0 C -3,2 C 4,8 km/h (1 Bft) 95,65 %
29.12.2017 21:34 -3,2 C 3,3 C 87 % 1008,6 hPa 0,0 l/m 3,2 km/h (1 Bft) O-NO 67 0 min 0,000 mm 0,0 UV-I 0 W/m -5,0 C -3,2 C 4,8 km/h (1 Bft) 95,65 %
29.12.2017 21:35 -3,2 C 3,3 C 87 % 1008,6 hPa 0,0 l/m 3,2 km/h (1 Bft) O-NO 67 0 min 0,000 mm 0,0 UV-I 0 W/m -5,0 C -3,2 C 4,8 km/h (1 Bft) 95,65 %
29.12.2017 21:36 -3,3 C 3,3 C 88 % 1008,5 hPa 0,0 l/m 3,2 km/h (1 Bft) O-NO 67 0 min 0,000 mm 0,0 UV-I 0 W/m -5,0 C -3,3 C 4,8 km/h (1 Bft) 100,00 %
29.12.2017 21:37 -3,3 C 3,3 C 87 % 1008,6 hPa 0,0 l/m 3,2 km/h (1 Bft) O-NO 67 0 min 0,000 mm 0,0 UV-I 0 W/m -5,1 C -3,3 C 4,8 km/h (1 Bft) 100,00 %
29.12.2017 21:38 -3,3 C 3,3 C 87 % 1008,5 hPa 0,0 l/m 3,2 km/h (1 Bft) O-NO 67 0 min 0,000 mm 0,0 UV-I 0 W/m -5,1 C -3,3 C 4,8 km/h (1 Bft) 100,00 %
29.12.2017 21:39 -3,3 C 3,3 C 87 % 1008,4 hPa 0,0 l/m 3,2 km/h (1 Bft) O-NO 67 0 min 0,000 mm 0,0 UV-I 0 W/m -5,1 C -3,3 C 4,8 km/h (1 Bft) 100,00 %
29.12.2017 21:40 -3,3 C 3,3 C 87 % 1008,4 hPa 0,0 l/m 4,8 km/h (1 Bft) O-NO 67 0 min 0,000 mm 0,0 UV-I 0 W/m -5,1 C -3,3 C 6,4 km/h (2 Bft) 100,00 %
29.12.2017 21:41 -3,3 C 3,3 C 87 % 1008,4 hPa 0,0 l/m 3,2 km/h (1 Bft) O-NO 67 0 min 0,000 mm 0,0 UV-I 0 W/m -5,1 C -3,3 C 4,8 km/h (1 Bft) 100,00 %
29.12.2017 21:42 -3,3 C 3,3 C 87 % 1008,4 hPa 0,0 l/m 3,2 km/h (1 Bft) O-NO 67 0 min 0,000 mm 0,0 UV-I 0 W/m -5,1 C -3,3 C 4,8 km/h (1 Bft) 95,65 %
29.12.2017 21:43 -3,3 C 3,3 C 87 % 1008,4 hPa 0,0 l/m 3,2 km/h (1 Bft) O-NO 67 0 min 0,000 mm 0,0 UV-I 0 W/m -5,1 C -3,3 C 4,8 km/h (1 Bft) 100,00 %
29.12.2017 21:44 -3,3 C 3,3 C 87 % 1008,5 hPa 0,0 l/m 3,2 km/h (1 Bft) O-NO 67 0 min 0,000 mm 0,0 UV-I 0 W/m -5,1 C -3,3 C 4,8 km/h (1 Bft) 100,00 %
29.12.2017 21:45 -3,3 C 3,3 C 86 % 1008,4 hPa 0,0 l/m 4,8 km/h (1 Bft) O-NO 67 0 min 0,000 mm 0,0 UV-I 0 W/m -5,3 C -3,3 C 4,8 km/h (1 Bft) 100,00 %
29.12.2017 21:46 -3,3 C 3,3 C 87 % 1008,4 hPa 0,0 l/m 4,8 km/h (1 Bft) O-NO 67 0 min 0,000 mm 0,0 UV-I 0 W/m -5,1 C -3,3 C 6,4 km/h (2 Bft) 100,00 %
29.12.2017 21:47 -3,3 C 3,3 C 87 % 1008,4 hPa 0,0 l/m 4,8 km/h (1 Bft) O-NO 67 0 min 0,000 mm 0,0 UV-I 0 W/m -5,1 C -3,3 C 6,4 km/h (2 Bft) 95,65 %
29.12.2017 21:48 -3,3 C 3,3 C 87 % 1008,4 hPa 0,0 l/m 4,8 km/h (1 Bft) O-NO 67 0 min 0,000 mm 0,0 UV-I 0 W/m -5,1 C -3,3 C 4,8 km/h (1 Bft) 100,00 %
29.12.2017 21:49 -3,3 C 3,3 C 87 % 1008,4 hPa 0,0 l/m 4,8 km/h (1 Bft) O-NO 67 0 min 0,000 mm 0,0 UV-I 0 W/m -5,1 C -3,3 C 6,4 km/h (2 Bft) 95,65 %
29.12.2017 21:50 -3,3 C 3,3 C 87 % 1008,4 hPa 0,0 l/m 4,8 km/h (1 Bft) O-NO 67 0 min 0,000 mm 0,0 UV-I 0 W/m -5,1 C -3,3 C 6,4 km/h (2 Bft) 100,00 %
29.12.2017 21:51 -3,3 C 3,3 C 86 % 1008,4 hPa 0,0 l/m 6,4 km/h (2 Bft) O-NO 67 0 min 0,000 mm 0,0 UV-I 0 W/m -5,3 C -3,2 C 6,4 km/h (2 Bft) 100,00 %
29.12.2017 21:52 -3,3 C 3,3 C 86 % 1008,4 hPa 0,0 l/m 6,4 km/h (2 Bft) NO 45 0 min 0,000 mm 0,0 UV-I 0 W/m -5,3 C -3,2 C 8,0 km/h (2 Bft) 95,65 %
29.12.2017 21:53 -3,2 C 3,3 C 86 % 1008,4 hPa 0,0 l/m 4,8 km/h (1 Bft) NO 45 0 min 0,000 mm 0,0 UV-I 0 W/m -5,2 C -3,2 C 6,4 km/h (2 Bft) 100,00 %
29.12.2017 21:54 -3,2 C 3,3 C 86 % 1008,4 hPa 0,0 l/m 3,2 km/h (1 Bft) NO 45 0 min 0,000 mm 0,0 UV-I 0 W/m -5,2 C -3,2 C 4,8 km/h (1 Bft) 91,30 %
29.12.2017 21:55 -3,2 C 3,3 C 86 % 1008,4 hPa 0,0 l/m 1,6 km/h (1 Bft) NO 45 0 min 0,000 mm 0,0 UV-I 0 W/m -5,2 C -3,2 C 3,2 km/h (1 Bft) 100,00 %
29.12.2017 21:56 -3,2 C 3,3 C 86 % 1008,4 hPa 0,0 l/m 4,8 km/h (1 Bft) NO 45 0 min 0,000 mm 0,0 UV-I 0 W/m -5,2 C -3,2 C 6,4 km/h (2 Bft) 95,65 %
29.12.2017 21:57 -3,2 C 3,3 C 86 % 1008,4 hPa 0,0 l/m 4,8 km/h (1 Bft) NO 45 0 min 0,000 mm 0,0 UV-I 0 W/m -5,2 C -3,2 C 4,8 km/h (1 Bft) 100,00 %
29.12.2017 21:58 -3,2 C 3,3 C 86 % 1008,4 hPa 0,0 l/m 4,8 km/h (1 Bft) NO 45 0 min 0,000 mm 0,0 UV-I 0 W/m -5,2 C -3,2 C 8,0 km/h (2 Bft) 100,00 %
29.12.2017 21:59 -3,2 C 3,3 C 86 % 1008,5 hPa 0,0 l/m 4,8 km/h (1 Bft) O-NO 67 0 min 0,000 mm 0,0 UV-I 0 W/m -5,2 C -3,2 C 6,4 km/h (2 Bft) 100,00 %
29.12.2017 22:00 -3,2 C 3,3 C 86 % 1008,4 hPa 0,0 l/m 4,8 km/h (1 Bft) NO 45 0 min 0,000 mm 0,0 UV-I 0 W/m -5,2 C -3,2 C 4,8 km/h (1 Bft) 100,00 %
29.12.2017 22:01 -3,2 C 3,3 C 86 % 1008,4 hPa 0,0 l/m 4,8 km/h (1 Bft) NO 45 0 min 0,000 mm 0,0 UV-I 0 W/m -5,2 C -3,2 C 6,4 km/h (2 Bft) 100,00 %
29.12.2017 22:02 -3,2 C 3,3 C 85 % 1008,4 hPa 0,0 l/m 4,8 km/h (1 Bft) O-NO 67 0 min 0,000 mm 0,0 UV-I 0 W/m -5,4 C -3,2 C 6,4 km/h (2 Bft) 100,00 %
29.12.2017 22:03 -3,1 C 3,3 C 85 % 1008,4 hPa 0,0 l/m 6,4 km/h (2 Bft) O-NO 67 0 min 0,000 mm 0,0 UV-I 0 W/m -5,3 C -3,1 C 8,0 km/h (2 Bft) 95,65 %
29.12.2017 22:04 -3,1 C 3,3 C 85 % 1008,3 hPa 0,0 l/m 8,0 km/h (2 Bft) O-NO 67 0 min 0,000 mm 0,0 UV-I 0 W/m -5,3 C -4,9 C 9,7 km/h (2 Bft) 95,65 %
29.12.2017 22:05 -3,1 C 3,3 C 85 % 1008,3 hPa 0,0 l/m 8,0 km/h (2 Bft) O-NO 67 0 min 0,000 mm 0,0 UV-I 0 W/m -5,3 C -4,9 C 9,7 km/h (2 Bft) 95,65 %
29.12.2017 22:06 -3,1 C 3,3 C 85 % 1008,2 hPa 0,0 l/m 8,0 km/h (2 Bft) O-NO 67 0 min 0,000 mm 0,0 UV-I 0 W/m -5,3 C -4,9 C 9,7 km/h (2 Bft) 100,00 %
29.12.2017 22:07 -3,1 C 3,3 C 85 % 1008,3 hPa 0,0 l/m 6,4 km/h (2 Bft) NO 45 0 min 0,000 mm 0,0 UV-I 0 W/m -5,3 C -3,1 C 9,7 km/h (2 Bft) 95,65 %
29.12.2017 22:08 -3,1 C 3,3 C 85 % 1008,2 hPa 0,0 l/m 6,4 km/h (2 Bft) NO 45 0 min 0,000 mm 0,0 UV-I 0 W/m -5,3 C -3,1 C 9,7 km/h (2 Bft) 100,00 %
29.12.2017 22:09 -3,1 C 3,3 C 85 % 1008,2 hPa 0,0 l/m 8,0 km/h (2 Bft) NO 45 0 min 0,000 mm 0,0 UV-I 0 W/m -5,3 C -4,9 C 9,7 km/h (2 Bft) 100,00 %
29.12.2017 22:10 -3,2 C 3,3 C 85 % 1008,2 hPa 0,0 l/m 8,0 km/h (2 Bft) NO 45 0 min 0,000 mm 0,0 UV-I 0 W/m -5,4 C -5,0 C 11,3 km/h (2 Bft) 95,65 %
29.12.2017 22:11 -3,2 C 3,3 C 86 % 1008,2 hPa 0,0 l/m 8,0 km/h (2 Bft) NO 45 0 min 0,000 mm 0,0 UV-I 0 W/m -5,2 C -5,0 C 9,7 km/h (2 Bft) 100,00 %
29.12.2017 22:12 -3,2 C 3,3 C 86 % 1008,1 hPa 0,0 l/m 8,0 km/h (2 Bft) NO 45 0 min 0,000 mm 0,0 UV-I 0 W/m -5,2 C -5,0 C 9,7 km/h (2 Bft) 95,65 %
29.12.2017 22:13 -3,2 C 3,3 C 86 % 1008,1 hPa 0,0 l/m 8,0 km/h (2 Bft) NO 45 0 min 0,000 mm 0,0 UV-I 0 W/m -5,2 C -5,0 C 9,7 km/h (2 Bft) 100,00 %
29.12.2017 22:14 -3,2 C 3,3 C 86 % 1008,1 hPa 0,0 l/m 8,0 km/h (2 Bft) O-NO 67 0 min 0,000 mm 0,0 UV-I 0 W/m -5,2 C -5,0 C 9,7 km/h (2 Bft) 100,00 %
29.12.2017 22:15 -3,2 C 3,3 C 86 % 1008,1 hPa 0,0 l/m 8,0 km/h (2 Bft) NO 45 0 min 0,000 mm 0,0 UV-I 0 W/m -5,2 C -5,0 C 12,9 km/h (3 Bft) 95,65 %
29.12.2017 22:16 -3,2 C 3,3 C 86 % 1008,1 hPa 0,0 l/m 8,0 km/h (2 Bft) NO 45 0 min 0,000 mm 0,0 UV-I 0 W/m -5,2 C -5,0 C 12,9 km/h (3 Bft) 100,00 %
29.12.2017 22:17 -3,2 C 3,3 C 86 % 1008,0 hPa 0,0 l/m 9,7 km/h (2 Bft) NO 45 0 min 0,000 mm 0,0 UV-I 0 W/m -5,2 C -6,7 C 9,7 km/h (2 Bft) 95,65 %
29.12.2017 22:18 -3,2 C 3,3 C 86 % 1008,1 hPa 0,0 l/m 8,0 km/h (2 Bft) O-NO 67 0 min 0,000 mm 0,0 UV-I 0 W/m -5,2 C -5,0 C 11,3 km/h (2 Bft) 100,00 %
29.12.2017 22:19 -3,2 C 3,3 C 86 % 1008,0 hPa 0,0 l/m 8,0 km/h (2 Bft) NO 45 0 min 0,000 mm 0,0 UV-I 0 W/m -5,2 C -5,0 C 11,3 km/h (2 Bft) 100,00 %
29.12.2017 22:20 -3,2 C 3,3 C 86 % 1008,0 hPa 0,0 l/m 8,0 km/h (2 Bft) NO 45 0 min 0,000 mm 0,0 UV-I 0 W/m -5,2 C -5,0 C 9,7 km/h (2 Bft) 100,00 %
29.12.2017 22:21 -3,2 C 3,3 C 86 % 1008,0 hPa 0,0 l/m 8,0 km/h (2 Bft) O-NO 67 0 min 0,000 mm 0,0 UV-I 0 W/m -5,2 C -5,0 C 12,9 km/h (3 Bft) 100,00 %
29.12.2017 22:22 -3,2 C 3,3 C 86 % 1008,1 hPa 0,0 l/m 9,7 km/h (2 Bft) O-NO 67 0 min 0,000 mm 0,0 UV-I 0 W/m -5,2 C -6,7 C 11,3 km/h (2 Bft) 100,00 %
29.12.2017 22:23 -3,2 C 3,3 C 86 % 1008,1 hPa 0,0 l/m 8,0 km/h (2 Bft) NO 45 0 min 0,000 mm 0,0 UV-I 0 W/m -5,2 C -5,0 C 9,7 km/h (2 Bft) 91,30 %
29.12.2017 22:24 -3,2 C 3,3 C 86 % 1008,1 hPa 0,0 l/m 6,4 km/h (2 Bft) O-NO 67 0 min 0,000 mm 0,0 UV-I 0 W/m -5,2 C -3,2 C 11,3 km/h (2 Bft) 91,30 %
29.12.2017 22:25 -3,2 C 3,3 C 86 % 1008,1 hPa 0,0 l/m 6,4 km/h (2 Bft) O-NO 67 0 min 0,000 mm 0,0 UV-I 0 W/m -5,2 C -3,2 C 8,0 km/h (2 Bft) 95,65 %
29.12.2017 22:26 -3,2 C 3,3 C 86 % 1008,1 hPa 0,0 l/m 6,4 km/h (2 Bft) O-NO 67 0 min 0,000 mm 0,0 UV-I 0 W/m -5,2 C -3,2 C 8,0 km/h (2 Bft) 100,00 %
29.12.2017 22:27 -3,2 C 3,3 C 86 % 1008,1 hPa 0,0 l/m 6,4 km/h (2 Bft) O-NO 67 0 min 0,000 mm 0,0 UV-I 0 W/m -5,2 C -3,2 C 8,0 km/h (2 Bft) 91,30 %
29.12.2017 22:28 -3,2 C 3,3 C 87 % 1008,1 hPa 0,0 l/m 6,4 km/h (2 Bft) O-NO 67 0 min 0,000 mm 0,0 UV-I 0 W/m -5,0 C -3,2 C 6,4 km/h (2 Bft) 100,00 %
29.12.2017 22:29 -3,2 C 3,3 C 87 % 1008,1 hPa 0,0 l/m 4,8 km/h (1 Bft) NO 45 0 min 0,000 mm 0,0 UV-I 0 W/m -5,0 C -3,2 C 6,4 km/h (2 Bft) 91,30 %
29.12.2017 22:30 -3,2 C 3,3 C 87 % 1008,1 hPa 0,0 l/m 4,8 km/h (1 Bft) NO 45 0 min 0,000 mm 0,0 UV-I 0 W/m -5,0 C -3,2 C 8,0 km/h (2 Bft) 95,65 %
29.12.2017 22:31 -3,2 C 3,3 C 87 % 1008,1 hPa 0,0 l/m 6,4 km/h (2 Bft) O-NO 67 0 min 0,000 mm 0,0 UV-I 0 W/m -5,0 C -3,2 C 8,0 km/h (2 Bft) 95,65 %
29.12.2017 22:32 -3,1 C 3,3 C 87 % 1008,1 hPa 0,0 l/m 6,4 km/h (2 Bft) NO 45 0 min 0,000 mm 0,0 UV-I 0 W/m -4,9 C -3,1 C 8,0 km/h (2 Bft) 91,30 %
29.12.2017 22:33 -3,1 C 3,3 C 87 % 1008,1 hPa 0,0 l/m 6,4 km/h (2 Bft) O-NO 67 0 min 0,000 mm 0,0 UV-I 0 W/m -4,9 C -3,1 C 9,7 km/h (2 Bft) 100,00 %
29.12.2017 22:34 -3,1 C 3,3 C 87 % 1008,0 hPa 0,0 l/m 6,4 km/h (2 Bft) O-NO 67 0 min 0,000 mm 0,0 UV-I 0 W/m -4,9 C -3,1 C 8,0 km/h (2 Bft) 91,30 %
29.12.2017 22:35 -3,1 C 3,3 C 87 % 1008,0 hPa 0,0 l/m 6,4 km/h (2 Bft) O-NO 67 0 min 0,000 mm 0,0 UV-I 0 W/m -4,9 C -3,1 C 8,0 km/h (2 Bft) 100,00 %
29.12.2017 22:36 -3,1 C 3,3 C 87 % 1008,0 hPa 0,0 l/m 6,4 km/h (2 Bft) NO 45 0 min 0,000 mm 0,0 UV-I 0 W/m -4,9 C -3,1 C 8,0 km/h (2 Bft) 91,30 %
29.12.2017 22:37 -3,1 C 3,3 C 87 % 1008,0 hPa 0,0 l/m 6,4 km/h (2 Bft) NO 45 0 min 0,000 mm 0,0 UV-I 0 W/m -4,9 C -3,1 C 8,0 km/h (2 Bft) 100,00 %
29.12.2017 22:38 -3,1 C 3,3 C 87 % 1008,0 hPa 0,0 l/m 6,4 km/h (2 Bft) NO 45 0 min 0,000 mm 0,0 UV-I 0 W/m -4,9 C -3,1 C 6,4 km/h (2 Bft) 86,96 %
29.12.2017 22:39 -3,1 C 3,3 C 87 % 1007,9 hPa 0,0 l/m 4,8 km/h (1 Bft) NO 45 0 min 0,000 mm 0,0 UV-I 0 W/m -4,9 C -3,1 C 6,4 km/h (2 Bft) 95,65 %
29.12.2017 22:40 -3,1 C 3,3 C 87 % 1007,9 hPa 0,0 l/m 4,8 km/h (1 Bft) NO 45 0 min 0,000 mm 0,0 UV-I 0 W/m -4,9 C -3,1 C 8,0 km/h (2 Bft) 91,30 %
29.12.2017 22:41 -3,1 C 3,3 C 87 % 1008,0 hPa 0,0 l/m 4,8 km/h (1 Bft) O-NO 67 0 min 0,000 mm 0,0 UV-I 0 W/m -4,9 C -3,1 C 8,0 km/h (2 Bft) 95,65 %
29.12.2017 22:42 -3,1 C 3,3 C 87 % 1008,0 hPa 0,0 l/m 3,2 km/h (1 Bft) O-NO 67 0 min 0,000 mm 0,0 UV-I 0 W/m -4,9 C -3,1 C 4,8 km/h (1 Bft) 95,65 %
29.12.2017 22:43 -3,0 C 3,3 C 87 % 1008,0 hPa 0,0 l/m 4,8 km/h (1 Bft) NO 45 0 min 0,000 mm 0,0 UV-I 0 W/m -4,9 C -3,0 C 8,0 km/h (2 Bft) 95,65 %
29.12.2017 22:44 -3,0 C 3,3 C 87 % 1007,9 hPa 0,0 l/m 6,4 km/h (2 Bft) NO 45 0 min 0,000 mm 0,0 UV-I 0 W/m -4,9 C -3,0 C 8,0 km/h (2 Bft) 95,65 %
29.12.2017 22:45 -3,0 C 3,3 C 87 % 1008,0 hPa 0,0 l/m 6,4 km/h (2 Bft) O-NO 67 0 min 0,000 mm 0,0 UV-I 0 W/m -4,9 C -3,0 C 9,7 km/h (2 Bft) 91,30 %
29.12.2017 22:46 -3,0 C 3,3 C 87 % 1008,0 hPa 0,0 l/m 6,4 km/h (2 Bft) NO 45 0 min 0,000 mm 0,0 UV-I 0 W/m -4,9 C -3,0 C 8,0 km/h (2 Bft) 91,30 %
29.12.2017 22:47 -3,0 C 3,3 C 87 % 1008,0 hPa 0,0 l/m 6,4 km/h (2 Bft) NO 45 0 min 0,000 mm 0,0 UV-I 0 W/m -4,9 C -3,0 C 8,0 km/h (2 Bft) 91,30 %
29.12.2017 22:48 -3,0 C 3,3 C 87 % 1008,0 hPa 0,0 l/m 4,8 km/h (1 Bft) NO 45 0 min 0,000 mm 0,0 UV-I 0 W/m -4,9 C -3,0 C 6,4 km/h (2 Bft) 95,65 %
29.12.2017 22:49 -3,0 C 3,3 C 87 % 1008,0 hPa 0,0 l/m 4,8 km/h (1 Bft) NO 45 0 min 0,000 mm 0,0 UV-I 0 W/m -4,9 C -3,0 C 6,4 km/h (2 Bft) 95,65 %
29.12.2017 22:50 -3,0 C 3,3 C 87 % 1008,0 hPa 0,0 l/m 6,4 km/h (2 Bft) NO 45 0 min 0,000 mm 0,0 UV-I 0 W/m -4,9 C -3,0 C 8,0 km/h (2 Bft) 95,65 %
29.12.2017 22:51 -3,0 C 3,3 C 87 % 1008,0 hPa 0,0 l/m 6,4 km/h (2 Bft) O-NO 67 0 min 0,000 mm 0,0 UV-I 0 W/m -4,9 C -3,0 C 8,0 km/h (2 Bft) 100,00 %
29.12.2017 22:52 -2,9 C 3,3 C 87 % 1008,0 hPa 0,0 l/m 6,4 km/h (2 Bft) NO 45 0 min 0,000 mm 0,0 UV-I 0 W/m -4,8 C -2,9 C 8,0 km/h (2 Bft) 91,30 %
29.12.2017 22:53 -2,9 C 3,3 C 87 % 1008,1 hPa 0,0 l/m 6,4 km/h (2 Bft) O-NO 67 0 min 0,000 mm 0,0 UV-I 0 W/m -4,8 C -2,9 C 9,7 km/h (2 Bft) 100,00 %
29.12.2017 22:54 -2,9 C 3,3 C 87 % 1008,1 hPa 0,0 l/m 6,4 km/h (2 Bft) O-NO 67 0 min 0,000 mm 0,0 UV-I 0 W/m -4,8 C -2,9 C 9,7 km/h (2 Bft) 95,65 %
29.12.2017 22:55 -2,9 C 3,3 C 87 % 1008,1 hPa 0,0 l/m 6,4 km/h (2 Bft) NO 45 0 min 0,000 mm 0,0 UV-I 0 W/m -4,8 C -2,9 C 8,0 km/h (2 Bft) 100,00 %
29.12.2017 22:56 -2,9 C 3,3 C 87 % 1008,0 hPa 0,0 l/m 6,4 km/h (2 Bft) NO 45 0 min 0,000 mm 0,0 UV-I 0 W/m -4,8 C -2,9 C 8,0 km/h (2 Bft) 91,30 %
29.12.2017 22:57 -2,9 C 3,3 C 87 % 1008,1 hPa 0,0 l/m 6,4 km/h (2 Bft) NO 45 0 min 0,000 mm 0,0 UV-I 0 W/m -4,8 C -2,9 C 8,0 km/h (2 Bft) 95,65 %
29.12.2017 22:58 -2,9 C 3,3 C 87 % 1008,1 hPa 0,0 l/m 6,4 km/h (2 Bft) NO 45 0 min 0,000 mm 0,0 UV-I 0 W/m -4,8 C -2,9 C 8,0 km/h (2 Bft) 100,00 %
29.12.2017 22:59 -2,9 C 3,3 C 87 % 1008,1 hPa 0,0 l/m 6,4 km/h (2 Bft) NO 45 0 min 0,000 mm 0,0 UV-I 0 W/m -4,8 C -2,9 C 8,0 km/h (2 Bft) 91,30 %
29.12.2017 23:00 -2,9 C 3,3 C 87 % 1008,1 hPa 0,0 l/m 6,4 km/h (2 Bft) O-NO 67 0 min 0,000 mm 0,0 UV-I 0 W/m -4,8 C -2,9 C 9,7 km/h (2 Bft) 100,00 %
29.12.2017 23:01 -2,9 C 3,3 C 87 % 1008,1 hPa 0,0 l/m 4,8 km/h (1 Bft) O-NO 67 0 min 0,000 mm 0,0 UV-I 0 W/m -4,8 C -2,9 C 8,0 km/h (2 Bft) 100,00 %
29.12.2017 23:02 -3,0 C 3,3 C 87 % 1008,1 hPa 0,0 l/m 4,8 km/h (1 Bft) NO 45 0 min 0,000 mm 0,0 UV-I 0 W/m -4,9 C -3,0 C 6,4 km/h (2 Bft) 100,00 %
29.12.2017 23:03 -3,0 C 3,3 C 87 % 1008,0 hPa 0,0 l/m 6,4 km/h (2 Bft) NO 45 0 min 0,000 mm 0,0 UV-I 0 W/m -4,9 C -3,0 C 6,4 km/h (2 Bft) 100,00 %
29.12.2017 23:04 -3,0 C 3,3 C 87 % 1008,0 hPa 0,0 l/m 4,8 km/h (1 Bft) O-NO 67 0 min 0,000 mm 0,0 UV-I 0 W/m -4,9 C -3,0 C 6,4 km/h (2 Bft) 100,00 %
29.12.2017 23:05 -3,0 C 3,3 C 87 % 1008,0 hPa 0,0 l/m 4,8 km/h (1 Bft) O-NO 67 0 min 0,000 mm 0,0 UV-I 0 W/m -4,9 C -3,0 C 6,4 km/h (2 Bft) 100,00 %
29.12.2017 23:06 -3,0 C 3,3 C 87 % 1008,1 hPa 0,0 l/m 4,8 km/h (1 Bft) O-NO 67 0 min 0,000 mm 0,0 UV-I 0 W/m -4,9 C -3,0 C 4,8 km/h (1 Bft) 95,65 %
29.12.2017 23:07 -3,0 C 3,3 C 87 % 1008,1 hPa 0,0 l/m 4,8 km/h (1 Bft) O-NO 67 0 min 0,000 mm 0,0 UV-I 0 W/m -4,9 C -3,0 C 8,0 km/h (2 Bft) 100,00 %
29.12.2017 23:08 -3,0 C 3,3 C 87 % 1008,1 hPa 0,0 l/m 4,8 km/h (1 Bft) O-NO 67 0 min 0,000 mm 0,0 UV-I 0 W/m -4,9 C -3,0 C 6,4 km/h (2 Bft) 100,00 %
29.12.2017 23:09 -3,0 C 3,3 C 88 % 1008,1 hPa 0,0 l/m 4,8 km/h (1 Bft) O-NO 67 0 min 0,000 mm 0,0 UV-I 0 W/m -4,7 C -3,0 C 8,0 km/h (2 Bft) 100,00 %
29.12.2017 23:10 -3,0 C 3,3 C 88 % 1008,2 hPa 0,0 l/m 4,8 km/h (1 Bft) NO 45 0 min 0,000 mm 0,0 UV-I 0 W/m -4,7 C -3,0 C 6,4 km/h (2 Bft) 100,00 %
29.12.2017 23:11 -3,0 C 3,3 C 88 % 1008,2 hPa 0,0 l/m 4,8 km/h (1 Bft) NO 45 0 min 0,000 mm 0,0 UV-I 0 W/m -4,7 C -3,0 C 6,4 km/h (2 Bft) 100,00 %
29.12.2017 23:12 -3,0 C 3,3 C 88 % 1008,2 hPa 0,0 l/m 6,4 km/h (2 Bft) NO 45 0 min 0,000 mm 0,0 UV-I 0 W/m -4,7 C -3,0 C 8,0 km/h (2 Bft) 100,00 %
29.12.2017 23:13 -3,0 C 3,3 C 88 % 1008,2 hPa 0,0 l/m 3,2 km/h (1 Bft) NO 45 0 min 0,000 mm 0,0 UV-I 0 W/m -4,7 C -3,0 C 6,4 km/h (2 Bft) 91,30 %
29.12.2017 23:14 -3,0 C 3,3 C 88 % 1008,2 hPa 0,0 l/m 4,8 km/h (1 Bft) NO 45 0 min 0,000 mm 0,0 UV-I 0 W/m -4,7 C -3,0 C 6,4 km/h (2 Bft) 95,65 %
29.12.2017 23:15 -3,0 C 3,3 C 88 % 1008,2 hPa 0,0 l/m 4,8 km/h (1 Bft) NO 45 0 min 0,000 mm 0,0 UV-I 0 W/m -4,7 C -3,0 C 6,4 km/h (2 Bft) 100,00 %
29.12.2017 23:16 -3,0 C 3,3 C 88 % 1008,2 hPa 0,0 l/m 3,2 km/h (1 Bft) NO 45 0 min 0,000 mm 0,0 UV-I 0 W/m -4,7 C -3,0 C 4,8 km/h (1 Bft) 100,00 %
29.12.2017 23:17 -2,9 C 3,3 C 88 % 1008,2 hPa 0,0 l/m 4,8 km/h (1 Bft) NO 45 0 min 0,000 mm 0,0 UV-I 0 W/m -4,6 C -2,9 C 6,4 km/h (2 Bft) 100,00 %
29.12.2017 23:18 -2,9 C 3,3 C 88 % 1008,2 hPa 0,0 l/m 6,4 km/h (2 Bft) NO 45 0 min 0,000 mm 0,0 UV-I 0 W/m -4,6 C -2,9 C 8,0 km/h (2 Bft) 95,65 %
29.12.2017 23:19 -2,9 C 3,3 C 88 % 1008,1 hPa 0,0 l/m 6,4 km/h (2 Bft) NO 45 0 min 0,000 mm 0,0 UV-I 0 W/m -4,6 C -2,9 C 8,0 km/h (2 Bft) 100,00 %
29.12.2017 23:20 -2,9 C 3,3 C 88 % 1008,1 hPa 0,0 l/m 6,4 km/h (2 Bft) NO 45 0 min 0,000 mm 0,0 UV-I 0 W/m -4,6 C -2,9 C 8,0 km/h (2 Bft) 95,65 %
29.12.2017 23:21 -2,9 C 3,3 C 88 % 1008,1 hPa 0,0 l/m 4,8 km/h (1 Bft) NO 45 0 min 0,000 mm 0,0 UV-I 0 W/m -4,6 C -2,9 C 6,4 km/h (2 Bft) 100,00 %
29.12.2017 23:22 -2,9 C 3,3 C 88 % 1008,0 hPa 0,0 l/m 3,2 km/h (1 Bft) NO 45 0 min 0,000 mm 0,0 UV-I 0 W/m -4,6 C -2,9 C 4,8 km/h (1 Bft) 100,00 %
29.12.2017 23:23 -2,9 C 3,3 C 88 % 1008,0 hPa 0,0 l/m 3,2 km/h (1 Bft) NO 45 0 min 0,000 mm 0,0 UV-I 0 W/m -4,6 C -2,9 C 4,8 km/h (1 Bft) 95,65 %
29.12.2017 23:24 -2,9 C 3,3 C 88 % 1008,0 hPa 0,0 l/m 3,2 km/h (1 Bft) NO 45 0 min 0,000 mm 0,0 UV-I 0 W/m -4,6 C -2,9 C 4,8 km/h (1 Bft) 91,30 %
29.12.2017 23:25 -2,9 C 3,3 C 88 % 1008,0 hPa 0,0 l/m 4,8 km/h (1 Bft) NO 45 0 min 0,000 mm 0,0 UV-I 0 W/m -4,6 C -2,9 C 6,4 km/h (2 Bft) 100,00 %
29.12.2017 23:26 -2,9 C 3,3 C 88 % 1007,9 hPa 0,0 l/m 4,8 km/h (1 Bft) O-NO 67 0 min 0,000 mm 0,0 UV-I 0 W/m -4,6 C -2,9 C 6,4 km/h (2 Bft) 100,00 %
29.12.2017 23:27 -2,9 C 3,3 C 88 % 1007,9 hPa 0,0 l/m 6,4 km/h (2 Bft) O-NO 67 0 min 0,000 mm 0,0 UV-I 0 W/m -4,6 C -2,9 C 6,4 km/h (2 Bft) 95,65 %
29.12.2017 23:28 -2,9 C 3,3 C 88 % 1008,0 hPa 0,0 l/m 3,2 km/h (1 Bft) O-NO 67 0 min 0,000 mm 0,0 UV-I 0 W/m -4,6 C -2,9 C 4,8 km/h (1 Bft) 100,00 %
29.12.2017 23:29 -2,9 C 3,3 C 88 % 1008,0 hPa 0,0 l/m 3,2 km/h (1 Bft) O-NO 67 0 min 0,000 mm 0,0 UV-I 0 W/m -4,6 C -2,9 C 6,4 km/h (2 Bft) 100,00 %
29.12.2017 23:30 -2,9 C 3,3 C 88 % 1008,0 hPa 0,0 l/m 4,8 km/h (1 Bft) O-NO 67 0 min 0,000 mm 0,0 UV-I 0 W/m -4,6 C -2,9 C 6,4 km/h (2 Bft) 100,00 %
29.12.2017 23:31 -2,9 C 3,3 C 89 % 1008,0 hPa 0,0 l/m 3,2 km/h (1 Bft) O-NO 67 0 min 0,000 mm 0,0 UV-I 0 W/m -4,5 C -2,9 C 4,8 km/h (1 Bft) 100,00 %
29.12.2017 23:32 -2,9 C 3,3 C 89 % 1008,1 hPa 0,0 l/m 4,8 km/h (1 Bft) O-NO 67 0 min 0,000 mm 0,0 UV-I 0 W/m -4,5 C -2,9 C 6,4 km/h (2 Bft) 100,00 %
29.12.2017 23:33 -2,9 C 3,3 C 88 % 1008,0 hPa 0,0 l/m 3,2 km/h (1 Bft) O-NO 67 0 min 0,000 mm 0,0 UV-I 0 W/m -4,6 C -2,9 C 4,8 km/h (1 Bft) 100,00 %
29.12.2017 23:34 -2,9 C 3,3 C 88 % 1008,0 hPa 0,0 l/m 4,8 km/h (1 Bft) O-NO 67 0 min 0,000 mm 0,0 UV-I 0 W/m -4,6 C -2,9 C 6,4 km/h (2 Bft) 91,30 %
29.12.2017 23:35 -2,9 C 3,3 C 89 % 1008,0 hPa 0,0 l/m 4,8 km/h (1 Bft) O-NO 67 0 min 0,000 mm 0,0 UV-I 0 W/m -4,5 C -2,9 C 6,4 km/h (2 Bft) 100,00 %
29.12.2017 23:36 -2,9 C 3,3 C 89 % 1008,0 hPa 0,0 l/m 4,8 km/h (1 Bft) O-NO 67 0 min 0,000 mm 0,0 UV-I 0 W/m -4,5 C -2,9 C 4,8 km/h (1 Bft) 100,00 %
29.12.2017 23:37 -2,9 C 3,3 C 89 % 1008,0 hPa 0,0 l/m 3,2 km/h (1 Bft) O-NO 67 0 min 0,000 mm 0,0 UV-I 0 W/m -4,5 C -2,9 C 4,8 km/h (1 Bft) 100,00 %
29.12.2017 23:38 -2,9 C 3,3 C 89 % 1008,0 hPa 0,0 l/m 3,2 km/h (1 Bft) O-NO 67 0 min 0,000 mm 0,0 UV-I 0 W/m -4,5 C -2,9 C 6,4 km/h (2 Bft) 100,00 %
29.12.2017 23:39 -2,9 C 3,3 C 89 % 1008,0 hPa 0,0 l/m 4,8 km/h (1 Bft) O-NO 67 0 min 0,000 mm 0,0 UV-I 0 W/m -4,5 C -2,9 C 6,4 km/h (2 Bft) 100,00 %
29.12.2017 23:40 -2,9 C 3,3 C 89 % 1008,0 hPa 0,0 l/m 4,8 km/h (1 Bft) O-NO 67 0 min 0,000 mm 0,0 UV-I 0 W/m -4,5 C -2,9 C 6,4 km/h (2 Bft) 100,00 %
29.12.2017 23:41 -2,8 C 3,3 C 88 % 1008,1 hPa 0,0 l/m 3,2 km/h (1 Bft) O-NO 67 0 min 0,000 mm 0,0 UV-I 0 W/m -4,5 C -2,8 C 3,2 km/h (1 Bft) 95,65 %
29.12.2017 23:42 -2,8 C 3,3 C 88 % 1008,1 hPa 0,0 l/m 1,6 km/h (1 Bft) O-NO 67 0 min 0,000 mm 0,0 UV-I 0 W/m -4,5 C -2,8 C 4,8 km/h (1 Bft) 95,65 %
29.12.2017 23:43 -2,8 C 3,3 C 88 % 1008,2 hPa 0,0 l/m 0,0 km/h (0 Bft) O-NO 67 0 min 0,000 mm 0,0 UV-I 0 W/m -4,5 C -2,8 C 1,6 km/h (1 Bft) 95,65 %
29.12.2017 23:44 -2,8 C 3,3 C 88 % 1008,1 hPa 0,0 l/m 0,0 km/h (0 Bft) O-NO 67 0 min 0,000 mm 0,0 UV-I 0 W/m -4,5 C -2,8 C 1,6 km/h (1 Bft) 86,96 %
29.12.2017 23:45 -2,8 C 3,3 C 88 % 1008,1 hPa 0,0 l/m 0,0 km/h (0 Bft) O-NO 67 0 min 0,000 mm 0,0 UV-I 0 W/m -4,5 C -2,8 C 1,6 km/h (1 Bft) 100,00 %
29.12.2017 23:46 -2,8 C 3,3 C 88 % 1008,1 hPa 0,0 l/m 0,0 km/h (0 Bft) O-NO 67 0 min 0,000 mm 0,0 UV-I 0 W/m -4,5 C -2,8 C 1,6 km/h (1 Bft) 95,65 %
29.12.2017 23:47 -2,8 C 3,3 C 88 % 1008,1 hPa 0,0 l/m 0,0 km/h (0 Bft) O-NO 67 0 min 0,000 mm 0,0 UV-I 0 W/m -4,5 C -2,8 C 1,6 km/h (1 Bft) 100,00 %
29.12.2017 23:48 -2,8 C 3,3 C 88 % 1008,1 hPa 0,0 l/m 1,6 km/h (1 Bft) O-NO 67 0 min 0,000 mm 0,0 UV-I 0 W/m -4,5 C -2,8 C 3,2 km/h (1 Bft) 91,30 %
29.12.2017 23:49 -2,8 C 3,3 C 88 % 1008,1 hPa 0,0 l/m 0,0 km/h (0 Bft) O-NO 67 0 min 0,000 mm 0,0 UV-I 0 W/m -4,5 C -2,8 C 1,6 km/h (1 Bft) 100,00 %
29.12.2017 23:50 -2,8 C 3,3 C 88 % 1008,2 hPa 0,0 l/m 0,0 km/h (0 Bft) N 0 0 min 0,000 mm 0,0 UV-I 0 W/m -4,5 C -2,8 C 0,0 km/h (0 Bft) 91,30 %
29.12.2017 23:51 -2,8 C 3,3 C 88 % 1008,3 hPa 0,0 l/m 0,0 km/h (0 Bft) N 0 0 min 0,000 mm 0,0 UV-I 0 W/m -4,5 C -2,8 C 0,0 km/h (0 Bft) 95,65 %
29.12.2017 23:52 -2,8 C 3,3 C 88 % 1008,3 hPa 0,0 l/m 0,0 km/h (0 Bft) N 0 0 min 0,000 mm 0,0 UV-I 0 W/m -4,5 C -2,8 C 0,0 km/h (0 Bft) 100,00 %
29.12.2017 23:53 -2,8 C 3,3 C 88 % 1008,4 hPa 0,0 l/m 3,2 km/h (1 Bft) O-NO 67 0 min 0,000 mm 0,0 UV-I 0 W/m -4,5 C -2,8 C 4,8 km/h (1 Bft) 95,65 %
29.12.2017 23:54 -2,8 C 3,3 C 88 % 1008,5 hPa 0,0 l/m 3,2 km/h (1 Bft) O-NO 67 0 min 0,000 mm 0,0 UV-I 0 W/m -4,5 C -2,8 C 4,8 km/h (1 Bft) 100,00 %
29.12.2017 23:55 -2,8 C 3,3 C 88 % 1008,6 hPa 0,0 l/m 3,2 km/h (1 Bft) O-NO 67 0 min 0,000 mm 0,0 UV-I 0 W/m -4,5 C -2,8 C 6,4 km/h (2 Bft) 86,96 %
29.12.2017 23:56 -2,8 C 3,3 C 88 % 1008,7 hPa 0,0 l/m 4,8 km/h (1 Bft) S-SO 157 0 min 0,000 mm 0,0 UV-I 0 W/m -4,5 C -2,8 C 6,4 km/h (2 Bft) 100,00 %
29.12.2017 23:57 -2,8 C 3,3 C 88 % 1008,7 hPa 0,0 l/m 6,4 km/h (2 Bft) S-SW 202 0 min 0,000 mm 0,0 UV-I 0 W/m -4,5 C -2,8 C 6,4 km/h (2 Bft) 95,65 %
29.12.2017 23:58 -2,8 C 3,3 C 88 % 1008,7 hPa 0,0 l/m 3,2 km/h (1 Bft) S-SW 202 0 min 0,000 mm 0,0 UV-I 0 W/m -4,5 C -2,8 C 4,8 km/h (1 Bft) 100,00 %
29.12.2017 23:59 -2,8 C 3,3 C 88 % 1008,7 hPa 0,0 l/m 4,8 km/h (1 Bft) S-SW 202 0 min 0,000 mm 0,0 UV-I 0 W/m -4,5 C -2,8 C 6,4 km/h (2 Bft) 91,30 %
_ Min-Zeit 20:52 09:19 14:47 00:00 - 17:02 - - - - - - 20:06 07:27 17:41 06:33
Minimum _ -3,3 C 3,3 C 59 % 1006,3 hPa - 0,0 km/h (0 Bft) - - - - - - -5,8 C -12,8 C 0,0 km/h (0 Bft) 13,04 %
_ Max-Zeit 13:48 00:00 00:00 11:29 11:43 02:06 - - 10:18 13:00 11:59 11:46 00:00 14:59 03:41 00:00
Maximum _ 2,3 C 3,9 C 92 % 1013,3 hPa 0,2 l/m 27,4 km/h
W-SW (4 Bft)
- - 1 min 0,152 mm 0,6 UV-I 353 W/m -0,3 C 1,9 C 46,7 km/h
W (6 Bft)
100,00 %
Durchschnitt _ -0,2 C 3,6 C 80 % 1010,8 hPa #0,2 l/m 12,0 km/h (2 Bft) W-SW - #4:52 h #0,885 mm 0,5 UV-I 146 W/m -3,4 C -5,1 C 17,1 km/h (3 Bft) 97,16 %